<?xml version='1.0' encoding='UTF-8'?><gpx version="1.1" creator="JPX - https://github.com/jenetics/jpx" xmlns="http://www.topografix.com/GPX/1/1"><trk><trkseg><trkpt lat="43.2101653" lon="10.9043693"><ele>557.9999999999999</ele><time>2026-04-25T12:42:48.695Z</time></trkpt><trkpt lat="43.2101004" lon="10.9043841"><ele>558.0</ele><time>2026-04-25T12:43:37.719Z</time></trkpt><trkpt lat="43.2100149" lon="10.9044169"><ele>558.0</ele><time>2026-04-25T12:43:39.694Z</time></trkpt><trkpt lat="43.2099528" lon="10.9044336"><ele>558.0</ele><time>2026-04-25T12:43:40.712Z</time></trkpt><trkpt lat="43.2098891" lon="10.9044411"><ele>558.0</ele><time>2026-04-25T12:43:41.711Z</time></trkpt><trkpt lat="43.2098155" lon="10.9044531"><ele>557.9999999999999</ele><time>2026-04-25T12:43:42.727Z</time></trkpt><trkpt lat="43.2097404" lon="10.9044603"><ele>558.0</ele><time>2026-04-25T12:43:43.677Z</time></trkpt><trkpt lat="43.2096668" lon="10.904456"><ele>562.4</ele><time>2026-04-25T12:43:44.717Z</time></trkpt><trkpt lat="43.2095596" lon="10.9044257"><ele>566.8</ele><time>2026-04-25T12:43:46.703Z</time></trkpt><trkpt lat="43.2094825" lon="10.9042937"><ele>571.2</ele><time>2026-04-25T12:43:48.683Z</time></trkpt><trkpt lat="43.2094606" lon="10.904194"><ele>575.6</ele><time>2026-04-25T12:43:49.685Z</time></trkpt><trkpt lat="43.2094483" lon="10.9040893"><ele>580.0</ele><time>2026-04-25T12:43:50.711Z</time></trkpt><trkpt lat="43.2094407" lon="10.9039786"><ele>582.0</ele><time>2026-04-25T12:43:51.73Z</time></trkpt><trkpt lat="43.2094487" lon="10.9038632"><ele>584.0</ele><time>2026-04-25T12:43:52.689Z</time></trkpt><trkpt lat="43.2094854" lon="10.9037526"><ele>586.0</ele><time>2026-04-25T12:43:53.706Z</time></trkpt><trkpt lat="43.2095365" lon="10.9036348"><ele>588.0</ele><time>2026-04-25T12:43:54.728Z</time></trkpt><trkpt lat="43.2095877" lon="10.9035253"><ele>590.0</ele><time>2026-04-25T12:43:55.722Z</time></trkpt><trkpt lat="43.2096411" lon="10.9034276"><ele>589.4</ele><time>2026-04-25T12:43:56.699Z</time></trkpt><trkpt lat="43.2097173" lon="10.9033437"><ele>588.8</ele><time>2026-04-25T12:43:57.725Z</time></trkpt><trkpt lat="43.2097997" lon="10.9032749"><ele>588.2</ele><time>2026-04-25T12:43:58.76Z</time></trkpt><trkpt lat="43.2098861" lon="10.9032099"><ele>587.6</ele><time>2026-04-25T12:43:59.737Z</time></trkpt><trkpt lat="43.2099689" lon="10.9031408"><ele>587.0</ele><time>2026-04-25T12:44:00.723Z</time></trkpt><trkpt lat="43.2100475" lon="10.9030611"><ele>585.2</ele><time>2026-04-25T12:44:01.728Z</time></trkpt><trkpt lat="43.2101271" lon="10.9029787"><ele>583.4000000000001</ele><time>2026-04-25T12:44:02.69Z</time></trkpt><trkpt lat="43.2101931" lon="10.9028735"><ele>581.5999999999999</ele><time>2026-04-25T12:44:03.708Z</time></trkpt><trkpt lat="43.2102535" lon="10.9027654"><ele>579.8</ele><time>2026-04-25T12:44:04.701Z</time></trkpt><trkpt lat="43.2102936" lon="10.9026415"><ele>578.0</ele><time>2026-04-25T12:44:05.695Z</time></trkpt><trkpt lat="43.2103306" lon="10.9025117"><ele>578.0</ele><time>2026-04-25T12:44:06.703Z</time></trkpt><trkpt lat="43.2103585" lon="10.9023883"><ele>578.0</ele><time>2026-04-25T12:44:07.721Z</time></trkpt><trkpt lat="43.2103795" lon="10.9022607"><ele>578.0</ele><time>2026-04-25T12:44:08.714Z</time></trkpt><trkpt lat="43.2104043" lon="10.9021263"><ele>578.0</ele><time>2026-04-25T12:44:09.704Z</time></trkpt><trkpt lat="43.210417" lon="10.9019826"><ele>578.0</ele><time>2026-04-25T12:44:10.701Z</time></trkpt><trkpt lat="43.2104317" lon="10.9018463"><ele>579.3333333333333</ele><time>2026-04-25T12:44:11.718Z</time></trkpt><trkpt lat="43.2104449" lon="10.9017254"><ele>580.6666666666666</ele><time>2026-04-25T12:44:12.693Z</time></trkpt><trkpt lat="43.2104452" lon="10.9016147"><ele>582.0</ele><time>2026-04-25T12:44:13.724Z</time></trkpt><trkpt lat="43.2104486" lon="10.9015121"><ele>583.3333333333334</ele><time>2026-04-25T12:44:14.718Z</time></trkpt><trkpt lat="43.2104509" lon="10.9014116"><ele>584.6666666666667</ele><time>2026-04-25T12:44:15.712Z</time></trkpt><trkpt lat="43.2104558" lon="10.9013092"><ele>586.0</ele><time>2026-04-25T12:44:16.707Z</time></trkpt><trkpt lat="43.2104628" lon="10.901205"><ele>586.0</ele><time>2026-04-25T12:44:17.707Z</time></trkpt><trkpt lat="43.2104748" lon="10.9011018"><ele>586.0</ele><time>2026-04-25T12:44:18.713Z</time></trkpt><trkpt lat="43.2104822" lon="10.9009966"><ele>586.0</ele><time>2026-04-25T12:44:19.697Z</time></trkpt><trkpt lat="43.2104864" lon="10.9008925"><ele>586.0</ele><time>2026-04-25T12:44:20.704Z</time></trkpt><trkpt lat="43.2104922" lon="10.9007911"><ele>586.0</ele><time>2026-04-25T12:44:21.69Z</time></trkpt><trkpt lat="43.2105032" lon="10.9006864"><ele>586.0</ele><time>2026-04-25T12:44:22.717Z</time></trkpt><trkpt lat="43.2105237" lon="10.9005775"><ele>586.5</ele><time>2026-04-25T12:44:23.72Z</time></trkpt><trkpt lat="43.2105506" lon="10.9004718"><ele>587.0</ele><time>2026-04-25T12:44:24.717Z</time></trkpt><trkpt lat="43.2105793" lon="10.9003689"><ele>587.5</ele><time>2026-04-25T12:44:25.717Z</time></trkpt><trkpt lat="43.2106184" lon="10.9002808"><ele>588.0</ele><time>2026-04-25T12:44:26.723Z</time></trkpt><trkpt lat="43.2106704" lon="10.9002059"><ele>588.5</ele><time>2026-04-25T12:44:27.707Z</time></trkpt><trkpt lat="43.2107288" lon="10.9001497"><ele>589.0</ele><time>2026-04-25T12:44:28.726Z</time></trkpt><trkpt lat="43.2107946" lon="10.9001039"><ele>588.1666666666667</ele><time>2026-04-25T12:44:29.7Z</time></trkpt><trkpt lat="43.2108577" lon="10.9000554"><ele>587.3333333333334</ele><time>2026-04-25T12:44:30.7Z</time></trkpt><trkpt lat="43.2109223" lon="10.8999962"><ele>586.5</ele><time>2026-04-25T12:44:31.72Z</time></trkpt><trkpt lat="43.21099" lon="10.8999325"><ele>585.6666666666666</ele><time>2026-04-25T12:44:32.717Z</time></trkpt><trkpt lat="43.2110605" lon="10.8998769"><ele>584.8333333333333</ele><time>2026-04-25T12:44:33.708Z</time></trkpt><trkpt lat="43.2111325" lon="10.8998216"><ele>584.0</ele><time>2026-04-25T12:44:34.693Z</time></trkpt><trkpt lat="43.211208" lon="10.8997747"><ele>584.0</ele><time>2026-04-25T12:44:35.69Z</time></trkpt><trkpt lat="43.2112773" lon="10.8997244"><ele>584.0</ele><time>2026-04-25T12:44:36.698Z</time></trkpt><trkpt lat="43.2113457" lon="10.8996758"><ele>584.0</ele><time>2026-04-25T12:44:37.717Z</time></trkpt><trkpt lat="43.2114126" lon="10.8996325"><ele>584.0</ele><time>2026-04-25T12:44:38.697Z</time></trkpt><trkpt lat="43.211484" lon="10.8995945"><ele>584.0</ele><time>2026-04-25T12:44:39.709Z</time></trkpt><trkpt lat="43.2115598" lon="10.899554"><ele>584.0</ele><time>2026-04-25T12:44:40.714Z</time></trkpt><trkpt lat="43.2116425" lon="10.8995271"><ele>583.8333333333333</ele><time>2026-04-25T12:44:41.717Z</time></trkpt><trkpt lat="43.2117268" lon="10.8995053"><ele>583.6666666666666</ele><time>2026-04-25T12:44:42.702Z</time></trkpt><trkpt lat="43.2118116" lon="10.899487"><ele>583.5</ele><time>2026-04-25T12:44:43.72Z</time></trkpt><trkpt lat="43.2118981" lon="10.8994662"><ele>583.3333333333334</ele><time>2026-04-25T12:44:44.71Z</time></trkpt><trkpt lat="43.2119811" lon="10.8994434"><ele>583.1666666666667</ele><time>2026-04-25T12:44:45.716Z</time></trkpt><trkpt lat="43.2120698" lon="10.899422"><ele>583.0</ele><time>2026-04-25T12:44:46.692Z</time></trkpt><trkpt lat="43.2121546" lon="10.8994097"><ele>583.0</ele><time>2026-04-25T12:44:47.716Z</time></trkpt><trkpt lat="43.2122463" lon="10.8994099"><ele>583.0</ele><time>2026-04-25T12:44:48.707Z</time></trkpt><trkpt lat="43.2123402" lon="10.899412"><ele>583.0</ele><time>2026-04-25T12:44:49.719Z</time></trkpt><trkpt lat="43.2124376" lon="10.8994178"><ele>583.0</ele><time>2026-04-25T12:44:50.7Z</time></trkpt><trkpt lat="43.2125319" lon="10.8994396"><ele>583.0</ele><time>2026-04-25T12:44:51.675Z</time></trkpt><trkpt lat="43.2126265" lon="10.8994764"><ele>583.8</ele><time>2026-04-25T12:44:52.681Z</time></trkpt><trkpt lat="43.2127187" lon="10.8995304"><ele>584.5999999999999</ele><time>2026-04-25T12:44:53.711Z</time></trkpt><trkpt lat="43.2128225" lon="10.8995736"><ele>585.4000000000001</ele><time>2026-04-25T12:44:54.716Z</time></trkpt><trkpt lat="43.2129271" lon="10.899612"><ele>586.2</ele><time>2026-04-25T12:44:55.711Z</time></trkpt><trkpt lat="43.213034" lon="10.8996378"><ele>587.0</ele><time>2026-04-25T12:44:56.709Z</time></trkpt><trkpt lat="43.2131463" lon="10.8996488"><ele>588.75</ele><time>2026-04-25T12:44:57.698Z</time></trkpt><trkpt lat="43.2132572" lon="10.8996585"><ele>590.5</ele><time>2026-04-25T12:44:58.701Z</time></trkpt><trkpt lat="43.2133674" lon="10.899667"><ele>592.25</ele><time>2026-04-25T12:44:59.723Z</time></trkpt><trkpt lat="43.2134814" lon="10.8996674"><ele>594.0</ele><time>2026-04-25T12:45:00.718Z</time></trkpt><trkpt lat="43.2135963" lon="10.899669"><ele>594.0</ele><time>2026-04-25T12:45:01.726Z</time></trkpt><trkpt lat="43.2137112" lon="10.8996652"><ele>594.0</ele><time>2026-04-25T12:45:02.7Z</time></trkpt><trkpt lat="43.2138214" lon="10.8996431"><ele>594.0</ele><time>2026-04-25T12:45:03.728Z</time></trkpt><trkpt lat="43.2139311" lon="10.8995986"><ele>594.0</ele><time>2026-04-25T12:45:04.735Z</time></trkpt><trkpt lat="43.2140357" lon="10.8995358"><ele>594.25</ele><time>2026-04-25T12:45:05.72Z</time></trkpt><trkpt lat="43.2141404" lon="10.8994612"><ele>594.5</ele><time>2026-04-25T12:45:06.715Z</time></trkpt><trkpt lat="43.214243" lon="10.8993898"><ele>594.75</ele><time>2026-04-25T12:45:07.697Z</time></trkpt><trkpt lat="43.2143492" lon="10.8993209"><ele>595.0</ele><time>2026-04-25T12:45:08.691Z</time></trkpt><trkpt lat="43.21446" lon="10.8992541"><ele>597.75</ele><time>2026-04-25T12:45:09.729Z</time></trkpt><trkpt lat="43.2145811" lon="10.8991918"><ele>600.5</ele><time>2026-04-25T12:45:10.724Z</time></trkpt><trkpt lat="43.2147052" lon="10.8991382"><ele>603.25</ele><time>2026-04-25T12:45:11.718Z</time></trkpt><trkpt lat="43.2148293" lon="10.8990932"><ele>606.0</ele><time>2026-04-25T12:45:12.698Z</time></trkpt><trkpt lat="43.214952" lon="10.8990621"><ele>606.25</ele><time>2026-04-25T12:45:13.7Z</time></trkpt><trkpt lat="43.2150723" lon="10.8990521"><ele>606.5</ele><time>2026-04-25T12:45:14.716Z</time></trkpt><trkpt lat="43.2151901" lon="10.8990476"><ele>606.75</ele><time>2026-04-25T12:45:15.748Z</time></trkpt><trkpt lat="43.215308" lon="10.8990102"><ele>607.0</ele><time>2026-04-25T12:45:16.699Z</time></trkpt><trkpt lat="43.2154182" lon="10.8989217"><ele>607.0</ele><time>2026-04-25T12:45:17.701Z</time></trkpt><trkpt lat="43.2155182" lon="10.8988036"><ele>607.0</ele><time>2026-04-25T12:45:18.697Z</time></trkpt><trkpt lat="43.2156227" lon="10.8986997"><ele>607.0</ele><time>2026-04-25T12:45:19.712Z</time></trkpt><trkpt lat="43.2157574" lon="10.8986312"><ele>607.0</ele><time>2026-04-25T12:45:20.712Z</time></trkpt><trkpt lat="43.2159055" lon="10.8985678"><ele>607.3333333333334</ele><time>2026-04-25T12:45:21.734Z</time></trkpt><trkpt lat="43.2160605" lon="10.8984927"><ele>607.6666666666666</ele><time>2026-04-25T12:45:22.704Z</time></trkpt><trkpt lat="43.2162207" lon="10.8984126"><ele>608.0</ele><time>2026-04-25T12:45:23.719Z</time></trkpt><trkpt lat="43.2163803" lon="10.8983361"><ele>609.3333333333333</ele><time>2026-04-25T12:45:24.7Z</time></trkpt><trkpt lat="43.2165439" lon="10.898258"><ele>610.6666666666666</ele><time>2026-04-25T12:45:25.723Z</time></trkpt><trkpt lat="43.2167068" lon="10.8981724"><ele>612.0</ele><time>2026-04-25T12:45:26.716Z</time></trkpt><trkpt lat="43.2168699" lon="10.8980861"><ele>612.0</ele><time>2026-04-25T12:45:27.713Z</time></trkpt><trkpt lat="43.2170332" lon="10.8980057"><ele>612.0</ele><time>2026-04-25T12:45:28.692Z</time></trkpt><trkpt lat="43.2172038" lon="10.8979176"><ele>612.0</ele><time>2026-04-25T12:45:29.721Z</time></trkpt><trkpt lat="43.2173857" lon="10.8978229"><ele>612.0</ele><time>2026-04-25T12:45:30.71Z</time></trkpt><trkpt lat="43.2175714" lon="10.897731"><ele>612.0</ele><time>2026-04-25T12:45:31.711Z</time></trkpt><trkpt lat="43.2177635" lon="10.8976357"><ele>612.0</ele><time>2026-04-25T12:45:32.708Z</time></trkpt><trkpt lat="43.2179628" lon="10.8975385"><ele>611.6666666666666</ele><time>2026-04-25T12:45:33.717Z</time></trkpt><trkpt lat="43.2181616" lon="10.8974365"><ele>611.3333333333333</ele><time>2026-04-25T12:45:34.721Z</time></trkpt><trkpt lat="43.2183662" lon="10.8973346"><ele>611.0</ele><time>2026-04-25T12:45:35.723Z</time></trkpt><trkpt lat="43.2185706" lon="10.8972349"><ele>611.0</ele><time>2026-04-25T12:45:36.701Z</time></trkpt><trkpt lat="43.2187724" lon="10.8971308"><ele>611.0</ele><time>2026-04-25T12:45:37.708Z</time></trkpt><trkpt lat="43.2189752" lon="10.8970241"><ele>611.0</ele><time>2026-04-25T12:45:38.715Z</time></trkpt><trkpt lat="43.2191817" lon="10.8969125"><ele>612.0</ele><time>2026-04-25T12:45:39.719Z</time></trkpt><trkpt lat="43.2193811" lon="10.8967995"><ele>613.0</ele><time>2026-04-25T12:45:40.712Z</time></trkpt><trkpt lat="43.2195701" lon="10.8966801"><ele>614.0</ele><time>2026-04-25T12:45:41.725Z</time></trkpt><trkpt lat="43.2197538" lon="10.8965705"><ele>611.0</ele><time>2026-04-25T12:45:42.72Z</time></trkpt><trkpt lat="43.2199278" lon="10.8964513"><ele>608.0</ele><time>2026-04-25T12:45:43.72Z</time></trkpt><trkpt lat="43.2200878" lon="10.896325"><ele>605.0</ele><time>2026-04-25T12:45:44.724Z</time></trkpt><trkpt lat="43.2202272" lon="10.8961651"><ele>605.0</ele><time>2026-04-25T12:45:45.718Z</time></trkpt><trkpt lat="43.2203508" lon="10.8959658"><ele>605.0</ele><time>2026-04-25T12:45:46.698Z</time></trkpt><trkpt lat="43.2204537" lon="10.8957632"><ele>605.0</ele><time>2026-04-25T12:45:47.703Z</time></trkpt><trkpt lat="43.2205256" lon="10.89554"><ele>602.0</ele><time>2026-04-25T12:45:48.702Z</time></trkpt><trkpt lat="43.2205822" lon="10.89531"><ele>599.0</ele><time>2026-04-25T12:45:49.734Z</time></trkpt><trkpt lat="43.2206122" lon="10.8950592"><ele>596.0</ele><time>2026-04-25T12:45:50.709Z</time></trkpt><trkpt lat="43.2206164" lon="10.8947956"><ele>595.0</ele><time>2026-04-25T12:45:51.725Z</time></trkpt><trkpt lat="43.2205953" lon="10.8945315"><ele>594.0</ele><time>2026-04-25T12:45:52.7Z</time></trkpt><trkpt lat="43.2205597" lon="10.8942615"><ele>593.0</ele><time>2026-04-25T12:45:53.726Z</time></trkpt><trkpt lat="43.2205114" lon="10.8939868"><ele>591.6666666666666</ele><time>2026-04-25T12:45:54.719Z</time></trkpt><trkpt lat="43.2204697" lon="10.8937045"><ele>590.3333333333334</ele><time>2026-04-25T12:45:55.738Z</time></trkpt><trkpt lat="43.2204253" lon="10.8934206"><ele>589.0</ele><time>2026-04-25T12:45:56.695Z</time></trkpt><trkpt lat="43.2203794" lon="10.8931291"><ele>585.6666666666667</ele><time>2026-04-25T12:45:57.734Z</time></trkpt><trkpt lat="43.2203337" lon="10.8928392"><ele>582.3333333333334</ele><time>2026-04-25T12:45:58.718Z</time></trkpt><trkpt lat="43.2202889" lon="10.8925563"><ele>579.0</ele><time>2026-04-25T12:45:59.714Z</time></trkpt><trkpt lat="43.2202468" lon="10.8922871"><ele>575.3333333333334</ele><time>2026-04-25T12:46:00.714Z</time></trkpt><trkpt lat="43.2202071" lon="10.8920358"><ele>571.6666666666667</ele><time>2026-04-25T12:46:01.718Z</time></trkpt><trkpt lat="43.2201768" lon="10.8917919"><ele>568.0</ele><time>2026-04-25T12:46:02.714Z</time></trkpt><trkpt lat="43.2201776" lon="10.8915591"><ele>565.0</ele><time>2026-04-25T12:46:03.693Z</time></trkpt><trkpt lat="43.2202323" lon="10.8913349"><ele>562.0</ele><time>2026-04-25T12:46:04.702Z</time></trkpt><trkpt lat="43.2203269" lon="10.8911323"><ele>559.0</ele><time>2026-04-25T12:46:05.704Z</time></trkpt><trkpt lat="43.2204495" lon="10.8909633"><ele>556.0</ele><time>2026-04-25T12:46:06.696Z</time></trkpt><trkpt lat="43.2206009" lon="10.8908337"><ele>553.0</ele><time>2026-04-25T12:46:07.692Z</time></trkpt><trkpt lat="43.2207622" lon="10.8907674"><ele>550.0</ele><time>2026-04-25T12:46:08.702Z</time></trkpt><trkpt lat="43.2209254" lon="10.890802"><ele>551.0</ele><time>2026-04-25T12:46:09.711Z</time></trkpt><trkpt lat="43.2210919" lon="10.8908727"><ele>552.0</ele><time>2026-04-25T12:46:10.73Z</time></trkpt><trkpt lat="43.2212681" lon="10.8909599"><ele>553.0</ele><time>2026-04-25T12:46:11.711Z</time></trkpt><trkpt lat="43.2214369" lon="10.8910298"><ele>550.0</ele><time>2026-04-25T12:46:12.714Z</time></trkpt><trkpt lat="43.2216061" lon="10.8910772"><ele>547.0</ele><time>2026-04-25T12:46:13.725Z</time></trkpt><trkpt lat="43.221765" lon="10.8910882"><ele>544.0</ele><time>2026-04-25T12:46:14.724Z</time></trkpt><trkpt lat="43.2219286" lon="10.8910535"><ele>544.0</ele><time>2026-04-25T12:46:15.718Z</time></trkpt><trkpt lat="43.2220904" lon="10.8909679"><ele>544.0</ele><time>2026-04-25T12:46:16.719Z</time></trkpt><trkpt lat="43.2222537" lon="10.8908479"><ele>544.0</ele><time>2026-04-25T12:46:17.711Z</time></trkpt><trkpt lat="43.2224084" lon="10.8907401"><ele>542.3333333333334</ele><time>2026-04-25T12:46:18.725Z</time></trkpt><trkpt lat="43.2225816" lon="10.8907314"><ele>540.6666666666666</ele><time>2026-04-25T12:46:19.717Z</time></trkpt><trkpt lat="43.2227784" lon="10.8907984"><ele>539.0</ele><time>2026-04-25T12:46:20.729Z</time></trkpt><trkpt lat="43.2229528" lon="10.8909282"><ele>539.0</ele><time>2026-04-25T12:46:21.737Z</time></trkpt><trkpt lat="43.2231384" lon="10.8910827"><ele>539.0</ele><time>2026-04-25T12:46:22.7Z</time></trkpt><trkpt lat="43.2233263" lon="10.891225"><ele>539.0</ele><time>2026-04-25T12:46:23.734Z</time></trkpt><trkpt lat="43.2235062" lon="10.8913603"><ele>532.6666666666666</ele><time>2026-04-25T12:46:24.733Z</time></trkpt><trkpt lat="43.2236824" lon="10.8914954"><ele>526.3333333333334</ele><time>2026-04-25T12:46:25.719Z</time></trkpt><trkpt lat="43.2238408" lon="10.8916223"><ele>520.0</ele><time>2026-04-25T12:46:26.709Z</time></trkpt><trkpt lat="43.2239867" lon="10.8917365"><ele>523.0</ele><time>2026-04-25T12:46:27.683Z</time></trkpt><trkpt lat="43.2241258" lon="10.8918266"><ele>526.0</ele><time>2026-04-25T12:46:28.713Z</time></trkpt><trkpt lat="43.2242809" lon="10.8918595"><ele>529.0</ele><time>2026-04-25T12:46:29.727Z</time></trkpt><trkpt lat="43.2244356" lon="10.8918118"><ele>524.5</ele><time>2026-04-25T12:46:30.706Z</time></trkpt><trkpt lat="43.2245633" lon="10.891691"><ele>520.0</ele><time>2026-04-25T12:46:31.725Z</time></trkpt><trkpt lat="43.2246425" lon="10.891542"><ele>515.5</ele><time>2026-04-25T12:46:32.706Z</time></trkpt><trkpt lat="43.2246669" lon="10.8913568"><ele>511.0</ele><time>2026-04-25T12:46:33.703Z</time></trkpt><trkpt lat="43.2246439" lon="10.891148"><ele>511.0</ele><time>2026-04-25T12:46:34.7Z</time></trkpt><trkpt lat="43.2245665" lon="10.8909625"><ele>511.0</ele><time>2026-04-25T12:46:35.713Z</time></trkpt><trkpt lat="43.2244423" lon="10.8907744"><ele>511.0</ele><time>2026-04-25T12:46:36.719Z</time></trkpt><trkpt lat="43.2243167" lon="10.8905764"><ele>507.33333333333337</ele><time>2026-04-25T12:46:37.72Z</time></trkpt><trkpt lat="43.2241959" lon="10.8903716"><ele>503.66666666666663</ele><time>2026-04-25T12:46:38.695Z</time></trkpt><trkpt lat="43.2240849" lon="10.8901657"><ele>500.0</ele><time>2026-04-25T12:46:39.719Z</time></trkpt><trkpt lat="43.22399" lon="10.8899783"><ele>501.75</ele><time>2026-04-25T12:46:40.733Z</time></trkpt><trkpt lat="43.2239135" lon="10.8898078"><ele>503.5</ele><time>2026-04-25T12:46:41.741Z</time></trkpt><trkpt lat="43.223879" lon="10.8896568"><ele>505.25</ele><time>2026-04-25T12:46:42.713Z</time></trkpt><trkpt lat="43.2238853" lon="10.8895029"><ele>507.0</ele><time>2026-04-25T12:46:43.704Z</time></trkpt><trkpt lat="43.2239455" lon="10.889355"><ele>503.25</ele><time>2026-04-25T12:46:44.725Z</time></trkpt><trkpt lat="43.2240648" lon="10.8892778"><ele>499.5</ele><time>2026-04-25T12:46:45.699Z</time></trkpt><trkpt lat="43.2242013" lon="10.8893083"><ele>495.75</ele><time>2026-04-25T12:46:46.711Z</time></trkpt><trkpt lat="43.2243365" lon="10.8893637"><ele>492.0</ele><time>2026-04-25T12:46:47.736Z</time></trkpt><trkpt lat="43.2244561" lon="10.8894104"><ele>492.0</ele><time>2026-04-25T12:46:48.724Z</time></trkpt><trkpt lat="43.224565" lon="10.8894512"><ele>492.00000000000006</ele><time>2026-04-25T12:46:49.723Z</time></trkpt><trkpt lat="43.2246733" lon="10.8894896"><ele>492.00000000000006</ele><time>2026-04-25T12:46:50.722Z</time></trkpt><trkpt lat="43.2247869" lon="10.8895318"><ele>492.0</ele><time>2026-04-25T12:46:51.707Z</time></trkpt><trkpt lat="43.2248846" lon="10.8895467"><ele>492.0</ele><time>2026-04-25T12:46:52.721Z</time></trkpt><trkpt lat="43.2249804" lon="10.8895253"><ele>490.8</ele><time>2026-04-25T12:46:53.69Z</time></trkpt><trkpt lat="43.225051" lon="10.8894584"><ele>489.6</ele><time>2026-04-25T12:46:54.726Z</time></trkpt><trkpt lat="43.2250312" lon="10.889336"><ele>488.40000000000003</ele><time>2026-04-25T12:46:55.729Z</time></trkpt><trkpt lat="43.2249499" lon="10.8892536"><ele>487.20000000000005</ele><time>2026-04-25T12:46:56.725Z</time></trkpt><trkpt lat="43.2248513" lon="10.8891906"><ele>486.0</ele><time>2026-04-25T12:46:57.727Z</time></trkpt><trkpt lat="43.2247444" lon="10.8891203"><ele>485.4</ele><time>2026-04-25T12:46:58.708Z</time></trkpt><trkpt lat="43.2246474" lon="10.8890521"><ele>484.8</ele><time>2026-04-25T12:46:59.698Z</time></trkpt><trkpt lat="43.2245472" lon="10.8889817"><ele>484.19999999999993</ele><time>2026-04-25T12:47:00.69Z</time></trkpt><trkpt lat="43.2244537" lon="10.8889126"><ele>483.59999999999997</ele><time>2026-04-25T12:47:01.73Z</time></trkpt><trkpt lat="43.2243944" lon="10.88884"><ele>483.0</ele><time>2026-04-25T12:47:02.705Z</time></trkpt><trkpt lat="43.2243929" lon="10.888741"><ele>483.0</ele><time>2026-04-25T12:47:03.704Z</time></trkpt><trkpt lat="43.2244504" lon="10.8886595"><ele>482.99999999999994</ele><time>2026-04-25T12:47:04.707Z</time></trkpt><trkpt lat="43.2245441" lon="10.8886624"><ele>482.99999999999994</ele><time>2026-04-25T12:47:05.704Z</time></trkpt><trkpt lat="43.2246594" lon="10.8887402"><ele>483.0</ele><time>2026-04-25T12:47:06.719Z</time></trkpt><trkpt lat="43.2247847" lon="10.8888239"><ele>483.0</ele><time>2026-04-25T12:47:07.726Z</time></trkpt><trkpt lat="43.2249041" lon="10.8888827"><ele>481.4</ele><time>2026-04-25T12:47:08.7Z</time></trkpt><trkpt lat="43.2250136" lon="10.8888958"><ele>479.79999999999995</ele><time>2026-04-25T12:47:09.746Z</time></trkpt><trkpt lat="43.2251076" lon="10.8888668"><ele>478.2</ele><time>2026-04-25T12:47:10.708Z</time></trkpt><trkpt lat="43.225137" lon="10.8887658"><ele>476.6</ele><time>2026-04-25T12:47:11.7Z</time></trkpt><trkpt lat="43.2250931" lon="10.888628"><ele>475.0</ele><time>2026-04-25T12:47:12.695Z</time></trkpt><trkpt lat="43.2249935" lon="10.8885301"><ele>475.0</ele><time>2026-04-25T12:47:13.73Z</time></trkpt><trkpt lat="43.2248595" lon="10.8884526"><ele>475.0</ele><time>2026-04-25T12:47:14.72Z</time></trkpt><trkpt lat="43.2247218" lon="10.8883347"><ele>475.0</ele><time>2026-04-25T12:47:15.723Z</time></trkpt><trkpt lat="43.2245806" lon="10.888195"><ele>472.8</ele><time>2026-04-25T12:47:16.715Z</time></trkpt><trkpt lat="43.2244602" lon="10.8880795"><ele>470.6</ele><time>2026-04-25T12:47:17.72Z</time></trkpt><trkpt lat="43.2243625" lon="10.8879961"><ele>468.4</ele><time>2026-04-25T12:47:18.707Z</time></trkpt><trkpt lat="43.2242987" lon="10.887909"><ele>466.2</ele><time>2026-04-25T12:47:19.705Z</time></trkpt><trkpt lat="43.224284" lon="10.8878084"><ele>464.0</ele><time>2026-04-25T12:47:20.698Z</time></trkpt><trkpt lat="43.224323" lon="10.8876919"><ele>464.0</ele><time>2026-04-25T12:47:21.716Z</time></trkpt><trkpt lat="43.2244097" lon="10.8875953"><ele>464.0</ele><time>2026-04-25T12:47:22.705Z</time></trkpt><trkpt lat="43.2245154" lon="10.8875171"><ele>464.0</ele><time>2026-04-25T12:47:23.701Z</time></trkpt><trkpt lat="43.2246249" lon="10.8874386"><ele>464.0</ele><time>2026-04-25T12:47:24.724Z</time></trkpt><trkpt lat="43.2247315" lon="10.8873549"><ele>463.25</ele><time>2026-04-25T12:47:25.735Z</time></trkpt><trkpt lat="43.2248371" lon="10.8872672"><ele>462.5</ele><time>2026-04-25T12:47:26.713Z</time></trkpt><trkpt lat="43.2249448" lon="10.8871841"><ele>461.75</ele><time>2026-04-25T12:47:27.692Z</time></trkpt><trkpt lat="43.2250582" lon="10.8871027"><ele>461.0</ele><time>2026-04-25T12:47:28.707Z</time></trkpt><trkpt lat="43.2251721" lon="10.8870233"><ele>461.0</ele><time>2026-04-25T12:47:29.703Z</time></trkpt><trkpt lat="43.2252833" lon="10.8869475"><ele>461.0</ele><time>2026-04-25T12:47:30.715Z</time></trkpt><trkpt lat="43.2253915" lon="10.8868685"><ele>461.0</ele><time>2026-04-25T12:47:31.705Z</time></trkpt><trkpt lat="43.2255047" lon="10.8867921"><ele>461.0</ele><time>2026-04-25T12:47:32.717Z</time></trkpt><trkpt lat="43.2256142" lon="10.8867121"><ele>460.0</ele><time>2026-04-25T12:47:33.737Z</time></trkpt><trkpt lat="43.2257189" lon="10.886625"><ele>459.0</ele><time>2026-04-25T12:47:34.718Z</time></trkpt><trkpt lat="43.225804" lon="10.8865111"><ele>458.0</ele><time>2026-04-25T12:47:35.72Z</time></trkpt><trkpt lat="43.2258665" lon="10.8863693"><ele>457.0</ele><time>2026-04-25T12:47:36.717Z</time></trkpt><trkpt lat="43.225911" lon="10.886218"><ele>457.0</ele><time>2026-04-25T12:47:37.693Z</time></trkpt><trkpt lat="43.225941" lon="10.8860486"><ele>457.0</ele><time>2026-04-25T12:47:38.696Z</time></trkpt><trkpt lat="43.2259678" lon="10.8858765"><ele>457.0</ele><time>2026-04-25T12:47:39.738Z</time></trkpt><trkpt lat="43.2259953" lon="10.8857017"><ele>457.0</ele><time>2026-04-25T12:47:40.728Z</time></trkpt><trkpt lat="43.2260233" lon="10.8855316"><ele>460.25</ele><time>2026-04-25T12:47:41.728Z</time></trkpt><trkpt lat="43.2260506" lon="10.885358"><ele>463.5</ele><time>2026-04-25T12:47:42.734Z</time></trkpt><trkpt lat="43.2260786" lon="10.8851849"><ele>466.75</ele><time>2026-04-25T12:47:43.72Z</time></trkpt><trkpt lat="43.2261037" lon="10.885008"><ele>470.0</ele><time>2026-04-25T12:47:44.693Z</time></trkpt><trkpt lat="43.2261344" lon="10.8848315"><ele>472.75</ele><time>2026-04-25T12:47:45.737Z</time></trkpt><trkpt lat="43.2261662" lon="10.8846532"><ele>475.5</ele><time>2026-04-25T12:47:46.71Z</time></trkpt><trkpt lat="43.2261992" lon="10.8844754"><ele>478.25</ele><time>2026-04-25T12:47:47.711Z</time></trkpt><trkpt lat="43.2262274" lon="10.884279"><ele>481.0</ele><time>2026-04-25T12:47:48.723Z</time></trkpt><trkpt lat="43.226262" lon="10.8840542"><ele>481.33333333333337</ele><time>2026-04-25T12:47:49.747Z</time></trkpt><trkpt lat="43.2262999" lon="10.8838213"><ele>481.66666666666663</ele><time>2026-04-25T12:47:50.719Z</time></trkpt><trkpt lat="43.2263427" lon="10.8835663"><ele>482.0</ele><time>2026-04-25T12:47:51.727Z</time></trkpt><trkpt lat="43.2263896" lon="10.8833044"><ele>483.66666666666663</ele><time>2026-04-25T12:47:52.719Z</time></trkpt><trkpt lat="43.2264309" lon="10.8830537"><ele>485.33333333333337</ele><time>2026-04-25T12:47:53.717Z</time></trkpt><trkpt lat="43.2264765" lon="10.8828332"><ele>487.0</ele><time>2026-04-25T12:47:54.693Z</time></trkpt><trkpt lat="43.2265458" lon="10.8826276"><ele>482.33333333333337</ele><time>2026-04-25T12:47:55.704Z</time></trkpt><trkpt lat="43.2266578" lon="10.8824417"><ele>477.66666666666663</ele><time>2026-04-25T12:47:56.728Z</time></trkpt><trkpt lat="43.2267908" lon="10.8822448"><ele>473.0</ele><time>2026-04-25T12:47:57.694Z</time></trkpt><trkpt lat="43.2269251" lon="10.8820358"><ele>473.0</ele><time>2026-04-25T12:47:58.715Z</time></trkpt><trkpt lat="43.2270636" lon="10.8818304"><ele>473.0</ele><time>2026-04-25T12:47:59.701Z</time></trkpt><trkpt lat="43.2272155" lon="10.8816423"><ele>473.0</ele><time>2026-04-25T12:48:00.718Z</time></trkpt><trkpt lat="43.2273729" lon="10.8814641"><ele>474.3333333333333</ele><time>2026-04-25T12:48:01.732Z</time></trkpt><trkpt lat="43.2275448" lon="10.8813069"><ele>475.66666666666663</ele><time>2026-04-25T12:48:02.729Z</time></trkpt><trkpt lat="43.2277087" lon="10.8811532"><ele>477.0</ele><time>2026-04-25T12:48:03.736Z</time></trkpt><trkpt lat="43.2278663" lon="10.8810034"><ele>477.0</ele><time>2026-04-25T12:48:04.731Z</time></trkpt><trkpt lat="43.2280135" lon="10.8808468"><ele>477.0</ele><time>2026-04-25T12:48:05.723Z</time></trkpt><trkpt lat="43.2281518" lon="10.8806782"><ele>477.0</ele><time>2026-04-25T12:48:06.721Z</time></trkpt><trkpt lat="43.2282823" lon="10.8804944"><ele>477.0</ele><time>2026-04-25T12:48:07.692Z</time></trkpt><trkpt lat="43.2283924" lon="10.880278"><ele>477.0</ele><time>2026-04-25T12:48:08.711Z</time></trkpt><trkpt lat="43.2284859" lon="10.8800258"><ele>477.0</ele><time>2026-04-25T12:48:09.701Z</time></trkpt><trkpt lat="43.2285697" lon="10.8797585"><ele>479.33333333333337</ele><time>2026-04-25T12:48:10.729Z</time></trkpt><trkpt lat="43.2286476" lon="10.8794895"><ele>481.6666666666667</ele><time>2026-04-25T12:48:11.714Z</time></trkpt><trkpt lat="43.2287183" lon="10.8792285"><ele>484.0</ele><time>2026-04-25T12:48:12.719Z</time></trkpt><trkpt lat="43.2287786" lon="10.8789637"><ele>485.33333333333337</ele><time>2026-04-25T12:48:13.697Z</time></trkpt><trkpt lat="43.2287983" lon="10.8786791"><ele>486.66666666666663</ele><time>2026-04-25T12:48:14.694Z</time></trkpt><trkpt lat="43.2287653" lon="10.8784008"><ele>488.0</ele><time>2026-04-25T12:48:15.7Z</time></trkpt><trkpt lat="43.2287193" lon="10.8781333"><ele>489.0</ele><time>2026-04-25T12:48:16.726Z</time></trkpt><trkpt lat="43.2286952" lon="10.8778629"><ele>490.0</ele><time>2026-04-25T12:48:17.716Z</time></trkpt><trkpt lat="43.2287268" lon="10.8775894"><ele>491.0</ele><time>2026-04-25T12:48:18.729Z</time></trkpt><trkpt lat="43.2287873" lon="10.8773273"><ele>488.3333333333333</ele><time>2026-04-25T12:48:19.711Z</time></trkpt><trkpt lat="43.2288461" lon="10.8770669"><ele>485.66666666666663</ele><time>2026-04-25T12:48:20.706Z</time></trkpt><trkpt lat="43.2289221" lon="10.8768369"><ele>483.0</ele><time>2026-04-25T12:48:21.709Z</time></trkpt><trkpt lat="43.2290352" lon="10.8766425"><ele>483.0</ele><time>2026-04-25T12:48:22.698Z</time></trkpt><trkpt lat="43.2291754" lon="10.8765107"><ele>483.0</ele><time>2026-04-25T12:48:23.703Z</time></trkpt><trkpt lat="43.2293183" lon="10.87643"><ele>483.0</ele><time>2026-04-25T12:48:24.719Z</time></trkpt><trkpt lat="43.2294638" lon="10.8763786"><ele>483.0</ele><time>2026-04-25T12:48:25.766Z</time></trkpt><trkpt lat="43.2296074" lon="10.8763423"><ele>483.0</ele><time>2026-04-25T12:48:26.717Z</time></trkpt><trkpt lat="43.2297312" lon="10.8763203"><ele>483.0</ele><time>2026-04-25T12:48:27.721Z</time></trkpt><trkpt lat="43.2298263" lon="10.8762935"><ele>483.0</ele><time>2026-04-25T12:48:28.713Z</time></trkpt><trkpt lat="43.2299118" lon="10.8762747"><ele>482.2</ele><time>2026-04-25T12:48:29.705Z</time></trkpt><trkpt lat="43.2299751" lon="10.8762588"><ele>481.4</ele><time>2026-04-25T12:48:30.704Z</time></trkpt><trkpt lat="43.2300605" lon="10.8761835"><ele>480.59999999999997</ele><time>2026-04-25T12:48:32.731Z</time></trkpt><trkpt lat="43.2300241" lon="10.8760529"><ele>479.79999999999995</ele><time>2026-04-25T12:48:34.73Z</time></trkpt><trkpt lat="43.2299405" lon="10.8759995"><ele>479.0</ele><time>2026-04-25T12:48:35.731Z</time></trkpt><trkpt lat="43.2298428" lon="10.8759214"><ele>482.0</ele><time>2026-04-25T12:48:36.69Z</time></trkpt><trkpt lat="43.2297361" lon="10.8758396"><ele>485.0</ele><time>2026-04-25T12:48:37.718Z</time></trkpt><trkpt lat="43.2296261" lon="10.8757267"><ele>488.0</ele><time>2026-04-25T12:48:38.718Z</time></trkpt><trkpt lat="43.2295392" lon="10.8755577"><ele>491.0</ele><time>2026-04-25T12:48:39.743Z</time></trkpt><trkpt lat="43.2294675" lon="10.8753506"><ele>491.0</ele><time>2026-04-25T12:48:40.733Z</time></trkpt><trkpt lat="43.2293872" lon="10.8751517"><ele>491.0</ele><time>2026-04-25T12:48:41.723Z</time></trkpt><trkpt lat="43.2292743" lon="10.8749803"><ele>491.0</ele><time>2026-04-25T12:48:42.724Z</time></trkpt><trkpt lat="43.229136" lon="10.8748428"><ele>496.0</ele><time>2026-04-25T12:48:43.705Z</time></trkpt><trkpt lat="43.2289674" lon="10.8747266"><ele>501.0</ele><time>2026-04-25T12:48:44.707Z</time></trkpt><trkpt lat="43.2287975" lon="10.8745948"><ele>506.0</ele><time>2026-04-25T12:48:45.728Z</time></trkpt><trkpt lat="43.2286462" lon="10.8744263"><ele>503.0</ele><time>2026-04-25T12:48:46.727Z</time></trkpt><trkpt lat="43.2284976" lon="10.8742534"><ele>500.0</ele><time>2026-04-25T12:48:47.746Z</time></trkpt><trkpt lat="43.2283523" lon="10.8740919"><ele>497.0</ele><time>2026-04-25T12:48:48.74Z</time></trkpt><trkpt lat="43.2282173" lon="10.8739636"><ele>502.66666666666663</ele><time>2026-04-25T12:48:49.723Z</time></trkpt><trkpt lat="43.2280765" lon="10.8738748"><ele>508.33333333333337</ele><time>2026-04-25T12:48:50.723Z</time></trkpt><trkpt lat="43.2279222" lon="10.8738463"><ele>514.0</ele><time>2026-04-25T12:48:51.746Z</time></trkpt><trkpt lat="43.2277654" lon="10.8738463"><ele>514.0</ele><time>2026-04-25T12:48:52.712Z</time></trkpt><trkpt lat="43.2276165" lon="10.8738583"><ele>514.0</ele><time>2026-04-25T12:48:53.734Z</time></trkpt><trkpt lat="43.22747" lon="10.8738565"><ele>514.0</ele><time>2026-04-25T12:48:54.73Z</time></trkpt><trkpt lat="43.22736" lon="10.8738075"><ele>514.0</ele><time>2026-04-25T12:48:55.717Z</time></trkpt><trkpt lat="43.2272837" lon="10.8736852"><ele>515.5</ele><time>2026-04-25T12:48:56.709Z</time></trkpt><trkpt lat="43.2272393" lon="10.8735324"><ele>517.0</ele><time>2026-04-25T12:48:57.734Z</time></trkpt><trkpt lat="43.2272949" lon="10.8733661"><ele>518.5</ele><time>2026-04-25T12:48:58.741Z</time></trkpt><trkpt lat="43.2273651" lon="10.8732104"><ele>520.0</ele><time>2026-04-25T12:48:59.701Z</time></trkpt><trkpt lat="43.227457" lon="10.8730408"><ele>517.6666666666667</ele><time>2026-04-25T12:49:00.731Z</time></trkpt><trkpt lat="43.2275683" lon="10.8728506"><ele>515.3333333333334</ele><time>2026-04-25T12:49:01.715Z</time></trkpt><trkpt lat="43.2276684" lon="10.8726637"><ele>513.0</ele><time>2026-04-25T12:49:02.742Z</time></trkpt><trkpt lat="43.227736" lon="10.8724603"><ele>513.0</ele><time>2026-04-25T12:49:03.751Z</time></trkpt><trkpt lat="43.2277681" lon="10.872256"><ele>513.0</ele><time>2026-04-25T12:49:04.738Z</time></trkpt><trkpt lat="43.2277565" lon="10.8720395"><ele>513.0</ele><time>2026-04-25T12:49:05.722Z</time></trkpt><trkpt lat="43.2277281" lon="10.8718024"><ele>513.0</ele><time>2026-04-25T12:49:06.728Z</time></trkpt><trkpt lat="43.2277027" lon="10.8715673"><ele>513.0</ele><time>2026-04-25T12:49:07.729Z</time></trkpt><trkpt lat="43.227677" lon="10.8713349"><ele>513.0</ele><time>2026-04-25T12:49:08.727Z</time></trkpt><trkpt lat="43.2276527" lon="10.8711215"><ele>510.0</ele><time>2026-04-25T12:49:09.701Z</time></trkpt><trkpt lat="43.227625" lon="10.8709263"><ele>507.0</ele><time>2026-04-25T12:49:10.725Z</time></trkpt><trkpt lat="43.2276268" lon="10.8707229"><ele>504.0</ele><time>2026-04-25T12:49:11.737Z</time></trkpt><trkpt lat="43.2276716" lon="10.870517"><ele>504.0</ele><time>2026-04-25T12:49:12.737Z</time></trkpt><trkpt lat="43.2277477" lon="10.8703238"><ele>504.0</ele><time>2026-04-25T12:49:13.73Z</time></trkpt><trkpt lat="43.2278453" lon="10.8701514"><ele>504.0</ele><time>2026-04-25T12:49:14.724Z</time></trkpt><trkpt lat="43.2279694" lon="10.8700167"><ele>504.5</ele><time>2026-04-25T12:49:15.732Z</time></trkpt><trkpt lat="43.228099" lon="10.8699095"><ele>505.0</ele><time>2026-04-25T12:49:16.723Z</time></trkpt><trkpt lat="43.2282108" lon="10.8697928"><ele>505.5</ele><time>2026-04-25T12:49:17.736Z</time></trkpt><trkpt lat="43.2282931" lon="10.8696248"><ele>506.0</ele><time>2026-04-25T12:49:18.702Z</time></trkpt><trkpt lat="43.2283622" lon="10.8694283"><ele>503.3333333333333</ele><time>2026-04-25T12:49:19.735Z</time></trkpt><trkpt lat="43.2284154" lon="10.8692249"><ele>500.66666666666663</ele><time>2026-04-25T12:49:20.711Z</time></trkpt><trkpt lat="43.228451" lon="10.8690204"><ele>498.0</ele><time>2026-04-25T12:49:21.743Z</time></trkpt><trkpt lat="43.2284319" lon="10.8688225"><ele>498.0</ele><time>2026-04-25T12:49:22.745Z</time></trkpt><trkpt lat="43.2283671" lon="10.8686591"><ele>498.0</ele><time>2026-04-25T12:49:23.729Z</time></trkpt><trkpt lat="43.228282" lon="10.8685071"><ele>498.0</ele><time>2026-04-25T12:49:24.713Z</time></trkpt><trkpt lat="43.2282323" lon="10.8683084"><ele>498.0</ele><time>2026-04-25T12:49:25.732Z</time></trkpt><trkpt lat="43.2282749" lon="10.8681315"><ele>496.5</ele><time>2026-04-25T12:49:26.7Z</time></trkpt><trkpt lat="43.2283615" lon="10.8679797"><ele>495.0</ele><time>2026-04-25T12:49:27.733Z</time></trkpt><trkpt lat="43.22662" lon="10.8655695"><ele>493.66666666666663</ele><time>2026-04-25T12:49:47.738Z</time></trkpt><trkpt lat="43.2264844" lon="10.8654547"><ele>492.3333333333333</ele><time>2026-04-25T12:49:48.73Z</time></trkpt><trkpt lat="43.2263057" lon="10.8653478"><ele>491.0</ele><time>2026-04-25T12:49:49.717Z</time></trkpt><trkpt lat="43.226132" lon="10.8652462"><ele>491.0</ele><time>2026-04-25T12:49:50.739Z</time></trkpt><trkpt lat="43.2259748" lon="10.8651549"><ele>491.0</ele><time>2026-04-25T12:49:51.737Z</time></trkpt><trkpt lat="43.2258027" lon="10.8651062"><ele>491.0</ele><time>2026-04-25T12:49:52.723Z</time></trkpt><trkpt lat="43.2256262" lon="10.8651045"><ele>494.5</ele><time>2026-04-25T12:49:53.742Z</time></trkpt><trkpt lat="43.2254665" lon="10.8651417"><ele>498.0</ele><time>2026-04-25T12:49:54.712Z</time></trkpt><trkpt lat="43.2251525" lon="10.8651556"><ele>496.66666666666663</ele><time>2026-04-25T12:49:56.724Z</time></trkpt><trkpt lat="43.225002" lon="10.8650409"><ele>495.3333333333333</ele><time>2026-04-25T12:49:57.732Z</time></trkpt><trkpt lat="43.2248484" lon="10.8648934"><ele>494.0</ele><time>2026-04-25T12:49:58.697Z</time></trkpt><trkpt lat="43.2246908" lon="10.8647579"><ele>494.0</ele><time>2026-04-25T12:49:59.739Z</time></trkpt><trkpt lat="43.2244968" lon="10.8646736"><ele>494.0</ele><time>2026-04-25T12:50:00.722Z</time></trkpt><trkpt lat="43.2242855" lon="10.8646102"><ele>494.0</ele><time>2026-04-25T12:50:01.751Z</time></trkpt><trkpt lat="43.2240603" lon="10.8645402"><ele>497.0</ele><time>2026-04-25T12:50:02.737Z</time></trkpt><trkpt lat="43.2238403" lon="10.8644678"><ele>500.0</ele><time>2026-04-25T12:50:03.718Z</time></trkpt><trkpt lat="43.2236206" lon="10.8643917"><ele>500.0</ele><time>2026-04-25T12:50:04.747Z</time></trkpt><trkpt lat="43.2234171" lon="10.864323"><ele>500.0</ele><time>2026-04-25T12:50:05.718Z</time></trkpt><trkpt lat="43.2232301" lon="10.8642408"><ele>500.0</ele><time>2026-04-25T12:50:06.731Z</time></trkpt><trkpt lat="43.2230587" lon="10.8641269"><ele>495.0</ele><time>2026-04-25T12:50:07.747Z</time></trkpt><trkpt lat="43.2228929" lon="10.8639587"><ele>490.0</ele><time>2026-04-25T12:50:08.717Z</time></trkpt><trkpt lat="43.2227259" lon="10.8637606"><ele>485.0</ele><time>2026-04-25T12:50:09.745Z</time></trkpt><trkpt lat="43.2225579" lon="10.8635472"><ele>482.66666666666663</ele><time>2026-04-25T12:50:10.714Z</time></trkpt><trkpt lat="43.2223879" lon="10.8633462"><ele>480.33333333333337</ele><time>2026-04-25T12:50:11.738Z</time></trkpt><trkpt lat="43.2222268" lon="10.8631596"><ele>478.0</ele><time>2026-04-25T12:50:12.742Z</time></trkpt><trkpt lat="43.2220809" lon="10.8629867"><ele>481.0</ele><time>2026-04-25T12:50:13.74Z</time></trkpt><trkpt lat="43.2219481" lon="10.8628263"><ele>484.0</ele><time>2026-04-25T12:50:14.731Z</time></trkpt><trkpt lat="43.221841" lon="10.8626556"><ele>487.0</ele><time>2026-04-25T12:50:15.731Z</time></trkpt><trkpt lat="43.2217677" lon="10.8622122"><ele>487.0</ele><time>2026-04-25T12:50:17.723Z</time></trkpt><trkpt lat="43.2217964" lon="10.8619564"><ele>487.0</ele><time>2026-04-25T12:50:18.718Z</time></trkpt><trkpt lat="43.2218564" lon="10.8617072"><ele>487.0</ele><time>2026-04-25T12:50:19.703Z</time></trkpt><trkpt lat="43.221926" lon="10.8614779"><ele>487.33333333333337</ele><time>2026-04-25T12:50:20.728Z</time></trkpt><trkpt lat="43.2219836" lon="10.8612667"><ele>487.66666666666663</ele><time>2026-04-25T12:50:21.742Z</time></trkpt><trkpt lat="43.2219967" lon="10.8610654"><ele>488.0</ele><time>2026-04-25T12:50:22.731Z</time></trkpt><trkpt lat="43.2219523" lon="10.8608505"><ele>488.3333333333333</ele><time>2026-04-25T12:50:23.744Z</time></trkpt><trkpt lat="43.2218872" lon="10.8606226"><ele>488.66666666666663</ele><time>2026-04-25T12:50:24.746Z</time></trkpt><trkpt lat="43.2218252" lon="10.8604024"><ele>489.0</ele><time>2026-04-25T12:50:25.735Z</time></trkpt><trkpt lat="43.2218207" lon="10.8601954"><ele>489.0</ele><time>2026-04-25T12:50:26.726Z</time></trkpt><trkpt lat="43.2218852" lon="10.8599994"><ele>489.0</ele><time>2026-04-25T12:50:27.726Z</time></trkpt><trkpt lat="43.2219658" lon="10.8598026"><ele>489.0</ele><time>2026-04-25T12:50:28.719Z</time></trkpt><trkpt lat="43.2220181" lon="10.8596082"><ele>489.0</ele><time>2026-04-25T12:50:29.711Z</time></trkpt><trkpt lat="43.222013" lon="10.8593958"><ele>489.0</ele><time>2026-04-25T12:50:30.72Z</time></trkpt><trkpt lat="43.2219651" lon="10.8591827"><ele>489.0</ele><time>2026-04-25T12:50:31.713Z</time></trkpt><trkpt lat="43.2218805" lon="10.8589913"><ele>489.33333333333337</ele><time>2026-04-25T12:50:32.712Z</time></trkpt><trkpt lat="43.2217765" lon="10.8588403"><ele>489.6666666666667</ele><time>2026-04-25T12:50:33.73Z</time></trkpt><trkpt lat="43.2216405" lon="10.8587562"><ele>490.0</ele><time>2026-04-25T12:50:34.712Z</time></trkpt><trkpt lat="43.2214863" lon="10.8587376"><ele>494.0</ele><time>2026-04-25T12:50:35.744Z</time></trkpt><trkpt lat="43.2213307" lon="10.8587712"><ele>498.0</ele><time>2026-04-25T12:50:36.723Z</time></trkpt><trkpt lat="43.2209673" lon="10.8587639"><ele>498.0</ele><time>2026-04-25T12:50:38.736Z</time></trkpt><trkpt lat="43.220782" lon="10.8586788"><ele>498.0</ele><time>2026-04-25T12:50:39.744Z</time></trkpt><trkpt lat="43.2206072" lon="10.8585119"><ele>498.0</ele><time>2026-04-25T12:50:40.735Z</time></trkpt><trkpt lat="43.2204396" lon="10.8582989"><ele>498.66666666666663</ele><time>2026-04-25T12:50:41.748Z</time></trkpt><trkpt lat="43.2202918" lon="10.858061"><ele>499.3333333333333</ele><time>2026-04-25T12:50:42.724Z</time></trkpt><trkpt lat="43.2201481" lon="10.8578421"><ele>500.0</ele><time>2026-04-25T12:50:43.706Z</time></trkpt><trkpt lat="43.2199988" lon="10.8576761"><ele>498.0</ele><time>2026-04-25T12:50:44.721Z</time></trkpt><trkpt lat="43.2198339" lon="10.8575615"><ele>496.0</ele><time>2026-04-25T12:50:45.732Z</time></trkpt><trkpt lat="43.219653" lon="10.8575019"><ele>494.0</ele><time>2026-04-25T12:50:46.737Z</time></trkpt><trkpt lat="43.2194629" lon="10.8575029"><ele>494.0</ele><time>2026-04-25T12:50:47.74Z</time></trkpt><trkpt lat="43.2192786" lon="10.8575591"><ele>494.0</ele><time>2026-04-25T12:50:48.743Z</time></trkpt><trkpt lat="43.2190857" lon="10.8576713"><ele>494.0</ele><time>2026-04-25T12:50:49.741Z</time></trkpt><trkpt lat="43.2188926" lon="10.8577946"><ele>498.0</ele><time>2026-04-25T12:50:50.703Z</time></trkpt><trkpt lat="43.2187211" lon="10.8578979"><ele>502.0</ele><time>2026-04-25T12:50:51.739Z</time></trkpt><trkpt lat="43.2185763" lon="10.8579858"><ele>506.0</ele><time>2026-04-25T12:50:52.749Z</time></trkpt><trkpt lat="43.2184337" lon="10.8580485"><ele>506.0</ele><time>2026-04-25T12:50:53.748Z</time></trkpt><trkpt lat="43.2183021" lon="10.8580672"><ele>506.0</ele><time>2026-04-25T12:50:54.73Z</time></trkpt><trkpt lat="43.218189" lon="10.8580236"><ele>506.0</ele><time>2026-04-25T12:50:55.749Z</time></trkpt><trkpt lat="43.2180974" lon="10.8579069"><ele>506.0</ele><time>2026-04-25T12:50:56.722Z</time></trkpt><trkpt lat="43.2180806" lon="10.8577323"><ele>502.66666666666663</ele><time>2026-04-25T12:50:57.71Z</time></trkpt><trkpt lat="43.2181458" lon="10.8573559"><ele>499.33333333333337</ele><time>2026-04-25T12:50:59.751Z</time></trkpt><trkpt lat="43.2181643" lon="10.8571441"><ele>496.0</ele><time>2026-04-25T12:51:00.713Z</time></trkpt><trkpt lat="43.2181236" lon="10.8569207"><ele>500.33333333333337</ele><time>2026-04-25T12:51:01.731Z</time></trkpt><trkpt lat="43.2180416" lon="10.8566987"><ele>504.66666666666663</ele><time>2026-04-25T12:51:02.722Z</time></trkpt><trkpt lat="43.2179634" lon="10.8564659"><ele>509.0</ele><time>2026-04-25T12:51:03.744Z</time></trkpt><trkpt lat="43.2179237" lon="10.8562606"><ele>509.0</ele><time>2026-04-25T12:51:04.732Z</time></trkpt><trkpt lat="43.2178767" lon="10.8561084"><ele>509.0</ele><time>2026-04-25T12:51:05.716Z</time></trkpt><trkpt lat="43.2177905" lon="10.8560402"><ele>509.0</ele><time>2026-04-25T12:51:06.738Z</time></trkpt><trkpt lat="43.2176678" lon="10.8560355"><ele>509.0</ele><time>2026-04-25T12:51:07.753Z</time></trkpt><trkpt lat="43.2175325" lon="10.8560686"><ele>509.0</ele><time>2026-04-25T12:51:08.739Z</time></trkpt><trkpt lat="43.2174015" lon="10.8561345"><ele>509.0</ele><time>2026-04-25T12:51:09.731Z</time></trkpt><trkpt lat="43.217292" lon="10.8561968"><ele>509.0</ele><time>2026-04-25T12:51:10.743Z</time></trkpt><trkpt lat="43.2171901" lon="10.8562673"><ele>509.0</ele><time>2026-04-25T12:51:11.748Z</time></trkpt><trkpt lat="43.2170926" lon="10.8563213"><ele>509.79999999999995</ele><time>2026-04-25T12:51:12.721Z</time></trkpt><trkpt lat="43.2169945" lon="10.856362"><ele>510.59999999999997</ele><time>2026-04-25T12:51:13.737Z</time></trkpt><trkpt lat="43.2168985" lon="10.8563722"><ele>511.4</ele><time>2026-04-25T12:51:14.719Z</time></trkpt><trkpt lat="43.216816" lon="10.8563254"><ele>512.1999999999999</ele><time>2026-04-25T12:51:15.718Z</time></trkpt><trkpt lat="43.2167607" lon="10.856219"><ele>513.0</ele><time>2026-04-25T12:51:16.724Z</time></trkpt><trkpt lat="43.2167195" lon="10.8560874"><ele>513.0</ele><time>2026-04-25T12:51:17.752Z</time></trkpt><trkpt lat="43.2166924" lon="10.8559573"><ele>513.0</ele><time>2026-04-25T12:51:18.717Z</time></trkpt><trkpt lat="43.2166448" lon="10.8557118"><ele>513.0</ele><time>2026-04-25T12:51:20.748Z</time></trkpt><trkpt lat="43.2166038" lon="10.8556073"><ele>513.0</ele><time>2026-04-25T12:51:21.737Z</time></trkpt><trkpt lat="43.2165362" lon="10.8555259"><ele>513.0</ele><time>2026-04-25T12:51:22.74Z</time></trkpt><trkpt lat="43.2164596" lon="10.8554544"><ele>513.0</ele><time>2026-04-25T12:51:23.742Z</time></trkpt><trkpt lat="43.2163875" lon="10.8553809"><ele>513.0</ele><time>2026-04-25T12:51:24.734Z</time></trkpt><trkpt lat="43.2163102" lon="10.8553148"><ele>513.0</ele><time>2026-04-25T12:51:25.753Z</time></trkpt><trkpt lat="43.2162342" lon="10.8552528"><ele>513.0</ele><time>2026-04-25T12:51:26.719Z</time></trkpt><trkpt lat="43.2161536" lon="10.8551858"><ele>512.1666666666666</ele><time>2026-04-25T12:51:27.736Z</time></trkpt><trkpt lat="43.2160824" lon="10.8551151"><ele>511.33333333333337</ele><time>2026-04-25T12:51:28.728Z</time></trkpt><trkpt lat="43.2160167" lon="10.855029"><ele>510.5</ele><time>2026-04-25T12:51:29.747Z</time></trkpt><trkpt lat="43.2159546" lon="10.8549419"><ele>509.6666666666667</ele><time>2026-04-25T12:51:30.73Z</time></trkpt><trkpt lat="43.2158988" lon="10.8548511"><ele>508.83333333333337</ele><time>2026-04-25T12:51:31.753Z</time></trkpt><trkpt lat="43.2158388" lon="10.8547653"><ele>508.0</ele><time>2026-04-25T12:51:32.744Z</time></trkpt><trkpt lat="43.2157793" lon="10.8546867"><ele>508.00000000000006</ele><time>2026-04-25T12:51:33.741Z</time></trkpt><trkpt lat="43.2157134" lon="10.8546117"><ele>508.0</ele><time>2026-04-25T12:51:34.734Z</time></trkpt><trkpt lat="43.215645" lon="10.8545414"><ele>508.0</ele><time>2026-04-25T12:51:35.743Z</time></trkpt><trkpt lat="43.2155786" lon="10.8544696"><ele>508.0</ele><time>2026-04-25T12:51:36.733Z</time></trkpt><trkpt lat="43.2155156" lon="10.8543922"><ele>508.00000000000006</ele><time>2026-04-25T12:51:37.754Z</time></trkpt><trkpt lat="43.2154635" lon="10.8543099"><ele>508.0</ele><time>2026-04-25T12:51:38.706Z</time></trkpt><trkpt lat="43.2153983" lon="10.8542133"><ele>509.4</ele><time>2026-04-25T12:51:40.758Z</time></trkpt><trkpt lat="43.215244" lon="10.8543066"><ele>510.79999999999995</ele><time>2026-04-25T12:51:45.74Z</time></trkpt><trkpt lat="43.2151968" lon="10.8543776"><ele>512.2</ele><time>2026-04-25T12:51:46.725Z</time></trkpt><trkpt lat="43.2151296" lon="10.8544466"><ele>513.6</ele><time>2026-04-25T12:51:47.714Z</time></trkpt><trkpt lat="43.2150507" lon="10.8545338"><ele>515.0</ele><time>2026-04-25T12:51:48.74Z</time></trkpt><trkpt lat="43.2149714" lon="10.8546416"><ele>515.0</ele><time>2026-04-25T12:51:49.744Z</time></trkpt><trkpt lat="43.2148819" lon="10.854741"><ele>515.0</ele><time>2026-04-25T12:51:50.734Z</time></trkpt><trkpt lat="43.2147868" lon="10.8548387"><ele>515.0</ele><time>2026-04-25T12:51:51.723Z</time></trkpt><trkpt lat="43.2146853" lon="10.8549461"><ele>515.0</ele><time>2026-04-25T12:51:52.745Z</time></trkpt><trkpt lat="43.2145903" lon="10.8550538"><ele>515.75</ele><time>2026-04-25T12:51:53.747Z</time></trkpt><trkpt lat="43.2144955" lon="10.8551454"><ele>516.5</ele><time>2026-04-25T12:51:54.751Z</time></trkpt><trkpt lat="43.2143986" lon="10.8552139"><ele>517.25</ele><time>2026-04-25T12:51:55.754Z</time></trkpt><trkpt lat="43.2142944" lon="10.8552512"><ele>518.0</ele><time>2026-04-25T12:51:56.729Z</time></trkpt><trkpt lat="43.2141767" lon="10.8552577"><ele>518.0</ele><time>2026-04-25T12:51:57.712Z</time></trkpt><trkpt lat="43.2140536" lon="10.8552591"><ele>518.0</ele><time>2026-04-25T12:51:58.741Z</time></trkpt><trkpt lat="43.2139252" lon="10.855292"><ele>518.0</ele><time>2026-04-25T12:51:59.753Z</time></trkpt><trkpt lat="43.2137961" lon="10.8553562"><ele>518.0</ele><time>2026-04-25T12:52:00.744Z</time></trkpt><trkpt lat="43.2136698" lon="10.8554241"><ele>517.6666666666666</ele><time>2026-04-25T12:52:01.758Z</time></trkpt><trkpt lat="43.2134438" lon="10.855503"><ele>517.3333333333334</ele><time>2026-04-25T12:52:03.738Z</time></trkpt><trkpt lat="43.213341" lon="10.855473"><ele>517.0</ele><time>2026-04-25T12:52:04.731Z</time></trkpt><trkpt lat="43.2132494" lon="10.8553777"><ele>517.0</ele><time>2026-04-25T12:52:05.751Z</time></trkpt><trkpt lat="43.2131504" lon="10.8552619"><ele>517.0</ele><time>2026-04-25T12:52:06.721Z</time></trkpt><trkpt lat="43.2130457" lon="10.8551448"><ele>517.0</ele><time>2026-04-25T12:52:07.734Z</time></trkpt><trkpt lat="43.2129363" lon="10.8550108"><ele>517.0</ele><time>2026-04-25T12:52:08.712Z</time></trkpt><trkpt lat="43.2128405" lon="10.8548666"><ele>517.0</ele><time>2026-04-25T12:52:09.723Z</time></trkpt><trkpt lat="43.2127656" lon="10.8546987"><ele>517.0</ele><time>2026-04-25T12:52:10.747Z</time></trkpt><trkpt lat="43.2127183" lon="10.8545385"><ele>517.0</ele><time>2026-04-25T12:52:11.743Z</time></trkpt><trkpt lat="43.2127206" lon="10.8544004"><ele>517.0</ele><time>2026-04-25T12:52:12.762Z</time></trkpt><trkpt lat="43.2127358" lon="10.8542598"><ele>514.75</ele><time>2026-04-25T12:52:13.744Z</time></trkpt><trkpt lat="43.212749" lon="10.8541189"><ele>512.5</ele><time>2026-04-25T12:52:14.713Z</time></trkpt><trkpt lat="43.2127395" lon="10.8539723"><ele>510.25</ele><time>2026-04-25T12:52:15.723Z</time></trkpt><trkpt lat="43.2126796" lon="10.85383"><ele>508.0</ele><time>2026-04-25T12:52:16.738Z</time></trkpt><trkpt lat="43.2125863" lon="10.8537052"><ele>508.0</ele><time>2026-04-25T12:52:17.737Z</time></trkpt><trkpt lat="43.2124707" lon="10.8535875"><ele>508.0</ele><time>2026-04-25T12:52:18.714Z</time></trkpt><trkpt lat="43.2123629" lon="10.8534783"><ele>508.0</ele><time>2026-04-25T12:52:19.73Z</time></trkpt><trkpt lat="43.2122619" lon="10.8534085"><ele>508.0</ele><time>2026-04-25T12:52:20.742Z</time></trkpt><trkpt lat="43.2121499" lon="10.8533842"><ele>508.33333333333337</ele><time>2026-04-25T12:52:21.745Z</time></trkpt><trkpt lat="43.212032" lon="10.8534221"><ele>508.66666666666663</ele><time>2026-04-25T12:52:22.743Z</time></trkpt><trkpt lat="43.2117935" lon="10.8535648"><ele>509.0</ele><time>2026-04-25T12:52:24.737Z</time></trkpt><trkpt lat="43.2116794" lon="10.8536015"><ele>509.0</ele><time>2026-04-25T12:52:25.745Z</time></trkpt><trkpt lat="43.2115711" lon="10.8536209"><ele>509.0</ele><time>2026-04-25T12:52:26.742Z</time></trkpt><trkpt lat="43.2114632" lon="10.8536216"><ele>509.0</ele><time>2026-04-25T12:52:27.748Z</time></trkpt><trkpt lat="43.211349" lon="10.8536068"><ele>509.0</ele><time>2026-04-25T12:52:28.721Z</time></trkpt><trkpt lat="43.2112188" lon="10.8535845"><ele>508.75</ele><time>2026-04-25T12:52:29.759Z</time></trkpt><trkpt lat="43.2110806" lon="10.8535642"><ele>508.5</ele><time>2026-04-25T12:52:30.707Z</time></trkpt><trkpt lat="43.2109486" lon="10.8535466"><ele>508.25</ele><time>2026-04-25T12:52:31.724Z</time></trkpt><trkpt lat="43.2108273" lon="10.8535149"><ele>508.0</ele><time>2026-04-25T12:52:32.741Z</time></trkpt><trkpt lat="43.2107177" lon="10.8534705"><ele>506.00000000000006</ele><time>2026-04-25T12:52:33.744Z</time></trkpt><trkpt lat="43.2106335" lon="10.8533916"><ele>504.0</ele><time>2026-04-25T12:52:34.75Z</time></trkpt><trkpt lat="43.2105775" lon="10.8532971"><ele>502.0</ele><time>2026-04-25T12:52:35.735Z</time></trkpt><trkpt lat="43.2105327" lon="10.853208"><ele>500.0</ele><time>2026-04-25T12:52:36.742Z</time></trkpt><trkpt lat="43.2104703" lon="10.853135"><ele>498.00000000000006</ele><time>2026-04-25T12:52:37.728Z</time></trkpt><trkpt lat="43.2104185" lon="10.8530694"><ele>496.0</ele><time>2026-04-25T12:52:38.744Z</time></trkpt><trkpt lat="43.210366" lon="10.8529566"><ele>496.0</ele><time>2026-04-25T12:52:40.736Z</time></trkpt><trkpt lat="43.2103962" lon="10.8528715"><ele>496.0</ele><time>2026-04-25T12:52:42.735Z</time></trkpt><trkpt lat="43.2104916" lon="10.8528165"><ele>496.0</ele><time>2026-04-25T12:52:44.756Z</time></trkpt><trkpt lat="43.2106905" lon="10.8527193"><ele>496.0</ele><time>2026-04-25T12:52:47.735Z</time></trkpt><trkpt lat="43.2107682" lon="10.8526978"><ele>495.6666666666667</ele><time>2026-04-25T12:52:48.766Z</time></trkpt><trkpt lat="43.2108476" lon="10.8526753"><ele>495.33333333333337</ele><time>2026-04-25T12:52:49.756Z</time></trkpt><trkpt lat="43.2109212" lon="10.8526426"><ele>495.0</ele><time>2026-04-25T12:52:50.709Z</time></trkpt><trkpt lat="43.2109901" lon="10.8525979"><ele>494.66666666666663</ele><time>2026-04-25T12:52:51.729Z</time></trkpt><trkpt lat="43.2110479" lon="10.8525505"><ele>494.3333333333333</ele><time>2026-04-25T12:52:52.741Z</time></trkpt><trkpt lat="43.2111095" lon="10.8524175"><ele>494.0</ele><time>2026-04-25T12:52:54.73Z</time></trkpt><trkpt lat="43.211103" lon="10.8522752"><ele>491.6</ele><time>2026-04-25T12:52:56.729Z</time></trkpt><trkpt lat="43.2110678" lon="10.8521127"><ele>489.2</ele><time>2026-04-25T12:52:58.723Z</time></trkpt><trkpt lat="43.2110058" lon="10.8519634"><ele>486.80000000000007</ele><time>2026-04-25T12:53:00.733Z</time></trkpt><trkpt lat="43.2109609" lon="10.851894"><ele>484.40000000000003</ele><time>2026-04-25T12:53:01.724Z</time></trkpt><trkpt lat="43.2109085" lon="10.8518278"><ele>482.0</ele><time>2026-04-25T12:53:02.713Z</time></trkpt><trkpt lat="43.2108603" lon="10.8517648"><ele>480.3333333333333</ele><time>2026-04-25T12:53:03.749Z</time></trkpt><trkpt lat="43.210814" lon="10.8516931"><ele>478.66666666666663</ele><time>2026-04-25T12:53:04.722Z</time></trkpt><trkpt lat="43.2107678" lon="10.8516124"><ele>477.0</ele><time>2026-04-25T12:53:05.763Z</time></trkpt><trkpt lat="43.2106702" lon="10.8514487"><ele>475.33333333333337</ele><time>2026-04-25T12:53:07.741Z</time></trkpt><trkpt lat="43.2106218" lon="10.8513726"><ele>473.6666666666667</ele><time>2026-04-25T12:53:08.739Z</time></trkpt><trkpt lat="43.2105687" lon="10.851302"><ele>472.0</ele><time>2026-04-25T12:53:09.742Z</time></trkpt><trkpt lat="43.2105166" lon="10.8512365"><ele>472.0</ele><time>2026-04-25T12:53:10.76Z</time></trkpt><trkpt lat="43.2104732" lon="10.8511713"><ele>472.0</ele><time>2026-04-25T12:53:11.713Z</time></trkpt><trkpt lat="43.2104442" lon="10.851094"><ele>472.0</ele><time>2026-04-25T12:53:12.756Z</time></trkpt><trkpt lat="43.2104337" lon="10.8510082"><ele>472.0</ele><time>2026-04-25T12:53:13.732Z</time></trkpt><trkpt lat="43.2104441" lon="10.8509164"><ele>472.0</ele><time>2026-04-25T12:53:14.737Z</time></trkpt><trkpt lat="43.2104716" lon="10.8508321"><ele>472.0</ele><time>2026-04-25T12:53:15.748Z</time></trkpt><trkpt lat="43.2105115" lon="10.8507472"><ele>472.0</ele><time>2026-04-25T12:53:16.758Z</time></trkpt><trkpt lat="43.2105582" lon="10.8506616"><ele>471.1666666666667</ele><time>2026-04-25T12:53:17.744Z</time></trkpt><trkpt lat="43.2106155" lon="10.8505667"><ele>470.33333333333337</ele><time>2026-04-25T12:53:18.74Z</time></trkpt><trkpt lat="43.2106727" lon="10.8504715"><ele>469.5</ele><time>2026-04-25T12:53:19.743Z</time></trkpt><trkpt lat="43.2107205" lon="10.8503831"><ele>468.66666666666663</ele><time>2026-04-25T12:53:20.735Z</time></trkpt><trkpt lat="43.2107595" lon="10.8502946"><ele>467.8333333333333</ele><time>2026-04-25T12:53:21.715Z</time></trkpt><trkpt lat="43.2107729" lon="10.850205"><ele>467.0</ele><time>2026-04-25T12:53:22.74Z</time></trkpt><trkpt lat="43.2107701" lon="10.8501055"><ele>464.5</ele><time>2026-04-25T12:53:23.728Z</time></trkpt><trkpt lat="43.2107527" lon="10.8499885"><ele>462.0</ele><time>2026-04-25T12:53:24.756Z</time></trkpt><trkpt lat="43.2107194" lon="10.8498506"><ele>459.5</ele><time>2026-04-25T12:53:25.748Z</time></trkpt><trkpt lat="43.2106832" lon="10.8496915"><ele>457.0</ele><time>2026-04-25T12:53:26.743Z</time></trkpt><trkpt lat="43.2106373" lon="10.8493727"><ele>455.6</ele><time>2026-04-25T12:53:28.74Z</time></trkpt><trkpt lat="43.2106195" lon="10.849219"><ele>454.20000000000005</ele><time>2026-04-25T12:53:29.739Z</time></trkpt><trkpt lat="43.2105944" lon="10.8490655"><ele>452.8</ele><time>2026-04-25T12:53:30.713Z</time></trkpt><trkpt lat="43.2105679" lon="10.8489193"><ele>451.4</ele><time>2026-04-25T12:53:31.738Z</time></trkpt><trkpt lat="43.2105436" lon="10.8487772"><ele>450.0</ele><time>2026-04-25T12:53:32.75Z</time></trkpt><trkpt lat="43.2105147" lon="10.848637"><ele>450.0</ele><time>2026-04-25T12:53:33.747Z</time></trkpt><trkpt lat="43.2104906" lon="10.848498"><ele>450.0</ele><time>2026-04-25T12:53:34.752Z</time></trkpt><trkpt lat="43.2104688" lon="10.8483586"><ele>450.0</ele><time>2026-04-25T12:53:35.747Z</time></trkpt><trkpt lat="43.2104462" lon="10.8482152"><ele>450.0</ele><time>2026-04-25T12:53:36.75Z</time></trkpt><trkpt lat="43.2104216" lon="10.8480696"><ele>450.0</ele><time>2026-04-25T12:53:37.758Z</time></trkpt><trkpt lat="43.2103959" lon="10.8479212"><ele>447.6</ele><time>2026-04-25T12:53:38.734Z</time></trkpt><trkpt lat="43.2103729" lon="10.8477758"><ele>445.2</ele><time>2026-04-25T12:53:39.741Z</time></trkpt><trkpt lat="43.2103535" lon="10.8476397"><ele>442.79999999999995</ele><time>2026-04-25T12:53:40.71Z</time></trkpt><trkpt lat="43.2103356" lon="10.8475015"><ele>440.4</ele><time>2026-04-25T12:53:41.744Z</time></trkpt><trkpt lat="43.2103169" lon="10.8473654"><ele>438.0</ele><time>2026-04-25T12:53:42.735Z</time></trkpt><trkpt lat="43.2102963" lon="10.8472455"><ele>436.4</ele><time>2026-04-25T12:53:43.721Z</time></trkpt><trkpt lat="43.2102706" lon="10.8471355"><ele>434.79999999999995</ele><time>2026-04-25T12:53:44.739Z</time></trkpt><trkpt lat="43.2102419" lon="10.8470326"><ele>433.2</ele><time>2026-04-25T12:53:45.742Z</time></trkpt><trkpt lat="43.2102055" lon="10.8469362"><ele>431.6</ele><time>2026-04-25T12:53:46.732Z</time></trkpt><trkpt lat="43.2101818" lon="10.8468324"><ele>430.0</ele><time>2026-04-25T12:53:47.739Z</time></trkpt><trkpt lat="43.2102036" lon="10.8465942"><ele>429.1666666666667</ele><time>2026-04-25T12:53:49.739Z</time></trkpt><trkpt lat="43.2102312" lon="10.8464769"><ele>428.33333333333337</ele><time>2026-04-25T12:53:50.718Z</time></trkpt><trkpt lat="43.2102616" lon="10.8463627"><ele>427.5</ele><time>2026-04-25T12:53:51.754Z</time></trkpt><trkpt lat="43.2103097" lon="10.8462616"><ele>426.66666666666663</ele><time>2026-04-25T12:53:52.75Z</time></trkpt><trkpt lat="43.2103806" lon="10.8461896"><ele>425.8333333333333</ele><time>2026-04-25T12:53:53.729Z</time></trkpt><trkpt lat="43.2104633" lon="10.8461314"><ele>425.0</ele><time>2026-04-25T12:53:54.755Z</time></trkpt><trkpt lat="43.2105518" lon="10.8460993"><ele>424.99999999999994</ele><time>2026-04-25T12:53:55.742Z</time></trkpt><trkpt lat="43.2106382" lon="10.8460982"><ele>425.0</ele><time>2026-04-25T12:53:56.728Z</time></trkpt><trkpt lat="43.2107168" lon="10.8461144"><ele>425.0</ele><time>2026-04-25T12:53:57.733Z</time></trkpt><trkpt lat="43.210801" lon="10.8461404"><ele>425.0</ele><time>2026-04-25T12:53:58.734Z</time></trkpt><trkpt lat="43.2108739" lon="10.8461638"><ele>424.99999999999994</ele><time>2026-04-25T12:53:59.739Z</time></trkpt><trkpt lat="43.2109734" lon="10.8461605"><ele>425.0</ele><time>2026-04-25T12:54:01.743Z</time></trkpt><trkpt lat="43.2110394" lon="10.8460289"><ele>423.8333333333333</ele><time>2026-04-25T12:54:03.746Z</time></trkpt><trkpt lat="43.2110549" lon="10.8459321"><ele>422.66666666666663</ele><time>2026-04-25T12:54:04.727Z</time></trkpt><trkpt lat="43.2110585" lon="10.8458149"><ele>421.5</ele><time>2026-04-25T12:54:05.719Z</time></trkpt><trkpt lat="43.2110646" lon="10.8456929"><ele>420.33333333333337</ele><time>2026-04-25T12:54:06.725Z</time></trkpt><trkpt lat="43.2110747" lon="10.8455657"><ele>419.1666666666667</ele><time>2026-04-25T12:54:07.741Z</time></trkpt><trkpt lat="43.2110888" lon="10.8454379"><ele>418.0</ele><time>2026-04-25T12:54:08.768Z</time></trkpt><trkpt lat="43.2111071" lon="10.845173"><ele>416.6666666666667</ele><time>2026-04-25T12:54:10.735Z</time></trkpt><trkpt lat="43.2111231" lon="10.8450559"><ele>415.33333333333337</ele><time>2026-04-25T12:54:11.754Z</time></trkpt><trkpt lat="43.2111413" lon="10.8449438"><ele>414.0</ele><time>2026-04-25T12:54:12.72Z</time></trkpt><trkpt lat="43.2111617" lon="10.8448502"><ele>412.66666666666663</ele><time>2026-04-25T12:54:13.73Z</time></trkpt><trkpt lat="43.2112014" lon="10.8447203"><ele>411.3333333333333</ele><time>2026-04-25T12:54:15.75Z</time></trkpt><trkpt lat="43.211245" lon="10.8446182"><ele>410.0</ele><time>2026-04-25T12:54:17.753Z</time></trkpt><trkpt lat="43.2113041" lon="10.8445501"><ele>410.0</ele><time>2026-04-25T12:54:20.76Z</time></trkpt><trkpt lat="43.2112319" lon="10.8445511"><ele>410.0</ele><time>2026-04-25T12:54:25.73Z</time></trkpt><trkpt lat="43.2111979" lon="10.8446606"><ele>410.0</ele><time>2026-04-25T12:54:28.758Z</time></trkpt><trkpt lat="43.2111719" lon="10.8447611"><ele>410.0</ele><time>2026-04-25T12:54:30.718Z</time></trkpt><trkpt lat="43.2110757" lon="10.8447404"><ele>410.0</ele><time>2026-04-25T12:54:54.743Z</time></trkpt><trkpt lat="43.2109881" lon="10.8445758"><ele>409.99999999999994</ele><time>2026-04-25T12:54:58.749Z</time></trkpt><trkpt lat="43.210943" lon="10.8444818"><ele>410.0</ele><time>2026-04-25T12:55:00.734Z</time></trkpt><trkpt lat="43.2109099" lon="10.8444023"><ele>410.0</ele><time>2026-04-25T12:55:02.749Z</time></trkpt><trkpt lat="43.2108757" lon="10.8443156"><ele>410.0</ele><time>2026-04-25T12:55:04.754Z</time></trkpt><trkpt lat="43.2108438" lon="10.8442316"><ele>409.99999999999994</ele><time>2026-04-25T12:55:06.742Z</time></trkpt><trkpt lat="43.2107878" lon="10.8441436"><ele>410.0</ele><time>2026-04-25T12:55:08.756Z</time></trkpt><trkpt lat="43.2107422" lon="10.844055"><ele>408.75</ele><time>2026-04-25T12:55:10.752Z</time></trkpt><trkpt lat="43.2106755" lon="10.8439482"><ele>407.5</ele><time>2026-04-25T12:55:12.751Z</time></trkpt><trkpt lat="43.210606" lon="10.8438562"><ele>406.25</ele><time>2026-04-25T12:55:14.743Z</time></trkpt><trkpt lat="43.2105286" lon="10.843743"><ele>405.0</ele><time>2026-04-25T12:55:16.763Z</time></trkpt><trkpt lat="43.2103652" lon="10.8435661"><ele>403.71428571428567</ele><time>2026-04-25T12:55:20.759Z</time></trkpt><trkpt lat="43.2103097" lon="10.8434486"><ele>402.42857142857144</ele><time>2026-04-25T12:55:22.733Z</time></trkpt><trkpt lat="43.2102867" lon="10.8433671"><ele>401.1428571428571</ele><time>2026-04-25T12:55:23.746Z</time></trkpt><trkpt lat="43.2102682" lon="10.8432822"><ele>399.85714285714283</ele><time>2026-04-25T12:55:24.755Z</time></trkpt><trkpt lat="43.2102584" lon="10.843192"><ele>398.57142857142856</ele><time>2026-04-25T12:55:25.757Z</time></trkpt><trkpt lat="43.210255" lon="10.843098"><ele>397.2857142857143</ele><time>2026-04-25T12:55:26.738Z</time></trkpt><trkpt lat="43.2102484" lon="10.8429991"><ele>396.0</ele><time>2026-04-25T12:55:27.747Z</time></trkpt><trkpt lat="43.2102382" lon="10.8428939"><ele>396.0</ele><time>2026-04-25T12:55:28.765Z</time></trkpt><trkpt lat="43.2102356" lon="10.842783"><ele>396.0</ele><time>2026-04-25T12:55:29.751Z</time></trkpt><trkpt lat="43.2102434" lon="10.8426664"><ele>396.0</ele><time>2026-04-25T12:55:30.741Z</time></trkpt><trkpt lat="43.2102623" lon="10.8425481"><ele>396.0</ele><time>2026-04-25T12:55:31.756Z</time></trkpt><trkpt lat="43.2102912" lon="10.8424276"><ele>396.0</ele><time>2026-04-25T12:55:32.739Z</time></trkpt><trkpt lat="43.2103217" lon="10.8423123"><ele>396.0</ele><time>2026-04-25T12:55:33.751Z</time></trkpt><trkpt lat="43.2103536" lon="10.8422036"><ele>394.8</ele><time>2026-04-25T12:55:34.74Z</time></trkpt><trkpt lat="43.2103834" lon="10.842101"><ele>393.6</ele><time>2026-04-25T12:55:35.759Z</time></trkpt><trkpt lat="43.2104107" lon="10.8420001"><ele>392.4</ele><time>2026-04-25T12:55:36.765Z</time></trkpt><trkpt lat="43.2104319" lon="10.8418949"><ele>391.2</ele><time>2026-04-25T12:55:37.753Z</time></trkpt><trkpt lat="43.2104944" lon="10.8416649"><ele>390.0</ele><time>2026-04-25T12:55:39.762Z</time></trkpt><trkpt lat="43.2105253" lon="10.8415515"><ele>389.5</ele><time>2026-04-25T12:55:40.749Z</time></trkpt><trkpt lat="43.2105544" lon="10.841437"><ele>389.0</ele><time>2026-04-25T12:55:41.753Z</time></trkpt><trkpt lat="43.2105762" lon="10.8413259"><ele>388.5</ele><time>2026-04-25T12:55:42.725Z</time></trkpt><trkpt lat="43.2105976" lon="10.841207"><ele>388.0</ele><time>2026-04-25T12:55:43.75Z</time></trkpt><trkpt lat="43.2106202" lon="10.84109"><ele>387.5</ele><time>2026-04-25T12:55:44.758Z</time></trkpt><trkpt lat="43.2106453" lon="10.8409798"><ele>387.0</ele><time>2026-04-25T12:55:45.738Z</time></trkpt><trkpt lat="43.2106651" lon="10.8408715"><ele>385.3333333333333</ele><time>2026-04-25T12:55:46.736Z</time></trkpt><trkpt lat="43.210688" lon="10.8407672"><ele>383.6666666666667</ele><time>2026-04-25T12:55:47.744Z</time></trkpt><trkpt lat="43.2107075" lon="10.8406574"><ele>382.0</ele><time>2026-04-25T12:55:48.767Z</time></trkpt><trkpt lat="43.2107217" lon="10.8405484"><ele>380.33333333333337</ele><time>2026-04-25T12:55:49.75Z</time></trkpt><trkpt lat="43.2107348" lon="10.8404551"><ele>378.6666666666667</ele><time>2026-04-25T12:55:50.746Z</time></trkpt><trkpt lat="43.2107435" lon="10.840369"><ele>377.0</ele><time>2026-04-25T12:55:51.745Z</time></trkpt><trkpt lat="43.2107435" lon="10.8401912"><ele>376.33333333333337</ele><time>2026-04-25T12:55:53.747Z</time></trkpt><trkpt lat="43.2107245" lon="10.8400885"><ele>375.6666666666667</ele><time>2026-04-25T12:55:54.749Z</time></trkpt><trkpt lat="43.2107009" lon="10.8399835"><ele>375.0</ele><time>2026-04-25T12:55:55.76Z</time></trkpt><trkpt lat="43.2106737" lon="10.8398738"><ele>374.3333333333333</ele><time>2026-04-25T12:55:56.753Z</time></trkpt><trkpt lat="43.2106562" lon="10.8397685"><ele>373.66666666666663</ele><time>2026-04-25T12:55:57.743Z</time></trkpt><trkpt lat="43.2106329" lon="10.8396063"><ele>373.0</ele><time>2026-04-25T12:55:59.743Z</time></trkpt><trkpt lat="43.2105914" lon="10.83941"><ele>373.0</ele><time>2026-04-25T12:56:01.743Z</time></trkpt><trkpt lat="43.210579" lon="10.8393084"><ele>373.0</ele><time>2026-04-25T12:56:02.746Z</time></trkpt><trkpt lat="43.2105708" lon="10.8392056"><ele>373.0</ele><time>2026-04-25T12:56:03.754Z</time></trkpt><trkpt lat="43.2105588" lon="10.839108"><ele>373.0</ele><time>2026-04-25T12:56:04.754Z</time></trkpt><trkpt lat="43.2105402" lon="10.8390112"><ele>373.0</ele><time>2026-04-25T12:56:05.73Z</time></trkpt><trkpt lat="43.2105127" lon="10.838859"><ele>373.0</ele><time>2026-04-25T12:56:07.752Z</time></trkpt><trkpt lat="43.2104615" lon="10.8387415"><ele>371.2</ele><time>2026-04-25T12:56:09.759Z</time></trkpt><trkpt lat="43.210373" lon="10.8386662"><ele>369.4</ele><time>2026-04-25T12:56:11.746Z</time></trkpt><trkpt lat="43.2102941" lon="10.8386341"><ele>367.59999999999997</ele><time>2026-04-25T12:56:12.774Z</time></trkpt><trkpt lat="43.2102022" lon="10.838604"><ele>365.79999999999995</ele><time>2026-04-25T12:56:13.732Z</time></trkpt><trkpt lat="43.2101132" lon="10.8385511"><ele>364.0</ele><time>2026-04-25T12:56:14.733Z</time></trkpt><trkpt lat="43.2100366" lon="10.8384785"><ele>361.79999999999995</ele><time>2026-04-25T12:56:15.729Z</time></trkpt><trkpt lat="43.209968" lon="10.8384107"><ele>359.59999999999997</ele><time>2026-04-25T12:56:16.739Z</time></trkpt><trkpt lat="43.2099208" lon="10.8383528"><ele>357.4</ele><time>2026-04-25T12:56:17.739Z</time></trkpt><trkpt lat="43.2098456" lon="10.838253"><ele>355.2</ele><time>2026-04-25T12:56:19.737Z</time></trkpt><trkpt lat="43.2097707" lon="10.8381501"><ele>353.0</ele><time>2026-04-25T12:56:21.739Z</time></trkpt><trkpt lat="43.2096109" lon="10.8380818"><ele>351.1666666666667</ele><time>2026-04-25T12:56:26.727Z</time></trkpt><trkpt lat="43.2095334" lon="10.838086"><ele>349.33333333333337</ele><time>2026-04-25T12:56:28.74Z</time></trkpt><trkpt lat="43.209456" lon="10.8380919"><ele>347.5</ele><time>2026-04-25T12:56:30.725Z</time></trkpt><trkpt lat="43.2093758" lon="10.8380896"><ele>345.6666666666667</ele><time>2026-04-25T12:56:32.749Z</time></trkpt><trkpt lat="43.2092812" lon="10.8380895"><ele>343.8333333333333</ele><time>2026-04-25T12:56:34.762Z</time></trkpt><trkpt lat="43.2091932" lon="10.8381139"><ele>342.0</ele><time>2026-04-25T12:56:36.756Z</time></trkpt><trkpt lat="43.2091103" lon="10.8381716"><ele>342.0</ele><time>2026-04-25T12:56:38.752Z</time></trkpt><trkpt lat="43.2090285" lon="10.8382217"><ele>342.0</ele><time>2026-04-25T12:56:40.748Z</time></trkpt><trkpt lat="43.208927" lon="10.8382494"><ele>342.0</ele><time>2026-04-25T12:56:42.758Z</time></trkpt><trkpt lat="43.2087266" lon="10.8383165"><ele>342.0</ele><time>2026-04-25T12:56:46.729Z</time></trkpt><trkpt lat="43.2086076" lon="10.8383387"><ele>339.0</ele><time>2026-04-25T12:56:48.74Z</time></trkpt><trkpt lat="43.2085441" lon="10.8383481"><ele>336.0</ele><time>2026-04-25T12:56:49.744Z</time></trkpt><trkpt lat="43.208427" lon="10.8383429"><ele>333.0</ele><time>2026-04-25T12:56:51.755Z</time></trkpt><trkpt lat="43.2083337" lon="10.8383294"><ele>330.0</ele><time>2026-04-25T12:56:53.744Z</time></trkpt><trkpt lat="43.2082383" lon="10.8383118"><ele>327.0</ele><time>2026-04-25T12:56:55.736Z</time></trkpt><trkpt lat="43.2081533" lon="10.8382815"><ele>324.75</ele><time>2026-04-25T12:56:57.738Z</time></trkpt><trkpt lat="43.2080642" lon="10.8382327"><ele>322.5</ele><time>2026-04-25T12:56:59.755Z</time></trkpt><trkpt lat="43.2079691" lon="10.8381973"><ele>320.25</ele><time>2026-04-25T12:57:01.739Z</time></trkpt><trkpt lat="43.2078661" lon="10.8381505"><ele>318.0</ele><time>2026-04-25T12:57:03.732Z</time></trkpt><trkpt lat="43.2076605" lon="10.8380911"><ele>318.0</ele><time>2026-04-25T12:57:07.741Z</time></trkpt><trkpt lat="43.2075968" lon="10.8380673"><ele>318.0</ele><time>2026-04-25T12:57:08.741Z</time></trkpt><trkpt lat="43.2075258" lon="10.8380389"><ele>318.0</ele><time>2026-04-25T12:57:09.738Z</time></trkpt><trkpt lat="43.2074604" lon="10.8380151"><ele>318.0</ele><time>2026-04-25T12:57:10.74Z</time></trkpt><trkpt lat="43.207399" lon="10.8379913"><ele>318.0</ele><time>2026-04-25T12:57:11.747Z</time></trkpt><trkpt lat="43.2072897" lon="10.8379506"><ele>318.0</ele><time>2026-04-25T12:57:13.727Z</time></trkpt><trkpt lat="43.2071888" lon="10.8379059"><ele>317.0</ele><time>2026-04-25T12:57:15.77Z</time></trkpt><trkpt lat="43.2071029" lon="10.8378642"><ele>316.0</ele><time>2026-04-25T12:57:17.742Z</time></trkpt><trkpt lat="43.207011" lon="10.8378278"><ele>315.0</ele><time>2026-04-25T12:57:19.741Z</time></trkpt><trkpt lat="43.2069162" lon="10.8378016"><ele>314.0</ele><time>2026-04-25T12:57:21.741Z</time></trkpt><trkpt lat="43.2068287" lon="10.8378011"><ele>313.0</ele><time>2026-04-25T12:57:23.76Z</time></trkpt><trkpt lat="43.2067575" lon="10.8378407"><ele>312.0</ele><time>2026-04-25T12:57:25.743Z</time></trkpt><trkpt lat="43.206607" lon="10.8380163"><ele>312.0</ele><time>2026-04-25T12:57:29.739Z</time></trkpt><trkpt lat="43.206539" lon="10.8380621"><ele>312.0</ele><time>2026-04-25T12:57:31.748Z</time></trkpt><trkpt lat="43.2064595" lon="10.8380178"><ele>312.0</ele><time>2026-04-25T12:57:34.747Z</time></trkpt><trkpt lat="43.2064046" lon="10.8379415"><ele>312.0</ele><time>2026-04-25T12:57:36.752Z</time></trkpt><trkpt lat="43.2063502" lon="10.837867"><ele>312.0</ele><time>2026-04-25T12:57:38.741Z</time></trkpt><trkpt lat="43.2062982" lon="10.8377869"><ele>312.0</ele><time>2026-04-25T12:57:40.738Z</time></trkpt><trkpt lat="43.2062377" lon="10.8377011"><ele>310.6</ele><time>2026-04-25T12:57:42.762Z</time></trkpt><trkpt lat="43.2061899" lon="10.8376266"><ele>309.2</ele><time>2026-04-25T12:57:44.758Z</time></trkpt><trkpt lat="43.2061252" lon="10.8375042"><ele>307.8</ele><time>2026-04-25T12:57:46.742Z</time></trkpt><trkpt lat="43.2060217" lon="10.837306"><ele>306.4</ele><time>2026-04-25T12:57:50.75Z</time></trkpt><trkpt lat="43.2059926" lon="10.8372069"><ele>305.0</ele><time>2026-04-25T12:57:52.755Z</time></trkpt><trkpt lat="43.2059635" lon="10.8370995"><ele>305.0</ele><time>2026-04-25T12:57:54.74Z</time></trkpt><trkpt lat="43.2059384" lon="10.8369883"><ele>305.0</ele><time>2026-04-25T12:57:56.739Z</time></trkpt><trkpt lat="43.2058889" lon="10.8368855"><ele>305.0</ele><time>2026-04-25T12:57:58.76Z</time></trkpt><trkpt lat="43.2058563" lon="10.8367842"><ele>305.0</ele><time>2026-04-25T12:58:00.748Z</time></trkpt><trkpt lat="43.2058304" lon="10.8366849"><ele>305.0</ele><time>2026-04-25T12:58:02.748Z</time></trkpt><trkpt lat="43.2058539" lon="10.836592"><ele>305.0</ele><time>2026-04-25T12:58:16.772Z</time></trkpt><trkpt lat="43.2058832" lon="10.8364036"><ele>302.8</ele><time>2026-04-25T12:58:20.764Z</time></trkpt><trkpt lat="43.2059128" lon="10.8362968"><ele>300.6</ele><time>2026-04-25T12:58:22.754Z</time></trkpt><trkpt lat="43.2059699" lon="10.8361502"><ele>298.4</ele><time>2026-04-25T12:58:24.764Z</time></trkpt><trkpt lat="43.2060064" lon="10.83606"><ele>296.2</ele><time>2026-04-25T12:58:25.757Z</time></trkpt><trkpt lat="43.2060232" lon="10.8359757"><ele>294.0</ele><time>2026-04-25T12:58:26.757Z</time></trkpt><trkpt lat="43.2060325" lon="10.8358029"><ele>292.4</ele><time>2026-04-25T12:58:28.765Z</time></trkpt><trkpt lat="43.2060298" lon="10.8356382"><ele>290.79999999999995</ele><time>2026-04-25T12:58:30.764Z</time></trkpt><trkpt lat="43.2060303" lon="10.8354996"><ele>289.20000000000005</ele><time>2026-04-25T12:58:32.767Z</time></trkpt><trkpt lat="43.2060532" lon="10.8353961"><ele>287.6</ele><time>2026-04-25T12:58:34.759Z</time></trkpt><trkpt lat="43.2060359" lon="10.8353045"><ele>286.0</ele><time>2026-04-25T12:58:37.761Z</time></trkpt><trkpt lat="43.2060138" lon="10.8354977"><ele>286.0</ele><time>2026-04-25T12:58:48.753Z</time></trkpt><trkpt lat="43.2060609" lon="10.8354199"><ele>286.0</ele><time>2026-04-25T12:58:52.772Z</time></trkpt><trkpt lat="43.2059824" lon="10.8353477"><ele>286.0</ele><time>2026-04-25T12:58:55.765Z</time></trkpt><trkpt lat="43.2059279" lon="10.8352798"><ele>286.0</ele><time>2026-04-25T12:58:57.762Z</time></trkpt><trkpt lat="43.2058922" lon="10.8351948"><ele>286.0</ele><time>2026-04-25T12:58:59.775Z</time></trkpt><trkpt lat="43.2058701" lon="10.8349736"><ele>284.6</ele><time>2026-04-25T12:59:03.76Z</time></trkpt><trkpt lat="43.2058561" lon="10.8347924"><ele>283.20000000000005</ele><time>2026-04-25T12:59:05.764Z</time></trkpt><trkpt lat="43.2058432" lon="10.8346983"><ele>281.79999999999995</ele><time>2026-04-25T12:59:06.767Z</time></trkpt><trkpt lat="43.2058265" lon="10.8345997"><ele>280.4</ele><time>2026-04-25T12:59:07.747Z</time></trkpt><trkpt lat="43.2058105" lon="10.8345094"><ele>279.0</ele><time>2026-04-25T12:59:08.762Z</time></trkpt><trkpt lat="43.205789" lon="10.8343412"><ele>278.2</ele><time>2026-04-25T12:59:10.775Z</time></trkpt><trkpt lat="43.2057913" lon="10.8341963"><ele>277.4</ele><time>2026-04-25T12:59:12.76Z</time></trkpt><trkpt lat="43.2057755" lon="10.8341098"><ele>276.6</ele><time>2026-04-25T12:59:14.757Z</time></trkpt><trkpt lat="43.2056973" lon="10.8340584"><ele>275.8</ele><time>2026-04-25T12:59:17.744Z</time></trkpt><trkpt lat="43.2056337" lon="10.8340177"><ele>275.0</ele><time>2026-04-25T12:59:39.755Z</time></trkpt><trkpt lat="43.2054919" lon="10.8339039"><ele>274.8571428571429</ele><time>2026-04-25T12:59:45.763Z</time></trkpt><trkpt lat="43.2054508" lon="10.8338237"><ele>274.7142857142857</ele><time>2026-04-25T12:59:47.775Z</time></trkpt><trkpt lat="43.2054148" lon="10.833749"><ele>274.57142857142856</ele><time>2026-04-25T12:59:49.769Z</time></trkpt><trkpt lat="43.2053796" lon="10.8336655"><ele>274.42857142857144</ele><time>2026-04-25T12:59:51.656Z</time></trkpt><trkpt lat="43.2053525" lon="10.833584"><ele>274.2857142857143</ele><time>2026-04-25T12:59:53.784Z</time></trkpt><trkpt lat="43.2053306" lon="10.8334969"><ele>274.14285714285717</ele><time>2026-04-25T12:59:55.772Z</time></trkpt><trkpt lat="43.2052892" lon="10.8333699"><ele>274.0</ele><time>2026-04-25T12:59:58.676Z</time></trkpt><trkpt lat="43.2052309" lon="10.8332602"><ele>273.59999999999997</ele><time>2026-04-25T13:00:01.768Z</time></trkpt><trkpt lat="43.2050916" lon="10.8331188"><ele>273.2</ele><time>2026-04-25T13:00:05.672Z</time></trkpt><trkpt lat="43.2050363" lon="10.8330638"><ele>272.79999999999995</ele><time>2026-04-25T13:00:07.776Z</time></trkpt><trkpt lat="43.2049838" lon="10.8330032"><ele>272.4</ele><time>2026-04-25T13:00:09.784Z</time></trkpt><trkpt lat="43.2049162" lon="10.8329375"><ele>272.0</ele><time>2026-04-25T13:00:11.687Z</time></trkpt><trkpt lat="43.2048484" lon="10.8329182"><ele>271.8</ele><time>2026-04-25T13:00:13.687Z</time></trkpt><trkpt lat="43.2047572" lon="10.8329181"><ele>271.6</ele><time>2026-04-25T13:00:15.69Z</time></trkpt><trkpt lat="43.2046727" lon="10.8329107"><ele>271.40000000000003</ele><time>2026-04-25T13:00:18.687Z</time></trkpt><trkpt lat="43.2045942" lon="10.8329197"><ele>271.2</ele><time>2026-04-25T13:00:21.679Z</time></trkpt><trkpt lat="43.2045201" lon="10.8329251"><ele>271.0</ele><time>2026-04-25T13:00:23.779Z</time></trkpt><trkpt lat="43.2042613" lon="10.8327888"><ele>271.0</ele><time>2026-04-25T13:00:28.649Z</time></trkpt><trkpt lat="43.2041623" lon="10.8327137"><ele>271.0</ele><time>2026-04-25T13:00:30.794Z</time></trkpt><trkpt lat="43.2040854" lon="10.832647"><ele>271.0</ele><time>2026-04-25T13:00:32.673Z</time></trkpt><trkpt lat="43.2040129" lon="10.8325697"><ele>271.0</ele><time>2026-04-25T13:00:34.689Z</time></trkpt><trkpt lat="43.2039488" lon="10.8324811"><ele>271.0</ele><time>2026-04-25T13:00:36.686Z</time></trkpt><trkpt lat="43.2038885" lon="10.8324021"><ele>271.6</ele><time>2026-04-25T13:00:38.677Z</time></trkpt><trkpt lat="43.2038345" lon="10.8323177"><ele>272.20000000000005</ele><time>2026-04-25T13:00:40.674Z</time></trkpt><trkpt lat="43.2037652" lon="10.8322222"><ele>272.79999999999995</ele><time>2026-04-25T13:00:42.679Z</time></trkpt><trkpt lat="43.203709" lon="10.8321267"><ele>273.4</ele><time>2026-04-25T13:00:44.683Z</time></trkpt><trkpt lat="43.2036178" lon="10.8319664"><ele>274.0</ele><time>2026-04-25T13:00:48.671Z</time></trkpt><trkpt lat="43.2035934" lon="10.8318841"><ele>272.3333333333333</ele><time>2026-04-25T13:00:50.687Z</time></trkpt><trkpt lat="43.203533" lon="10.8317617"><ele>270.66666666666663</ele><time>2026-04-25T13:00:52.672Z</time></trkpt><trkpt lat="43.2034839" lon="10.8316968"><ele>269.0</ele><time>2026-04-25T13:00:53.684Z</time></trkpt><trkpt lat="43.2034315" lon="10.8316424"><ele>267.3333333333333</ele><time>2026-04-25T13:00:54.66Z</time></trkpt><trkpt lat="43.2033768" lon="10.8315935"><ele>265.6666666666667</ele><time>2026-04-25T13:00:55.688Z</time></trkpt><trkpt lat="43.203321" lon="10.8315476"><ele>264.0</ele><time>2026-04-25T13:00:56.687Z</time></trkpt><trkpt lat="43.2032072" lon="10.8314975"><ele>266.2</ele><time>2026-04-25T13:00:58.678Z</time></trkpt><trkpt lat="43.2030918" lon="10.8315033"><ele>268.4</ele><time>2026-04-25T13:01:00.655Z</time></trkpt><trkpt lat="43.2029811" lon="10.8315109"><ele>270.6</ele><time>2026-04-25T13:01:02.696Z</time></trkpt><trkpt lat="43.202921" lon="10.8314808"><ele>272.8</ele><time>2026-04-25T13:01:03.642Z</time></trkpt><trkpt lat="43.2028105" lon="10.8314044"><ele>275.0</ele><time>2026-04-25T13:01:05.699Z</time></trkpt><trkpt lat="43.20269" lon="10.8313111"><ele>275.0</ele><time>2026-04-25T13:01:07.688Z</time></trkpt><trkpt lat="43.2026326" lon="10.8312516"><ele>275.0</ele><time>2026-04-25T13:01:08.678Z</time></trkpt><trkpt lat="43.2025654" lon="10.8311881"><ele>275.0</ele><time>2026-04-25T13:01:09.685Z</time></trkpt><trkpt lat="43.2024953" lon="10.8311141"><ele>275.0</ele><time>2026-04-25T13:01:10.687Z</time></trkpt><trkpt lat="43.2024206" lon="10.8310412"><ele>275.0</ele><time>2026-04-25T13:01:11.669Z</time></trkpt><trkpt lat="43.2023467" lon="10.8309711"><ele>275.0</ele><time>2026-04-25T13:01:12.672Z</time></trkpt><trkpt lat="43.2022749" lon="10.8308969"><ele>274.1666666666667</ele><time>2026-04-25T13:01:13.68Z</time></trkpt><trkpt lat="43.2022027" lon="10.8308189"><ele>273.33333333333337</ele><time>2026-04-25T13:01:14.673Z</time></trkpt><trkpt lat="43.2021294" lon="10.8307532"><ele>272.5</ele><time>2026-04-25T13:01:15.661Z</time></trkpt><trkpt lat="43.2020593" lon="10.8306885"><ele>271.6666666666667</ele><time>2026-04-25T13:01:16.662Z</time></trkpt><trkpt lat="43.2019923" lon="10.8306313"><ele>270.8333333333333</ele><time>2026-04-25T13:01:17.68Z</time></trkpt><trkpt lat="43.2019192" lon="10.8305779"><ele>270.0</ele><time>2026-04-25T13:01:18.687Z</time></trkpt><trkpt lat="43.2018438" lon="10.8305301"><ele>270.0</ele><time>2026-04-25T13:01:19.673Z</time></trkpt><trkpt lat="43.2017644" lon="10.8304895"><ele>270.0</ele><time>2026-04-25T13:01:20.679Z</time></trkpt><trkpt lat="43.2016812" lon="10.830457"><ele>270.0</ele><time>2026-04-25T13:01:21.689Z</time></trkpt><trkpt lat="43.2015973" lon="10.8304223"><ele>270.0</ele><time>2026-04-25T13:01:22.682Z</time></trkpt><trkpt lat="43.2015131" lon="10.8303926"><ele>270.0</ele><time>2026-04-25T13:01:23.687Z</time></trkpt><trkpt lat="43.2014301" lon="10.8303718"><ele>270.0</ele><time>2026-04-25T13:01:24.682Z</time></trkpt><trkpt lat="43.2013551" lon="10.8303565"><ele>272.2</ele><time>2026-04-25T13:01:25.679Z</time></trkpt><trkpt lat="43.2012831" lon="10.8303477"><ele>274.4</ele><time>2026-04-25T13:01:26.712Z</time></trkpt><trkpt lat="43.2011202" lon="10.8303255"><ele>276.6</ele><time>2026-04-25T13:01:28.663Z</time></trkpt><trkpt lat="43.2010347" lon="10.8303125"><ele>278.8</ele><time>2026-04-25T13:01:29.687Z</time></trkpt><trkpt lat="43.200948" lon="10.8303052"><ele>281.0</ele><time>2026-04-25T13:01:30.678Z</time></trkpt><trkpt lat="43.2008624" lon="10.8303151"><ele>281.0</ele><time>2026-04-25T13:01:31.674Z</time></trkpt><trkpt lat="43.2007802" lon="10.8303449"><ele>281.0</ele><time>2026-04-25T13:01:32.695Z</time></trkpt><trkpt lat="43.2007032" lon="10.8304017"><ele>281.0</ele><time>2026-04-25T13:01:33.702Z</time></trkpt><trkpt lat="43.2006356" lon="10.8304743"><ele>281.0</ele><time>2026-04-25T13:01:34.705Z</time></trkpt><trkpt lat="43.2005696" lon="10.8305551"><ele>281.0</ele><time>2026-04-25T13:01:35.682Z</time></trkpt><trkpt lat="43.2005044" lon="10.8306344"><ele>281.0</ele><time>2026-04-25T13:01:36.669Z</time></trkpt><trkpt lat="43.2004428" lon="10.8307149"><ele>280.83333333333337</ele><time>2026-04-25T13:01:37.695Z</time></trkpt><trkpt lat="43.200378" lon="10.8307896"><ele>280.6666666666667</ele><time>2026-04-25T13:01:38.693Z</time></trkpt><trkpt lat="43.2003085" lon="10.830851"><ele>280.5</ele><time>2026-04-25T13:01:39.652Z</time></trkpt><trkpt lat="43.2002328" lon="10.8308985"><ele>280.3333333333333</ele><time>2026-04-25T13:01:40.655Z</time></trkpt><trkpt lat="43.2001453" lon="10.8309302"><ele>280.16666666666663</ele><time>2026-04-25T13:01:41.683Z</time></trkpt><trkpt lat="43.200058" lon="10.8309607"><ele>280.0</ele><time>2026-04-25T13:01:42.692Z</time></trkpt><trkpt lat="43.1999744" lon="10.830998"><ele>280.4</ele><time>2026-04-25T13:01:43.678Z</time></trkpt><trkpt lat="43.1998986" lon="10.8310417"><ele>280.8</ele><time>2026-04-25T13:01:44.694Z</time></trkpt><trkpt lat="43.1998237" lon="10.8310771"><ele>281.2</ele><time>2026-04-25T13:01:45.686Z</time></trkpt><trkpt lat="43.1997541" lon="10.8311125"><ele>281.6</ele><time>2026-04-25T13:01:46.692Z</time></trkpt><trkpt lat="43.1996466" lon="10.8311877"><ele>282.0</ele><time>2026-04-25T13:01:48.653Z</time></trkpt><trkpt lat="43.1995537" lon="10.8313472"><ele>282.0</ele><time>2026-04-25T13:01:50.693Z</time></trkpt><trkpt lat="43.1995071" lon="10.8314544"><ele>282.0</ele><time>2026-04-25T13:01:51.685Z</time></trkpt><trkpt lat="43.199462" lon="10.8315639"><ele>282.0</ele><time>2026-04-25T13:01:52.657Z</time></trkpt><trkpt lat="43.199416" lon="10.8316692"><ele>282.0</ele><time>2026-04-25T13:01:53.685Z</time></trkpt><trkpt lat="43.1993696" lon="10.8317698"><ele>282.0</ele><time>2026-04-25T13:01:54.686Z</time></trkpt><trkpt lat="43.1993126" lon="10.8318621"><ele>282.0</ele><time>2026-04-25T13:01:55.663Z</time></trkpt><trkpt lat="43.1992472" lon="10.8319424"><ele>281.5</ele><time>2026-04-25T13:01:56.673Z</time></trkpt><trkpt lat="43.1991736" lon="10.8320047"><ele>281.0</ele><time>2026-04-25T13:01:57.669Z</time></trkpt><trkpt lat="43.1990948" lon="10.8320518"><ele>280.5</ele><time>2026-04-25T13:01:58.688Z</time></trkpt><trkpt lat="43.1990132" lon="10.8320795"><ele>280.0</ele><time>2026-04-25T13:01:59.674Z</time></trkpt><trkpt lat="43.1989304" lon="10.8320965"><ele>279.5</ele><time>2026-04-25T13:02:00.691Z</time></trkpt><trkpt lat="43.1988424" lon="10.8321182"><ele>279.0</ele><time>2026-04-25T13:02:01.688Z</time></trkpt><trkpt lat="43.1987563" lon="10.8321408"><ele>279.0</ele><time>2026-04-25T13:02:02.696Z</time></trkpt><trkpt lat="43.1986735" lon="10.832167"><ele>279.0</ele><time>2026-04-25T13:02:03.692Z</time></trkpt><trkpt lat="43.1985982" lon="10.8321867"><ele>279.0</ele><time>2026-04-25T13:02:04.681Z</time></trkpt><trkpt lat="43.1985251" lon="10.8322045"><ele>279.0</ele><time>2026-04-25T13:02:05.666Z</time></trkpt><trkpt lat="43.1984546" lon="10.8322186"><ele>279.0</ele><time>2026-04-25T13:02:06.685Z</time></trkpt><trkpt lat="43.198381" lon="10.832235"><ele>279.0</ele><time>2026-04-25T13:02:07.702Z</time></trkpt><trkpt lat="43.1983094" lon="10.8322685"><ele>279.0</ele><time>2026-04-25T13:02:08.707Z</time></trkpt><trkpt lat="43.1982422" lon="10.8323221"><ele>279.0</ele><time>2026-04-25T13:02:09.695Z</time></trkpt><trkpt lat="43.1981289" lon="10.8324962"><ele>279.0</ele><time>2026-04-25T13:02:11.681Z</time></trkpt><trkpt lat="43.1980855" lon="10.8326093"><ele>279.0</ele><time>2026-04-25T13:02:12.698Z</time></trkpt><trkpt lat="43.1980491" lon="10.832723"><ele>279.0</ele><time>2026-04-25T13:02:13.689Z</time></trkpt><trkpt lat="43.1980158" lon="10.8328331"><ele>276.8</ele><time>2026-04-25T13:02:14.661Z</time></trkpt><trkpt lat="43.1979814" lon="10.8329482"><ele>274.59999999999997</ele><time>2026-04-25T13:02:15.698Z</time></trkpt><trkpt lat="43.1979383" lon="10.8330681"><ele>272.4</ele><time>2026-04-25T13:02:16.698Z</time></trkpt><trkpt lat="43.1978887" lon="10.8331944"><ele>270.2</ele><time>2026-04-25T13:02:17.684Z</time></trkpt><trkpt lat="43.1978421" lon="10.8333219"><ele>268.0</ele><time>2026-04-25T13:02:18.689Z</time></trkpt><trkpt lat="43.1977933" lon="10.8334512"><ele>269.0</ele><time>2026-04-25T13:02:19.692Z</time></trkpt><trkpt lat="43.197748" lon="10.8335779"><ele>270.0</ele><time>2026-04-25T13:02:20.688Z</time></trkpt><trkpt lat="43.1977001" lon="10.8336888"><ele>271.0</ele><time>2026-04-25T13:02:21.693Z</time></trkpt><trkpt lat="43.1976384" lon="10.8337831"><ele>272.0</ele><time>2026-04-25T13:02:22.695Z</time></trkpt><trkpt lat="43.1975647" lon="10.8338677"><ele>273.0</ele><time>2026-04-25T13:02:23.683Z</time></trkpt><trkpt lat="43.1974748" lon="10.8339366"><ele>273.0</ele><time>2026-04-25T13:02:24.662Z</time></trkpt><trkpt lat="43.1973732" lon="10.8339852"><ele>273.0</ele><time>2026-04-25T13:02:25.685Z</time></trkpt><trkpt lat="43.1972738" lon="10.83404"><ele>273.0</ele><time>2026-04-25T13:02:26.682Z</time></trkpt><trkpt lat="43.1971789" lon="10.8340911"><ele>273.0</ele><time>2026-04-25T13:02:27.692Z</time></trkpt><trkpt lat="43.1970907" lon="10.8341393"><ele>273.0</ele><time>2026-04-25T13:02:28.702Z</time></trkpt><trkpt lat="43.1970067" lon="10.8341791"><ele>270.75</ele><time>2026-04-25T13:02:29.692Z</time></trkpt><trkpt lat="43.1969243" lon="10.8342202"><ele>268.5</ele><time>2026-04-25T13:02:30.695Z</time></trkpt><trkpt lat="43.1967535" lon="10.834303"><ele>266.25</ele><time>2026-04-25T13:02:32.7Z</time></trkpt><trkpt lat="43.1966595" lon="10.8343294"><ele>264.0</ele><time>2026-04-25T13:02:33.71Z</time></trkpt><trkpt lat="43.196563" lon="10.8343231"><ele>263.0</ele><time>2026-04-25T13:02:34.669Z</time></trkpt><trkpt lat="43.1964707" lon="10.8342739"><ele>262.0</ele><time>2026-04-25T13:02:35.678Z</time></trkpt><trkpt lat="43.1963873" lon="10.8341857"><ele>261.0</ele><time>2026-04-25T13:02:36.698Z</time></trkpt><trkpt lat="43.1963242" lon="10.8340551"><ele>260.0</ele><time>2026-04-25T13:02:37.696Z</time></trkpt><trkpt lat="43.1962584" lon="10.8339256"><ele>259.0</ele><time>2026-04-25T13:02:38.688Z</time></trkpt><trkpt lat="43.1961957" lon="10.8338191"><ele>259.0</ele><time>2026-04-25T13:02:39.695Z</time></trkpt><trkpt lat="43.1961407" lon="10.8337325"><ele>259.0</ele><time>2026-04-25T13:02:40.687Z</time></trkpt><trkpt lat="43.1960836" lon="10.8336547"><ele>259.0</ele><time>2026-04-25T13:02:41.707Z</time></trkpt><trkpt lat="43.196018" lon="10.8335727"><ele>259.0</ele><time>2026-04-25T13:02:42.693Z</time></trkpt><trkpt lat="43.1959346" lon="10.8334903"><ele>259.0</ele><time>2026-04-25T13:02:43.698Z</time></trkpt><trkpt lat="43.1958405" lon="10.8334067"><ele>258.5</ele><time>2026-04-25T13:02:44.674Z</time></trkpt><trkpt lat="43.1957406" lon="10.8333252"><ele>258.0</ele><time>2026-04-25T13:02:45.684Z</time></trkpt><trkpt lat="43.1956357" lon="10.833236"><ele>257.5</ele><time>2026-04-25T13:02:46.682Z</time></trkpt><trkpt lat="43.1955357" lon="10.833144"><ele>257.0</ele><time>2026-04-25T13:02:47.669Z</time></trkpt><trkpt lat="43.1954389" lon="10.8330593"><ele>256.0</ele><time>2026-04-25T13:02:48.685Z</time></trkpt><trkpt lat="43.195349" lon="10.8329847"><ele>255.0</ele><time>2026-04-25T13:02:49.696Z</time></trkpt><trkpt lat="43.1952655" lon="10.8329093"><ele>254.0</ele><time>2026-04-25T13:02:50.688Z</time></trkpt><trkpt lat="43.1951878" lon="10.8328353"><ele>253.0</ele><time>2026-04-25T13:02:51.688Z</time></trkpt><trkpt lat="43.1950543" lon="10.8327089"><ele>253.0</ele><time>2026-04-25T13:02:53.704Z</time></trkpt><trkpt lat="43.1949779" lon="10.832672"><ele>253.0</ele><time>2026-04-25T13:02:54.694Z</time></trkpt><trkpt lat="43.1948771" lon="10.8326516"><ele>253.0</ele><time>2026-04-25T13:02:55.678Z</time></trkpt><trkpt lat="43.1947585" lon="10.8326448"><ele>253.0</ele><time>2026-04-25T13:02:56.693Z</time></trkpt><trkpt lat="43.1946337" lon="10.8326402"><ele>253.0</ele><time>2026-04-25T13:02:57.697Z</time></trkpt><trkpt lat="43.1945168" lon="10.832623"><ele>252.0</ele><time>2026-04-25T13:02:58.711Z</time></trkpt><trkpt lat="43.1944003" lon="10.8325648"><ele>251.0</ele><time>2026-04-25T13:02:59.666Z</time></trkpt><trkpt lat="43.1942894" lon="10.8324764"><ele>250.0</ele><time>2026-04-25T13:03:00.682Z</time></trkpt><trkpt lat="43.1941796" lon="10.8323512"><ele>249.0</ele><time>2026-04-25T13:03:01.693Z</time></trkpt><trkpt lat="43.1940667" lon="10.8321979"><ele>248.66666666666669</ele><time>2026-04-25T13:03:02.694Z</time></trkpt><trkpt lat="43.1939553" lon="10.8320434"><ele>248.33333333333334</ele><time>2026-04-25T13:03:03.704Z</time></trkpt><trkpt lat="43.1938394" lon="10.8318871"><ele>248.0</ele><time>2026-04-25T13:03:04.681Z</time></trkpt><trkpt lat="43.1937227" lon="10.8317414"><ele>247.25</ele><time>2026-04-25T13:03:05.707Z</time></trkpt><trkpt lat="43.193609" lon="10.8316058"><ele>246.5</ele><time>2026-04-25T13:03:06.702Z</time></trkpt><trkpt lat="43.1934994" lon="10.8314794"><ele>245.75</ele><time>2026-04-25T13:03:07.702Z</time></trkpt><trkpt lat="43.1933914" lon="10.8313597"><ele>245.0</ele><time>2026-04-25T13:03:08.698Z</time></trkpt><trkpt lat="43.1932863" lon="10.8312445"><ele>245.0</ele><time>2026-04-25T13:03:09.695Z</time></trkpt><trkpt lat="43.1931742" lon="10.8311276"><ele>245.0</ele><time>2026-04-25T13:03:10.69Z</time></trkpt><trkpt lat="43.1930574" lon="10.831004"><ele>245.0</ele><time>2026-04-25T13:03:11.707Z</time></trkpt><trkpt lat="43.1929384" lon="10.8308776"><ele>245.0</ele><time>2026-04-25T13:03:12.649Z</time></trkpt><trkpt lat="43.1926909" lon="10.830615"><ele>243.66666666666669</ele><time>2026-04-25T13:03:14.699Z</time></trkpt><trkpt lat="43.1925637" lon="10.8304824"><ele>242.33333333333331</ele><time>2026-04-25T13:03:15.691Z</time></trkpt><trkpt lat="43.1924337" lon="10.8303438"><ele>241.0</ele><time>2026-04-25T13:03:16.689Z</time></trkpt><trkpt lat="43.1923034" lon="10.8302074"><ele>240.0</ele><time>2026-04-25T13:03:17.702Z</time></trkpt><trkpt lat="43.1921712" lon="10.8300673"><ele>239.0</ele><time>2026-04-25T13:03:18.692Z</time></trkpt><trkpt lat="43.1920376" lon="10.8299261"><ele>238.0</ele><time>2026-04-25T13:03:19.693Z</time></trkpt><trkpt lat="43.1919049" lon="10.8297887"><ele>238.0</ele><time>2026-04-25T13:03:20.686Z</time></trkpt><trkpt lat="43.1917789" lon="10.8296694"><ele>238.0</ele><time>2026-04-25T13:03:21.71Z</time></trkpt><trkpt lat="43.1916671" lon="10.829563"><ele>238.0</ele><time>2026-04-25T13:03:22.689Z</time></trkpt><trkpt lat="43.1915744" lon="10.8294823"><ele>238.0</ele><time>2026-04-25T13:03:23.696Z</time></trkpt><trkpt lat="43.1914993" lon="10.8294301"><ele>237.4</ele><time>2026-04-25T13:03:24.686Z</time></trkpt><trkpt lat="43.1913996" lon="10.8293418"><ele>236.8</ele><time>2026-04-25T13:03:26.682Z</time></trkpt><trkpt lat="43.1913314" lon="10.8292831"><ele>236.2</ele><time>2026-04-25T13:03:27.691Z</time></trkpt><trkpt lat="43.1912483" lon="10.8292122"><ele>235.6</ele><time>2026-04-25T13:03:28.679Z</time></trkpt><trkpt lat="43.1911542" lon="10.8291279"><ele>235.0</ele><time>2026-04-25T13:03:29.689Z</time></trkpt><trkpt lat="43.1910501" lon="10.8290307"><ele>234.5</ele><time>2026-04-25T13:03:30.697Z</time></trkpt><trkpt lat="43.1909462" lon="10.8289308"><ele>234.0</ele><time>2026-04-25T13:03:31.682Z</time></trkpt><trkpt lat="43.1908506" lon="10.8288271"><ele>233.5</ele><time>2026-04-25T13:03:32.699Z</time></trkpt><trkpt lat="43.1907587" lon="10.8287229"><ele>233.0</ele><time>2026-04-25T13:03:33.698Z</time></trkpt><trkpt lat="43.1905892" lon="10.8285066"><ele>232.5</ele><time>2026-04-25T13:03:35.697Z</time></trkpt><trkpt lat="43.1905062" lon="10.8284091"><ele>232.0</ele><time>2026-04-25T13:03:36.695Z</time></trkpt><trkpt lat="43.1904191" lon="10.8283275"><ele>231.5</ele><time>2026-04-25T13:03:37.706Z</time></trkpt><trkpt lat="43.19032" lon="10.8282464"><ele>231.0</ele><time>2026-04-25T13:03:38.7Z</time></trkpt><trkpt lat="43.1902101" lon="10.8281806"><ele>231.0</ele><time>2026-04-25T13:03:39.702Z</time></trkpt><trkpt lat="43.1900968" lon="10.8281162"><ele>231.0</ele><time>2026-04-25T13:03:40.67Z</time></trkpt><trkpt lat="43.1899888" lon="10.8280591"><ele>231.0</ele><time>2026-04-25T13:03:41.689Z</time></trkpt><trkpt lat="43.1898878" lon="10.827991"><ele>231.0</ele><time>2026-04-25T13:03:42.689Z</time></trkpt><trkpt lat="43.1897981" lon="10.8278889"><ele>230.25</ele><time>2026-04-25T13:03:43.685Z</time></trkpt><trkpt lat="43.1897221" lon="10.8277575"><ele>229.5</ele><time>2026-04-25T13:03:44.682Z</time></trkpt><trkpt lat="43.1896526" lon="10.8276088"><ele>228.75</ele><time>2026-04-25T13:03:45.706Z</time></trkpt><trkpt lat="43.1895817" lon="10.8274476"><ele>228.0</ele><time>2026-04-25T13:03:46.695Z</time></trkpt><trkpt lat="43.1895073" lon="10.8272722"><ele>228.0</ele><time>2026-04-25T13:03:47.696Z</time></trkpt><trkpt lat="43.189424" lon="10.8270985"><ele>228.0</ele><time>2026-04-25T13:03:48.71Z</time></trkpt><trkpt lat="43.1893403" lon="10.8269249"><ele>228.0</ele><time>2026-04-25T13:03:49.691Z</time></trkpt><trkpt lat="43.1892614" lon="10.8267602"><ele>228.0</ele><time>2026-04-25T13:03:50.692Z</time></trkpt><trkpt lat="43.1891876" lon="10.8266066"><ele>227.5</ele><time>2026-04-25T13:03:51.703Z</time></trkpt><trkpt lat="43.1891153" lon="10.8264642"><ele>227.0</ele><time>2026-04-25T13:03:52.678Z</time></trkpt><trkpt lat="43.1890484" lon="10.8263224"><ele>226.5</ele><time>2026-04-25T13:03:53.676Z</time></trkpt><trkpt lat="43.1889786" lon="10.8261864"><ele>226.0</ele><time>2026-04-25T13:03:54.69Z</time></trkpt><trkpt lat="43.1887872" lon="10.8259524"><ele>225.25</ele><time>2026-04-25T13:03:56.707Z</time></trkpt><trkpt lat="43.1886778" lon="10.8258479"><ele>224.5</ele><time>2026-04-25T13:03:57.712Z</time></trkpt><trkpt lat="43.1885594" lon="10.8257514"><ele>223.75</ele><time>2026-04-25T13:03:58.693Z</time></trkpt><trkpt lat="43.1884387" lon="10.8256632"><ele>223.0</ele><time>2026-04-25T13:03:59.703Z</time></trkpt><trkpt lat="43.1883241" lon="10.8255761"><ele>223.0</ele><time>2026-04-25T13:04:00.698Z</time></trkpt><trkpt lat="43.1882082" lon="10.8254762"><ele>223.0</ele><time>2026-04-25T13:04:01.737Z</time></trkpt><trkpt lat="43.1880905" lon="10.825354"><ele>223.0</ele><time>2026-04-25T13:04:02.706Z</time></trkpt><trkpt lat="43.1879716" lon="10.8252127"><ele>223.0</ele><time>2026-04-25T13:04:03.688Z</time></trkpt><trkpt lat="43.1878529" lon="10.8250613"><ele>223.33333333333331</ele><time>2026-04-25T13:04:04.693Z</time></trkpt><trkpt lat="43.1877332" lon="10.8249171"><ele>223.66666666666669</ele><time>2026-04-25T13:04:05.674Z</time></trkpt><trkpt lat="43.1876151" lon="10.8247798"><ele>224.0</ele><time>2026-04-25T13:04:06.708Z</time></trkpt><trkpt lat="43.1875091" lon="10.8246468"><ele>224.0</ele><time>2026-04-25T13:04:07.697Z</time></trkpt><trkpt lat="43.187409" lon="10.8245203"><ele>224.0</ele><time>2026-04-25T13:04:08.687Z</time></trkpt><trkpt lat="43.1873171" lon="10.8243948"><ele>224.0</ele><time>2026-04-25T13:04:09.691Z</time></trkpt><trkpt lat="43.1872253" lon="10.8242639"><ele>224.0</ele><time>2026-04-25T13:04:10.686Z</time></trkpt><trkpt lat="43.1871393" lon="10.8241297"><ele>223.75</ele><time>2026-04-25T13:04:11.724Z</time></trkpt><trkpt lat="43.18706" lon="10.8239932"><ele>223.5</ele><time>2026-04-25T13:04:12.681Z</time></trkpt><trkpt lat="43.1869799" lon="10.8238537"><ele>223.25</ele><time>2026-04-25T13:04:13.689Z</time></trkpt><trkpt lat="43.1868962" lon="10.823719"><ele>223.0</ele><time>2026-04-25T13:04:14.683Z</time></trkpt><trkpt lat="43.1868093" lon="10.8235982"><ele>222.0</ele><time>2026-04-25T13:04:15.697Z</time></trkpt><trkpt lat="43.186606" lon="10.8234146"><ele>221.0</ele><time>2026-04-25T13:04:17.679Z</time></trkpt><trkpt lat="43.1864866" lon="10.8233439"><ele>220.0</ele><time>2026-04-25T13:04:18.707Z</time></trkpt><trkpt lat="43.186358" lon="10.8232895"><ele>220.0</ele><time>2026-04-25T13:04:19.704Z</time></trkpt><trkpt lat="43.1862228" lon="10.8232513"><ele>220.0</ele><time>2026-04-25T13:04:20.69Z</time></trkpt><trkpt lat="43.1860875" lon="10.8232324"><ele>220.0</ele><time>2026-04-25T13:04:21.697Z</time></trkpt><trkpt lat="43.1859551" lon="10.8232345"><ele>220.0</ele><time>2026-04-25T13:04:22.701Z</time></trkpt><trkpt lat="43.1858197" lon="10.8232406"><ele>220.0</ele><time>2026-04-25T13:04:23.702Z</time></trkpt><trkpt lat="43.1856846" lon="10.8232419"><ele>220.0</ele><time>2026-04-25T13:04:24.697Z</time></trkpt><trkpt lat="43.1855524" lon="10.823226"><ele>220.0</ele><time>2026-04-25T13:04:25.693Z</time></trkpt><trkpt lat="43.1854167" lon="10.8232064"><ele>220.0</ele><time>2026-04-25T13:04:26.698Z</time></trkpt><trkpt lat="43.185293" lon="10.8231757"><ele>222.5</ele><time>2026-04-25T13:04:27.707Z</time></trkpt><trkpt lat="43.1851747" lon="10.8231253"><ele>225.0</ele><time>2026-04-25T13:04:28.69Z</time></trkpt><trkpt lat="43.1850497" lon="10.8230659"><ele>227.5</ele><time>2026-04-25T13:04:29.68Z</time></trkpt><trkpt lat="43.1849165" lon="10.8230113"><ele>230.0</ele><time>2026-04-25T13:04:30.695Z</time></trkpt><trkpt lat="43.1847757" lon="10.8229547"><ele>235.33333333333334</ele><time>2026-04-25T13:04:31.7Z</time></trkpt><trkpt lat="43.1846297" lon="10.8228981"><ele>240.66666666666669</ele><time>2026-04-25T13:04:32.695Z</time></trkpt><trkpt lat="43.1844826" lon="10.8228416"><ele>246.0</ele><time>2026-04-25T13:04:33.688Z</time></trkpt><trkpt lat="43.1843369" lon="10.8227861"><ele>246.0</ele><time>2026-04-25T13:04:34.687Z</time></trkpt><trkpt lat="43.1841844" lon="10.8227253"><ele>246.0</ele><time>2026-04-25T13:04:35.695Z</time></trkpt><trkpt lat="43.1840291" lon="10.8226617"><ele>246.0</ele><time>2026-04-25T13:04:36.676Z</time></trkpt><trkpt lat="43.1837229" lon="10.8225126"><ele>244.75</ele><time>2026-04-25T13:04:38.695Z</time></trkpt><trkpt lat="43.1835915" lon="10.8224178"><ele>243.5</ele><time>2026-04-25T13:04:39.698Z</time></trkpt><trkpt lat="43.1834719" lon="10.8223136"><ele>242.25</ele><time>2026-04-25T13:04:40.687Z</time></trkpt><trkpt lat="43.1833453" lon="10.8222349"><ele>241.0</ele><time>2026-04-25T13:04:41.675Z</time></trkpt><trkpt lat="43.1832089" lon="10.8221888"><ele>249.0</ele><time>2026-04-25T13:04:42.709Z</time></trkpt><trkpt lat="43.1830625" lon="10.8221473"><ele>257.0</ele><time>2026-04-25T13:04:43.706Z</time></trkpt><trkpt lat="43.1829094" lon="10.8221146"><ele>265.0</ele><time>2026-04-25T13:04:44.688Z</time></trkpt><trkpt lat="43.1827644" lon="10.8220707"><ele>265.0</ele><time>2026-04-25T13:04:45.687Z</time></trkpt><trkpt lat="43.1826415" lon="10.822022"><ele>265.0</ele><time>2026-04-25T13:04:46.69Z</time></trkpt><trkpt lat="43.1825389" lon="10.8219608"><ele>265.0</ele><time>2026-04-25T13:04:47.688Z</time></trkpt><trkpt lat="43.1824457" lon="10.8219051"><ele>265.0</ele><time>2026-04-25T13:04:48.688Z</time></trkpt><trkpt lat="43.1823578" lon="10.8218555"><ele>265.0</ele><time>2026-04-25T13:04:49.701Z</time></trkpt><trkpt lat="43.1822695" lon="10.8218041"><ele>261.16666666666663</ele><time>2026-04-25T13:04:50.688Z</time></trkpt><trkpt lat="43.1821883" lon="10.8217442"><ele>257.3333333333333</ele><time>2026-04-25T13:04:51.681Z</time></trkpt><trkpt lat="43.1821203" lon="10.8216831"><ele>253.5</ele><time>2026-04-25T13:04:52.694Z</time></trkpt><trkpt lat="43.1820576" lon="10.8216293"><ele>249.66666666666669</ele><time>2026-04-25T13:04:53.705Z</time></trkpt><trkpt lat="43.1819906" lon="10.8215879"><ele>245.83333333333334</ele><time>2026-04-25T13:04:54.658Z</time></trkpt><trkpt lat="43.1819123" lon="10.8215629"><ele>242.0</ele><time>2026-04-25T13:04:55.706Z</time></trkpt><trkpt lat="43.1818244" lon="10.821567"><ele>242.0</ele><time>2026-04-25T13:04:56.697Z</time></trkpt><trkpt lat="43.1817326" lon="10.8215886"><ele>242.0</ele><time>2026-04-25T13:04:57.69Z</time></trkpt><trkpt lat="43.1815511" lon="10.8216347"><ele>242.0</ele><time>2026-04-25T13:04:59.686Z</time></trkpt><trkpt lat="43.1814459" lon="10.8216522"><ele>242.0</ele><time>2026-04-25T13:05:00.695Z</time></trkpt><trkpt lat="43.1813328" lon="10.8216682"><ele>242.75</ele><time>2026-04-25T13:05:01.693Z</time></trkpt><trkpt lat="43.1812118" lon="10.8216684"><ele>243.5</ele><time>2026-04-25T13:05:02.683Z</time></trkpt><trkpt lat="43.1810856" lon="10.8216536"><ele>244.25</ele><time>2026-04-25T13:05:03.684Z</time></trkpt><trkpt lat="43.1809648" lon="10.8216347"><ele>245.0</ele><time>2026-04-25T13:05:04.692Z</time></trkpt><trkpt lat="43.1808458" lon="10.8216196"><ele>245.0</ele><time>2026-04-25T13:05:05.697Z</time></trkpt><trkpt lat="43.1807306" lon="10.8215627"><ele>245.0</ele><time>2026-04-25T13:05:06.688Z</time></trkpt><trkpt lat="43.1806572" lon="10.8214377"><ele>245.0</ele><time>2026-04-25T13:05:07.691Z</time></trkpt><trkpt lat="43.1806119" lon="10.821305"><ele>245.0</ele><time>2026-04-25T13:05:08.7Z</time></trkpt><trkpt lat="43.1805657" lon="10.8211718"><ele>245.2</ele><time>2026-04-25T13:05:09.688Z</time></trkpt><trkpt lat="43.1804975" lon="10.8210459"><ele>245.4</ele><time>2026-04-25T13:05:10.682Z</time></trkpt><trkpt lat="43.1804149" lon="10.8209462"><ele>245.60000000000002</ele><time>2026-04-25T13:05:11.702Z</time></trkpt><trkpt lat="43.1803196" lon="10.8208669"><ele>245.8</ele><time>2026-04-25T13:05:12.706Z</time></trkpt><trkpt lat="43.1802148" lon="10.8208069"><ele>246.0</ele><time>2026-04-25T13:05:13.702Z</time></trkpt><trkpt lat="43.1801116" lon="10.8207602"><ele>246.0</ele><time>2026-04-25T13:05:14.717Z</time></trkpt><trkpt lat="43.1800081" lon="10.8207282"><ele>246.00000000000003</ele><time>2026-04-25T13:05:15.706Z</time></trkpt><trkpt lat="43.1799035" lon="10.8207069"><ele>246.00000000000003</ele><time>2026-04-25T13:05:16.667Z</time></trkpt><trkpt lat="43.1797918" lon="10.8207103"><ele>246.0</ele><time>2026-04-25T13:05:17.707Z</time></trkpt><trkpt lat="43.1796688" lon="10.8207319"><ele>246.0</ele><time>2026-04-25T13:05:18.678Z</time></trkpt><trkpt lat="43.1793886" lon="10.8208455"><ele>246.0</ele><time>2026-04-25T13:05:20.677Z</time></trkpt><trkpt lat="43.1792565" lon="10.8208991"><ele>246.0</ele><time>2026-04-25T13:05:21.701Z</time></trkpt><trkpt lat="43.1791391" lon="10.8209473"><ele>246.0</ele><time>2026-04-25T13:05:22.7Z</time></trkpt><trkpt lat="43.1790278" lon="10.8209936"><ele>246.0</ele><time>2026-04-25T13:05:23.696Z</time></trkpt><trkpt lat="43.1789232" lon="10.8210374"><ele>246.0</ele><time>2026-04-25T13:05:24.701Z</time></trkpt><trkpt lat="43.1788207" lon="10.8211054"><ele>246.00000000000003</ele><time>2026-04-25T13:05:25.702Z</time></trkpt><trkpt lat="43.1787273" lon="10.8211709"><ele>246.00000000000003</ele><time>2026-04-25T13:05:26.686Z</time></trkpt><trkpt lat="43.178646" lon="10.8212169"><ele>246.0</ele><time>2026-04-25T13:05:27.689Z</time></trkpt><trkpt lat="43.1785601" lon="10.8212247"><ele>246.0</ele><time>2026-04-25T13:05:28.685Z</time></trkpt><trkpt lat="43.1784777" lon="10.8211963"><ele>246.0</ele><time>2026-04-25T13:05:29.677Z</time></trkpt><trkpt lat="43.1784052" lon="10.8211257"><ele>246.00000000000003</ele><time>2026-04-25T13:05:30.697Z</time></trkpt><trkpt lat="43.1783357" lon="10.8210212"><ele>246.00000000000003</ele><time>2026-04-25T13:05:31.701Z</time></trkpt><trkpt lat="43.1782722" lon="10.8208946"><ele>246.0</ele><time>2026-04-25T13:05:32.693Z</time></trkpt><trkpt lat="43.1782156" lon="10.8207559"><ele>246.0</ele><time>2026-04-25T13:05:33.72Z</time></trkpt><trkpt lat="43.1781659" lon="10.8206109"><ele>246.60000000000002</ele><time>2026-04-25T13:05:34.69Z</time></trkpt><trkpt lat="43.1781208" lon="10.8204592"><ele>247.20000000000002</ele><time>2026-04-25T13:05:35.702Z</time></trkpt><trkpt lat="43.1780765" lon="10.8202951"><ele>247.79999999999998</ele><time>2026-04-25T13:05:36.703Z</time></trkpt><trkpt lat="43.1780512" lon="10.8201535"><ele>248.39999999999998</ele><time>2026-04-25T13:05:37.709Z</time></trkpt><trkpt lat="43.1780323" lon="10.820031"><ele>249.0</ele><time>2026-04-25T13:05:38.671Z</time></trkpt><trkpt lat="43.1780008" lon="10.8199248"><ele>245.75</ele><time>2026-04-25T13:05:39.699Z</time></trkpt><trkpt lat="43.1778619" lon="10.819752"><ele>242.5</ele><time>2026-04-25T13:05:41.72Z</time></trkpt><trkpt lat="43.1777616" lon="10.8196947"><ele>239.25</ele><time>2026-04-25T13:05:42.715Z</time></trkpt><trkpt lat="43.1776526" lon="10.8196419"><ele>236.0</ele><time>2026-04-25T13:05:43.675Z</time></trkpt><trkpt lat="43.1775383" lon="10.8195853"><ele>236.0</ele><time>2026-04-25T13:05:44.702Z</time></trkpt><trkpt lat="43.1774158" lon="10.8195158"><ele>236.0</ele><time>2026-04-25T13:05:45.701Z</time></trkpt><trkpt lat="43.1772773" lon="10.8194394"><ele>236.0</ele><time>2026-04-25T13:05:46.696Z</time></trkpt><trkpt lat="43.1771361" lon="10.8193505"><ele>236.0</ele><time>2026-04-25T13:05:47.707Z</time></trkpt><trkpt lat="43.1769936" lon="10.8192651"><ele>236.0</ele><time>2026-04-25T13:05:48.699Z</time></trkpt><trkpt lat="43.1768479" lon="10.8191795"><ele>236.0</ele><time>2026-04-25T13:05:49.725Z</time></trkpt><trkpt lat="43.1767082" lon="10.819088"><ele>236.0</ele><time>2026-04-25T13:05:50.687Z</time></trkpt><trkpt lat="43.1765782" lon="10.819004"><ele>237.5</ele><time>2026-04-25T13:05:51.709Z</time></trkpt><trkpt lat="43.1764598" lon="10.8189274"><ele>239.0</ele><time>2026-04-25T13:05:52.705Z</time></trkpt><trkpt lat="43.1763486" lon="10.8188507"><ele>240.5</ele><time>2026-04-25T13:05:53.681Z</time></trkpt><trkpt lat="43.1762472" lon="10.8187803"><ele>242.0</ele><time>2026-04-25T13:05:54.7Z</time></trkpt><trkpt lat="43.1761374" lon="10.8187333"><ele>242.0</ele><time>2026-04-25T13:05:55.697Z</time></trkpt><trkpt lat="43.1760131" lon="10.8187072"><ele>242.0</ele><time>2026-04-25T13:05:56.701Z</time></trkpt><trkpt lat="43.1758832" lon="10.8186969"><ele>242.0</ele><time>2026-04-25T13:05:57.713Z</time></trkpt><trkpt lat="43.1757603" lon="10.8186816"><ele>242.0</ele><time>2026-04-25T13:05:58.7Z</time></trkpt><trkpt lat="43.1756419" lon="10.818668"><ele>241.25</ele><time>2026-04-25T13:05:59.697Z</time></trkpt><trkpt lat="43.1755303" lon="10.8186544"><ele>240.5</ele><time>2026-04-25T13:06:00.702Z</time></trkpt><trkpt lat="43.175351" lon="10.8186224"><ele>239.75</ele><time>2026-04-25T13:06:02.699Z</time></trkpt><trkpt lat="43.1752567" lon="10.8186135"><ele>239.0</ele><time>2026-04-25T13:06:04.715Z</time></trkpt><trkpt lat="43.1751937" lon="10.8186202"><ele>239.0</ele><time>2026-04-25T13:06:08.71Z</time></trkpt><trkpt lat="43.1751322" lon="10.8187215"><ele>239.0</ele><time>2026-04-25T13:06:54.685Z</time></trkpt><trkpt lat="43.1750654" lon="10.8189135"><ele>239.0</ele><time>2026-04-25T13:06:58.721Z</time></trkpt><trkpt lat="43.1750381" lon="10.8190244"><ele>239.0</ele><time>2026-04-25T13:07:00.714Z</time></trkpt><trkpt lat="43.174985" lon="10.8191884"><ele>239.00000000000003</ele><time>2026-04-25T13:07:02.711Z</time></trkpt><trkpt lat="43.1749496" lon="10.8192762"><ele>239.0</ele><time>2026-04-25T13:07:03.691Z</time></trkpt><trkpt lat="43.174913" lon="10.8193716"><ele>239.0</ele><time>2026-04-25T13:07:04.709Z</time></trkpt><trkpt lat="43.1748735" lon="10.8194747"><ele>239.0</ele><time>2026-04-25T13:07:05.724Z</time></trkpt><trkpt lat="43.1748285" lon="10.8195651"><ele>239.00000000000003</ele><time>2026-04-25T13:07:06.716Z</time></trkpt><trkpt lat="43.1747778" lon="10.8196434"><ele>239.0</ele><time>2026-04-25T13:07:07.73Z</time></trkpt><trkpt lat="43.1747242" lon="10.8197012"><ele>239.83333333333334</ele><time>2026-04-25T13:07:08.728Z</time></trkpt><trkpt lat="43.1746145" lon="10.8197733"><ele>240.66666666666669</ele><time>2026-04-25T13:07:10.704Z</time></trkpt><trkpt lat="43.1745512" lon="10.8197969"><ele>241.5</ele><time>2026-04-25T13:07:11.699Z</time></trkpt><trkpt lat="43.1744758" lon="10.8198028"><ele>242.33333333333331</ele><time>2026-04-25T13:07:12.705Z</time></trkpt><trkpt lat="43.1744076" lon="10.8197821"><ele>243.16666666666666</ele><time>2026-04-25T13:07:13.714Z</time></trkpt><trkpt lat="43.1743422" lon="10.8197418"><ele>244.0</ele><time>2026-04-25T13:07:14.677Z</time></trkpt><trkpt lat="43.1742873" lon="10.8196872"><ele>243.99999999999997</ele><time>2026-04-25T13:07:15.719Z</time></trkpt><trkpt lat="43.1741768" lon="10.8195855"><ele>244.0</ele><time>2026-04-25T13:07:17.721Z</time></trkpt><trkpt lat="43.1741179" lon="10.819548"><ele>244.0</ele><time>2026-04-25T13:07:18.693Z</time></trkpt><trkpt lat="43.1740505" lon="10.8195144"><ele>244.0</ele><time>2026-04-25T13:07:19.705Z</time></trkpt><trkpt lat="43.1739731" lon="10.819495"><ele>243.99999999999997</ele><time>2026-04-25T13:07:20.7Z</time></trkpt><trkpt lat="43.173889" lon="10.8194891"><ele>244.0</ele><time>2026-04-25T13:07:21.708Z</time></trkpt><trkpt lat="43.1737987" lon="10.8194865"><ele>243.49999999999997</ele><time>2026-04-25T13:07:22.706Z</time></trkpt><trkpt lat="43.1737147" lon="10.8194702"><ele>243.0</ele><time>2026-04-25T13:07:23.709Z</time></trkpt><trkpt lat="43.1736356" lon="10.8194338"><ele>242.5</ele><time>2026-04-25T13:07:24.716Z</time></trkpt><trkpt lat="43.1735672" lon="10.8193809"><ele>242.0</ele><time>2026-04-25T13:07:25.711Z</time></trkpt><trkpt lat="43.1735045" lon="10.8193241"><ele>241.49999999999997</ele><time>2026-04-25T13:07:26.707Z</time></trkpt><trkpt lat="43.1734351" lon="10.8192715"><ele>241.0</ele><time>2026-04-25T13:07:27.699Z</time></trkpt><trkpt lat="43.1733598" lon="10.8192222"><ele>239.60000000000002</ele><time>2026-04-25T13:07:28.717Z</time></trkpt><trkpt lat="43.1732758" lon="10.8191766"><ele>238.20000000000002</ele><time>2026-04-25T13:07:29.729Z</time></trkpt><trkpt lat="43.1731926" lon="10.8191426"><ele>236.79999999999998</ele><time>2026-04-25T13:07:30.71Z</time></trkpt><trkpt lat="43.1731075" lon="10.819117"><ele>235.39999999999998</ele><time>2026-04-25T13:07:31.715Z</time></trkpt><trkpt lat="43.1730171" lon="10.8191134"><ele>234.0</ele><time>2026-04-25T13:07:32.711Z</time></trkpt><trkpt lat="43.1729156" lon="10.8191221"><ele>233.0</ele><time>2026-04-25T13:07:33.725Z</time></trkpt><trkpt lat="43.1728155" lon="10.8191466"><ele>232.0</ele><time>2026-04-25T13:07:34.691Z</time></trkpt><trkpt lat="43.1727176" lon="10.8191764"><ele>231.0</ele><time>2026-04-25T13:07:35.711Z</time></trkpt><trkpt lat="43.1726171" lon="10.8192071"><ele>230.0</ele><time>2026-04-25T13:07:36.72Z</time></trkpt><trkpt lat="43.1724222" lon="10.8192539"><ele>229.8</ele><time>2026-04-25T13:07:38.712Z</time></trkpt><trkpt lat="43.1723188" lon="10.8192751"><ele>229.6</ele><time>2026-04-25T13:07:39.72Z</time></trkpt><trkpt lat="43.1722149" lon="10.8192951"><ele>229.39999999999998</ele><time>2026-04-25T13:07:40.695Z</time></trkpt><trkpt lat="43.1721193" lon="10.8193101"><ele>229.2</ele><time>2026-04-25T13:07:41.716Z</time></trkpt><trkpt lat="43.1720238" lon="10.8193222"><ele>229.0</ele><time>2026-04-25T13:07:42.717Z</time></trkpt><trkpt lat="43.1719292" lon="10.8193423"><ele>230.6</ele><time>2026-04-25T13:07:43.714Z</time></trkpt><trkpt lat="43.1718355" lon="10.8193666"><ele>232.2</ele><time>2026-04-25T13:07:44.719Z</time></trkpt><trkpt lat="43.1717355" lon="10.8193936"><ele>233.79999999999998</ele><time>2026-04-25T13:07:45.733Z</time></trkpt><trkpt lat="43.1716328" lon="10.8194166"><ele>235.39999999999998</ele><time>2026-04-25T13:07:46.708Z</time></trkpt><trkpt lat="43.1715394" lon="10.8194309"><ele>237.0</ele><time>2026-04-25T13:07:47.726Z</time></trkpt><trkpt lat="43.1714553" lon="10.8194421"><ele>238.0</ele><time>2026-04-25T13:07:48.706Z</time></trkpt><trkpt lat="43.1713675" lon="10.8194519"><ele>239.0</ele><time>2026-04-25T13:07:49.727Z</time></trkpt><trkpt lat="43.1712754" lon="10.8194606"><ele>240.0</ele><time>2026-04-25T13:07:50.706Z</time></trkpt><trkpt lat="43.1711805" lon="10.81946"><ele>241.0</ele><time>2026-04-25T13:07:51.725Z</time></trkpt><trkpt lat="43.1710825" lon="10.8194563"><ele>242.0</ele><time>2026-04-25T13:07:52.704Z</time></trkpt><trkpt lat="43.1709853" lon="10.8194494"><ele>242.0</ele><time>2026-04-25T13:07:53.725Z</time></trkpt><trkpt lat="43.1708815" lon="10.8194438"><ele>242.0</ele><time>2026-04-25T13:07:54.673Z</time></trkpt><trkpt lat="43.1707743" lon="10.8194405"><ele>242.0</ele><time>2026-04-25T13:07:55.686Z</time></trkpt><trkpt lat="43.170662" lon="10.8194368"><ele>242.0</ele><time>2026-04-25T13:07:56.714Z</time></trkpt><trkpt lat="43.1705565" lon="10.8194319"><ele>242.0</ele><time>2026-04-25T13:07:57.702Z</time></trkpt><trkpt lat="43.1703677" lon="10.8194323"><ele>243.39999999999998</ele><time>2026-04-25T13:07:59.71Z</time></trkpt><trkpt lat="43.1702711" lon="10.8194328"><ele>244.79999999999998</ele><time>2026-04-25T13:08:00.712Z</time></trkpt><trkpt lat="43.1701746" lon="10.8194343"><ele>246.2</ele><time>2026-04-25T13:08:01.721Z</time></trkpt><trkpt lat="43.1700762" lon="10.8194389"><ele>247.6</ele><time>2026-04-25T13:08:02.723Z</time></trkpt><trkpt lat="43.1699872" lon="10.8194449"><ele>249.0</ele><time>2026-04-25T13:08:03.718Z</time></trkpt><trkpt lat="43.1699106" lon="10.8194523"><ele>248.7142857142857</ele><time>2026-04-25T13:08:04.71Z</time></trkpt><trkpt lat="43.1698337" lon="10.8194573"><ele>248.4285714285714</ele><time>2026-04-25T13:08:05.731Z</time></trkpt><trkpt lat="43.1697567" lon="10.819448"><ele>248.14285714285714</ele><time>2026-04-25T13:08:06.711Z</time></trkpt><trkpt lat="43.1696853" lon="10.8194212"><ele>247.85714285714283</ele><time>2026-04-25T13:08:07.729Z</time></trkpt><trkpt lat="43.1696217" lon="10.8193741"><ele>247.57142857142856</ele><time>2026-04-25T13:08:08.715Z</time></trkpt><trkpt lat="43.1695672" lon="10.8193116"><ele>247.28571428571428</ele><time>2026-04-25T13:08:09.721Z</time></trkpt><trkpt lat="43.1695245" lon="10.8192319"><ele>247.0</ele><time>2026-04-25T13:08:10.728Z</time></trkpt><trkpt lat="43.1694957" lon="10.8191383"><ele>245.85714285714286</ele><time>2026-04-25T13:08:11.675Z</time></trkpt><trkpt lat="43.169477" lon="10.8190373"><ele>244.71428571428572</ele><time>2026-04-25T13:08:12.694Z</time></trkpt><trkpt lat="43.1694629" lon="10.8189355"><ele>243.57142857142858</ele><time>2026-04-25T13:08:13.69Z</time></trkpt><trkpt lat="43.1694523" lon="10.8188295"><ele>242.42857142857144</ele><time>2026-04-25T13:08:14.699Z</time></trkpt><trkpt lat="43.1694421" lon="10.8187236"><ele>241.28571428571428</ele><time>2026-04-25T13:08:15.706Z</time></trkpt><trkpt lat="43.1694315" lon="10.8186268"><ele>240.14285714285717</ele><time>2026-04-25T13:08:16.708Z</time></trkpt><trkpt lat="43.1694267" lon="10.8185363"><ele>239.00000000000003</ele><time>2026-04-25T13:08:17.706Z</time></trkpt><trkpt lat="43.1694293" lon="10.8184498"><ele>238.6</ele><time>2026-04-25T13:08:18.683Z</time></trkpt><trkpt lat="43.169461" lon="10.8182534"><ele>238.2</ele><time>2026-04-25T13:08:20.705Z</time></trkpt><trkpt lat="43.1694933" lon="10.8181395"><ele>237.79999999999998</ele><time>2026-04-25T13:08:21.698Z</time></trkpt><trkpt lat="43.1695229" lon="10.8180302"><ele>237.39999999999998</ele><time>2026-04-25T13:08:22.68Z</time></trkpt><trkpt lat="43.1695511" lon="10.81793"><ele>237.0</ele><time>2026-04-25T13:08:23.684Z</time></trkpt><trkpt lat="43.1695824" lon="10.8178195"><ele>237.0</ele><time>2026-04-25T13:08:24.707Z</time></trkpt><trkpt lat="43.1696151" lon="10.8177019"><ele>237.0</ele><time>2026-04-25T13:08:25.721Z</time></trkpt><trkpt lat="43.16965" lon="10.817582"><ele>237.0</ele><time>2026-04-25T13:08:26.702Z</time></trkpt><trkpt lat="43.1696829" lon="10.8174666"><ele>237.0</ele><time>2026-04-25T13:08:27.724Z</time></trkpt><trkpt lat="43.1697172" lon="10.8173556"><ele>237.0</ele><time>2026-04-25T13:08:28.723Z</time></trkpt><trkpt lat="43.1697517" lon="10.8172495"><ele>237.0</ele><time>2026-04-25T13:08:29.703Z</time></trkpt><trkpt lat="43.1697865" lon="10.8171555"><ele>236.99999999999997</ele><time>2026-04-25T13:08:30.721Z</time></trkpt><trkpt lat="43.169821" lon="10.8170706"><ele>237.0</ele><time>2026-04-25T13:08:31.734Z</time></trkpt><trkpt lat="43.1698529" lon="10.8169925"><ele>236.99999999999997</ele><time>2026-04-25T13:08:32.713Z</time></trkpt><trkpt lat="43.1698831" lon="10.8169128"><ele>236.99999999999997</ele><time>2026-04-25T13:08:33.725Z</time></trkpt><trkpt lat="43.1699173" lon="10.8168227"><ele>237.0</ele><time>2026-04-25T13:08:34.688Z</time></trkpt><trkpt lat="43.1699592" lon="10.8167291"><ele>236.99999999999997</ele><time>2026-04-25T13:08:35.696Z</time></trkpt><trkpt lat="43.1700015" lon="10.8166402"><ele>236.99999999999997</ele><time>2026-04-25T13:08:36.734Z</time></trkpt><trkpt lat="43.1700391" lon="10.816558"><ele>237.2</ele><time>2026-04-25T13:08:37.733Z</time></trkpt><trkpt lat="43.1700761" lon="10.8164835"><ele>237.39999999999998</ele><time>2026-04-25T13:08:38.713Z</time></trkpt><trkpt lat="43.1701318" lon="10.8163678"><ele>237.60000000000002</ele><time>2026-04-25T13:08:40.726Z</time></trkpt><trkpt lat="43.1701797" lon="10.816195"><ele>237.8</ele><time>2026-04-25T13:08:45.729Z</time></trkpt><trkpt lat="43.1701758" lon="10.8160962"><ele>238.0</ele><time>2026-04-25T13:08:50.738Z</time></trkpt><trkpt lat="43.1701385" lon="10.8159731"><ele>238.0</ele><time>2026-04-25T13:08:53.698Z</time></trkpt><trkpt lat="43.1700927" lon="10.8158554"><ele>238.0</ele><time>2026-04-25T13:08:55.726Z</time></trkpt><trkpt lat="43.1700352" lon="10.8157124"><ele>238.0</ele><time>2026-04-25T13:08:57.735Z</time></trkpt><trkpt lat="43.1699702" lon="10.8155681"><ele>238.0</ele><time>2026-04-25T13:08:59.728Z</time></trkpt><trkpt lat="43.1699372" lon="10.815491"><ele>238.0</ele><time>2026-04-25T13:09:00.726Z</time></trkpt><trkpt lat="43.1699018" lon="10.8154125"><ele>236.60000000000002</ele><time>2026-04-25T13:09:01.738Z</time></trkpt><trkpt lat="43.169807" lon="10.8151866"><ele>235.20000000000002</ele><time>2026-04-25T13:09:04.7Z</time></trkpt><trkpt lat="43.1697752" lon="10.8151065"><ele>233.8</ele><time>2026-04-25T13:09:05.732Z</time></trkpt><trkpt lat="43.1697428" lon="10.8150264"><ele>232.4</ele><time>2026-04-25T13:09:06.725Z</time></trkpt><trkpt lat="43.1697119" lon="10.8149479"><ele>231.0</ele><time>2026-04-25T13:09:07.722Z</time></trkpt><trkpt lat="43.1696786" lon="10.8148695"><ele>230.25</ele><time>2026-04-25T13:09:08.709Z</time></trkpt><trkpt lat="43.169616" lon="10.8147232"><ele>229.5</ele><time>2026-04-25T13:09:10.724Z</time></trkpt><trkpt lat="43.1695563" lon="10.814576"><ele>228.75</ele><time>2026-04-25T13:09:12.721Z</time></trkpt><trkpt lat="43.1694986" lon="10.8144435"><ele>228.0</ele><time>2026-04-25T13:09:14.728Z</time></trkpt><trkpt lat="43.1694454" lon="10.8143203"><ele>227.4</ele><time>2026-04-25T13:09:16.715Z</time></trkpt><trkpt lat="43.1693929" lon="10.8141958"><ele>226.8</ele><time>2026-04-25T13:09:18.719Z</time></trkpt><trkpt lat="43.1693366" lon="10.8140576"><ele>226.2</ele><time>2026-04-25T13:09:20.733Z</time></trkpt><trkpt lat="43.1693062" lon="10.8139808"><ele>225.6</ele><time>2026-04-25T13:09:21.697Z</time></trkpt><trkpt lat="43.1692716" lon="10.8139039"><ele>225.0</ele><time>2026-04-25T13:09:22.725Z</time></trkpt><trkpt lat="43.1691933" lon="10.8137374"><ele>225.0</ele><time>2026-04-25T13:09:24.733Z</time></trkpt><trkpt lat="43.1691509" lon="10.8136456"><ele>225.0</ele><time>2026-04-25T13:09:25.734Z</time></trkpt><trkpt lat="43.1691132" lon="10.8135548"><ele>225.0</ele><time>2026-04-25T13:09:26.684Z</time></trkpt><trkpt lat="43.1690797" lon="10.8134632"><ele>225.0</ele><time>2026-04-25T13:09:27.737Z</time></trkpt><trkpt lat="43.1690425" lon="10.8133732"><ele>225.0</ele><time>2026-04-25T13:09:28.739Z</time></trkpt><trkpt lat="43.1689999" lon="10.813275"><ele>225.0</ele><time>2026-04-25T13:09:29.729Z</time></trkpt><trkpt lat="43.1689567" lon="10.8131689"><ele>223.33333333333334</ele><time>2026-04-25T13:09:30.699Z</time></trkpt><trkpt lat="43.1689106" lon="10.8130613"><ele>221.66666666666669</ele><time>2026-04-25T13:09:31.731Z</time></trkpt><trkpt lat="43.1688622" lon="10.8129478"><ele>220.0</ele><time>2026-04-25T13:09:32.728Z</time></trkpt><trkpt lat="43.1688147" lon="10.8128425"><ele>218.33333333333334</ele><time>2026-04-25T13:09:33.735Z</time></trkpt><trkpt lat="43.1687736" lon="10.8127474"><ele>216.66666666666669</ele><time>2026-04-25T13:09:34.733Z</time></trkpt><trkpt lat="43.1687385" lon="10.8126636"><ele>215.0</ele><time>2026-04-25T13:09:35.731Z</time></trkpt><trkpt lat="43.1686992" lon="10.8125778"><ele>214.83333333333334</ele><time>2026-04-25T13:09:36.735Z</time></trkpt><trkpt lat="43.1686588" lon="10.8124847"><ele>214.66666666666669</ele><time>2026-04-25T13:09:37.736Z</time></trkpt><trkpt lat="43.1686182" lon="10.8123935"><ele>214.5</ele><time>2026-04-25T13:09:38.737Z</time></trkpt><trkpt lat="43.1685506" lon="10.8122488"><ele>214.33333333333331</ele><time>2026-04-25T13:09:40.733Z</time></trkpt><trkpt lat="43.168515" lon="10.8121676"><ele>214.16666666666666</ele><time>2026-04-25T13:09:41.733Z</time></trkpt><trkpt lat="43.16848" lon="10.8120793"><ele>214.0</ele><time>2026-04-25T13:09:42.696Z</time></trkpt><trkpt lat="43.1684455" lon="10.8119923"><ele>214.0</ele><time>2026-04-25T13:09:43.729Z</time></trkpt><trkpt lat="43.168369" lon="10.8118372"><ele>213.99999999999997</ele><time>2026-04-25T13:09:45.733Z</time></trkpt><trkpt lat="43.1682916" lon="10.8116936"><ele>213.99999999999997</ele><time>2026-04-25T13:09:47.741Z</time></trkpt><trkpt lat="43.1682489" lon="10.8116212"><ele>214.0</ele><time>2026-04-25T13:09:48.729Z</time></trkpt><trkpt lat="43.1682071" lon="10.8115419"><ele>214.0</ele><time>2026-04-25T13:09:49.738Z</time></trkpt><trkpt lat="43.168164" lon="10.8114572"><ele>212.6</ele><time>2026-04-25T13:09:50.725Z</time></trkpt><trkpt lat="43.1681267" lon="10.8113789"><ele>211.2</ele><time>2026-04-25T13:09:51.732Z</time></trkpt><trkpt lat="43.1680661" lon="10.8112331"><ele>209.79999999999998</ele><time>2026-04-25T13:09:53.704Z</time></trkpt><trkpt lat="43.1680108" lon="10.8110751"><ele>208.39999999999998</ele><time>2026-04-25T13:09:55.722Z</time></trkpt><trkpt lat="43.1679862" lon="10.8109928"><ele>207.0</ele><time>2026-04-25T13:09:56.727Z</time></trkpt><trkpt lat="43.1679439" lon="10.8108446"><ele>207.0</ele><time>2026-04-25T13:09:58.735Z</time></trkpt><trkpt lat="43.1678985" lon="10.8107128"><ele>207.0</ele><time>2026-04-25T13:10:00.741Z</time></trkpt><trkpt lat="43.1678374" lon="10.8105683"><ele>207.0</ele><time>2026-04-25T13:10:02.729Z</time></trkpt><trkpt lat="43.1677883" lon="10.810493"><ele>207.0</ele><time>2026-04-25T13:10:03.732Z</time></trkpt><trkpt lat="43.1677363" lon="10.8104099"><ele>207.0</ele><time>2026-04-25T13:10:04.708Z</time></trkpt><trkpt lat="43.1676136" lon="10.8102331"><ele>207.0</ele><time>2026-04-25T13:10:06.704Z</time></trkpt><trkpt lat="43.1675452" lon="10.8101392"><ele>207.0</ele><time>2026-04-25T13:10:07.743Z</time></trkpt><trkpt lat="43.1674743" lon="10.8100426"><ele>207.0</ele><time>2026-04-25T13:10:08.736Z</time></trkpt><trkpt lat="43.1673998" lon="10.8099372"><ele>207.0</ele><time>2026-04-25T13:10:09.751Z</time></trkpt><trkpt lat="43.1673225" lon="10.8098336"><ele>207.0</ele><time>2026-04-25T13:10:10.722Z</time></trkpt><trkpt lat="43.1672524" lon="10.8097287"><ele>205.39999999999998</ele><time>2026-04-25T13:10:11.738Z</time></trkpt><trkpt lat="43.1671824" lon="10.8096323"><ele>203.79999999999998</ele><time>2026-04-25T13:10:12.737Z</time></trkpt><trkpt lat="43.1671142" lon="10.8095327"><ele>202.2</ele><time>2026-04-25T13:10:13.712Z</time></trkpt><trkpt lat="43.1670461" lon="10.8094342"><ele>200.6</ele><time>2026-04-25T13:10:14.733Z</time></trkpt><trkpt lat="43.1669727" lon="10.8093268"><ele>199.0</ele><time>2026-04-25T13:10:15.731Z</time></trkpt><trkpt lat="43.1668977" lon="10.8092204"><ele>199.0</ele><time>2026-04-25T13:10:16.733Z</time></trkpt><trkpt lat="43.166825" lon="10.8091189"><ele>199.0</ele><time>2026-04-25T13:10:17.714Z</time></trkpt><trkpt lat="43.1667575" lon="10.8090211"><ele>199.0</ele><time>2026-04-25T13:10:18.729Z</time></trkpt><trkpt lat="43.1666909" lon="10.8089205"><ele>199.0</ele><time>2026-04-25T13:10:19.743Z</time></trkpt><trkpt lat="43.1666292" lon="10.8088197"><ele>199.0</ele><time>2026-04-25T13:10:20.732Z</time></trkpt><trkpt lat="43.1665682" lon="10.8087164"><ele>199.0</ele><time>2026-04-25T13:10:21.741Z</time></trkpt><trkpt lat="43.1665033" lon="10.8086038"><ele>199.0</ele><time>2026-04-25T13:10:22.733Z</time></trkpt><trkpt lat="43.1664341" lon="10.8084814"><ele>199.0</ele><time>2026-04-25T13:10:23.73Z</time></trkpt><trkpt lat="43.1663666" lon="10.8083615"><ele>199.0</ele><time>2026-04-25T13:10:24.721Z</time></trkpt><trkpt lat="43.1663025" lon="10.80825"><ele>199.0</ele><time>2026-04-25T13:10:25.742Z</time></trkpt><trkpt lat="43.1661821" lon="10.8080208"><ele>199.0</ele><time>2026-04-25T13:10:27.737Z</time></trkpt><trkpt lat="43.1661209" lon="10.8079036"><ele>199.0</ele><time>2026-04-25T13:10:28.742Z</time></trkpt><trkpt lat="43.1660637" lon="10.8077903"><ele>199.0</ele><time>2026-04-25T13:10:29.729Z</time></trkpt><trkpt lat="43.1660141" lon="10.807689"><ele>199.0</ele><time>2026-04-25T13:10:30.73Z</time></trkpt><trkpt lat="43.1659698" lon="10.8075985"><ele>199.0</ele><time>2026-04-25T13:10:31.745Z</time></trkpt><trkpt lat="43.1659207" lon="10.8075151"><ele>198.49999999999997</ele><time>2026-04-25T13:10:32.711Z</time></trkpt><trkpt lat="43.1658687" lon="10.8074357"><ele>198.0</ele><time>2026-04-25T13:10:33.732Z</time></trkpt><trkpt lat="43.1658131" lon="10.8073616"><ele>197.5</ele><time>2026-04-25T13:10:34.739Z</time></trkpt><trkpt lat="43.165748" lon="10.8072907"><ele>197.0</ele><time>2026-04-25T13:10:35.744Z</time></trkpt><trkpt lat="43.165678" lon="10.8072101"><ele>196.49999999999997</ele><time>2026-04-25T13:10:36.735Z</time></trkpt><trkpt lat="43.1656153" lon="10.8071298"><ele>196.0</ele><time>2026-04-25T13:10:37.738Z</time></trkpt><trkpt lat="43.1655449" lon="10.8070532"><ele>195.20000000000002</ele><time>2026-04-25T13:10:38.741Z</time></trkpt><trkpt lat="43.1654736" lon="10.8069717"><ele>194.4</ele><time>2026-04-25T13:10:39.73Z</time></trkpt><trkpt lat="43.1654027" lon="10.8068879"><ele>193.6</ele><time>2026-04-25T13:10:40.733Z</time></trkpt><trkpt lat="43.1653278" lon="10.8068055"><ele>192.8</ele><time>2026-04-25T13:10:41.722Z</time></trkpt><trkpt lat="43.1652533" lon="10.8067225"><ele>192.0</ele><time>2026-04-25T13:10:42.741Z</time></trkpt><trkpt lat="43.1651794" lon="10.8066419"><ele>191.2</ele><time>2026-04-25T13:10:43.73Z</time></trkpt><trkpt lat="43.16511" lon="10.8065615"><ele>190.39999999999998</ele><time>2026-04-25T13:10:44.743Z</time></trkpt><trkpt lat="43.165045" lon="10.8064868"><ele>189.60000000000002</ele><time>2026-04-25T13:10:45.732Z</time></trkpt><trkpt lat="43.1649811" lon="10.8064186"><ele>188.8</ele><time>2026-04-25T13:10:46.712Z</time></trkpt><trkpt lat="43.1648458" lon="10.8063025"><ele>188.0</ele><time>2026-04-25T13:10:48.742Z</time></trkpt><trkpt lat="43.1647696" lon="10.8062598"><ele>186.8</ele><time>2026-04-25T13:10:49.751Z</time></trkpt><trkpt lat="43.1646854" lon="10.8062286"><ele>185.60000000000002</ele><time>2026-04-25T13:10:50.734Z</time></trkpt><trkpt lat="43.1645946" lon="10.8062015"><ele>184.39999999999998</ele><time>2026-04-25T13:10:51.741Z</time></trkpt><trkpt lat="43.1645013" lon="10.8061793"><ele>183.2</ele><time>2026-04-25T13:10:52.71Z</time></trkpt><trkpt lat="43.1644098" lon="10.8061596"><ele>182.0</ele><time>2026-04-25T13:10:53.749Z</time></trkpt><trkpt lat="43.1643183" lon="10.8061407"><ele>182.0</ele><time>2026-04-25T13:10:54.746Z</time></trkpt><trkpt lat="43.1642278" lon="10.8061171"><ele>182.0</ele><time>2026-04-25T13:10:55.735Z</time></trkpt><trkpt lat="43.1641394" lon="10.8060917"><ele>182.0</ele><time>2026-04-25T13:10:56.74Z</time></trkpt><trkpt lat="43.1640531" lon="10.8060648"><ele>182.0</ele><time>2026-04-25T13:10:57.748Z</time></trkpt><trkpt lat="43.1639635" lon="10.8060364"><ele>182.0</ele><time>2026-04-25T13:10:58.713Z</time></trkpt><trkpt lat="43.1638748" lon="10.8060111"><ele>179.6</ele><time>2026-04-25T13:10:59.748Z</time></trkpt><trkpt lat="43.1637774" lon="10.8059915"><ele>177.2</ele><time>2026-04-25T13:11:00.743Z</time></trkpt><trkpt lat="43.1636811" lon="10.8059805"><ele>174.8</ele><time>2026-04-25T13:11:01.745Z</time></trkpt><trkpt lat="43.1635838" lon="10.8059693"><ele>172.4</ele><time>2026-04-25T13:11:02.723Z</time></trkpt><trkpt lat="43.1634912" lon="10.8059691"><ele>170.0</ele><time>2026-04-25T13:11:03.727Z</time></trkpt><trkpt lat="43.1634009" lon="10.8059804"><ele>170.0</ele><time>2026-04-25T13:11:04.752Z</time></trkpt><trkpt lat="43.1633168" lon="10.8059918"><ele>170.0</ele><time>2026-04-25T13:11:05.741Z</time></trkpt><trkpt lat="43.1632376" lon="10.8060009"><ele>170.0</ele><time>2026-04-25T13:11:06.752Z</time></trkpt><trkpt lat="43.1631612" lon="10.8060131"><ele>170.0</ele><time>2026-04-25T13:11:07.734Z</time></trkpt><trkpt lat="43.163001" lon="10.8060397"><ele>170.0</ele><time>2026-04-25T13:11:09.734Z</time></trkpt><trkpt lat="43.1629199" lon="10.8060558"><ele>171.0</ele><time>2026-04-25T13:11:10.75Z</time></trkpt><trkpt lat="43.1628365" lon="10.8060673"><ele>172.0</ele><time>2026-04-25T13:11:11.714Z</time></trkpt><trkpt lat="43.1627556" lon="10.8060783"><ele>173.0</ele><time>2026-04-25T13:11:12.754Z</time></trkpt><trkpt lat="43.1626778" lon="10.8060869"><ele>174.0</ele><time>2026-04-25T13:11:13.733Z</time></trkpt><trkpt lat="43.1626007" lon="10.806099"><ele>175.0</ele><time>2026-04-25T13:11:14.749Z</time></trkpt><trkpt lat="43.1625257" lon="10.8061255"><ele>176.0</ele><time>2026-04-25T13:11:15.724Z</time></trkpt><trkpt lat="43.1624489" lon="10.8061749"><ele>176.0</ele><time>2026-04-25T13:11:16.743Z</time></trkpt><trkpt lat="43.1623816" lon="10.806232"><ele>176.0</ele><time>2026-04-25T13:11:17.742Z</time></trkpt><trkpt lat="43.1623228" lon="10.8062898"><ele>176.0</ele><time>2026-04-25T13:11:18.742Z</time></trkpt><trkpt lat="43.1622597" lon="10.8063449"><ele>176.0</ele><time>2026-04-25T13:11:19.74Z</time></trkpt><trkpt lat="43.1621957" lon="10.8063956"><ele>176.0</ele><time>2026-04-25T13:11:20.739Z</time></trkpt><trkpt lat="43.1621372" lon="10.8064479"><ele>176.0</ele><time>2026-04-25T13:11:21.721Z</time></trkpt><trkpt lat="43.1620471" lon="10.8065386"><ele>177.8</ele><time>2026-04-25T13:11:23.731Z</time></trkpt><trkpt lat="43.1619774" lon="10.8065208"><ele>179.60000000000002</ele><time>2026-04-25T13:11:26.762Z</time></trkpt><trkpt lat="43.1619473" lon="10.8064402"><ele>181.4</ele><time>2026-04-25T13:11:28.733Z</time></trkpt><trkpt lat="43.1619819" lon="10.8062557"><ele>183.2</ele><time>2026-04-25T13:11:30.731Z</time></trkpt><trkpt lat="43.1620146" lon="10.8061444"><ele>185.0</ele><time>2026-04-25T13:11:31.747Z</time></trkpt><trkpt lat="43.1620397" lon="10.8060196"><ele>185.4</ele><time>2026-04-25T13:11:32.72Z</time></trkpt><trkpt lat="43.1620587" lon="10.8058922"><ele>185.8</ele><time>2026-04-25T13:11:33.735Z</time></trkpt><trkpt lat="43.1620837" lon="10.8057651"><ele>186.2</ele><time>2026-04-25T13:11:34.735Z</time></trkpt><trkpt lat="43.1621109" lon="10.8056311"><ele>186.6</ele><time>2026-04-25T13:11:35.739Z</time></trkpt><trkpt lat="43.1621309" lon="10.8054889"><ele>187.0</ele><time>2026-04-25T13:11:36.74Z</time></trkpt><trkpt lat="43.1621527" lon="10.8053411"><ele>187.0</ele><time>2026-04-25T13:11:37.743Z</time></trkpt><trkpt lat="43.16218" lon="10.8051972"><ele>187.0</ele><time>2026-04-25T13:11:38.743Z</time></trkpt><trkpt lat="43.1622093" lon="10.8050498"><ele>187.0</ele><time>2026-04-25T13:11:39.755Z</time></trkpt><trkpt lat="43.1622406" lon="10.8048909"><ele>187.0</ele><time>2026-04-25T13:11:40.74Z</time></trkpt><trkpt lat="43.1622667" lon="10.8047135"><ele>188.0</ele><time>2026-04-25T13:11:41.749Z</time></trkpt><trkpt lat="43.1622933" lon="10.8045189"><ele>189.0</ele><time>2026-04-25T13:11:42.734Z</time></trkpt><trkpt lat="43.1623215" lon="10.8043174"><ele>190.0</ele><time>2026-04-25T13:11:43.723Z</time></trkpt><trkpt lat="43.162338" lon="10.8041172"><ele>191.0</ele><time>2026-04-25T13:11:44.723Z</time></trkpt><trkpt lat="43.1623578" lon="10.8039274"><ele>186.5</ele><time>2026-04-25T13:11:45.742Z</time></trkpt><trkpt lat="43.1623743" lon="10.8037417"><ele>182.0</ele><time>2026-04-25T13:11:46.745Z</time></trkpt><trkpt lat="43.1623909" lon="10.8035679"><ele>177.5</ele><time>2026-04-25T13:11:47.743Z</time></trkpt><trkpt lat="43.1624093" lon="10.8033984"><ele>173.0</ele><time>2026-04-25T13:11:48.751Z</time></trkpt><trkpt lat="43.1624266" lon="10.8032255"><ele>173.0</ele><time>2026-04-25T13:11:49.718Z</time></trkpt><trkpt lat="43.1624532" lon="10.8028752"><ele>173.0</ele><time>2026-04-25T13:11:51.736Z</time></trkpt><trkpt lat="43.1624751" lon="10.8026924"><ele>173.0</ele><time>2026-04-25T13:11:52.768Z</time></trkpt><trkpt lat="43.1624982" lon="10.802514"><ele>173.0</ele><time>2026-04-25T13:11:53.724Z</time></trkpt><trkpt lat="43.1625148" lon="10.802346"><ele>173.0</ele><time>2026-04-25T13:11:54.741Z</time></trkpt><trkpt lat="43.1625264" lon="10.8021914"><ele>173.0</ele><time>2026-04-25T13:11:55.741Z</time></trkpt><trkpt lat="43.1625351" lon="10.8020397"><ele>173.0</ele><time>2026-04-25T13:11:56.727Z</time></trkpt><trkpt lat="43.1625362" lon="10.80189"><ele>172.4</ele><time>2026-04-25T13:11:57.73Z</time></trkpt><trkpt lat="43.1625321" lon="10.8017402"><ele>171.8</ele><time>2026-04-25T13:11:58.729Z</time></trkpt><trkpt lat="43.1625166" lon="10.801585"><ele>171.2</ele><time>2026-04-25T13:11:59.736Z</time></trkpt><trkpt lat="43.1624861" lon="10.8014372"><ele>170.6</ele><time>2026-04-25T13:12:00.748Z</time></trkpt><trkpt lat="43.1624567" lon="10.8012941"><ele>170.0</ele><time>2026-04-25T13:12:01.733Z</time></trkpt><trkpt lat="43.1624268" lon="10.801152"><ele>170.0</ele><time>2026-04-25T13:12:02.748Z</time></trkpt><trkpt lat="43.162386" lon="10.8010103"><ele>170.0</ele><time>2026-04-25T13:12:03.743Z</time></trkpt><trkpt lat="43.1623325" lon="10.8008777"><ele>170.0</ele><time>2026-04-25T13:12:04.713Z</time></trkpt><trkpt lat="43.1622653" lon="10.8007553"><ele>170.0</ele><time>2026-04-25T13:12:05.742Z</time></trkpt><trkpt lat="43.1621892" lon="10.8006367"><ele>170.0</ele><time>2026-04-25T13:12:06.73Z</time></trkpt><trkpt lat="43.1621126" lon="10.8005085"><ele>169.0</ele><time>2026-04-25T13:12:07.748Z</time></trkpt><trkpt lat="43.1620401" lon="10.8003765"><ele>168.0</ele><time>2026-04-25T13:12:08.739Z</time></trkpt><trkpt lat="43.1619769" lon="10.8002431"><ele>167.0</ele><time>2026-04-25T13:12:09.757Z</time></trkpt><trkpt lat="43.1619063" lon="10.8001144"><ele>166.0</ele><time>2026-04-25T13:12:10.741Z</time></trkpt><trkpt lat="43.1617558" lon="10.7999068"><ele>166.0</ele><time>2026-04-25T13:12:12.752Z</time></trkpt><trkpt lat="43.1616781" lon="10.7998091"><ele>166.0</ele><time>2026-04-25T13:12:13.74Z</time></trkpt><trkpt lat="43.1616085" lon="10.7997177"><ele>166.0</ele><time>2026-04-25T13:12:14.743Z</time></trkpt><trkpt lat="43.1615517" lon="10.7996276"><ele>166.0</ele><time>2026-04-25T13:12:15.751Z</time></trkpt><trkpt lat="43.161514" lon="10.7995404"><ele>166.0</ele><time>2026-04-25T13:12:16.722Z</time></trkpt><trkpt lat="43.1614966" lon="10.7994512"><ele>166.0</ele><time>2026-04-25T13:12:17.733Z</time></trkpt><trkpt lat="43.1615069" lon="10.7993479"><ele>164.20000000000002</ele><time>2026-04-25T13:12:18.732Z</time></trkpt><trkpt lat="43.1615457" lon="10.7992559"><ele>162.4</ele><time>2026-04-25T13:12:19.755Z</time></trkpt><trkpt lat="43.1615941" lon="10.7991644"><ele>160.6</ele><time>2026-04-25T13:12:20.748Z</time></trkpt><trkpt lat="43.1616501" lon="10.7990659"><ele>158.8</ele><time>2026-04-25T13:12:21.735Z</time></trkpt><trkpt lat="43.161703" lon="10.7989482"><ele>157.0</ele><time>2026-04-25T13:12:22.734Z</time></trkpt><trkpt lat="43.1617563" lon="10.798829"><ele>157.0</ele><time>2026-04-25T13:12:23.735Z</time></trkpt><trkpt lat="43.1618005" lon="10.7987157"><ele>157.0</ele><time>2026-04-25T13:12:24.753Z</time></trkpt><trkpt lat="43.1618494" lon="10.7986099"><ele>157.0</ele><time>2026-04-25T13:12:25.733Z</time></trkpt><trkpt lat="43.1618978" lon="10.7985054"><ele>157.0</ele><time>2026-04-25T13:12:26.727Z</time></trkpt><trkpt lat="43.1619412" lon="10.7984062"><ele>157.0</ele><time>2026-04-25T13:12:27.744Z</time></trkpt><trkpt lat="43.1619851" lon="10.7983221"><ele>157.0</ele><time>2026-04-25T13:12:28.743Z</time></trkpt><trkpt lat="43.1620308" lon="10.7982396"><ele>156.25</ele><time>2026-04-25T13:12:29.752Z</time></trkpt><trkpt lat="43.1620719" lon="10.798163"><ele>155.5</ele><time>2026-04-25T13:12:30.736Z</time></trkpt><trkpt lat="43.1621051" lon="10.798089"><ele>154.75</ele><time>2026-04-25T13:12:31.75Z</time></trkpt><trkpt lat="43.1622306" lon="10.7978324"><ele>154.0</ele><time>2026-04-25T13:12:35.751Z</time></trkpt><trkpt lat="43.16229" lon="10.7977009"><ele>153.8</ele><time>2026-04-25T13:12:37.752Z</time></trkpt><trkpt lat="43.1623347" lon="10.7975865"><ele>153.60000000000002</ele><time>2026-04-25T13:12:39.741Z</time></trkpt><trkpt lat="43.1623777" lon="10.7974853"><ele>153.4</ele><time>2026-04-25T13:12:41.747Z</time></trkpt><trkpt lat="43.1624163" lon="10.7974046"><ele>153.20000000000002</ele><time>2026-04-25T13:12:43.743Z</time></trkpt><trkpt lat="43.1624775" lon="10.7972746"><ele>153.0</ele><time>2026-04-25T13:12:45.748Z</time></trkpt><trkpt lat="43.1625298" lon="10.7971596"><ele>153.4</ele><time>2026-04-25T13:12:47.761Z</time></trkpt><trkpt lat="43.1625782" lon="10.7970661"><ele>153.8</ele><time>2026-04-25T13:12:49.744Z</time></trkpt><trkpt lat="43.1626157" lon="10.7969599"><ele>154.2</ele><time>2026-04-25T13:12:51.724Z</time></trkpt><trkpt lat="43.1626231" lon="10.7968415"><ele>154.6</ele><time>2026-04-25T13:12:53.75Z</time></trkpt><trkpt lat="43.1625989" lon="10.7966076"><ele>155.0</ele><time>2026-04-25T13:12:57.746Z</time></trkpt><trkpt lat="43.1625871" lon="10.7965115"><ele>155.33333333333331</ele><time>2026-04-25T13:12:59.752Z</time></trkpt><trkpt lat="43.1625747" lon="10.7964266"><ele>155.66666666666666</ele><time>2026-04-25T13:13:02.739Z</time></trkpt><trkpt lat="43.1625391" lon="10.7963109"><ele>156.0</ele><time>2026-04-25T13:13:05.756Z</time></trkpt><trkpt lat="43.1625075" lon="10.7961567"><ele>156.33333333333334</ele><time>2026-04-25T13:13:07.729Z</time></trkpt><trkpt lat="43.1624852" lon="10.7960555"><ele>156.66666666666669</ele><time>2026-04-25T13:13:08.729Z</time></trkpt><trkpt lat="43.1624582" lon="10.7959474"><ele>157.0</ele><time>2026-04-25T13:13:09.739Z</time></trkpt><trkpt lat="43.1624259" lon="10.7958244"><ele>156.6</ele><time>2026-04-25T13:13:10.739Z</time></trkpt><trkpt lat="43.1623917" lon="10.7957001"><ele>156.2</ele><time>2026-04-25T13:13:11.736Z</time></trkpt><trkpt lat="43.1623557" lon="10.7955854"><ele>155.8</ele><time>2026-04-25T13:13:12.754Z</time></trkpt><trkpt lat="43.1623245" lon="10.7954776"><ele>155.4</ele><time>2026-04-25T13:13:13.743Z</time></trkpt><trkpt lat="43.1622947" lon="10.7953573"><ele>155.0</ele><time>2026-04-25T13:13:14.752Z</time></trkpt><trkpt lat="43.162225" lon="10.79509"><ele>155.0</ele><time>2026-04-25T13:13:16.72Z</time></trkpt><trkpt lat="43.1621812" lon="10.7949434"><ele>155.0</ele><time>2026-04-25T13:13:17.748Z</time></trkpt><trkpt lat="43.1621338" lon="10.7947897"><ele>155.0</ele><time>2026-04-25T13:13:18.769Z</time></trkpt><trkpt lat="43.1620759" lon="10.7946354"><ele>155.0</ele><time>2026-04-25T13:13:19.749Z</time></trkpt><trkpt lat="43.1620059" lon="10.7944737"><ele>156.5</ele><time>2026-04-25T13:13:20.769Z</time></trkpt><trkpt lat="43.1619239" lon="10.7943152"><ele>158.0</ele><time>2026-04-25T13:13:21.737Z</time></trkpt><trkpt lat="43.1618317" lon="10.7941604"><ele>159.5</ele><time>2026-04-25T13:13:22.754Z</time></trkpt><trkpt lat="43.1617363" lon="10.7940028"><ele>161.0</ele><time>2026-04-25T13:13:23.752Z</time></trkpt><trkpt lat="43.161645" lon="10.7938443"><ele>161.0</ele><time>2026-04-25T13:13:24.763Z</time></trkpt><trkpt lat="43.1615536" lon="10.7936904"><ele>161.0</ele><time>2026-04-25T13:13:25.734Z</time></trkpt><trkpt lat="43.1614593" lon="10.7935351"><ele>161.0</ele><time>2026-04-25T13:13:26.765Z</time></trkpt><trkpt lat="43.161359" lon="10.7933749"><ele>161.0</ele><time>2026-04-25T13:13:27.731Z</time></trkpt><trkpt lat="43.1612583" lon="10.7932144"><ele>159.66666666666666</ele><time>2026-04-25T13:13:28.751Z</time></trkpt><trkpt lat="43.1611594" lon="10.7930569"><ele>158.33333333333334</ele><time>2026-04-25T13:13:29.768Z</time></trkpt><trkpt lat="43.1610629" lon="10.7929009"><ele>157.0</ele><time>2026-04-25T13:13:30.753Z</time></trkpt><trkpt lat="43.1609678" lon="10.7927392"><ele>156.75</ele><time>2026-04-25T13:13:31.749Z</time></trkpt><trkpt lat="43.1608737" lon="10.79258"><ele>156.5</ele><time>2026-04-25T13:13:32.755Z</time></trkpt><trkpt lat="43.1607811" lon="10.7924257"><ele>156.25</ele><time>2026-04-25T13:13:33.723Z</time></trkpt><trkpt lat="43.1606876" lon="10.792268"><ele>156.0</ele><time>2026-04-25T13:13:34.753Z</time></trkpt><trkpt lat="43.1605893" lon="10.7921041"><ele>159.0</ele><time>2026-04-25T13:13:35.736Z</time></trkpt><trkpt lat="43.1603854" lon="10.7917664"><ele>162.0</ele><time>2026-04-25T13:13:37.746Z</time></trkpt><trkpt lat="43.1602912" lon="10.7916039"><ele>162.0</ele><time>2026-04-25T13:13:38.757Z</time></trkpt><trkpt lat="43.1602039" lon="10.7914466"><ele>162.0</ele><time>2026-04-25T13:13:39.764Z</time></trkpt><trkpt lat="43.1601151" lon="10.7912865"><ele>162.0</ele><time>2026-04-25T13:13:40.729Z</time></trkpt><trkpt lat="43.1600215" lon="10.7911289"><ele>162.0</ele><time>2026-04-25T13:13:41.752Z</time></trkpt><trkpt lat="43.1599259" lon="10.7909783"><ele>160.25</ele><time>2026-04-25T13:13:42.757Z</time></trkpt><trkpt lat="43.1598304" lon="10.7908279"><ele>158.5</ele><time>2026-04-25T13:13:43.753Z</time></trkpt><trkpt lat="43.1597348" lon="10.7906754"><ele>156.75</ele><time>2026-04-25T13:13:44.756Z</time></trkpt><trkpt lat="43.1596397" lon="10.7905236"><ele>155.0</ele><time>2026-04-25T13:13:45.745Z</time></trkpt><trkpt lat="43.1595482" lon="10.7903808"><ele>155.0</ele><time>2026-04-25T13:13:46.755Z</time></trkpt><trkpt lat="43.1594602" lon="10.7902474"><ele>155.0</ele><time>2026-04-25T13:13:47.757Z</time></trkpt><trkpt lat="43.1593753" lon="10.7901164"><ele>155.0</ele><time>2026-04-25T13:13:48.74Z</time></trkpt><trkpt lat="43.1592883" lon="10.7899765"><ele>155.0</ele><time>2026-04-25T13:13:49.752Z</time></trkpt><trkpt lat="43.1592" lon="10.7898264"><ele>155.0</ele><time>2026-04-25T13:13:50.746Z</time></trkpt><trkpt lat="43.15911" lon="10.7896726"><ele>155.0</ele><time>2026-04-25T13:13:51.755Z</time></trkpt><trkpt lat="43.1590173" lon="10.7895142"><ele>155.0</ele><time>2026-04-25T13:13:52.768Z</time></trkpt><trkpt lat="43.1589243" lon="10.7893608"><ele>155.0</ele><time>2026-04-25T13:13:53.757Z</time></trkpt><trkpt lat="43.1588326" lon="10.7892184"><ele>155.0</ele><time>2026-04-25T13:13:54.723Z</time></trkpt><trkpt lat="43.1587413" lon="10.7890779"><ele>155.0</ele><time>2026-04-25T13:13:55.757Z</time></trkpt><trkpt lat="43.158652" lon="10.7889332"><ele>155.0</ele><time>2026-04-25T13:13:56.764Z</time></trkpt><trkpt lat="43.1584923" lon="10.7886546"><ele>155.0</ele><time>2026-04-25T13:13:58.77Z</time></trkpt><trkpt lat="43.1584312" lon="10.7885337"><ele>155.0</ele><time>2026-04-25T13:13:59.774Z</time></trkpt><trkpt lat="43.1583854" lon="10.7884147"><ele>155.0</ele><time>2026-04-25T13:14:00.775Z</time></trkpt><trkpt lat="43.1583509" lon="10.7882884"><ele>155.0</ele><time>2026-04-25T13:14:01.754Z</time></trkpt><trkpt lat="43.158319" lon="10.7881433"><ele>155.0</ele><time>2026-04-25T13:14:02.76Z</time></trkpt><trkpt lat="43.1583099" lon="10.7879896"><ele>156.6</ele><time>2026-04-25T13:14:03.765Z</time></trkpt><trkpt lat="43.1583307" lon="10.7878453"><ele>158.2</ele><time>2026-04-25T13:14:04.747Z</time></trkpt><trkpt lat="43.1583732" lon="10.7877118"><ele>159.8</ele><time>2026-04-25T13:14:05.74Z</time></trkpt><trkpt lat="43.1584333" lon="10.7875854"><ele>161.4</ele><time>2026-04-25T13:14:06.766Z</time></trkpt><trkpt lat="43.1585107" lon="10.7874792"><ele>163.0</ele><time>2026-04-25T13:14:07.744Z</time></trkpt><trkpt lat="43.1585959" lon="10.7873692"><ele>163.25</ele><time>2026-04-25T13:14:08.752Z</time></trkpt><trkpt lat="43.1586913" lon="10.7872542"><ele>163.5</ele><time>2026-04-25T13:14:09.745Z</time></trkpt><trkpt lat="43.1587907" lon="10.7871383"><ele>163.75</ele><time>2026-04-25T13:14:10.655Z</time></trkpt><trkpt lat="43.1588884" lon="10.787027"><ele>164.0</ele><time>2026-04-25T13:14:11.763Z</time></trkpt><trkpt lat="43.1589812" lon="10.7869246"><ele>165.39999999999998</ele><time>2026-04-25T13:14:12.766Z</time></trkpt><trkpt lat="43.1590741" lon="10.7868395"><ele>166.8</ele><time>2026-04-25T13:14:13.75Z</time></trkpt><trkpt lat="43.1591645" lon="10.7867546"><ele>168.2</ele><time>2026-04-25T13:14:14.767Z</time></trkpt><trkpt lat="43.1592532" lon="10.7866719"><ele>169.60000000000002</ele><time>2026-04-25T13:14:15.729Z</time></trkpt><trkpt lat="43.1593429" lon="10.786591"><ele>171.0</ele><time>2026-04-25T13:14:16.753Z</time></trkpt><trkpt lat="43.1594224" lon="10.7865094"><ele>171.0</ele><time>2026-04-25T13:14:17.66Z</time></trkpt><trkpt lat="43.1595835" lon="10.7863247"><ele>171.0</ele><time>2026-04-25T13:14:19.756Z</time></trkpt><trkpt lat="43.1596681" lon="10.786233"><ele>171.0</ele><time>2026-04-25T13:14:20.77Z</time></trkpt><trkpt lat="43.1597636" lon="10.7861462"><ele>171.0</ele><time>2026-04-25T13:14:21.752Z</time></trkpt><trkpt lat="43.159859" lon="10.7860757"><ele>170.66666666666666</ele><time>2026-04-25T13:14:22.761Z</time></trkpt><trkpt lat="43.1599457" lon="10.7860166"><ele>170.33333333333331</ele><time>2026-04-25T13:14:23.765Z</time></trkpt><trkpt lat="43.160153" lon="10.7859066"><ele>170.0</ele><time>2026-04-25T13:14:25.657Z</time></trkpt><trkpt lat="43.1602829" lon="10.7858476"><ele>170.0</ele><time>2026-04-25T13:14:26.676Z</time></trkpt><trkpt lat="43.1604098" lon="10.7857899"><ele>170.0</ele><time>2026-04-25T13:14:27.673Z</time></trkpt><trkpt lat="43.1605238" lon="10.7857362"><ele>170.0</ele><time>2026-04-25T13:14:28.762Z</time></trkpt><trkpt lat="43.1606349" lon="10.7856924"><ele>170.0</ele><time>2026-04-25T13:14:29.728Z</time></trkpt><trkpt lat="43.1607402" lon="10.7856664"><ele>170.75</ele><time>2026-04-25T13:14:30.77Z</time></trkpt><trkpt lat="43.1609433" lon="10.7856389"><ele>171.5</ele><time>2026-04-25T13:14:32.665Z</time></trkpt><trkpt lat="43.1610517" lon="10.7856496"><ele>172.25</ele><time>2026-04-25T13:14:33.665Z</time></trkpt><trkpt lat="43.161164" lon="10.7856524"><ele>173.0</ele><time>2026-04-25T13:14:34.671Z</time></trkpt><trkpt lat="43.1612827" lon="10.7856501"><ele>173.0</ele><time>2026-04-25T13:14:35.653Z</time></trkpt><trkpt lat="43.1614042" lon="10.7856509"><ele>173.0</ele><time>2026-04-25T13:14:36.747Z</time></trkpt><trkpt lat="43.1615065" lon="10.7856449"><ele>173.0</ele><time>2026-04-25T13:14:37.648Z</time></trkpt><trkpt lat="43.161611" lon="10.7856208"><ele>173.0</ele><time>2026-04-25T13:14:38.654Z</time></trkpt><trkpt lat="43.1617503" lon="10.7854422"><ele>172.33333333333331</ele><time>2026-04-25T13:14:40.645Z</time></trkpt><trkpt lat="43.1618027" lon="10.7853184"><ele>171.66666666666666</ele><time>2026-04-25T13:14:41.648Z</time></trkpt><trkpt lat="43.1618502" lon="10.7851997"><ele>171.0</ele><time>2026-04-25T13:14:42.648Z</time></trkpt><trkpt lat="43.1618975" lon="10.7850956"><ele>170.33333333333334</ele><time>2026-04-25T13:14:43.644Z</time></trkpt><trkpt lat="43.1619348" lon="10.7850114"><ele>169.66666666666669</ele><time>2026-04-25T13:14:44.637Z</time></trkpt><trkpt lat="43.1619717" lon="10.7849064"><ele>169.0</ele><time>2026-04-25T13:14:46.641Z</time></trkpt><trkpt lat="43.1620086" lon="10.7847964"><ele>168.79999999999998</ele><time>2026-04-25T13:14:49.643Z</time></trkpt><trkpt lat="43.1619894" lon="10.7847098"><ele>168.6</ele><time>2026-04-25T13:14:51.639Z</time></trkpt><trkpt lat="43.1619206" lon="10.7846291"><ele>168.4</ele><time>2026-04-25T13:14:53.651Z</time></trkpt><trkpt lat="43.1618612" lon="10.7845824"><ele>168.2</ele><time>2026-04-25T13:14:55.644Z</time></trkpt><trkpt lat="43.1617761" lon="10.7845552"><ele>168.0</ele><time>2026-04-25T13:16:15.689Z</time></trkpt><trkpt lat="43.1615938" lon="10.7844257"><ele>168.0</ele><time>2026-04-25T13:16:18.668Z</time></trkpt><trkpt lat="43.1615285" lon="10.7844331"><ele>168.0</ele><time>2026-04-25T13:16:21.677Z</time></trkpt><trkpt lat="43.1616192" lon="10.7844336"><ele>168.0</ele><time>2026-04-25T13:16:25.679Z</time></trkpt><trkpt lat="43.1617361" lon="10.7844802"><ele>168.0</ele><time>2026-04-25T13:16:27.672Z</time></trkpt><trkpt lat="43.1617936" lon="10.784531"><ele>168.0</ele><time>2026-04-25T13:16:28.672Z</time></trkpt><trkpt lat="43.1618849" lon="10.7846195"><ele>168.0</ele><time>2026-04-25T13:16:30.681Z</time></trkpt><trkpt lat="43.1619625" lon="10.784719"><ele>168.0</ele><time>2026-04-25T13:16:32.678Z</time></trkpt><trkpt lat="43.1620156" lon="10.784777"><ele>168.0</ele><time>2026-04-25T13:16:34.656Z</time></trkpt><trkpt lat="43.1620775" lon="10.7848063"><ele>168.0</ele><time>2026-04-25T13:16:36.651Z</time></trkpt><trkpt lat="43.1622255" lon="10.7848296"><ele>168.0</ele><time>2026-04-25T13:16:38.659Z</time></trkpt><trkpt lat="43.1623056" lon="10.7848273"><ele>169.16666666666666</ele><time>2026-04-25T13:16:39.648Z</time></trkpt><trkpt lat="43.1623853" lon="10.7848315"><ele>170.33333333333334</ele><time>2026-04-25T13:16:40.648Z</time></trkpt><trkpt lat="43.1624707" lon="10.7848363"><ele>171.5</ele><time>2026-04-25T13:16:41.656Z</time></trkpt><trkpt lat="43.1625547" lon="10.7848328"><ele>172.66666666666669</ele><time>2026-04-25T13:16:42.655Z</time></trkpt><trkpt lat="43.1626388" lon="10.7848327"><ele>173.83333333333334</ele><time>2026-04-25T13:16:43.653Z</time></trkpt><trkpt lat="43.162719" lon="10.784829"><ele>175.0</ele><time>2026-04-25T13:16:44.653Z</time></trkpt><trkpt lat="43.1628004" lon="10.7848202"><ele>175.0</ele><time>2026-04-25T13:16:45.655Z</time></trkpt><trkpt lat="43.1628844" lon="10.7848072"><ele>175.0</ele><time>2026-04-25T13:16:46.683Z</time></trkpt><trkpt lat="43.1629694" lon="10.784786"><ele>175.0</ele><time>2026-04-25T13:16:47.688Z</time></trkpt><trkpt lat="43.1630488" lon="10.7847512"><ele>175.0</ele><time>2026-04-25T13:16:48.682Z</time></trkpt><trkpt lat="43.1631207" lon="10.7846979"><ele>175.0</ele><time>2026-04-25T13:16:49.68Z</time></trkpt><trkpt lat="43.1631839" lon="10.784645"><ele>175.0</ele><time>2026-04-25T13:16:50.682Z</time></trkpt><trkpt lat="43.1632337" lon="10.784584"><ele>176.0</ele><time>2026-04-25T13:16:51.676Z</time></trkpt><trkpt lat="43.1632729" lon="10.7845049"><ele>177.0</ele><time>2026-04-25T13:16:52.682Z</time></trkpt><trkpt lat="43.1632931" lon="10.7844144"><ele>178.0</ele><time>2026-04-25T13:16:53.694Z</time></trkpt><trkpt lat="43.1633074" lon="10.7843121"><ele>179.0</ele><time>2026-04-25T13:16:54.686Z</time></trkpt><trkpt lat="43.1633369" lon="10.7842028"><ele>180.0</ele><time>2026-04-25T13:16:55.654Z</time></trkpt><trkpt lat="43.1634077" lon="10.7840979"><ele>181.0</ele><time>2026-04-25T13:16:56.684Z</time></trkpt><trkpt lat="43.1635116" lon="10.7840193"><ele>181.0</ele><time>2026-04-25T13:16:57.681Z</time></trkpt><trkpt lat="43.163745" lon="10.7838795"><ele>181.0</ele><time>2026-04-25T13:16:59.698Z</time></trkpt><trkpt lat="43.1638459" lon="10.7838058"><ele>181.0</ele><time>2026-04-25T13:17:00.68Z</time></trkpt><trkpt lat="43.1639325" lon="10.7837388"><ele>181.0</ele><time>2026-04-25T13:17:01.681Z</time></trkpt><trkpt lat="43.1640289" lon="10.783705"><ele>181.0</ele><time>2026-04-25T13:17:02.688Z</time></trkpt><trkpt lat="43.164134" lon="10.7837022"><ele>181.0</ele><time>2026-04-25T13:17:03.656Z</time></trkpt><trkpt lat="43.1642237" lon="10.7837415"><ele>181.0</ele><time>2026-04-25T13:17:04.704Z</time></trkpt><trkpt lat="43.1642901" lon="10.783827"><ele>181.0</ele><time>2026-04-25T13:17:05.674Z</time></trkpt><trkpt lat="43.1643203" lon="10.7839499"><ele>183.20000000000002</ele><time>2026-04-25T13:17:06.677Z</time></trkpt><trkpt lat="43.1643394" lon="10.7840981"><ele>185.4</ele><time>2026-04-25T13:17:07.67Z</time></trkpt><trkpt lat="43.1643527" lon="10.784243"><ele>187.6</ele><time>2026-04-25T13:17:08.657Z</time></trkpt><trkpt lat="43.1643922" lon="10.7843528"><ele>189.8</ele><time>2026-04-25T13:17:09.694Z</time></trkpt><trkpt lat="43.1644767" lon="10.7844261"><ele>192.0</ele><time>2026-04-25T13:17:10.693Z</time></trkpt><trkpt lat="43.1645914" lon="10.784488"><ele>192.39999999999998</ele><time>2026-04-25T13:17:11.694Z</time></trkpt><trkpt lat="43.164688" lon="10.784527"><ele>192.79999999999998</ele><time>2026-04-25T13:17:12.696Z</time></trkpt><trkpt lat="43.1647688" lon="10.7845208"><ele>193.2</ele><time>2026-04-25T13:17:13.682Z</time></trkpt><trkpt lat="43.1648546" lon="10.7844498"><ele>193.6</ele><time>2026-04-25T13:17:14.693Z</time></trkpt><trkpt lat="43.1649263" lon="10.7843341"><ele>194.0</ele><time>2026-04-25T13:17:15.693Z</time></trkpt><trkpt lat="43.1649786" lon="10.7842072"><ele>197.0</ele><time>2026-04-25T13:17:16.674Z</time></trkpt><trkpt lat="43.1650319" lon="10.7840946"><ele>200.0</ele><time>2026-04-25T13:17:17.699Z</time></trkpt><trkpt lat="43.165106" lon="10.7840193"><ele>203.0</ele><time>2026-04-25T13:17:18.687Z</time></trkpt><trkpt lat="43.1652899" lon="10.7839695"><ele>206.0</ele><time>2026-04-25T13:17:20.689Z</time></trkpt><trkpt lat="43.1653924" lon="10.7840397"><ele>206.0</ele><time>2026-04-25T13:17:21.662Z</time></trkpt><trkpt lat="43.1654906" lon="10.7841517"><ele>206.0</ele><time>2026-04-25T13:17:22.686Z</time></trkpt><trkpt lat="43.1655808" lon="10.7842762"><ele>206.0</ele><time>2026-04-25T13:17:23.656Z</time></trkpt><trkpt lat="43.1656438" lon="10.7844172"><ele>206.0</ele><time>2026-04-25T13:17:24.668Z</time></trkpt><trkpt lat="43.165696" lon="10.7845724"><ele>209.75</ele><time>2026-04-25T13:17:25.715Z</time></trkpt><trkpt lat="43.1657378" lon="10.7847313"><ele>213.5</ele><time>2026-04-25T13:17:26.684Z</time></trkpt><trkpt lat="43.1657786" lon="10.7849067"><ele>217.25</ele><time>2026-04-25T13:17:27.694Z</time></trkpt><trkpt lat="43.1658141" lon="10.7850871"><ele>221.0</ele><time>2026-04-25T13:17:28.686Z</time></trkpt><trkpt lat="43.1658426" lon="10.7852557"><ele>221.75</ele><time>2026-04-25T13:17:29.679Z</time></trkpt><trkpt lat="43.1658609" lon="10.7854154"><ele>222.5</ele><time>2026-04-25T13:17:30.701Z</time></trkpt><trkpt lat="43.1658823" lon="10.7855763"><ele>223.25</ele><time>2026-04-25T13:17:31.712Z</time></trkpt><trkpt lat="43.165898" lon="10.7857266"><ele>224.0</ele><time>2026-04-25T13:17:32.699Z</time></trkpt><trkpt lat="43.1659182" lon="10.7858824"><ele>224.25</ele><time>2026-04-25T13:17:33.66Z</time></trkpt><trkpt lat="43.1659458" lon="10.7860482"><ele>224.5</ele><time>2026-04-25T13:17:34.702Z</time></trkpt><trkpt lat="43.1659788" lon="10.7862113"><ele>224.75</ele><time>2026-04-25T13:17:35.681Z</time></trkpt><trkpt lat="43.166002" lon="10.7863752"><ele>225.0</ele><time>2026-04-25T13:17:36.696Z</time></trkpt><trkpt lat="43.1660124" lon="10.7865369"><ele>225.0</ele><time>2026-04-25T13:17:37.712Z</time></trkpt><trkpt lat="43.1660162" lon="10.7867005"><ele>225.0</ele><time>2026-04-25T13:17:38.72Z</time></trkpt><trkpt lat="43.1660154" lon="10.7868648"><ele>225.0</ele><time>2026-04-25T13:17:39.694Z</time></trkpt><trkpt lat="43.1660106" lon="10.7871947"><ele>226.0</ele><time>2026-04-25T13:17:41.7Z</time></trkpt><trkpt lat="43.1660042" lon="10.7873666"><ele>227.0</ele><time>2026-04-25T13:17:42.69Z</time></trkpt><trkpt lat="43.1659997" lon="10.787533"><ele>228.0</ele><time>2026-04-25T13:17:43.696Z</time></trkpt><trkpt lat="43.1659954" lon="10.7877083"><ele>229.0</ele><time>2026-04-25T13:17:44.693Z</time></trkpt><trkpt lat="43.1659868" lon="10.7878885"><ele>230.5</ele><time>2026-04-25T13:17:45.711Z</time></trkpt><trkpt lat="43.1659796" lon="10.7880664"><ele>232.0</ele><time>2026-04-25T13:17:46.695Z</time></trkpt><trkpt lat="43.1659721" lon="10.7882449"><ele>233.5</ele><time>2026-04-25T13:17:47.67Z</time></trkpt><trkpt lat="43.1659671" lon="10.7884285"><ele>235.0</ele><time>2026-04-25T13:17:48.669Z</time></trkpt><trkpt lat="43.1659562" lon="10.7886103"><ele>236.5</ele><time>2026-04-25T13:17:49.697Z</time></trkpt><trkpt lat="43.1659393" lon="10.7887931"><ele>238.0</ele><time>2026-04-25T13:17:50.699Z</time></trkpt><trkpt lat="43.1659214" lon="10.7889735"><ele>239.5</ele><time>2026-04-25T13:17:51.697Z</time></trkpt><trkpt lat="43.1659041" lon="10.7891506"><ele>241.0</ele><time>2026-04-25T13:17:52.69Z</time></trkpt><trkpt lat="43.1658924" lon="10.7893386"><ele>242.25</ele><time>2026-04-25T13:17:53.712Z</time></trkpt><trkpt lat="43.1658876" lon="10.7895289"><ele>243.5</ele><time>2026-04-25T13:17:54.68Z</time></trkpt><trkpt lat="43.1658861" lon="10.7897156"><ele>244.75</ele><time>2026-04-25T13:17:55.727Z</time></trkpt><trkpt lat="43.1658882" lon="10.7898932"><ele>246.0</ele><time>2026-04-25T13:17:56.691Z</time></trkpt><trkpt lat="43.1658869" lon="10.7900602"><ele>249.0</ele><time>2026-04-25T13:17:57.697Z</time></trkpt><trkpt lat="43.1658792" lon="10.7902161"><ele>252.0</ele><time>2026-04-25T13:17:58.697Z</time></trkpt><trkpt lat="43.1658627" lon="10.7903736"><ele>255.0</ele><time>2026-04-25T13:17:59.694Z</time></trkpt><trkpt lat="43.1658323" lon="10.7905269"><ele>258.0</ele><time>2026-04-25T13:18:00.702Z</time></trkpt><trkpt lat="43.16574" lon="10.7907712"><ele>257.99999999999994</ele><time>2026-04-25T13:18:02.7Z</time></trkpt><trkpt lat="43.1656995" lon="10.7908651"><ele>258.0</ele><time>2026-04-25T13:18:03.703Z</time></trkpt><trkpt lat="43.1656758" lon="10.7909639"><ele>258.0</ele><time>2026-04-25T13:18:04.671Z</time></trkpt><trkpt lat="43.165667" lon="10.791076"><ele>258.0</ele><time>2026-04-25T13:18:05.704Z</time></trkpt><trkpt lat="43.1656685" lon="10.7911812"><ele>258.0</ele><time>2026-04-25T13:18:06.715Z</time></trkpt><trkpt lat="43.1656936" lon="10.7912691"><ele>257.99999999999994</ele><time>2026-04-25T13:18:07.665Z</time></trkpt><trkpt lat="43.1657432" lon="10.7913234"><ele>258.0</ele><time>2026-04-25T13:18:08.696Z</time></trkpt><trkpt lat="43.1658098" lon="10.7913221"><ele>258.8333333333333</ele><time>2026-04-25T13:18:09.692Z</time></trkpt><trkpt lat="43.1658724" lon="10.7912572"><ele>259.6666666666667</ele><time>2026-04-25T13:18:10.696Z</time></trkpt><trkpt lat="43.1659395" lon="10.7911689"><ele>260.5</ele><time>2026-04-25T13:18:11.693Z</time></trkpt><trkpt lat="43.1660017" lon="10.7911032"><ele>261.33333333333337</ele><time>2026-04-25T13:18:12.697Z</time></trkpt><trkpt lat="43.166066" lon="10.7910605"><ele>262.1666666666667</ele><time>2026-04-25T13:18:13.695Z</time></trkpt><trkpt lat="43.1661331" lon="10.791042"><ele>263.0</ele><time>2026-04-25T13:18:14.674Z</time></trkpt><trkpt lat="43.1662012" lon="10.7910508"><ele>263.0</ele><time>2026-04-25T13:18:15.707Z</time></trkpt><trkpt lat="43.1662789" lon="10.7910889"><ele>263.0</ele><time>2026-04-25T13:18:16.699Z</time></trkpt><trkpt lat="43.1663598" lon="10.791148"><ele>263.0</ele><time>2026-04-25T13:18:17.705Z</time></trkpt><trkpt lat="43.1664353" lon="10.7912279"><ele>263.0</ele><time>2026-04-25T13:18:18.7Z</time></trkpt><trkpt lat="43.1665165" lon="10.7913277"><ele>263.0</ele><time>2026-04-25T13:18:19.669Z</time></trkpt><trkpt lat="43.1665914" lon="10.7914447"><ele>266.33333333333337</ele><time>2026-04-25T13:18:20.702Z</time></trkpt><trkpt lat="43.1666746" lon="10.7915676"><ele>269.6666666666667</ele><time>2026-04-25T13:18:21.696Z</time></trkpt><trkpt lat="43.1668593" lon="10.7917721"><ele>273.0</ele><time>2026-04-25T13:18:23.695Z</time></trkpt><trkpt lat="43.166949" lon="10.791841"><ele>273.0</ele><time>2026-04-25T13:18:24.7Z</time></trkpt><trkpt lat="43.1670433" lon="10.7918946"><ele>273.0</ele><time>2026-04-25T13:18:25.707Z</time></trkpt><trkpt lat="43.1671341" lon="10.7919222"><ele>273.0</ele><time>2026-04-25T13:18:26.681Z</time></trkpt><trkpt lat="43.1672291" lon="10.7919205"><ele>273.0</ele><time>2026-04-25T13:18:27.688Z</time></trkpt><trkpt lat="43.1673123" lon="10.7919304"><ele>273.0</ele><time>2026-04-25T13:18:28.688Z</time></trkpt><trkpt lat="43.1673985" lon="10.791908"><ele>278.0</ele><time>2026-04-25T13:18:29.714Z</time></trkpt><trkpt lat="43.1674985" lon="10.7918339"><ele>283.0</ele><time>2026-04-25T13:18:30.684Z</time></trkpt><trkpt lat="43.1676152" lon="10.7917309"><ele>288.0</ele><time>2026-04-25T13:18:31.697Z</time></trkpt><trkpt lat="43.1677316" lon="10.7916297"><ele>293.0</ele><time>2026-04-25T13:18:32.672Z</time></trkpt><trkpt lat="43.1678595" lon="10.7915265"><ele>293.0</ele><time>2026-04-25T13:18:33.683Z</time></trkpt><trkpt lat="43.1679942" lon="10.7914413"><ele>293.0</ele><time>2026-04-25T13:18:34.707Z</time></trkpt><trkpt lat="43.168114" lon="10.7913765"><ele>293.0</ele><time>2026-04-25T13:18:35.704Z</time></trkpt><trkpt lat="43.1682268" lon="10.7913553"><ele>293.0</ele><time>2026-04-25T13:18:36.708Z</time></trkpt><trkpt lat="43.1683487" lon="10.7913639"><ele>294.8</ele><time>2026-04-25T13:18:37.733Z</time></trkpt><trkpt lat="43.1684611" lon="10.791383"><ele>296.6</ele><time>2026-04-25T13:18:38.718Z</time></trkpt><trkpt lat="43.1685692" lon="10.7913718"><ele>298.4</ele><time>2026-04-25T13:18:39.713Z</time></trkpt><trkpt lat="43.1686607" lon="10.7913164"><ele>300.2</ele><time>2026-04-25T13:18:40.71Z</time></trkpt><trkpt lat="43.1687536" lon="10.7912549"><ele>302.0</ele><time>2026-04-25T13:18:41.718Z</time></trkpt><trkpt lat="43.1688326" lon="10.7912097"><ele>302.0</ele><time>2026-04-25T13:18:42.714Z</time></trkpt><trkpt lat="43.169001" lon="10.7912522"><ele>302.0</ele><time>2026-04-25T13:18:44.718Z</time></trkpt><trkpt lat="43.1690962" lon="10.7912959"><ele>302.0</ele><time>2026-04-25T13:18:45.715Z</time></trkpt><trkpt lat="43.1692" lon="10.7913401"><ele>302.0</ele><time>2026-04-25T13:18:46.703Z</time></trkpt><trkpt lat="43.1693009" lon="10.7913582"><ele>305.25</ele><time>2026-04-25T13:18:47.686Z</time></trkpt><trkpt lat="43.1694068" lon="10.7913545"><ele>308.5</ele><time>2026-04-25T13:18:48.71Z</time></trkpt><trkpt lat="43.1695123" lon="10.7912998"><ele>311.75</ele><time>2026-04-25T13:18:49.71Z</time></trkpt><trkpt lat="43.1696047" lon="10.7911833"><ele>315.0</ele><time>2026-04-25T13:18:50.704Z</time></trkpt><trkpt lat="43.1696778" lon="10.7910256"><ele>317.25</ele><time>2026-04-25T13:18:51.715Z</time></trkpt><trkpt lat="43.1697602" lon="10.790875"><ele>319.5</ele><time>2026-04-25T13:18:52.696Z</time></trkpt><trkpt lat="43.1698513" lon="10.790731"><ele>321.75</ele><time>2026-04-25T13:18:53.722Z</time></trkpt><trkpt lat="43.1699335" lon="10.7906186"><ele>324.0</ele><time>2026-04-25T13:18:54.704Z</time></trkpt><trkpt lat="43.1700153" lon="10.7905271"><ele>326.2</ele><time>2026-04-25T13:18:55.688Z</time></trkpt><trkpt lat="43.1701077" lon="10.7904658"><ele>328.4</ele><time>2026-04-25T13:18:56.7Z</time></trkpt><trkpt lat="43.1702129" lon="10.7904114"><ele>330.6</ele><time>2026-04-25T13:18:57.723Z</time></trkpt><trkpt lat="43.170322" lon="10.7903681"><ele>332.8</ele><time>2026-04-25T13:18:58.712Z</time></trkpt><trkpt lat="43.170433" lon="10.7903135"><ele>335.0</ele><time>2026-04-25T13:18:59.7Z</time></trkpt><trkpt lat="43.1705388" lon="10.7902297"><ele>334.75</ele><time>2026-04-25T13:19:00.715Z</time></trkpt><trkpt lat="43.170643" lon="10.7901376"><ele>334.5</ele><time>2026-04-25T13:19:01.689Z</time></trkpt><trkpt lat="43.1707514" lon="10.7900599"><ele>334.25</ele><time>2026-04-25T13:19:02.701Z</time></trkpt><trkpt lat="43.1708593" lon="10.7899855"><ele>334.0</ele><time>2026-04-25T13:19:03.717Z</time></trkpt><trkpt lat="43.1710834" lon="10.7898561"><ele>336.4</ele><time>2026-04-25T13:19:05.708Z</time></trkpt><trkpt lat="43.1711922" lon="10.7897802"><ele>338.79999999999995</ele><time>2026-04-25T13:19:06.708Z</time></trkpt><trkpt lat="43.1712968" lon="10.789697"><ele>341.20000000000005</ele><time>2026-04-25T13:19:07.717Z</time></trkpt><trkpt lat="43.1713918" lon="10.7896195"><ele>343.6</ele><time>2026-04-25T13:19:08.716Z</time></trkpt><trkpt lat="43.171473" lon="10.78955"><ele>346.0</ele><time>2026-04-25T13:19:09.714Z</time></trkpt><trkpt lat="43.1715445" lon="10.7894861"><ele>346.4285714285714</ele><time>2026-04-25T13:19:10.699Z</time></trkpt><trkpt lat="43.1716089" lon="10.7894241"><ele>346.8571428571429</ele><time>2026-04-25T13:19:11.717Z</time></trkpt><trkpt lat="43.1716654" lon="10.7893699"><ele>347.2857142857143</ele><time>2026-04-25T13:19:12.689Z</time></trkpt><trkpt lat="43.1717207" lon="10.7893117"><ele>347.71428571428567</ele><time>2026-04-25T13:19:13.718Z</time></trkpt><trkpt lat="43.1717696" lon="10.7892511"><ele>348.1428571428571</ele><time>2026-04-25T13:19:14.704Z</time></trkpt><trkpt lat="43.1718141" lon="10.7891796"><ele>348.57142857142856</ele><time>2026-04-25T13:19:15.674Z</time></trkpt><trkpt lat="43.1718536" lon="10.7890967"><ele>349.0</ele><time>2026-04-25T13:19:16.705Z</time></trkpt><trkpt lat="43.1718941" lon="10.789005"><ele>350.66666666666663</ele><time>2026-04-25T13:19:17.704Z</time></trkpt><trkpt lat="43.1719329" lon="10.7889086"><ele>352.3333333333333</ele><time>2026-04-25T13:19:18.693Z</time></trkpt><trkpt lat="43.1719644" lon="10.7888015"><ele>354.0</ele><time>2026-04-25T13:19:19.719Z</time></trkpt><trkpt lat="43.1719907" lon="10.7886846"><ele>355.6666666666667</ele><time>2026-04-25T13:19:20.703Z</time></trkpt><trkpt lat="43.1720151" lon="10.788564"><ele>357.33333333333337</ele><time>2026-04-25T13:19:21.72Z</time></trkpt><trkpt lat="43.172044" lon="10.7884472"><ele>359.0</ele><time>2026-04-25T13:19:22.703Z</time></trkpt><trkpt lat="43.1720865" lon="10.7883394"><ele>359.0</ele><time>2026-04-25T13:19:23.714Z</time></trkpt><trkpt lat="43.1721332" lon="10.7882395"><ele>359.0</ele><time>2026-04-25T13:19:24.706Z</time></trkpt><trkpt lat="43.1722437" lon="10.7880477"><ele>359.0</ele><time>2026-04-25T13:19:26.704Z</time></trkpt><trkpt lat="43.1723166" lon="10.7879744"><ele>359.0</ele><time>2026-04-25T13:19:27.722Z</time></trkpt><trkpt lat="43.1723912" lon="10.7878998"><ele>359.0</ele><time>2026-04-25T13:19:28.674Z</time></trkpt><trkpt lat="43.1724685" lon="10.7878364"><ele>362.6</ele><time>2026-04-25T13:19:29.707Z</time></trkpt><trkpt lat="43.1725471" lon="10.7877829"><ele>366.2</ele><time>2026-04-25T13:19:30.704Z</time></trkpt><trkpt lat="43.1726301" lon="10.7877375"><ele>369.8</ele><time>2026-04-25T13:19:31.693Z</time></trkpt><trkpt lat="43.1727301" lon="10.7877069"><ele>373.40000000000003</ele><time>2026-04-25T13:19:32.7Z</time></trkpt><trkpt lat="43.1728289" lon="10.7876852"><ele>377.0</ele><time>2026-04-25T13:19:33.72Z</time></trkpt><trkpt lat="43.1729313" lon="10.7876786"><ele>375.8</ele><time>2026-04-25T13:19:34.713Z</time></trkpt><trkpt lat="43.1730337" lon="10.7876519"><ele>374.6</ele><time>2026-04-25T13:19:35.721Z</time></trkpt><trkpt lat="43.1731236" lon="10.787595"><ele>373.40000000000003</ele><time>2026-04-25T13:19:36.696Z</time></trkpt><trkpt lat="43.1732075" lon="10.7875271"><ele>372.20000000000005</ele><time>2026-04-25T13:19:37.728Z</time></trkpt><trkpt lat="43.173281" lon="10.7874546"><ele>371.0</ele><time>2026-04-25T13:19:38.729Z</time></trkpt><trkpt lat="43.173343" lon="10.7873728"><ele>373.6666666666667</ele><time>2026-04-25T13:19:39.719Z</time></trkpt><trkpt lat="43.1733832" lon="10.7872904"><ele>376.33333333333337</ele><time>2026-04-25T13:19:40.711Z</time></trkpt><trkpt lat="43.1734341" lon="10.787203"><ele>379.0</ele><time>2026-04-25T13:19:41.717Z</time></trkpt><trkpt lat="43.1735109" lon="10.7871568"><ele>381.6666666666667</ele><time>2026-04-25T13:19:42.716Z</time></trkpt><trkpt lat="43.1736002" lon="10.7871454"><ele>384.3333333333333</ele><time>2026-04-25T13:19:43.681Z</time></trkpt><trkpt lat="43.1737029" lon="10.7871464"><ele>387.0</ele><time>2026-04-25T13:19:44.705Z</time></trkpt><trkpt lat="43.1738177" lon="10.7871546"><ele>389.5</ele><time>2026-04-25T13:19:45.729Z</time></trkpt><trkpt lat="43.1740428" lon="10.7871615"><ele>392.0</ele><time>2026-04-25T13:19:47.722Z</time></trkpt><trkpt lat="43.174146" lon="10.7871514"><ele>394.5</ele><time>2026-04-25T13:19:48.711Z</time></trkpt><trkpt lat="43.1742489" lon="10.7871399"><ele>397.0</ele><time>2026-04-25T13:19:49.725Z</time></trkpt><trkpt lat="43.1743613" lon="10.7871313"><ele>397.0</ele><time>2026-04-25T13:19:50.715Z</time></trkpt><trkpt lat="43.1744647" lon="10.7871168"><ele>397.0</ele><time>2026-04-25T13:19:51.721Z</time></trkpt><trkpt lat="43.1745597" lon="10.7870823"><ele>397.0</ele><time>2026-04-25T13:19:52.677Z</time></trkpt><trkpt lat="43.1746521" lon="10.787021"><ele>397.0</ele><time>2026-04-25T13:19:53.697Z</time></trkpt><trkpt lat="43.1747392" lon="10.7869511"><ele>397.0</ele><time>2026-04-25T13:19:54.705Z</time></trkpt><trkpt lat="43.1748317" lon="10.7868708"><ele>397.00000000000006</ele><time>2026-04-25T13:19:55.721Z</time></trkpt><trkpt lat="43.1749093" lon="10.7867923"><ele>397.0</ele><time>2026-04-25T13:19:56.674Z</time></trkpt><trkpt lat="43.1749697" lon="10.7867266"><ele>397.0</ele><time>2026-04-25T13:19:57.721Z</time></trkpt><trkpt lat="43.1750353" lon="10.7866519"><ele>397.0</ele><time>2026-04-25T13:19:58.716Z</time></trkpt><trkpt lat="43.1750894" lon="10.7865707"><ele>397.00000000000006</ele><time>2026-04-25T13:19:59.7Z</time></trkpt><trkpt lat="43.1751374" lon="10.7864981"><ele>397.0</ele><time>2026-04-25T13:20:00.708Z</time></trkpt><trkpt lat="43.1751767" lon="10.7864205"><ele>397.00000000000006</ele><time>2026-04-25T13:20:01.713Z</time></trkpt><trkpt lat="43.1752083" lon="10.7863403"><ele>397.0</ele><time>2026-04-25T13:20:02.715Z</time></trkpt><trkpt lat="43.1752383" lon="10.7862482"><ele>397.0</ele><time>2026-04-25T13:20:03.726Z</time></trkpt><trkpt lat="43.1752674" lon="10.786156"><ele>397.0</ele><time>2026-04-25T13:20:04.709Z</time></trkpt><trkpt lat="43.1753018" lon="10.7860777"><ele>397.00000000000006</ele><time>2026-04-25T13:20:05.722Z</time></trkpt><trkpt lat="43.1753376" lon="10.785994"><ele>397.0</ele><time>2026-04-25T13:20:06.72Z</time></trkpt><trkpt lat="43.1754144" lon="10.785848"><ele>396.6666666666667</ele><time>2026-04-25T13:20:08.721Z</time></trkpt><trkpt lat="43.1754606" lon="10.7857656"><ele>396.33333333333337</ele><time>2026-04-25T13:20:09.723Z</time></trkpt><trkpt lat="43.1755013" lon="10.7856706"><ele>396.0</ele><time>2026-04-25T13:20:10.723Z</time></trkpt><trkpt lat="43.1755403" lon="10.7855684"><ele>395.66666666666663</ele><time>2026-04-25T13:20:11.701Z</time></trkpt><trkpt lat="43.1755913" lon="10.7854697"><ele>395.3333333333333</ele><time>2026-04-25T13:20:12.717Z</time></trkpt><trkpt lat="43.1756455" lon="10.7853666"><ele>395.0</ele><time>2026-04-25T13:20:13.717Z</time></trkpt><trkpt lat="43.1756972" lon="10.7852666"><ele>395.16666666666663</ele><time>2026-04-25T13:20:14.723Z</time></trkpt><trkpt lat="43.175749" lon="10.7851733"><ele>395.3333333333333</ele><time>2026-04-25T13:20:15.716Z</time></trkpt><trkpt lat="43.1757995" lon="10.7850806"><ele>395.5</ele><time>2026-04-25T13:20:16.714Z</time></trkpt><trkpt lat="43.175842" lon="10.7849831"><ele>395.66666666666663</ele><time>2026-04-25T13:20:17.721Z</time></trkpt><trkpt lat="43.1758819" lon="10.784883"><ele>395.8333333333333</ele><time>2026-04-25T13:20:18.714Z</time></trkpt><trkpt lat="43.1759251" lon="10.7847915"><ele>396.0</ele><time>2026-04-25T13:20:19.736Z</time></trkpt><trkpt lat="43.1759722" lon="10.7846925"><ele>396.0</ele><time>2026-04-25T13:20:20.716Z</time></trkpt><trkpt lat="43.176018" lon="10.7846046"><ele>396.0</ele><time>2026-04-25T13:20:21.735Z</time></trkpt><trkpt lat="43.1760625" lon="10.7845192"><ele>396.0</ele><time>2026-04-25T13:20:22.725Z</time></trkpt><trkpt lat="43.176103" lon="10.7844336"><ele>396.0</ele><time>2026-04-25T13:20:23.677Z</time></trkpt><trkpt lat="43.1761477" lon="10.7843475"><ele>396.0</ele><time>2026-04-25T13:20:24.714Z</time></trkpt><trkpt lat="43.176193" lon="10.7842632"><ele>396.0</ele><time>2026-04-25T13:20:25.73Z</time></trkpt><trkpt lat="43.1762318" lon="10.7841748"><ele>396.8</ele><time>2026-04-25T13:20:26.713Z</time></trkpt><trkpt lat="43.1762645" lon="10.7840775"><ele>397.6</ele><time>2026-04-25T13:20:27.692Z</time></trkpt><trkpt lat="43.1763008" lon="10.7838577"><ele>398.4</ele><time>2026-04-25T13:20:29.745Z</time></trkpt><trkpt lat="43.1763108" lon="10.7837433"><ele>399.2</ele><time>2026-04-25T13:20:30.715Z</time></trkpt><trkpt lat="43.1763374" lon="10.7836329"><ele>400.0</ele><time>2026-04-25T13:20:31.718Z</time></trkpt><trkpt lat="43.1763846" lon="10.783528"><ele>398.4</ele><time>2026-04-25T13:20:32.715Z</time></trkpt><trkpt lat="43.1764519" lon="10.7834318"><ele>396.8</ele><time>2026-04-25T13:20:33.727Z</time></trkpt><trkpt lat="43.1765217" lon="10.7833543"><ele>395.20000000000005</ele><time>2026-04-25T13:20:34.7Z</time></trkpt><trkpt lat="43.1766067" lon="10.7832797"><ele>393.6</ele><time>2026-04-25T13:20:35.724Z</time></trkpt><trkpt lat="43.1767001" lon="10.783206"><ele>392.0</ele><time>2026-04-25T13:20:36.703Z</time></trkpt><trkpt lat="43.1767938" lon="10.7831344"><ele>391.20000000000005</ele><time>2026-04-25T13:20:37.726Z</time></trkpt><trkpt lat="43.1768864" lon="10.7830615"><ele>390.4</ele><time>2026-04-25T13:20:38.715Z</time></trkpt><trkpt lat="43.1769748" lon="10.7829982"><ele>389.6</ele><time>2026-04-25T13:20:39.709Z</time></trkpt><trkpt lat="43.177054" lon="10.7829293"><ele>388.79999999999995</ele><time>2026-04-25T13:20:40.705Z</time></trkpt><trkpt lat="43.1771317" lon="10.7828569"><ele>388.0</ele><time>2026-04-25T13:20:41.723Z</time></trkpt><trkpt lat="43.1772047" lon="10.7827765"><ele>388.0</ele><time>2026-04-25T13:20:42.698Z</time></trkpt><trkpt lat="43.1772809" lon="10.7826864"><ele>388.0</ele><time>2026-04-25T13:20:43.698Z</time></trkpt><trkpt lat="43.177348" lon="10.7825922"><ele>388.0</ele><time>2026-04-25T13:20:44.718Z</time></trkpt><trkpt lat="43.177409" lon="10.7824976"><ele>388.0</ele><time>2026-04-25T13:20:45.726Z</time></trkpt><trkpt lat="43.177467" lon="10.7823906"><ele>388.0</ele><time>2026-04-25T13:20:46.719Z</time></trkpt><trkpt lat="43.1775294" lon="10.782286"><ele>386.33333333333337</ele><time>2026-04-25T13:20:47.712Z</time></trkpt><trkpt lat="43.1775972" lon="10.7821661"><ele>384.6666666666667</ele><time>2026-04-25T13:20:48.713Z</time></trkpt><trkpt lat="43.1777367" lon="10.781928"><ele>383.0</ele><time>2026-04-25T13:20:50.728Z</time></trkpt><trkpt lat="43.1778253" lon="10.7818195"><ele>382.25</ele><time>2026-04-25T13:20:51.722Z</time></trkpt><trkpt lat="43.1779181" lon="10.7817188"><ele>381.5</ele><time>2026-04-25T13:20:52.685Z</time></trkpt><trkpt lat="43.1780118" lon="10.7816195"><ele>380.75</ele><time>2026-04-25T13:20:53.714Z</time></trkpt><trkpt lat="43.1781006" lon="10.7815353"><ele>380.0</ele><time>2026-04-25T13:20:54.721Z</time></trkpt><trkpt lat="43.1781911" lon="10.781462"><ele>380.0</ele><time>2026-04-25T13:20:55.703Z</time></trkpt><trkpt lat="43.1782851" lon="10.7813909"><ele>380.0</ele><time>2026-04-25T13:20:56.718Z</time></trkpt><trkpt lat="43.1783868" lon="10.7813241"><ele>380.0</ele><time>2026-04-25T13:20:57.732Z</time></trkpt><trkpt lat="43.1784867" lon="10.7812675"><ele>380.0</ele><time>2026-04-25T13:20:58.698Z</time></trkpt><trkpt lat="43.1785804" lon="10.7812094"><ele>380.0</ele><time>2026-04-25T13:20:59.718Z</time></trkpt><trkpt lat="43.1786791" lon="10.7811572"><ele>380.0</ele><time>2026-04-25T13:21:00.716Z</time></trkpt><trkpt lat="43.1787802" lon="10.7811016"><ele>380.0</ele><time>2026-04-25T13:21:01.692Z</time></trkpt><trkpt lat="43.1788783" lon="10.7810439"><ele>380.0</ele><time>2026-04-25T13:21:02.707Z</time></trkpt><trkpt lat="43.1789817" lon="10.7809892"><ele>380.0</ele><time>2026-04-25T13:21:03.711Z</time></trkpt><trkpt lat="43.1790775" lon="10.7809292"><ele>380.0</ele><time>2026-04-25T13:21:04.698Z</time></trkpt><trkpt lat="43.1791701" lon="10.7808754"><ele>382.2</ele><time>2026-04-25T13:21:05.724Z</time></trkpt><trkpt lat="43.1792641" lon="10.7808239"><ele>384.4</ele><time>2026-04-25T13:21:06.697Z</time></trkpt><trkpt lat="43.1793583" lon="10.7807771"><ele>386.6</ele><time>2026-04-25T13:21:07.738Z</time></trkpt><trkpt lat="43.1794489" lon="10.7807153"><ele>388.8</ele><time>2026-04-25T13:21:08.704Z</time></trkpt><trkpt lat="43.1795355" lon="10.7806251"><ele>391.0</ele><time>2026-04-25T13:21:09.721Z</time></trkpt><trkpt lat="43.1796855" lon="10.7803709"><ele>391.0</ele><time>2026-04-25T13:21:11.69Z</time></trkpt><trkpt lat="43.1797455" lon="10.7802254"><ele>391.0</ele><time>2026-04-25T13:21:12.721Z</time></trkpt><trkpt lat="43.1797951" lon="10.7800721"><ele>391.0</ele><time>2026-04-25T13:21:13.709Z</time></trkpt><trkpt lat="43.1798355" lon="10.779911"><ele>391.0</ele><time>2026-04-25T13:21:14.712Z</time></trkpt><trkpt lat="43.1798772" lon="10.7797457"><ele>392.20000000000005</ele><time>2026-04-25T13:21:15.73Z</time></trkpt><trkpt lat="43.1799146" lon="10.7795949"><ele>393.40000000000003</ele><time>2026-04-25T13:21:16.724Z</time></trkpt><trkpt lat="43.1799505" lon="10.7794623"><ele>394.6</ele><time>2026-04-25T13:21:17.695Z</time></trkpt><trkpt lat="43.1799991" lon="10.7793458"><ele>395.8</ele><time>2026-04-25T13:21:18.702Z</time></trkpt><trkpt lat="43.180054" lon="10.7792379"><ele>397.0</ele><time>2026-04-25T13:21:19.698Z</time></trkpt><trkpt lat="43.1801172" lon="10.779127"><ele>397.0</ele><time>2026-04-25T13:21:20.719Z</time></trkpt><trkpt lat="43.1801804" lon="10.7790104"><ele>397.0</ele><time>2026-04-25T13:21:21.714Z</time></trkpt><trkpt lat="43.180239" lon="10.7788904"><ele>397.0</ele><time>2026-04-25T13:21:22.718Z</time></trkpt><trkpt lat="43.1802875" lon="10.778753"><ele>397.0</ele><time>2026-04-25T13:21:23.71Z</time></trkpt><trkpt lat="43.180326" lon="10.778607"><ele>397.0</ele><time>2026-04-25T13:21:24.682Z</time></trkpt><trkpt lat="43.1803558" lon="10.7784532"><ele>396.6</ele><time>2026-04-25T13:21:25.738Z</time></trkpt><trkpt lat="43.180377" lon="10.7783008"><ele>396.20000000000005</ele><time>2026-04-25T13:21:26.702Z</time></trkpt><trkpt lat="43.1803974" lon="10.7781557"><ele>395.8</ele><time>2026-04-25T13:21:27.69Z</time></trkpt><trkpt lat="43.1804168" lon="10.7780178"><ele>395.4</ele><time>2026-04-25T13:21:28.705Z</time></trkpt><trkpt lat="43.180442" lon="10.7778979"><ele>395.0</ele><time>2026-04-25T13:21:29.709Z</time></trkpt><trkpt lat="43.1804638" lon="10.7777904"><ele>393.8</ele><time>2026-04-25T13:21:30.719Z</time></trkpt><trkpt lat="43.1805173" lon="10.7775932"><ele>392.6</ele><time>2026-04-25T13:21:32.701Z</time></trkpt><trkpt lat="43.1805562" lon="10.777502"><ele>391.4</ele><time>2026-04-25T13:21:33.71Z</time></trkpt><trkpt lat="43.1805965" lon="10.7774021"><ele>390.2</ele><time>2026-04-25T13:21:34.743Z</time></trkpt><trkpt lat="43.1806461" lon="10.7772986"><ele>389.0</ele><time>2026-04-25T13:21:35.725Z</time></trkpt><trkpt lat="43.1806989" lon="10.7771992"><ele>389.79999999999995</ele><time>2026-04-25T13:21:36.711Z</time></trkpt><trkpt lat="43.1807593" lon="10.7770839"><ele>390.59999999999997</ele><time>2026-04-25T13:21:37.725Z</time></trkpt><trkpt lat="43.1808116" lon="10.7769653"><ele>391.4</ele><time>2026-04-25T13:21:38.704Z</time></trkpt><trkpt lat="43.1808728" lon="10.7768581"><ele>392.2</ele><time>2026-04-25T13:21:39.72Z</time></trkpt><trkpt lat="43.1809297" lon="10.7767488"><ele>393.0</ele><time>2026-04-25T13:21:40.719Z</time></trkpt><trkpt lat="43.1809905" lon="10.7766392"><ele>393.0</ele><time>2026-04-25T13:21:41.725Z</time></trkpt><trkpt lat="43.1810596" lon="10.7765312"><ele>393.0</ele><time>2026-04-25T13:21:42.721Z</time></trkpt><trkpt lat="43.1811338" lon="10.7764231"><ele>393.0</ele><time>2026-04-25T13:21:43.731Z</time></trkpt><trkpt lat="43.1812085" lon="10.7763119"><ele>393.0</ele><time>2026-04-25T13:21:44.721Z</time></trkpt><trkpt lat="43.1812934" lon="10.7762154"><ele>393.0</ele><time>2026-04-25T13:21:45.735Z</time></trkpt><trkpt lat="43.1813751" lon="10.7761244"><ele>393.0</ele><time>2026-04-25T13:21:46.72Z</time></trkpt><trkpt lat="43.1814558" lon="10.7760228"><ele>393.0</ele><time>2026-04-25T13:21:47.731Z</time></trkpt><trkpt lat="43.1815339" lon="10.7759274"><ele>393.0</ele><time>2026-04-25T13:21:48.725Z</time></trkpt><trkpt lat="43.1816137" lon="10.7758293"><ele>393.0</ele><time>2026-04-25T13:21:49.734Z</time></trkpt><trkpt lat="43.1816932" lon="10.7757294"><ele>393.0</ele><time>2026-04-25T13:21:50.71Z</time></trkpt><trkpt lat="43.1817827" lon="10.7756324"><ele>393.0</ele><time>2026-04-25T13:21:51.735Z</time></trkpt><trkpt lat="43.1819548" lon="10.7754431"><ele>393.0</ele><time>2026-04-25T13:21:53.725Z</time></trkpt><trkpt lat="43.1820441" lon="10.7753529"><ele>393.0</ele><time>2026-04-25T13:21:54.719Z</time></trkpt><trkpt lat="43.1821343" lon="10.7752556"><ele>393.0</ele><time>2026-04-25T13:21:55.726Z</time></trkpt><trkpt lat="43.1822241" lon="10.7751557"><ele>393.25</ele><time>2026-04-25T13:21:56.717Z</time></trkpt><trkpt lat="43.1823093" lon="10.7750545"><ele>393.5</ele><time>2026-04-25T13:21:57.719Z</time></trkpt><trkpt lat="43.1823908" lon="10.7749493"><ele>393.75</ele><time>2026-04-25T13:21:58.719Z</time></trkpt><trkpt lat="43.1824701" lon="10.77484"><ele>394.0</ele><time>2026-04-25T13:21:59.724Z</time></trkpt><trkpt lat="43.1825494" lon="10.7747276"><ele>394.0</ele><time>2026-04-25T13:22:00.73Z</time></trkpt><trkpt lat="43.1826204" lon="10.7746035"><ele>394.0</ele><time>2026-04-25T13:22:01.706Z</time></trkpt><trkpt lat="43.1826786" lon="10.7744677"><ele>394.0</ele><time>2026-04-25T13:22:02.716Z</time></trkpt><trkpt lat="43.1827294" lon="10.7743194"><ele>394.0</ele><time>2026-04-25T13:22:03.726Z</time></trkpt><trkpt lat="43.1827775" lon="10.7741657"><ele>394.25</ele><time>2026-04-25T13:22:04.718Z</time></trkpt><trkpt lat="43.1828288" lon="10.7740096"><ele>394.5</ele><time>2026-04-25T13:22:05.724Z</time></trkpt><trkpt lat="43.182881" lon="10.7738572"><ele>394.75</ele><time>2026-04-25T13:22:06.708Z</time></trkpt><trkpt lat="43.1829405" lon="10.773712"><ele>395.0</ele><time>2026-04-25T13:22:07.73Z</time></trkpt><trkpt lat="43.1830036" lon="10.7735845"><ele>394.4</ele><time>2026-04-25T13:22:08.702Z</time></trkpt><trkpt lat="43.183068" lon="10.7734689"><ele>393.8</ele><time>2026-04-25T13:22:09.721Z</time></trkpt><trkpt lat="43.1831359" lon="10.7733517"><ele>393.20000000000005</ele><time>2026-04-25T13:22:10.719Z</time></trkpt><trkpt lat="43.1832162" lon="10.7732487"><ele>392.6</ele><time>2026-04-25T13:22:11.701Z</time></trkpt><trkpt lat="43.1833066" lon="10.7731558"><ele>392.0</ele><time>2026-04-25T13:22:12.718Z</time></trkpt><trkpt lat="43.1834826" lon="10.7729795"><ele>393.6</ele><time>2026-04-25T13:22:14.729Z</time></trkpt><trkpt lat="43.1835632" lon="10.7728962"><ele>395.20000000000005</ele><time>2026-04-25T13:22:15.73Z</time></trkpt><trkpt lat="43.1836462" lon="10.7728033"><ele>396.8</ele><time>2026-04-25T13:22:16.716Z</time></trkpt><trkpt lat="43.1837192" lon="10.7726985"><ele>398.4</ele><time>2026-04-25T13:22:17.702Z</time></trkpt><trkpt lat="43.1837886" lon="10.7725853"><ele>400.0</ele><time>2026-04-25T13:22:18.717Z</time></trkpt><trkpt lat="43.1838582" lon="10.772467"><ele>400.8</ele><time>2026-04-25T13:22:19.732Z</time></trkpt><trkpt lat="43.1839315" lon="10.7723533"><ele>401.6</ele><time>2026-04-25T13:22:20.72Z</time></trkpt><trkpt lat="43.1840069" lon="10.7722438"><ele>402.4</ele><time>2026-04-25T13:22:21.729Z</time></trkpt><trkpt lat="43.1840895" lon="10.7721531"><ele>403.2</ele><time>2026-04-25T13:22:22.724Z</time></trkpt><trkpt lat="43.1841653" lon="10.7720672"><ele>404.0</ele><time>2026-04-25T13:22:23.715Z</time></trkpt><trkpt lat="43.1842349" lon="10.7719878"><ele>404.2</ele><time>2026-04-25T13:22:24.732Z</time></trkpt><trkpt lat="43.184311" lon="10.7719166"><ele>404.4</ele><time>2026-04-25T13:22:25.706Z</time></trkpt><trkpt lat="43.1843929" lon="10.7718454"><ele>404.6</ele><time>2026-04-25T13:22:26.714Z</time></trkpt><trkpt lat="43.1844755" lon="10.7717843"><ele>404.8</ele><time>2026-04-25T13:22:27.724Z</time></trkpt><trkpt lat="43.1845596" lon="10.7717211"><ele>405.0</ele><time>2026-04-25T13:22:28.717Z</time></trkpt><trkpt lat="43.1846405" lon="10.7716605"><ele>408.4</ele><time>2026-04-25T13:22:29.73Z</time></trkpt><trkpt lat="43.1847199" lon="10.7716127"><ele>411.8</ele><time>2026-04-25T13:22:30.702Z</time></trkpt><trkpt lat="43.184805" lon="10.7715585"><ele>415.20000000000005</ele><time>2026-04-25T13:22:31.721Z</time></trkpt><trkpt lat="43.1848885" lon="10.7715169"><ele>418.6</ele><time>2026-04-25T13:22:32.714Z</time></trkpt><trkpt lat="43.1849726" lon="10.7714749"><ele>422.0</ele><time>2026-04-25T13:22:33.713Z</time></trkpt><trkpt lat="43.185158" lon="10.7713915"><ele>422.0</ele><time>2026-04-25T13:22:35.712Z</time></trkpt><trkpt lat="43.1852632" lon="10.7713527"><ele>422.0</ele><time>2026-04-25T13:22:36.714Z</time></trkpt><trkpt lat="43.1853731" lon="10.7713223"><ele>422.0</ele><time>2026-04-25T13:22:37.718Z</time></trkpt><trkpt lat="43.1854802" lon="10.7713006"><ele>422.0</ele><time>2026-04-25T13:22:38.709Z</time></trkpt><trkpt lat="43.1855789" lon="10.7712788"><ele>422.0</ele><time>2026-04-25T13:22:39.716Z</time></trkpt><trkpt lat="43.1856755" lon="10.7712591"><ele>421.8</ele><time>2026-04-25T13:22:40.704Z</time></trkpt><trkpt lat="43.1857772" lon="10.7712303"><ele>421.6</ele><time>2026-04-25T13:22:41.712Z</time></trkpt><trkpt lat="43.1858727" lon="10.7711824"><ele>421.40000000000003</ele><time>2026-04-25T13:22:42.723Z</time></trkpt><trkpt lat="43.1859654" lon="10.7711041"><ele>421.20000000000005</ele><time>2026-04-25T13:22:43.712Z</time></trkpt><trkpt lat="43.1860481" lon="10.7710136"><ele>421.0</ele><time>2026-04-25T13:22:44.719Z</time></trkpt><trkpt lat="43.1861144" lon="10.7709189"><ele>422.6</ele><time>2026-04-25T13:22:45.727Z</time></trkpt><trkpt lat="43.1862029" lon="10.7708182"><ele>424.20000000000005</ele><time>2026-04-25T13:22:46.71Z</time></trkpt><trkpt lat="43.1862953" lon="10.7707388"><ele>425.79999999999995</ele><time>2026-04-25T13:22:47.732Z</time></trkpt><trkpt lat="43.1863908" lon="10.7706859"><ele>427.4</ele><time>2026-04-25T13:22:48.712Z</time></trkpt><trkpt lat="43.1864774" lon="10.7706654"><ele>429.0</ele><time>2026-04-25T13:22:49.728Z</time></trkpt><trkpt lat="43.1865462" lon="10.7706619"><ele>429.0</ele><time>2026-04-25T13:22:50.724Z</time></trkpt><trkpt lat="43.186666" lon="10.77068"><ele>429.0</ele><time>2026-04-25T13:22:52.725Z</time></trkpt><trkpt lat="43.1868035" lon="10.7707036"><ele>429.0</ele><time>2026-04-25T13:22:54.713Z</time></trkpt><trkpt lat="43.1869942" lon="10.7706385"><ele>429.0</ele><time>2026-04-25T13:22:56.716Z</time></trkpt><trkpt lat="43.1870945" lon="10.7705858"><ele>429.0</ele><time>2026-04-25T13:22:57.704Z</time></trkpt><trkpt lat="43.1872079" lon="10.7705363"><ele>429.0</ele><time>2026-04-25T13:22:58.712Z</time></trkpt><trkpt lat="43.1873384" lon="10.7705098"><ele>429.0</ele><time>2026-04-25T13:22:59.708Z</time></trkpt><trkpt lat="43.1874683" lon="10.7705051"><ele>430.33333333333337</ele><time>2026-04-25T13:23:00.69Z</time></trkpt><trkpt lat="43.1876103" lon="10.7704902"><ele>431.6666666666667</ele><time>2026-04-25T13:23:01.725Z</time></trkpt><trkpt lat="43.1877634" lon="10.7704691"><ele>433.0</ele><time>2026-04-25T13:23:02.687Z</time></trkpt><trkpt lat="43.18792" lon="10.7704338"><ele>433.0</ele><time>2026-04-25T13:23:03.722Z</time></trkpt><trkpt lat="43.1880717" lon="10.7703963"><ele>433.0</ele><time>2026-04-25T13:23:04.724Z</time></trkpt><trkpt lat="43.1882024" lon="10.7703449"><ele>433.0</ele><time>2026-04-25T13:23:05.724Z</time></trkpt><trkpt lat="43.1883103" lon="10.7703107"><ele>433.0</ele><time>2026-04-25T13:23:06.697Z</time></trkpt><trkpt lat="43.1884079" lon="10.77031"><ele>433.59999999999997</ele><time>2026-04-25T13:23:07.726Z</time></trkpt><trkpt lat="43.1884893" lon="10.7703269"><ele>434.19999999999993</ele><time>2026-04-25T13:23:08.714Z</time></trkpt><trkpt lat="43.1885671" lon="10.7703784"><ele>434.8</ele><time>2026-04-25T13:23:09.727Z</time></trkpt><trkpt lat="43.1886522" lon="10.7704554"><ele>435.4</ele><time>2026-04-25T13:23:10.72Z</time></trkpt><trkpt lat="43.1887588" lon="10.7705656"><ele>436.0</ele><time>2026-04-25T13:23:11.72Z</time></trkpt><trkpt lat="43.188859" lon="10.7706784"><ele>436.0</ele><time>2026-04-25T13:23:12.721Z</time></trkpt><trkpt lat="43.1889605" lon="10.770773"><ele>436.0</ele><time>2026-04-25T13:23:13.725Z</time></trkpt><trkpt lat="43.1890578" lon="10.7708579"><ele>436.0</ele><time>2026-04-25T13:23:14.731Z</time></trkpt><trkpt lat="43.1891868" lon="10.7709226"><ele>436.0</ele><time>2026-04-25T13:23:15.72Z</time></trkpt><trkpt lat="43.189516" lon="10.7709311"><ele>437.0</ele><time>2026-04-25T13:23:17.698Z</time></trkpt><trkpt lat="43.189657" lon="10.7709424"><ele>438.0</ele><time>2026-04-25T13:23:18.71Z</time></trkpt><trkpt lat="43.1897911" lon="10.7709863"><ele>439.0</ele><time>2026-04-25T13:23:19.713Z</time></trkpt><trkpt lat="43.1899235" lon="10.7710423"><ele>440.0</ele><time>2026-04-25T13:23:20.721Z</time></trkpt><trkpt lat="43.190051" lon="10.7711048"><ele>437.0</ele><time>2026-04-25T13:23:21.717Z</time></trkpt><trkpt lat="43.190173" lon="10.7711594"><ele>434.0</ele><time>2026-04-25T13:23:22.719Z</time></trkpt><trkpt lat="43.1902951" lon="10.7712051"><ele>431.0</ele><time>2026-04-25T13:23:23.716Z</time></trkpt><trkpt lat="43.190418" lon="10.7712564"><ele>428.0</ele><time>2026-04-25T13:23:24.715Z</time></trkpt><trkpt lat="43.1905478" lon="10.7713288"><ele>427.25</ele><time>2026-04-25T13:23:25.732Z</time></trkpt><trkpt lat="43.1906788" lon="10.7714156"><ele>426.5</ele><time>2026-04-25T13:23:26.734Z</time></trkpt><trkpt lat="43.1907989" lon="10.7715014"><ele>425.75</ele><time>2026-04-25T13:23:27.718Z</time></trkpt><trkpt lat="43.190915" lon="10.7715713"><ele>425.0</ele><time>2026-04-25T13:23:28.718Z</time></trkpt><trkpt lat="43.1910304" lon="10.7716142"><ele>425.0</ele><time>2026-04-25T13:23:29.72Z</time></trkpt><trkpt lat="43.1911471" lon="10.7716393"><ele>425.0</ele><time>2026-04-25T13:23:30.721Z</time></trkpt><trkpt lat="43.191275" lon="10.771639"><ele>425.0</ele><time>2026-04-25T13:23:31.728Z</time></trkpt><trkpt lat="43.1913956" lon="10.7716379"><ele>425.0</ele><time>2026-04-25T13:23:32.709Z</time></trkpt><trkpt lat="43.1915199" lon="10.7716367"><ele>423.25</ele><time>2026-04-25T13:23:33.724Z</time></trkpt><trkpt lat="43.1916384" lon="10.7716393"><ele>421.5</ele><time>2026-04-25T13:23:34.717Z</time></trkpt><trkpt lat="43.1917407" lon="10.7716633"><ele>419.75</ele><time>2026-04-25T13:23:35.723Z</time></trkpt><trkpt lat="43.1918326" lon="10.7716962"><ele>418.0</ele><time>2026-04-25T13:23:36.73Z</time></trkpt><trkpt lat="43.1919954" lon="10.7717942"><ele>418.0</ele><time>2026-04-25T13:23:38.716Z</time></trkpt><trkpt lat="43.192074" lon="10.7718478"><ele>418.0</ele><time>2026-04-25T13:23:39.729Z</time></trkpt><trkpt lat="43.1921447" lon="10.7719004"><ele>418.0</ele><time>2026-04-25T13:23:40.716Z</time></trkpt><trkpt lat="43.1922188" lon="10.7719535"><ele>418.0</ele><time>2026-04-25T13:23:41.728Z</time></trkpt><trkpt lat="43.1923002" lon="10.7720226"><ele>418.0</ele><time>2026-04-25T13:23:42.728Z</time></trkpt><trkpt lat="43.1924004" lon="10.7721119"><ele>415.5</ele><time>2026-04-25T13:23:43.729Z</time></trkpt><trkpt lat="43.1925014" lon="10.7722257"><ele>413.0</ele><time>2026-04-25T13:23:44.692Z</time></trkpt><trkpt lat="43.1925939" lon="10.7723233"><ele>410.5</ele><time>2026-04-25T13:23:45.724Z</time></trkpt><trkpt lat="43.192674" lon="10.7724282"><ele>408.0</ele><time>2026-04-25T13:23:46.693Z</time></trkpt><trkpt lat="43.1927563" lon="10.7725296"><ele>408.0</ele><time>2026-04-25T13:23:47.723Z</time></trkpt><trkpt lat="43.1928389" lon="10.7726315"><ele>408.0</ele><time>2026-04-25T13:23:48.714Z</time></trkpt><trkpt lat="43.192913" lon="10.7727299"><ele>408.0</ele><time>2026-04-25T13:23:49.752Z</time></trkpt><trkpt lat="43.1929814" lon="10.7728306"><ele>408.0</ele><time>2026-04-25T13:23:50.716Z</time></trkpt><trkpt lat="43.1930418" lon="10.7729348"><ele>408.0</ele><time>2026-04-25T13:23:51.724Z</time></trkpt><trkpt lat="43.1930908" lon="10.7730396"><ele>407.0</ele><time>2026-04-25T13:23:52.711Z</time></trkpt><trkpt lat="43.1931329" lon="10.7731352"><ele>406.0</ele><time>2026-04-25T13:23:53.723Z</time></trkpt><trkpt lat="43.1931655" lon="10.7732152"><ele>405.0</ele><time>2026-04-25T13:23:54.721Z</time></trkpt><trkpt lat="43.1932273" lon="10.773303"><ele>404.0</ele><time>2026-04-25T13:23:56.723Z</time></trkpt><trkpt lat="43.1932917" lon="10.773245"><ele>403.0</ele><time>2026-04-25T13:24:20.717Z</time></trkpt><trkpt lat="43.1932602" lon="10.7729985"><ele>403.0</ele><time>2026-04-25T13:24:23.718Z</time></trkpt><trkpt lat="43.1932603" lon="10.7728841"><ele>403.0</ele><time>2026-04-25T13:24:24.725Z</time></trkpt><trkpt lat="43.1932574" lon="10.7727509"><ele>403.0</ele><time>2026-04-25T13:24:25.695Z</time></trkpt><trkpt lat="43.1932451" lon="10.7726094"><ele>403.0</ele><time>2026-04-25T13:24:26.707Z</time></trkpt><trkpt lat="43.1932347" lon="10.772461"><ele>403.0</ele><time>2026-04-25T13:24:27.721Z</time></trkpt><trkpt lat="43.1932129" lon="10.7723"><ele>404.25</ele><time>2026-04-25T13:24:28.713Z</time></trkpt><trkpt lat="43.1931682" lon="10.7721308"><ele>405.5</ele><time>2026-04-25T13:24:29.722Z</time></trkpt><trkpt lat="43.1931206" lon="10.7719526"><ele>406.75</ele><time>2026-04-25T13:24:30.712Z</time></trkpt><trkpt lat="43.1930708" lon="10.7717667"><ele>408.0</ele><time>2026-04-25T13:24:31.721Z</time></trkpt><trkpt lat="43.1930276" lon="10.771591"><ele>409.25</ele><time>2026-04-25T13:24:32.731Z</time></trkpt><trkpt lat="43.1929805" lon="10.7714245"><ele>410.5</ele><time>2026-04-25T13:24:33.719Z</time></trkpt><trkpt lat="43.1929284" lon="10.7712783"><ele>411.75</ele><time>2026-04-25T13:24:34.727Z</time></trkpt><trkpt lat="43.1928665" lon="10.7711529"><ele>413.0</ele><time>2026-04-25T13:24:35.701Z</time></trkpt><trkpt lat="43.1927697" lon="10.7710635"><ele>413.66666666666663</ele><time>2026-04-25T13:24:36.695Z</time></trkpt><trkpt lat="43.1926356" lon="10.770999"><ele>414.33333333333337</ele><time>2026-04-25T13:24:37.724Z</time></trkpt><trkpt lat="43.1924817" lon="10.7709371"><ele>415.0</ele><time>2026-04-25T13:24:38.708Z</time></trkpt><trkpt lat="43.1923156" lon="10.7708822"><ele>415.0</ele><time>2026-04-25T13:24:39.72Z</time></trkpt><trkpt lat="43.1921594" lon="10.7708232"><ele>415.0</ele><time>2026-04-25T13:24:40.712Z</time></trkpt><trkpt lat="43.192015" lon="10.7707209"><ele>415.0</ele><time>2026-04-25T13:24:41.702Z</time></trkpt><trkpt lat="43.1917742" lon="10.770369"><ele>412.33333333333337</ele><time>2026-04-25T13:24:43.724Z</time></trkpt><trkpt lat="43.1916512" lon="10.7701559"><ele>409.66666666666663</ele><time>2026-04-25T13:24:44.716Z</time></trkpt><trkpt lat="43.1915262" lon="10.769946"><ele>407.0</ele><time>2026-04-25T13:24:45.741Z</time></trkpt><trkpt lat="43.1914031" lon="10.7697402"><ele>409.66666666666663</ele><time>2026-04-25T13:24:46.722Z</time></trkpt><trkpt lat="43.191275" lon="10.769535"><ele>412.33333333333337</ele><time>2026-04-25T13:24:47.724Z</time></trkpt><trkpt lat="43.1911463" lon="10.7693348"><ele>415.0</ele><time>2026-04-25T13:24:48.716Z</time></trkpt><trkpt lat="43.1910168" lon="10.7691314"><ele>415.0</ele><time>2026-04-25T13:24:49.74Z</time></trkpt><trkpt lat="43.1908906" lon="10.7689329"><ele>415.0</ele><time>2026-04-25T13:24:50.712Z</time></trkpt><trkpt lat="43.1907639" lon="10.7687295"><ele>415.0</ele><time>2026-04-25T13:24:51.723Z</time></trkpt><trkpt lat="43.1906385" lon="10.7685259"><ele>417.6666666666667</ele><time>2026-04-25T13:24:52.707Z</time></trkpt><trkpt lat="43.1905073" lon="10.7683202"><ele>420.33333333333337</ele><time>2026-04-25T13:24:53.729Z</time></trkpt><trkpt lat="43.1903769" lon="10.7681163"><ele>423.0</ele><time>2026-04-25T13:24:54.718Z</time></trkpt><trkpt lat="43.1902516" lon="10.7679155"><ele>423.0</ele><time>2026-04-25T13:24:55.73Z</time></trkpt><trkpt lat="43.1901391" lon="10.7677212"><ele>423.0</ele><time>2026-04-25T13:24:56.725Z</time></trkpt><trkpt lat="43.1900468" lon="10.7675264"><ele>423.0</ele><time>2026-04-25T13:24:57.736Z</time></trkpt><trkpt lat="43.1899774" lon="10.7673232"><ele>420.66666666666663</ele><time>2026-04-25T13:24:58.701Z</time></trkpt><trkpt lat="43.1899295" lon="10.7670984"><ele>418.3333333333333</ele><time>2026-04-25T13:24:59.738Z</time></trkpt><trkpt lat="43.1899312" lon="10.7668636"><ele>416.0</ele><time>2026-04-25T13:25:00.726Z</time></trkpt><trkpt lat="43.1899783" lon="10.7666121"><ele>415.5</ele><time>2026-04-25T13:25:01.707Z</time></trkpt><trkpt lat="43.1900466" lon="10.7663624"><ele>415.0</ele><time>2026-04-25T13:25:02.712Z</time></trkpt><trkpt lat="43.1901839" lon="10.7658483"><ele>414.0</ele><time>2026-04-25T13:25:04.714Z</time></trkpt><trkpt lat="43.1902497" lon="10.7655868"><ele>413.0</ele><time>2026-04-25T13:25:05.717Z</time></trkpt><trkpt lat="43.190316" lon="10.7653258"><ele>412.0</ele><time>2026-04-25T13:25:06.703Z</time></trkpt><trkpt lat="43.1903796" lon="10.7650666"><ele>410.0</ele><time>2026-04-25T13:25:07.713Z</time></trkpt><trkpt lat="43.1904515" lon="10.7648099"><ele>408.0</ele><time>2026-04-25T13:25:08.708Z</time></trkpt><trkpt lat="43.1905438" lon="10.7645554"><ele>406.0</ele><time>2026-04-25T13:25:09.737Z</time></trkpt><trkpt lat="43.1906435" lon="10.7643283"><ele>407.0</ele><time>2026-04-25T13:25:10.729Z</time></trkpt><trkpt lat="43.1907327" lon="10.7641093"><ele>408.0</ele><time>2026-04-25T13:25:11.718Z</time></trkpt><trkpt lat="43.1907921" lon="10.7638638"><ele>409.0</ele><time>2026-04-25T13:25:12.722Z</time></trkpt><trkpt lat="43.190804" lon="10.763606"><ele>409.33333333333337</ele><time>2026-04-25T13:25:13.716Z</time></trkpt><trkpt lat="43.1908081" lon="10.7633749"><ele>409.66666666666663</ele><time>2026-04-25T13:25:14.693Z</time></trkpt><trkpt lat="43.1908323" lon="10.7631781"><ele>410.0</ele><time>2026-04-25T13:25:15.734Z</time></trkpt><trkpt lat="43.1909087" lon="10.7630186"><ele>410.0</ele><time>2026-04-25T13:25:16.707Z</time></trkpt><trkpt lat="43.1910304" lon="10.7628685"><ele>410.0</ele><time>2026-04-25T13:25:17.729Z</time></trkpt><trkpt lat="43.1911455" lon="10.7627158"><ele>410.0</ele><time>2026-04-25T13:25:18.719Z</time></trkpt><trkpt lat="43.1912114" lon="10.7624948"><ele>407.66666666666663</ele><time>2026-04-25T13:25:19.725Z</time></trkpt><trkpt lat="43.1912502" lon="10.7622421"><ele>405.33333333333337</ele><time>2026-04-25T13:25:20.703Z</time></trkpt><trkpt lat="43.1912895" lon="10.7620141"><ele>403.0</ele><time>2026-04-25T13:25:21.722Z</time></trkpt><trkpt lat="43.1913577" lon="10.761849"><ele>400.5</ele><time>2026-04-25T13:25:22.727Z</time></trkpt><trkpt lat="43.1914782" lon="10.7617204"><ele>398.0</ele><time>2026-04-25T13:25:23.72Z</time></trkpt><trkpt lat="43.1917872" lon="10.7615249"><ele>401.66666666666663</ele><time>2026-04-25T13:25:25.732Z</time></trkpt><trkpt lat="43.19194" lon="10.7614271"><ele>405.33333333333337</ele><time>2026-04-25T13:25:26.729Z</time></trkpt><trkpt lat="43.19208" lon="10.7613353"><ele>409.0</ele><time>2026-04-25T13:25:27.711Z</time></trkpt><trkpt lat="43.1922086" lon="10.7612375"><ele>409.0</ele><time>2026-04-25T13:25:28.71Z</time></trkpt><trkpt lat="43.192305" lon="10.7610859"><ele>409.0</ele><time>2026-04-25T13:25:29.741Z</time></trkpt><trkpt lat="43.1923538" lon="10.7608575"><ele>409.0</ele><time>2026-04-25T13:25:30.732Z</time></trkpt><trkpt lat="43.1923687" lon="10.7606134"><ele>408.0</ele><time>2026-04-25T13:25:31.721Z</time></trkpt><trkpt lat="43.1923872" lon="10.7603821"><ele>407.0</ele><time>2026-04-25T13:25:32.692Z</time></trkpt><trkpt lat="43.1924502" lon="10.760167"><ele>406.0</ele><time>2026-04-25T13:25:33.725Z</time></trkpt><trkpt lat="43.1925531" lon="10.7599477"><ele>403.6666666666667</ele><time>2026-04-25T13:25:34.714Z</time></trkpt><trkpt lat="43.1926582" lon="10.7597171"><ele>401.33333333333337</ele><time>2026-04-25T13:25:35.713Z</time></trkpt><trkpt lat="43.192757" lon="10.7595036"><ele>399.0</ele><time>2026-04-25T13:25:36.71Z</time></trkpt><trkpt lat="43.1928201" lon="10.7592905"><ele>395.66666666666663</ele><time>2026-04-25T13:25:37.689Z</time></trkpt><trkpt lat="43.1928586" lon="10.7590534"><ele>392.3333333333333</ele><time>2026-04-25T13:25:38.711Z</time></trkpt><trkpt lat="43.1928338" lon="10.758803"><ele>389.0</ele><time>2026-04-25T13:25:39.725Z</time></trkpt><trkpt lat="43.1927843" lon="10.7585633"><ele>387.66666666666663</ele><time>2026-04-25T13:25:40.715Z</time></trkpt><trkpt lat="43.1927745" lon="10.7583439"><ele>386.33333333333337</ele><time>2026-04-25T13:25:41.712Z</time></trkpt><trkpt lat="43.1928015" lon="10.7581431"><ele>385.0</ele><time>2026-04-25T13:25:42.721Z</time></trkpt><trkpt lat="43.1928673" lon="10.7579504"><ele>385.0</ele><time>2026-04-25T13:25:43.717Z</time></trkpt><trkpt lat="43.1929415" lon="10.7577608"><ele>385.0</ele><time>2026-04-25T13:25:44.734Z</time></trkpt><trkpt lat="43.192974" lon="10.7572988"><ele>381.0</ele><time>2026-04-25T13:25:46.72Z</time></trkpt><trkpt lat="43.1929309" lon="10.7569957"><ele>377.0</ele><time>2026-04-25T13:25:47.731Z</time></trkpt><trkpt lat="43.1928839" lon="10.7566928"><ele>376.33333333333337</ele><time>2026-04-25T13:25:48.714Z</time></trkpt><trkpt lat="43.192852" lon="10.756396"><ele>375.6666666666667</ele><time>2026-04-25T13:25:49.721Z</time></trkpt><trkpt lat="43.1928265" lon="10.756124"><ele>375.0</ele><time>2026-04-25T13:25:50.69Z</time></trkpt><trkpt lat="43.1928186" lon="10.7558796"><ele>375.0</ele><time>2026-04-25T13:25:51.697Z</time></trkpt><trkpt lat="43.1928219" lon="10.755653"><ele>375.0</ele><time>2026-04-25T13:25:52.698Z</time></trkpt><trkpt lat="43.1928349" lon="10.755457"><ele>375.0</ele><time>2026-04-25T13:25:53.72Z</time></trkpt><trkpt lat="43.1928183" lon="10.7552909"><ele>375.0</ele><time>2026-04-25T13:25:54.721Z</time></trkpt><trkpt lat="43.1927443" lon="10.7551779"><ele>374.6666666666667</ele><time>2026-04-25T13:25:55.685Z</time></trkpt><trkpt lat="43.1926061" lon="10.7551066"><ele>374.33333333333337</ele><time>2026-04-25T13:25:56.694Z</time></trkpt><trkpt lat="43.1924326" lon="10.7550468"><ele>374.0</ele><time>2026-04-25T13:25:57.717Z</time></trkpt><trkpt lat="43.1922691" lon="10.7549795"><ele>370.75</ele><time>2026-04-25T13:25:58.698Z</time></trkpt><trkpt lat="43.192131" lon="10.7548902"><ele>367.5</ele><time>2026-04-25T13:25:59.71Z</time></trkpt><trkpt lat="43.1920322" lon="10.7547579"><ele>364.25</ele><time>2026-04-25T13:26:00.686Z</time></trkpt><trkpt lat="43.1919601" lon="10.7545948"><ele>361.0</ele><time>2026-04-25T13:26:01.731Z</time></trkpt><trkpt lat="43.191911" lon="10.7544297"><ele>359.66666666666663</ele><time>2026-04-25T13:26:02.743Z</time></trkpt><trkpt lat="43.1919145" lon="10.7542577"><ele>358.3333333333333</ele><time>2026-04-25T13:26:03.689Z</time></trkpt><trkpt lat="43.1920147" lon="10.7540784"><ele>357.0</ele><time>2026-04-25T13:26:04.71Z</time></trkpt><trkpt lat="43.1921305" lon="10.7538759"><ele>361.0</ele><time>2026-04-25T13:26:05.724Z</time></trkpt><trkpt lat="43.1923089" lon="10.7533863"><ele>365.0</ele><time>2026-04-25T13:26:07.714Z</time></trkpt><trkpt lat="43.1923963" lon="10.7531512"><ele>365.0</ele><time>2026-04-25T13:26:08.715Z</time></trkpt><trkpt lat="43.1924889" lon="10.7529447"><ele>365.0</ele><time>2026-04-25T13:26:09.704Z</time></trkpt><trkpt lat="43.1925682" lon="10.7527356"><ele>365.0</ele><time>2026-04-25T13:26:10.717Z</time></trkpt><trkpt lat="43.1926046" lon="10.7525262"><ele>363.0</ele><time>2026-04-25T13:26:11.722Z</time></trkpt><trkpt lat="43.1926168" lon="10.7523195"><ele>361.0</ele><time>2026-04-25T13:26:12.725Z</time></trkpt><trkpt lat="43.1926136" lon="10.7521268"><ele>359.0</ele><time>2026-04-25T13:26:13.723Z</time></trkpt><trkpt lat="43.1926155" lon="10.7519532"><ele>357.0</ele><time>2026-04-25T13:26:14.713Z</time></trkpt><trkpt lat="43.1926608" lon="10.751815"><ele>355.75</ele><time>2026-04-25T13:26:15.715Z</time></trkpt><trkpt lat="43.192742" lon="10.7517167"><ele>354.5</ele><time>2026-04-25T13:26:16.711Z</time></trkpt><trkpt lat="43.1928566" lon="10.7516723"><ele>353.25</ele><time>2026-04-25T13:26:17.72Z</time></trkpt><trkpt lat="43.1929854" lon="10.7516713"><ele>352.0</ele><time>2026-04-25T13:26:18.711Z</time></trkpt><trkpt lat="43.1931066" lon="10.7516346"><ele>354.0</ele><time>2026-04-25T13:26:19.685Z</time></trkpt><trkpt lat="43.1932097" lon="10.7514946"><ele>356.0</ele><time>2026-04-25T13:26:20.701Z</time></trkpt><trkpt lat="43.1933124" lon="10.7512798"><ele>358.0</ele><time>2026-04-25T13:26:21.707Z</time></trkpt><trkpt lat="43.1934077" lon="10.7510737"><ele>355.75</ele><time>2026-04-25T13:26:22.713Z</time></trkpt><trkpt lat="43.193467" lon="10.7509049"><ele>353.5</ele><time>2026-04-25T13:26:23.714Z</time></trkpt><trkpt lat="43.1934934" lon="10.7507535"><ele>351.25</ele><time>2026-04-25T13:26:24.71Z</time></trkpt><trkpt lat="43.1934849" lon="10.7506074"><ele>349.0</ele><time>2026-04-25T13:26:25.727Z</time></trkpt><trkpt lat="43.1934138" lon="10.7504474"><ele>346.5</ele><time>2026-04-25T13:26:26.704Z</time></trkpt><trkpt lat="43.1931481" lon="10.7501608"><ele>344.0</ele><time>2026-04-25T13:26:28.693Z</time></trkpt><trkpt lat="43.192993" lon="10.7499984"><ele>344.0</ele><time>2026-04-25T13:26:29.711Z</time></trkpt><trkpt lat="43.1928431" lon="10.749829"><ele>344.0</ele><time>2026-04-25T13:26:30.7Z</time></trkpt><trkpt lat="43.1927071" lon="10.7496785"><ele>344.0</ele><time>2026-04-25T13:26:31.709Z</time></trkpt><trkpt lat="43.1926085" lon="10.7495435"><ele>344.0</ele><time>2026-04-25T13:26:32.714Z</time></trkpt><trkpt lat="43.1925394" lon="10.7494089"><ele>344.0</ele><time>2026-04-25T13:26:33.7Z</time></trkpt><trkpt lat="43.1924881" lon="10.7492514"><ele>344.0</ele><time>2026-04-25T13:26:34.702Z</time></trkpt><trkpt lat="43.1924568" lon="10.7490436"><ele>344.0</ele><time>2026-04-25T13:26:35.741Z</time></trkpt><trkpt lat="43.1924404" lon="10.7487805"><ele>342.0</ele><time>2026-04-25T13:26:36.718Z</time></trkpt><trkpt lat="43.192433" lon="10.7485274"><ele>340.0</ele><time>2026-04-25T13:26:37.711Z</time></trkpt><trkpt lat="43.1924474" lon="10.7482691"><ele>338.0</ele><time>2026-04-25T13:26:38.714Z</time></trkpt><trkpt lat="43.1924895" lon="10.7480292"><ele>338.0</ele><time>2026-04-25T13:26:39.74Z</time></trkpt><trkpt lat="43.1925496" lon="10.747817"><ele>338.0</ele><time>2026-04-25T13:26:40.708Z</time></trkpt><trkpt lat="43.1926271" lon="10.7476673"><ele>338.0</ele><time>2026-04-25T13:26:41.698Z</time></trkpt><trkpt lat="43.1927512" lon="10.7476368"><ele>338.0</ele><time>2026-04-25T13:26:42.705Z</time></trkpt><trkpt lat="43.1928944" lon="10.7476495"><ele>336.6666666666667</ele><time>2026-04-25T13:26:43.694Z</time></trkpt><trkpt lat="43.1930748" lon="10.7476728"><ele>335.3333333333333</ele><time>2026-04-25T13:26:44.688Z</time></trkpt><trkpt lat="43.1932622" lon="10.7477075"><ele>334.0</ele><time>2026-04-25T13:26:45.692Z</time></trkpt><trkpt lat="43.1934348" lon="10.7477233"><ele>334.0</ele><time>2026-04-25T13:26:46.686Z</time></trkpt><trkpt lat="43.1935866" lon="10.7477313"><ele>334.0</ele><time>2026-04-25T13:26:47.682Z</time></trkpt><trkpt lat="43.1938359" lon="10.7476032"><ele>334.0</ele><time>2026-04-25T13:26:49.717Z</time></trkpt><trkpt lat="43.1939468" lon="10.7474312"><ele>333.66666666666663</ele><time>2026-04-25T13:26:50.727Z</time></trkpt><trkpt lat="43.194036" lon="10.7471924"><ele>333.3333333333333</ele><time>2026-04-25T13:26:51.709Z</time></trkpt><trkpt lat="43.1941261" lon="10.7469109"><ele>333.0</ele><time>2026-04-25T13:26:52.724Z</time></trkpt><trkpt lat="43.1942322" lon="10.7466092"><ele>331.0</ele><time>2026-04-25T13:26:53.72Z</time></trkpt><trkpt lat="43.1943268" lon="10.7462901"><ele>329.0</ele><time>2026-04-25T13:26:54.735Z</time></trkpt><trkpt lat="43.1944063" lon="10.74603"><ele>328.33333333333337</ele><time>2026-04-25T13:26:55.733Z</time></trkpt><trkpt lat="43.1944691" lon="10.7458067"><ele>327.6666666666667</ele><time>2026-04-25T13:26:56.702Z</time></trkpt><trkpt lat="43.1945299" lon="10.7455729"><ele>327.0</ele><time>2026-04-25T13:26:57.707Z</time></trkpt><trkpt lat="43.1945435" lon="10.7453236"><ele>326.0</ele><time>2026-04-25T13:26:58.722Z</time></trkpt><trkpt lat="43.1945278" lon="10.7450768"><ele>325.0</ele><time>2026-04-25T13:26:59.711Z</time></trkpt><trkpt lat="43.1945209" lon="10.744869"><ele>324.0</ele><time>2026-04-25T13:27:00.721Z</time></trkpt><trkpt lat="43.1945507" lon="10.7447008"><ele>324.0</ele><time>2026-04-25T13:27:01.714Z</time></trkpt><trkpt lat="43.1946356" lon="10.7445561"><ele>324.0</ele><time>2026-04-25T13:27:02.728Z</time></trkpt><trkpt lat="43.1947705" lon="10.7444303"><ele>324.0</ele><time>2026-04-25T13:27:03.716Z</time></trkpt><trkpt lat="43.1949013" lon="10.7442706"><ele>325.0</ele><time>2026-04-25T13:27:04.706Z</time></trkpt><trkpt lat="43.1950149" lon="10.7440334"><ele>326.0</ele><time>2026-04-25T13:27:05.697Z</time></trkpt><trkpt lat="43.1951164" lon="10.7437392"><ele>327.0</ele><time>2026-04-25T13:27:06.693Z</time></trkpt><trkpt lat="43.1952211" lon="10.74348"><ele>323.0</ele><time>2026-04-25T13:27:07.709Z</time></trkpt><trkpt lat="43.1953155" lon="10.7432528"><ele>319.0</ele><time>2026-04-25T13:27:08.711Z</time></trkpt><trkpt lat="43.1954336" lon="10.7428429"><ele>317.0</ele><time>2026-04-25T13:27:10.724Z</time></trkpt><trkpt lat="43.1954517" lon="10.7425691"><ele>315.0</ele><time>2026-04-25T13:27:11.721Z</time></trkpt><trkpt lat="43.1954472" lon="10.7422524"><ele>313.0</ele><time>2026-04-25T13:27:12.71Z</time></trkpt><trkpt lat="43.1954352" lon="10.7419195"><ele>311.0</ele><time>2026-04-25T13:27:13.725Z</time></trkpt><trkpt lat="43.1954134" lon="10.7416108"><ele>309.0</ele><time>2026-04-25T13:27:14.697Z</time></trkpt><trkpt lat="43.1953718" lon="10.7413167"><ele>307.0</ele><time>2026-04-25T13:27:15.684Z</time></trkpt><trkpt lat="43.1953101" lon="10.7410518"><ele>307.0</ele><time>2026-04-25T13:27:16.707Z</time></trkpt><trkpt lat="43.1952457" lon="10.7408286"><ele>307.0</ele><time>2026-04-25T13:27:17.75Z</time></trkpt><trkpt lat="43.1951784" lon="10.7406422"><ele>307.0</ele><time>2026-04-25T13:27:18.714Z</time></trkpt><trkpt lat="43.1951307" lon="10.7404928"><ele>307.0</ele><time>2026-04-25T13:27:19.719Z</time></trkpt><trkpt lat="43.1951146" lon="10.7403635"><ele>307.0</ele><time>2026-04-25T13:27:20.703Z</time></trkpt><trkpt lat="43.1951516" lon="10.740265"><ele>307.0</ele><time>2026-04-25T13:27:21.694Z</time></trkpt><trkpt lat="43.1952403" lon="10.740215"><ele>307.0</ele><time>2026-04-25T13:27:22.708Z</time></trkpt><trkpt lat="43.1953672" lon="10.7402424"><ele>307.0</ele><time>2026-04-25T13:27:23.684Z</time></trkpt><trkpt lat="43.1955075" lon="10.7403287"><ele>307.0</ele><time>2026-04-25T13:27:24.717Z</time></trkpt><trkpt lat="43.1956697" lon="10.7404412"><ele>307.0</ele><time>2026-04-25T13:27:25.714Z</time></trkpt><trkpt lat="43.1958298" lon="10.7405288"><ele>307.0</ele><time>2026-04-25T13:27:26.701Z</time></trkpt><trkpt lat="43.195997" lon="10.7405631"><ele>307.3333333333333</ele><time>2026-04-25T13:27:27.736Z</time></trkpt><trkpt lat="43.1961881" lon="10.7405484"><ele>307.6666666666667</ele><time>2026-04-25T13:27:28.712Z</time></trkpt><trkpt lat="43.1963826" lon="10.7405142"><ele>308.0</ele><time>2026-04-25T13:27:29.724Z</time></trkpt><trkpt lat="43.1967223" lon="10.740471"><ele>308.0</ele><time>2026-04-25T13:27:31.718Z</time></trkpt><trkpt lat="43.196871" lon="10.740433"><ele>308.0</ele><time>2026-04-25T13:27:32.739Z</time></trkpt><trkpt lat="43.1970035" lon="10.740365"><ele>308.0</ele><time>2026-04-25T13:27:33.708Z</time></trkpt><trkpt lat="43.1971228" lon="10.7402235"><ele>305.5</ele><time>2026-04-25T13:27:34.699Z</time></trkpt><trkpt lat="43.1972245" lon="10.7400524"><ele>303.0</ele><time>2026-04-25T13:27:35.715Z</time></trkpt><trkpt lat="43.1973071" lon="10.739891"><ele>300.5</ele><time>2026-04-25T13:27:36.74Z</time></trkpt><trkpt lat="43.1973652" lon="10.7397351"><ele>298.0</ele><time>2026-04-25T13:27:37.706Z</time></trkpt><trkpt lat="43.1974177" lon="10.7396026"><ele>298.0</ele><time>2026-04-25T13:27:38.727Z</time></trkpt><trkpt lat="43.1974996" lon="10.7395192"><ele>298.0</ele><time>2026-04-25T13:27:39.715Z</time></trkpt><trkpt lat="43.1976225" lon="10.7394828"><ele>298.0</ele><time>2026-04-25T13:27:40.714Z</time></trkpt><trkpt lat="43.1977498" lon="10.7394392"><ele>298.0</ele><time>2026-04-25T13:27:41.717Z</time></trkpt><trkpt lat="43.1978617" lon="10.7393478"><ele>297.5</ele><time>2026-04-25T13:27:42.706Z</time></trkpt><trkpt lat="43.1979497" lon="10.7392174"><ele>297.0</ele><time>2026-04-25T13:27:43.721Z</time></trkpt><trkpt lat="43.1980272" lon="10.7390779"><ele>296.5</ele><time>2026-04-25T13:27:44.71Z</time></trkpt><trkpt lat="43.1981064" lon="10.7389376"><ele>296.0</ele><time>2026-04-25T13:27:45.697Z</time></trkpt><trkpt lat="43.1981789" lon="10.7388051"><ele>296.0</ele><time>2026-04-25T13:27:46.686Z</time></trkpt><trkpt lat="43.1982505" lon="10.7386815"><ele>296.0</ele><time>2026-04-25T13:27:47.701Z</time></trkpt><trkpt lat="43.1983323" lon="10.7385795"><ele>296.0</ele><time>2026-04-25T13:27:48.68Z</time></trkpt><trkpt lat="43.1984171" lon="10.7384922"><ele>296.0</ele><time>2026-04-25T13:27:49.713Z</time></trkpt><trkpt lat="43.198504" lon="10.738423"><ele>296.0</ele><time>2026-04-25T13:27:50.711Z</time></trkpt><trkpt lat="43.1986788" lon="10.7383065"><ele>293.83333333333337</ele><time>2026-04-25T13:27:52.702Z</time></trkpt><trkpt lat="43.1987627" lon="10.7382528"><ele>291.6666666666667</ele><time>2026-04-25T13:27:53.681Z</time></trkpt><trkpt lat="43.1988438" lon="10.7381982"><ele>289.5</ele><time>2026-04-25T13:27:54.685Z</time></trkpt><trkpt lat="43.1989064" lon="10.7381287"><ele>287.3333333333333</ele><time>2026-04-25T13:27:55.704Z</time></trkpt><trkpt lat="43.1989241" lon="10.7380153"><ele>285.16666666666663</ele><time>2026-04-25T13:27:56.707Z</time></trkpt><trkpt lat="43.1988824" lon="10.7378898"><ele>283.0</ele><time>2026-04-25T13:27:57.724Z</time></trkpt><trkpt lat="43.198807" lon="10.7378138"><ele>283.0</ele><time>2026-04-25T13:27:58.689Z</time></trkpt><trkpt lat="43.1987031" lon="10.7377909"><ele>283.0</ele><time>2026-04-25T13:27:59.697Z</time></trkpt><trkpt lat="43.1986083" lon="10.7378091"><ele>283.0</ele><time>2026-04-25T13:28:00.711Z</time></trkpt><trkpt lat="43.1985289" lon="10.7378142"><ele>283.0</ele><time>2026-04-25T13:28:01.691Z</time></trkpt><trkpt lat="43.1984371" lon="10.7378201"><ele>283.0</ele><time>2026-04-25T13:28:03.693Z</time></trkpt><trkpt lat="43.198397" lon="10.737746"><ele>283.0</ele><time>2026-04-25T13:28:57.713Z</time></trkpt><trkpt lat="43.1985497" lon="10.737681"><ele>282.8333333333333</ele><time>2026-04-25T13:29:00.688Z</time></trkpt><trkpt lat="43.1986239" lon="10.7376521"><ele>282.66666666666663</ele><time>2026-04-25T13:29:01.737Z</time></trkpt><trkpt lat="43.1987063" lon="10.7376164"><ele>282.5</ele><time>2026-04-25T13:29:02.726Z</time></trkpt><trkpt lat="43.1987936" lon="10.7375738"><ele>282.3333333333333</ele><time>2026-04-25T13:29:03.712Z</time></trkpt><trkpt lat="43.1988814" lon="10.7375328"><ele>282.1666666666667</ele><time>2026-04-25T13:29:04.668Z</time></trkpt><trkpt lat="43.1989663" lon="10.7374902"><ele>282.0</ele><time>2026-04-25T13:29:05.723Z</time></trkpt><trkpt lat="43.1990555" lon="10.7374438"><ele>282.0</ele><time>2026-04-25T13:29:06.703Z</time></trkpt><trkpt lat="43.1991431" lon="10.7373946"><ele>282.0</ele><time>2026-04-25T13:29:07.703Z</time></trkpt><trkpt lat="43.1992331" lon="10.7373503"><ele>282.0</ele><time>2026-04-25T13:29:08.712Z</time></trkpt><trkpt lat="43.1993201" lon="10.7373049"><ele>282.0</ele><time>2026-04-25T13:29:09.727Z</time></trkpt><trkpt lat="43.199406" lon="10.7372613"><ele>282.0</ele><time>2026-04-25T13:29:10.713Z</time></trkpt><trkpt lat="43.1994943" lon="10.7372193"><ele>282.0</ele><time>2026-04-25T13:29:11.692Z</time></trkpt><trkpt lat="43.1995817" lon="10.7371803"><ele>282.0</ele><time>2026-04-25T13:29:12.707Z</time></trkpt><trkpt lat="43.1996651" lon="10.7371514"><ele>282.0</ele><time>2026-04-25T13:29:13.7Z</time></trkpt><trkpt lat="43.1997446" lon="10.7371375"><ele>282.0</ele><time>2026-04-25T13:29:14.694Z</time></trkpt><trkpt lat="43.199831" lon="10.7371535"><ele>282.0</ele><time>2026-04-25T13:29:15.72Z</time></trkpt><trkpt lat="43.1999207" lon="10.737195"><ele>282.0</ele><time>2026-04-25T13:29:16.703Z</time></trkpt><trkpt lat="43.2000038" lon="10.7372667"><ele>282.25</ele><time>2026-04-25T13:29:17.712Z</time></trkpt><trkpt lat="43.2000821" lon="10.7373603"><ele>282.5</ele><time>2026-04-25T13:29:18.705Z</time></trkpt><trkpt lat="43.2002193" lon="10.7375472"><ele>282.75</ele><time>2026-04-25T13:29:20.686Z</time></trkpt><trkpt lat="43.2002963" lon="10.737621"><ele>283.0</ele><time>2026-04-25T13:29:21.7Z</time></trkpt><trkpt lat="43.2003816" lon="10.737662"><ele>283.0</ele><time>2026-04-25T13:29:22.712Z</time></trkpt><trkpt lat="43.2004761" lon="10.7376743"><ele>283.0</ele><time>2026-04-25T13:29:23.708Z</time></trkpt><trkpt lat="43.2005777" lon="10.7376635"><ele>283.0</ele><time>2026-04-25T13:29:24.677Z</time></trkpt><trkpt lat="43.2006744" lon="10.7376464"><ele>283.0</ele><time>2026-04-25T13:29:25.692Z</time></trkpt><trkpt lat="43.2007679" lon="10.7376367"><ele>283.0</ele><time>2026-04-25T13:29:26.695Z</time></trkpt><trkpt lat="43.200843" lon="10.7376425"><ele>283.66666666666663</ele><time>2026-04-25T13:29:27.721Z</time></trkpt><trkpt lat="43.2009303" lon="10.7377232"><ele>284.3333333333333</ele><time>2026-04-25T13:29:29.723Z</time></trkpt><trkpt lat="43.2009779" lon="10.7378409"><ele>285.0</ele><time>2026-04-25T13:29:31.724Z</time></trkpt><trkpt lat="43.2010251" lon="10.7379142"><ele>285.6666666666667</ele><time>2026-04-25T13:29:32.671Z</time></trkpt><trkpt lat="43.2010754" lon="10.7379878"><ele>286.33333333333337</ele><time>2026-04-25T13:29:33.737Z</time></trkpt><trkpt lat="43.201146" lon="10.7380619"><ele>287.0</ele><time>2026-04-25T13:29:34.701Z</time></trkpt><trkpt lat="43.2012225" lon="10.7381093"><ele>287.0</ele><time>2026-04-25T13:29:35.705Z</time></trkpt><trkpt lat="43.2013209" lon="10.7381111"><ele>287.0</ele><time>2026-04-25T13:29:36.688Z</time></trkpt><trkpt lat="43.201411" lon="10.7380474"><ele>287.0</ele><time>2026-04-25T13:29:37.713Z</time></trkpt><trkpt lat="43.2014825" lon="10.7379419"><ele>287.0</ele><time>2026-04-25T13:29:38.687Z</time></trkpt><trkpt lat="43.2015359" lon="10.73777"><ele>287.0</ele><time>2026-04-25T13:29:39.712Z</time></trkpt><trkpt lat="43.2016043" lon="10.7373838"><ele>283.33333333333337</ele><time>2026-04-25T13:29:41.73Z</time></trkpt><trkpt lat="43.2016293" lon="10.7371625"><ele>279.6666666666667</ele><time>2026-04-25T13:29:42.685Z</time></trkpt><trkpt lat="43.2016574" lon="10.7369365"><ele>276.0</ele><time>2026-04-25T13:29:43.708Z</time></trkpt><trkpt lat="43.2016868" lon="10.7367156"><ele>275.0</ele><time>2026-04-25T13:29:44.701Z</time></trkpt><trkpt lat="43.2017138" lon="10.7365066"><ele>274.0</ele><time>2026-04-25T13:29:45.696Z</time></trkpt><trkpt lat="43.2017411" lon="10.7363018"><ele>273.0</ele><time>2026-04-25T13:29:46.691Z</time></trkpt><trkpt lat="43.2017655" lon="10.7360976"><ele>271.75</ele><time>2026-04-25T13:29:47.724Z</time></trkpt><trkpt lat="43.2017993" lon="10.735905"><ele>270.5</ele><time>2026-04-25T13:29:48.688Z</time></trkpt><trkpt lat="43.2018512" lon="10.7357235"><ele>269.25</ele><time>2026-04-25T13:29:49.683Z</time></trkpt><trkpt lat="43.2019531" lon="10.7355696"><ele>268.0</ele><time>2026-04-25T13:29:50.68Z</time></trkpt><trkpt lat="43.2020803" lon="10.7354168"><ele>268.0</ele><time>2026-04-25T13:29:51.72Z</time></trkpt><trkpt lat="43.202213" lon="10.7352568"><ele>268.0</ele><time>2026-04-25T13:29:52.664Z</time></trkpt><trkpt lat="43.2023341" lon="10.7351149"><ele>268.0</ele><time>2026-04-25T13:29:53.722Z</time></trkpt><trkpt lat="43.2024534" lon="10.7350094"><ele>263.0</ele><time>2026-04-25T13:29:54.698Z</time></trkpt><trkpt lat="43.2025996" lon="10.7349463"><ele>258.0</ele><time>2026-04-25T13:29:55.716Z</time></trkpt><trkpt lat="43.2027658" lon="10.7349026"><ele>253.0</ele><time>2026-04-25T13:29:56.699Z</time></trkpt><trkpt lat="43.2029454" lon="10.7348686"><ele>253.0</ele><time>2026-04-25T13:29:57.707Z</time></trkpt><trkpt lat="43.2031407" lon="10.7348307"><ele>253.0</ele><time>2026-04-25T13:29:58.7Z</time></trkpt><trkpt lat="43.2033398" lon="10.7347831"><ele>253.0</ele><time>2026-04-25T13:29:59.699Z</time></trkpt><trkpt lat="43.2035396" lon="10.7347334"><ele>252.0</ele><time>2026-04-25T13:30:00.71Z</time></trkpt><trkpt lat="43.2039112" lon="10.7346427"><ele>251.0</ele><time>2026-04-25T13:30:02.706Z</time></trkpt><trkpt lat="43.2040877" lon="10.7346008"><ele>250.66666666666669</ele><time>2026-04-25T13:30:03.71Z</time></trkpt><trkpt lat="43.2042676" lon="10.7345716"><ele>250.33333333333331</ele><time>2026-04-25T13:30:04.699Z</time></trkpt><trkpt lat="43.2044468" lon="10.73452"><ele>250.0</ele><time>2026-04-25T13:30:05.712Z</time></trkpt><trkpt lat="43.2046248" lon="10.7344405"><ele>246.0</ele><time>2026-04-25T13:30:06.701Z</time></trkpt><trkpt lat="43.2047893" lon="10.7343253"><ele>242.0</ele><time>2026-04-25T13:30:07.71Z</time></trkpt><trkpt lat="43.2049569" lon="10.7341892"><ele>238.0</ele><time>2026-04-25T13:30:08.701Z</time></trkpt><trkpt lat="43.2051278" lon="10.7340469"><ele>238.0</ele><time>2026-04-25T13:30:09.701Z</time></trkpt><trkpt lat="43.2052924" lon="10.7338892"><ele>238.0</ele><time>2026-04-25T13:30:10.698Z</time></trkpt><trkpt lat="43.2054425" lon="10.7337135"><ele>238.0</ele><time>2026-04-25T13:30:11.695Z</time></trkpt><trkpt lat="43.2055849" lon="10.733537"><ele>236.0</ele><time>2026-04-25T13:30:12.671Z</time></trkpt><trkpt lat="43.2057151" lon="10.7333654"><ele>234.0</ele><time>2026-04-25T13:30:13.672Z</time></trkpt><trkpt lat="43.205845" lon="10.7332035"><ele>232.0</ele><time>2026-04-25T13:30:14.698Z</time></trkpt><trkpt lat="43.2059624" lon="10.7330651"><ele>232.0</ele><time>2026-04-25T13:30:15.691Z</time></trkpt><trkpt lat="43.2060776" lon="10.7329649"><ele>232.0</ele><time>2026-04-25T13:30:16.704Z</time></trkpt><trkpt lat="43.2061868" lon="10.7329439"><ele>232.0</ele><time>2026-04-25T13:30:17.709Z</time></trkpt><trkpt lat="43.206304" lon="10.7329921"><ele>232.0</ele><time>2026-04-25T13:30:18.677Z</time></trkpt><trkpt lat="43.2064333" lon="10.7330865"><ele>228.33333333333331</ele><time>2026-04-25T13:30:19.682Z</time></trkpt><trkpt lat="43.2065793" lon="10.7332304"><ele>224.66666666666669</ele><time>2026-04-25T13:30:20.692Z</time></trkpt><trkpt lat="43.206705" lon="10.7333879"><ele>221.0</ele><time>2026-04-25T13:30:21.694Z</time></trkpt><trkpt lat="43.2068776" lon="10.73375"><ele>225.4</ele><time>2026-04-25T13:30:23.714Z</time></trkpt><trkpt lat="43.206936" lon="10.733894"><ele>229.8</ele><time>2026-04-25T13:30:24.7Z</time></trkpt><trkpt lat="43.2070034" lon="10.7339962"><ele>234.20000000000002</ele><time>2026-04-25T13:30:25.687Z</time></trkpt><trkpt lat="43.2071054" lon="10.7340158"><ele>238.60000000000002</ele><time>2026-04-25T13:30:26.679Z</time></trkpt><trkpt lat="43.2071979" lon="10.7339301"><ele>243.0</ele><time>2026-04-25T13:30:27.716Z</time></trkpt><trkpt lat="43.2072625" lon="10.7337745"><ele>243.0</ele><time>2026-04-25T13:30:28.675Z</time></trkpt><trkpt lat="43.2072784" lon="10.7335649"><ele>243.0</ele><time>2026-04-25T13:30:29.679Z</time></trkpt><trkpt lat="43.2072938" lon="10.7333192"><ele>243.0</ele><time>2026-04-25T13:30:30.691Z</time></trkpt><trkpt lat="43.2073134" lon="10.7330802"><ele>238.60000000000002</ele><time>2026-04-25T13:30:31.686Z</time></trkpt><trkpt lat="43.2073158" lon="10.732893"><ele>234.20000000000002</ele><time>2026-04-25T13:30:32.707Z</time></trkpt><trkpt lat="43.2073082" lon="10.7327491"><ele>229.8</ele><time>2026-04-25T13:30:33.694Z</time></trkpt><trkpt lat="43.2073198" lon="10.7326196"><ele>225.4</ele><time>2026-04-25T13:30:34.696Z</time></trkpt><trkpt lat="43.2074017" lon="10.7325137"><ele>221.0</ele><time>2026-04-25T13:30:35.717Z</time></trkpt><trkpt lat="43.2075146" lon="10.7324906"><ele>219.0</ele><time>2026-04-25T13:30:36.698Z</time></trkpt><trkpt lat="43.2076571" lon="10.7325431"><ele>217.0</ele><time>2026-04-25T13:30:37.712Z</time></trkpt><trkpt lat="43.2078206" lon="10.7326196"><ele>215.0</ele><time>2026-04-25T13:30:38.674Z</time></trkpt><trkpt lat="43.2080058" lon="10.7327014"><ele>224.33333333333334</ele><time>2026-04-25T13:30:39.672Z</time></trkpt><trkpt lat="43.2081873" lon="10.7327834"><ele>233.66666666666669</ele><time>2026-04-25T13:30:40.692Z</time></trkpt><trkpt lat="43.2083485" lon="10.7328536"><ele>243.0</ele><time>2026-04-25T13:30:41.683Z</time></trkpt><trkpt lat="43.20849" lon="10.732914"><ele>243.0</ele><time>2026-04-25T13:30:42.681Z</time></trkpt><trkpt lat="43.2087466" lon="10.732984"><ele>243.0</ele><time>2026-04-25T13:30:44.692Z</time></trkpt><trkpt lat="43.2088624" lon="10.7329928"><ele>243.0</ele><time>2026-04-25T13:30:45.682Z</time></trkpt><trkpt lat="43.2089889" lon="10.7329796"><ele>240.0</ele><time>2026-04-25T13:30:46.69Z</time></trkpt><trkpt lat="43.2091387" lon="10.7328949"><ele>237.0</ele><time>2026-04-25T13:30:47.706Z</time></trkpt><trkpt lat="43.2093239" lon="10.7328148"><ele>234.0</ele><time>2026-04-25T13:30:48.678Z</time></trkpt><trkpt lat="43.2095185" lon="10.7327486"><ele>229.0</ele><time>2026-04-25T13:30:49.678Z</time></trkpt><trkpt lat="43.2097227" lon="10.7326839"><ele>224.0</ele><time>2026-04-25T13:30:50.711Z</time></trkpt><trkpt lat="43.209923" lon="10.7326057"><ele>219.0</ele><time>2026-04-25T13:30:51.676Z</time></trkpt><trkpt lat="43.2101095" lon="10.7325244"><ele>219.0</ele><time>2026-04-25T13:30:52.695Z</time></trkpt><trkpt lat="43.2102864" lon="10.7324557"><ele>219.0</ele><time>2026-04-25T13:30:53.69Z</time></trkpt><trkpt lat="43.2104533" lon="10.7323938"><ele>219.0</ele><time>2026-04-25T13:30:54.702Z</time></trkpt><trkpt lat="43.2106175" lon="10.7323351"><ele>219.33333333333331</ele><time>2026-04-25T13:30:55.699Z</time></trkpt><trkpt lat="43.2107779" lon="10.7322864"><ele>219.66666666666666</ele><time>2026-04-25T13:30:56.69Z</time></trkpt><trkpt lat="43.2109424" lon="10.7322529"><ele>220.0</ele><time>2026-04-25T13:30:57.699Z</time></trkpt><trkpt lat="43.2111168" lon="10.7322337"><ele>220.0</ele><time>2026-04-25T13:30:58.719Z</time></trkpt><trkpt lat="43.2113005" lon="10.7322101"><ele>220.0</ele><time>2026-04-25T13:30:59.711Z</time></trkpt><trkpt lat="43.2114866" lon="10.732174"><ele>220.0</ele><time>2026-04-25T13:31:00.702Z</time></trkpt><trkpt lat="43.2116689" lon="10.7321436"><ele>220.33333333333331</ele><time>2026-04-25T13:31:01.695Z</time></trkpt><trkpt lat="43.2118453" lon="10.7321229"><ele>220.66666666666669</ele><time>2026-04-25T13:31:02.687Z</time></trkpt><trkpt lat="43.2120246" lon="10.7321173"><ele>221.0</ele><time>2026-04-25T13:31:03.71Z</time></trkpt><trkpt lat="43.2123696" lon="10.7321338"><ele>219.0</ele><time>2026-04-25T13:31:05.696Z</time></trkpt><trkpt lat="43.2125266" lon="10.7321577"><ele>217.0</ele><time>2026-04-25T13:31:06.691Z</time></trkpt><trkpt lat="43.2126632" lon="10.7322193"><ele>215.0</ele><time>2026-04-25T13:31:07.677Z</time></trkpt><trkpt lat="43.2127946" lon="10.7323308"><ele>215.0</ele><time>2026-04-25T13:31:08.694Z</time></trkpt><trkpt lat="43.2129148" lon="10.7324898"><ele>215.0</ele><time>2026-04-25T13:31:09.691Z</time></trkpt><trkpt lat="43.2130294" lon="10.7326637"><ele>215.0</ele><time>2026-04-25T13:31:10.705Z</time></trkpt><trkpt lat="43.2131631" lon="10.7327857"><ele>216.0</ele><time>2026-04-25T13:31:11.664Z</time></trkpt><trkpt lat="43.2133227" lon="10.7328606"><ele>217.0</ele><time>2026-04-25T13:31:12.675Z</time></trkpt><trkpt lat="43.2134879" lon="10.7328965"><ele>218.0</ele><time>2026-04-25T13:31:13.725Z</time></trkpt><trkpt lat="43.2136482" lon="10.7328756"><ele>218.0</ele><time>2026-04-25T13:31:14.671Z</time></trkpt><trkpt lat="43.2137955" lon="10.7327854"><ele>218.0</ele><time>2026-04-25T13:31:15.684Z</time></trkpt><trkpt lat="43.2139362" lon="10.7326294"><ele>218.0</ele><time>2026-04-25T13:31:16.713Z</time></trkpt><trkpt lat="43.2140552" lon="10.7324363"><ele>216.33333333333334</ele><time>2026-04-25T13:31:17.705Z</time></trkpt><trkpt lat="43.2141525" lon="10.7322236"><ele>214.66666666666669</ele><time>2026-04-25T13:31:18.692Z</time></trkpt><trkpt lat="43.2142368" lon="10.7320296"><ele>213.0</ele><time>2026-04-25T13:31:19.711Z</time></trkpt><trkpt lat="43.214322" lon="10.7318729"><ele>208.33333333333331</ele><time>2026-04-25T13:31:20.701Z</time></trkpt><trkpt lat="43.2144401" lon="10.7317635"><ele>203.66666666666666</ele><time>2026-04-25T13:31:21.705Z</time></trkpt><trkpt lat="43.2145954" lon="10.7316872"><ele>199.0</ele><time>2026-04-25T13:31:22.711Z</time></trkpt><trkpt lat="43.2147639" lon="10.7316242"><ele>201.0</ele><time>2026-04-25T13:31:23.69Z</time></trkpt><trkpt lat="43.2149205" lon="10.7315672"><ele>203.0</ele><time>2026-04-25T13:31:24.692Z</time></trkpt><trkpt lat="43.2151947" lon="10.7314695"><ele>205.0</ele><time>2026-04-25T13:31:26.703Z</time></trkpt><trkpt lat="43.2153145" lon="10.7314634"><ele>205.0</ele><time>2026-04-25T13:31:27.705Z</time></trkpt><trkpt lat="43.2154226" lon="10.7315137"><ele>205.0</ele><time>2026-04-25T13:31:28.701Z</time></trkpt><trkpt lat="43.2155204" lon="10.7315968"><ele>205.0</ele><time>2026-04-25T13:31:29.702Z</time></trkpt><trkpt lat="43.2155933" lon="10.7317289"><ele>205.0</ele><time>2026-04-25T13:31:30.714Z</time></trkpt><trkpt lat="43.2156611" lon="10.7318913"><ele>205.0</ele><time>2026-04-25T13:31:31.697Z</time></trkpt><trkpt lat="43.2157519" lon="10.7320482"><ele>205.0</ele><time>2026-04-25T13:31:32.696Z</time></trkpt><trkpt lat="43.2158826" lon="10.732159"><ele>205.0</ele><time>2026-04-25T13:31:33.707Z</time></trkpt><trkpt lat="43.2160446" lon="10.7322217"><ele>205.0</ele><time>2026-04-25T13:31:34.705Z</time></trkpt><trkpt lat="43.2162109" lon="10.732225"><ele>205.0</ele><time>2026-04-25T13:31:35.696Z</time></trkpt><trkpt lat="43.2163837" lon="10.7321954"><ele>205.0</ele><time>2026-04-25T13:31:36.695Z</time></trkpt><trkpt lat="43.2165455" lon="10.7321497"><ele>206.25</ele><time>2026-04-25T13:31:37.682Z</time></trkpt><trkpt lat="43.2166914" lon="10.7320871"><ele>207.5</ele><time>2026-04-25T13:31:38.694Z</time></trkpt><trkpt lat="43.2168246" lon="10.7320581"><ele>208.75</ele><time>2026-04-25T13:31:39.701Z</time></trkpt><trkpt lat="43.2169493" lon="10.7320554"><ele>210.0</ele><time>2026-04-25T13:31:40.677Z</time></trkpt><trkpt lat="43.2170814" lon="10.7320866"><ele>210.0</ele><time>2026-04-25T13:31:41.682Z</time></trkpt><trkpt lat="43.2172116" lon="10.7321702"><ele>210.0</ele><time>2026-04-25T13:31:42.693Z</time></trkpt><trkpt lat="43.217332" lon="10.7322933"><ele>210.0</ele><time>2026-04-25T13:31:43.683Z</time></trkpt><trkpt lat="43.2174385" lon="10.7324495"><ele>208.66666666666669</ele><time>2026-04-25T13:31:44.681Z</time></trkpt><trkpt lat="43.2175101" lon="10.7326186"><ele>207.33333333333334</ele><time>2026-04-25T13:31:45.709Z</time></trkpt><trkpt lat="43.2175344" lon="10.7330171"><ele>206.0</ele><time>2026-04-25T13:31:47.712Z</time></trkpt><trkpt lat="43.2175343" lon="10.7331889"><ele>206.0</ele><time>2026-04-25T13:31:48.68Z</time></trkpt><trkpt lat="43.2175697" lon="10.7333464"><ele>206.0</ele><time>2026-04-25T13:31:49.721Z</time></trkpt><trkpt lat="43.2176605" lon="10.7334753"><ele>206.0</ele><time>2026-04-25T13:31:50.708Z</time></trkpt><trkpt lat="43.2177854" lon="10.7335541"><ele>206.0</ele><time>2026-04-25T13:31:51.697Z</time></trkpt><trkpt lat="43.21793" lon="10.733632"><ele>207.33333333333334</ele><time>2026-04-25T13:31:52.677Z</time></trkpt><trkpt lat="43.2180505" lon="10.7337771"><ele>208.66666666666669</ele><time>2026-04-25T13:31:53.664Z</time></trkpt><trkpt lat="43.2181655" lon="10.7339532"><ele>210.0</ele><time>2026-04-25T13:31:54.707Z</time></trkpt><trkpt lat="43.218307" lon="10.7341161"><ele>210.33333333333331</ele><time>2026-04-25T13:31:55.703Z</time></trkpt><trkpt lat="43.2184781" lon="10.7342444"><ele>210.66666666666666</ele><time>2026-04-25T13:31:56.7Z</time></trkpt><trkpt lat="43.218643" lon="10.73434"><ele>211.0</ele><time>2026-04-25T13:31:57.707Z</time></trkpt><trkpt lat="43.2188194" lon="10.7344084"><ele>208.0</ele><time>2026-04-25T13:31:58.701Z</time></trkpt><trkpt lat="43.2190008" lon="10.7344552"><ele>205.0</ele><time>2026-04-25T13:31:59.703Z</time></trkpt><trkpt lat="43.2191929" lon="10.7344964"><ele>202.0</ele><time>2026-04-25T13:32:00.711Z</time></trkpt><trkpt lat="43.219382" lon="10.7345402"><ele>202.0</ele><time>2026-04-25T13:32:01.71Z</time></trkpt><trkpt lat="43.2195577" lon="10.7345915"><ele>202.0</ele><time>2026-04-25T13:32:02.71Z</time></trkpt><trkpt lat="43.2197152" lon="10.7346589"><ele>202.0</ele><time>2026-04-25T13:32:03.702Z</time></trkpt><trkpt lat="43.2198515" lon="10.7347542"><ele>200.0</ele><time>2026-04-25T13:32:04.671Z</time></trkpt><trkpt lat="43.2199628" lon="10.7348961"><ele>198.0</ele><time>2026-04-25T13:32:05.714Z</time></trkpt><trkpt lat="43.2200561" lon="10.7350707"><ele>196.0</ele><time>2026-04-25T13:32:06.682Z</time></trkpt><trkpt lat="43.2202084" lon="10.7353753"><ele>196.0</ele><time>2026-04-25T13:32:08.685Z</time></trkpt><trkpt lat="43.2202837" lon="10.7354671"><ele>196.0</ele><time>2026-04-25T13:32:09.711Z</time></trkpt><trkpt lat="43.2203618" lon="10.735495"><ele>196.0</ele><time>2026-04-25T13:32:10.673Z</time></trkpt><trkpt lat="43.2204548" lon="10.7354506"><ele>196.0</ele><time>2026-04-25T13:32:11.67Z</time></trkpt><trkpt lat="43.2205264" lon="10.7353568"><ele>196.0</ele><time>2026-04-25T13:32:12.696Z</time></trkpt><trkpt lat="43.2205531" lon="10.7351882"><ele>195.75</ele><time>2026-04-25T13:32:13.693Z</time></trkpt><trkpt lat="43.2205652" lon="10.7350166"><ele>195.5</ele><time>2026-04-25T13:32:14.679Z</time></trkpt><trkpt lat="43.2205873" lon="10.7348429"><ele>195.25</ele><time>2026-04-25T13:32:15.692Z</time></trkpt><trkpt lat="43.2206409" lon="10.7346653"><ele>195.0</ele><time>2026-04-25T13:32:16.699Z</time></trkpt><trkpt lat="43.2207058" lon="10.7344742"><ele>193.5</ele><time>2026-04-25T13:32:17.699Z</time></trkpt><trkpt lat="43.220746" lon="10.7342986"><ele>192.0</ele><time>2026-04-25T13:32:18.684Z</time></trkpt><trkpt lat="43.2207683" lon="10.734122"><ele>190.5</ele><time>2026-04-25T13:32:19.687Z</time></trkpt><trkpt lat="43.2207882" lon="10.7339692"><ele>189.0</ele><time>2026-04-25T13:32:20.676Z</time></trkpt><trkpt lat="43.2208102" lon="10.7338337"><ele>189.0</ele><time>2026-04-25T13:32:21.69Z</time></trkpt><trkpt lat="43.2208407" lon="10.7337165"><ele>189.0</ele><time>2026-04-25T13:32:22.684Z</time></trkpt><trkpt lat="43.22088" lon="10.7336122"><ele>189.0</ele><time>2026-04-25T13:32:23.69Z</time></trkpt><trkpt lat="43.2209275" lon="10.7335223"><ele>189.0</ele><time>2026-04-25T13:32:24.674Z</time></trkpt><trkpt lat="43.2209784" lon="10.7334414"><ele>189.0</ele><time>2026-04-25T13:32:25.655Z</time></trkpt><trkpt lat="43.2210346" lon="10.7333712"><ele>189.0</ele><time>2026-04-25T13:32:26.701Z</time></trkpt><trkpt lat="43.2210988" lon="10.7333221"><ele>187.2</ele><time>2026-04-25T13:32:27.684Z</time></trkpt><trkpt lat="43.2212331" lon="10.7332076"><ele>185.39999999999998</ele><time>2026-04-25T13:32:29.702Z</time></trkpt><trkpt lat="43.2212899" lon="10.7331121"><ele>183.6</ele><time>2026-04-25T13:32:30.688Z</time></trkpt><trkpt lat="43.2213169" lon="10.7330011"><ele>181.8</ele><time>2026-04-25T13:32:31.671Z</time></trkpt><trkpt lat="43.2213006" lon="10.7328651"><ele>180.0</ele><time>2026-04-25T13:32:32.701Z</time></trkpt><trkpt lat="43.2212338" lon="10.7327099"><ele>178.75</ele><time>2026-04-25T13:32:33.687Z</time></trkpt><trkpt lat="43.2211701" lon="10.7325528"><ele>177.5</ele><time>2026-04-25T13:32:34.666Z</time></trkpt><trkpt lat="43.2211085" lon="10.7323969"><ele>176.25</ele><time>2026-04-25T13:32:35.663Z</time></trkpt><trkpt lat="43.2210562" lon="10.7322444"><ele>175.0</ele><time>2026-04-25T13:32:36.673Z</time></trkpt><trkpt lat="43.2210104" lon="10.7320924"><ele>175.0</ele><time>2026-04-25T13:32:37.683Z</time></trkpt><trkpt lat="43.2209754" lon="10.731943"><ele>175.0</ele><time>2026-04-25T13:32:38.686Z</time></trkpt><trkpt lat="43.2209398" lon="10.7317869"><ele>175.0</ele><time>2026-04-25T13:32:39.702Z</time></trkpt><trkpt lat="43.2209136" lon="10.7316221"><ele>175.0</ele><time>2026-04-25T13:32:40.687Z</time></trkpt><trkpt lat="43.2208984" lon="10.7314562"><ele>175.0</ele><time>2026-04-25T13:32:41.697Z</time></trkpt><trkpt lat="43.2208921" lon="10.7312812"><ele>175.0</ele><time>2026-04-25T13:32:42.689Z</time></trkpt><trkpt lat="43.2208903" lon="10.7310919"><ele>175.0</ele><time>2026-04-25T13:32:43.682Z</time></trkpt><trkpt lat="43.2208908" lon="10.730899"><ele>175.0</ele><time>2026-04-25T13:32:44.687Z</time></trkpt><trkpt lat="43.2208849" lon="10.7307123"><ele>174.25</ele><time>2026-04-25T13:32:45.692Z</time></trkpt><trkpt lat="43.2208731" lon="10.7305375"><ele>173.5</ele><time>2026-04-25T13:32:46.7Z</time></trkpt><trkpt lat="43.2208815" lon="10.7303777"><ele>172.75</ele><time>2026-04-25T13:32:47.692Z</time></trkpt><trkpt lat="43.2209513" lon="10.730256"><ele>172.0</ele><time>2026-04-25T13:32:48.671Z</time></trkpt><trkpt lat="43.2212219" lon="10.7300719"><ele>173.66666666666669</ele><time>2026-04-25T13:32:50.694Z</time></trkpt><trkpt lat="43.2213658" lon="10.7299686"><ele>175.33333333333334</ele><time>2026-04-25T13:32:51.69Z</time></trkpt><trkpt lat="43.2215039" lon="10.7298472"><ele>177.0</ele><time>2026-04-25T13:32:52.681Z</time></trkpt><trkpt lat="43.2216302" lon="10.7296981"><ele>177.0</ele><time>2026-04-25T13:32:53.693Z</time></trkpt><trkpt lat="43.2217619" lon="10.7295588"><ele>177.0</ele><time>2026-04-25T13:32:54.687Z</time></trkpt><trkpt lat="43.2219026" lon="10.7294354"><ele>177.0</ele><time>2026-04-25T13:32:55.692Z</time></trkpt><trkpt lat="43.2220452" lon="10.7293334"><ele>175.25</ele><time>2026-04-25T13:32:56.683Z</time></trkpt><trkpt lat="43.2221715" lon="10.729235"><ele>173.5</ele><time>2026-04-25T13:32:57.689Z</time></trkpt><trkpt lat="43.2222793" lon="10.7291386"><ele>171.75</ele><time>2026-04-25T13:32:58.692Z</time></trkpt><trkpt lat="43.2223458" lon="10.7290006"><ele>170.0</ele><time>2026-04-25T13:32:59.727Z</time></trkpt><trkpt lat="43.2223647" lon="10.7288212"><ele>170.0</ele><time>2026-04-25T13:33:00.687Z</time></trkpt><trkpt lat="43.2223689" lon="10.7285978"><ele>170.0</ele><time>2026-04-25T13:33:01.663Z</time></trkpt><trkpt lat="43.2223906" lon="10.7283903"><ele>170.0</ele><time>2026-04-25T13:33:02.697Z</time></trkpt><trkpt lat="43.2224639" lon="10.7282046"><ele>166.33333333333331</ele><time>2026-04-25T13:33:03.686Z</time></trkpt><trkpt lat="43.2225929" lon="10.7280703"><ele>162.66666666666666</ele><time>2026-04-25T13:33:04.687Z</time></trkpt><trkpt lat="43.2227458" lon="10.7279604"><ele>159.0</ele><time>2026-04-25T13:33:05.693Z</time></trkpt><trkpt lat="43.2228904" lon="10.7278623"><ele>159.0</ele><time>2026-04-25T13:33:06.694Z</time></trkpt><trkpt lat="43.2230207" lon="10.7277494"><ele>159.0</ele><time>2026-04-25T13:33:07.69Z</time></trkpt><trkpt lat="43.2231198" lon="10.7275872"><ele>159.0</ele><time>2026-04-25T13:33:08.676Z</time></trkpt><trkpt lat="43.2231653" lon="10.7273914"><ele>157.0</ele><time>2026-04-25T13:33:09.712Z</time></trkpt><trkpt lat="43.2231226" lon="10.7270411"><ele>155.0</ele><time>2026-04-25T13:33:11.676Z</time></trkpt><trkpt lat="43.223037" lon="10.7268756"><ele>153.0</ele><time>2026-04-25T13:33:12.7Z</time></trkpt><trkpt lat="43.2229632" lon="10.7266728"><ele>150.0</ele><time>2026-04-25T13:33:13.707Z</time></trkpt><trkpt lat="43.2229175" lon="10.7264426"><ele>147.0</ele><time>2026-04-25T13:33:14.7Z</time></trkpt><trkpt lat="43.2228881" lon="10.7262181"><ele>144.0</ele><time>2026-04-25T13:33:15.701Z</time></trkpt><trkpt lat="43.2228657" lon="10.7260086"><ele>141.25</ele><time>2026-04-25T13:33:16.685Z</time></trkpt><trkpt lat="43.2228846" lon="10.725826"><ele>138.5</ele><time>2026-04-25T13:33:17.711Z</time></trkpt><trkpt lat="43.2229566" lon="10.7256524"><ele>135.75</ele><time>2026-04-25T13:33:18.681Z</time></trkpt><trkpt lat="43.2230442" lon="10.7255296"><ele>133.0</ele><time>2026-04-25T13:33:19.691Z</time></trkpt><trkpt lat="43.2231105" lon="10.7254033"><ele>133.0</ele><time>2026-04-25T13:33:20.667Z</time></trkpt><trkpt lat="43.2231171" lon="10.7252597"><ele>133.0</ele><time>2026-04-25T13:33:21.69Z</time></trkpt><trkpt lat="43.2230899" lon="10.7251105"><ele>133.0</ele><time>2026-04-25T13:33:22.705Z</time></trkpt><trkpt lat="43.223069" lon="10.7249549"><ele>133.0</ele><time>2026-04-25T13:33:23.68Z</time></trkpt><trkpt lat="43.223124" lon="10.7248331"><ele>133.0</ele><time>2026-04-25T13:33:24.69Z</time></trkpt><trkpt lat="43.2232387" lon="10.7247958"><ele>133.5</ele><time>2026-04-25T13:33:25.693Z</time></trkpt><trkpt lat="43.2233496" lon="10.7248327"><ele>134.0</ele><time>2026-04-25T13:33:26.689Z</time></trkpt><trkpt lat="43.2234687" lon="10.724917"><ele>134.5</ele><time>2026-04-25T13:33:27.675Z</time></trkpt><trkpt lat="43.2235811" lon="10.7249408"><ele>135.0</ele><time>2026-04-25T13:33:28.684Z</time></trkpt><trkpt lat="43.2236727" lon="10.7248402"><ele>135.0</ele><time>2026-04-25T13:33:29.662Z</time></trkpt><trkpt lat="43.2237695" lon="10.7247136"><ele>135.0</ele><time>2026-04-25T13:33:30.677Z</time></trkpt><trkpt lat="43.2239652" lon="10.7247248"><ele>135.0</ele><time>2026-04-25T13:33:32.688Z</time></trkpt><trkpt lat="43.2240582" lon="10.7248051"><ele>135.0</ele><time>2026-04-25T13:33:33.702Z</time></trkpt><trkpt lat="43.2241557" lon="10.7248697"><ele>135.0</ele><time>2026-04-25T13:33:34.695Z</time></trkpt><trkpt lat="43.2242357" lon="10.7247956"><ele>135.0</ele><time>2026-04-25T13:33:35.693Z</time></trkpt><trkpt lat="43.2242617" lon="10.7246006"><ele>135.0</ele><time>2026-04-25T13:33:36.67Z</time></trkpt><trkpt lat="43.2242559" lon="10.7243897"><ele>135.0</ele><time>2026-04-25T13:33:37.674Z</time></trkpt><trkpt lat="43.2242517" lon="10.7241646"><ele>131.66666666666666</ele><time>2026-04-25T13:33:38.693Z</time></trkpt><trkpt lat="43.2242809" lon="10.7239386"><ele>128.33333333333331</ele><time>2026-04-25T13:33:39.708Z</time></trkpt><trkpt lat="43.2243557" lon="10.7237219"><ele>125.0</ele><time>2026-04-25T13:33:40.684Z</time></trkpt><trkpt lat="43.2244756" lon="10.7235219"><ele>125.0</ele><time>2026-04-25T13:33:41.715Z</time></trkpt><trkpt lat="43.2246048" lon="10.7233343"><ele>125.0</ele><time>2026-04-25T13:33:42.686Z</time></trkpt><trkpt lat="43.2247466" lon="10.7231726"><ele>125.0</ele><time>2026-04-25T13:33:43.681Z</time></trkpt><trkpt lat="43.2248941" lon="10.7230546"><ele>125.0</ele><time>2026-04-25T13:33:44.69Z</time></trkpt><trkpt lat="43.2250695" lon="10.722971"><ele>125.0</ele><time>2026-04-25T13:33:45.666Z</time></trkpt><trkpt lat="43.2252672" lon="10.7229106"><ele>125.0</ele><time>2026-04-25T13:33:46.689Z</time></trkpt><trkpt lat="43.2254728" lon="10.72283"><ele>122.66666666666666</ele><time>2026-04-25T13:33:47.692Z</time></trkpt><trkpt lat="43.225668" lon="10.7227331"><ele>120.33333333333334</ele><time>2026-04-25T13:33:48.693Z</time></trkpt><trkpt lat="43.2258481" lon="10.722591"><ele>118.0</ele><time>2026-04-25T13:33:49.68Z</time></trkpt><trkpt lat="43.2260254" lon="10.7224006"><ele>118.0</ele><time>2026-04-25T13:33:50.689Z</time></trkpt><trkpt lat="43.2262027" lon="10.7221797"><ele>118.0</ele><time>2026-04-25T13:33:51.698Z</time></trkpt><trkpt lat="43.2265078" lon="10.7217906"><ele>119.0</ele><time>2026-04-25T13:33:53.701Z</time></trkpt><trkpt lat="43.2266294" lon="10.7216219"><ele>120.0</ele><time>2026-04-25T13:33:54.687Z</time></trkpt><trkpt lat="43.2267235" lon="10.7214739"><ele>121.0</ele><time>2026-04-25T13:33:55.691Z</time></trkpt><trkpt lat="43.2267897" lon="10.7213074"><ele>121.0</ele><time>2026-04-25T13:33:56.708Z</time></trkpt><trkpt lat="43.2268093" lon="10.7210989"><ele>121.0</ele><time>2026-04-25T13:33:57.666Z</time></trkpt><trkpt lat="43.2267679" lon="10.7208562"><ele>121.0</ele><time>2026-04-25T13:33:58.692Z</time></trkpt><trkpt lat="43.22672" lon="10.7206153"><ele>119.5</ele><time>2026-04-25T13:33:59.695Z</time></trkpt><trkpt lat="43.2266893" lon="10.7204239"><ele>118.0</ele><time>2026-04-25T13:34:00.684Z</time></trkpt><trkpt lat="43.2266863" lon="10.7202761"><ele>116.5</ele><time>2026-04-25T13:34:01.694Z</time></trkpt><trkpt lat="43.226737" lon="10.7201534"><ele>115.0</ele><time>2026-04-25T13:34:02.683Z</time></trkpt><trkpt lat="43.2268337" lon="10.720034"><ele>114.25</ele><time>2026-04-25T13:34:03.679Z</time></trkpt><trkpt lat="43.2269472" lon="10.7199278"><ele>113.5</ele><time>2026-04-25T13:34:04.673Z</time></trkpt><trkpt lat="43.2270712" lon="10.7198798"><ele>112.75</ele><time>2026-04-25T13:34:05.665Z</time></trkpt><trkpt lat="43.227211" lon="10.7199066"><ele>112.0</ele><time>2026-04-25T13:34:06.696Z</time></trkpt><trkpt lat="43.2273513" lon="10.7199595"><ele>112.0</ele><time>2026-04-25T13:34:07.688Z</time></trkpt><trkpt lat="43.2274881" lon="10.7199757"><ele>112.0</ele><time>2026-04-25T13:34:08.69Z</time></trkpt><trkpt lat="43.2276073" lon="10.7199181"><ele>112.0</ele><time>2026-04-25T13:34:09.693Z</time></trkpt><trkpt lat="43.227713" lon="10.7197972"><ele>112.0</ele><time>2026-04-25T13:34:10.676Z</time></trkpt><trkpt lat="43.2277841" lon="10.7196842"><ele>112.0</ele><time>2026-04-25T13:34:11.703Z</time></trkpt><trkpt lat="43.2278299" lon="10.719581"><ele>112.0</ele><time>2026-04-25T13:34:12.669Z</time></trkpt><trkpt lat="43.2279407" lon="10.7194192"><ele>112.0</ele><time>2026-04-25T13:34:15.709Z</time></trkpt><trkpt lat="43.2279748" lon="10.7193306"><ele>112.0</ele><time>2026-04-25T13:36:32.667Z</time></trkpt><trkpt lat="43.22813" lon="10.7192803"><ele>112.6</ele><time>2026-04-25T13:36:36.669Z</time></trkpt><trkpt lat="43.228244" lon="10.7192731"><ele>113.19999999999999</ele><time>2026-04-25T13:36:38.677Z</time></trkpt><trkpt lat="43.2283256" lon="10.7192923"><ele>113.8</ele><time>2026-04-25T13:36:39.69Z</time></trkpt><trkpt lat="43.2284263" lon="10.7193339"><ele>114.4</ele><time>2026-04-25T13:36:40.669Z</time></trkpt><trkpt lat="43.2285468" lon="10.7194013"><ele>115.0</ele><time>2026-04-25T13:36:41.679Z</time></trkpt><trkpt lat="43.2286695" lon="10.7194679"><ele>113.5</ele><time>2026-04-25T13:36:42.673Z</time></trkpt><trkpt lat="43.2287987" lon="10.7195254"><ele>112.0</ele><time>2026-04-25T13:36:43.683Z</time></trkpt><trkpt lat="43.2289344" lon="10.719585"><ele>110.5</ele><time>2026-04-25T13:36:44.673Z</time></trkpt><trkpt lat="43.2290798" lon="10.7196471"><ele>109.0</ele><time>2026-04-25T13:36:45.691Z</time></trkpt><trkpt lat="43.2292204" lon="10.7197088"><ele>108.25</ele><time>2026-04-25T13:36:46.652Z</time></trkpt><trkpt lat="43.2293601" lon="10.7197616"><ele>107.5</ele><time>2026-04-25T13:36:47.679Z</time></trkpt><trkpt lat="43.2294991" lon="10.7198056"><ele>106.75</ele><time>2026-04-25T13:36:48.685Z</time></trkpt><trkpt lat="43.2296331" lon="10.7198451"><ele>106.0</ele><time>2026-04-25T13:36:49.7Z</time></trkpt><trkpt lat="43.2297675" lon="10.7198789"><ele>106.5</ele><time>2026-04-25T13:36:50.677Z</time></trkpt><trkpt lat="43.2299051" lon="10.7199097"><ele>107.0</ele><time>2026-04-25T13:36:51.693Z</time></trkpt><trkpt lat="43.2300357" lon="10.7199427"><ele>107.5</ele><time>2026-04-25T13:36:52.687Z</time></trkpt><trkpt lat="43.2301653" lon="10.7199759"><ele>108.0</ele><time>2026-04-25T13:36:53.652Z</time></trkpt><trkpt lat="43.2304113" lon="10.7200287"><ele>108.0</ele><time>2026-04-25T13:36:55.664Z</time></trkpt><trkpt lat="43.2305337" lon="10.7200479"><ele>108.0</ele><time>2026-04-25T13:36:56.657Z</time></trkpt><trkpt lat="43.2306592" lon="10.7200683"><ele>108.0</ele><time>2026-04-25T13:36:57.653Z</time></trkpt><trkpt lat="43.2307912" lon="10.7200942"><ele>108.0</ele><time>2026-04-25T13:36:58.661Z</time></trkpt><trkpt lat="43.2309273" lon="10.7201209"><ele>107.66666666666666</ele><time>2026-04-25T13:36:59.653Z</time></trkpt><trkpt lat="43.2310739" lon="10.7201573"><ele>107.33333333333333</ele><time>2026-04-25T13:37:00.653Z</time></trkpt><trkpt lat="43.2312321" lon="10.7201985"><ele>107.0</ele><time>2026-04-25T13:37:01.649Z</time></trkpt><trkpt lat="43.231389" lon="10.7202299"><ele>105.66666666666666</ele><time>2026-04-25T13:37:02.659Z</time></trkpt><trkpt lat="43.2315445" lon="10.7202547"><ele>104.33333333333334</ele><time>2026-04-25T13:37:03.647Z</time></trkpt><trkpt lat="43.2317075" lon="10.7202653"><ele>103.0</ele><time>2026-04-25T13:37:04.647Z</time></trkpt><trkpt lat="43.2318798" lon="10.7202732"><ele>103.0</ele><time>2026-04-25T13:37:05.646Z</time></trkpt><trkpt lat="43.232054" lon="10.720263"><ele>103.0</ele><time>2026-04-25T13:37:06.644Z</time></trkpt><trkpt lat="43.2322262" lon="10.720233"><ele>103.0</ele><time>2026-04-25T13:37:07.649Z</time></trkpt><trkpt lat="43.2324003" lon="10.7201848"><ele>103.33333333333334</ele><time>2026-04-25T13:37:08.658Z</time></trkpt><trkpt lat="43.2325767" lon="10.7201264"><ele>103.66666666666666</ele><time>2026-04-25T13:37:09.652Z</time></trkpt><trkpt lat="43.2327506" lon="10.7200741"><ele>104.0</ele><time>2026-04-25T13:37:10.689Z</time></trkpt><trkpt lat="43.2329233" lon="10.7200176"><ele>104.0</ele><time>2026-04-25T13:37:11.674Z</time></trkpt><trkpt lat="43.2330945" lon="10.7199585"><ele>104.0</ele><time>2026-04-25T13:37:12.673Z</time></trkpt><trkpt lat="43.2332672" lon="10.7198848"><ele>104.0</ele><time>2026-04-25T13:37:13.668Z</time></trkpt><trkpt lat="43.2334388" lon="10.7197871"><ele>103.5</ele><time>2026-04-25T13:37:14.682Z</time></trkpt><trkpt lat="43.2337697" lon="10.7195215"><ele>103.0</ele><time>2026-04-25T13:37:16.68Z</time></trkpt><trkpt lat="43.2339333" lon="10.7193716"><ele>100.66666666666667</ele><time>2026-04-25T13:37:17.68Z</time></trkpt><trkpt lat="43.2340933" lon="10.7192195"><ele>98.33333333333334</ele><time>2026-04-25T13:37:18.68Z</time></trkpt><trkpt lat="43.2342543" lon="10.719068"><ele>96.0</ele><time>2026-04-25T13:37:19.681Z</time></trkpt><trkpt lat="43.2344186" lon="10.7189168"><ele>96.0</ele><time>2026-04-25T13:37:20.655Z</time></trkpt><trkpt lat="43.2345823" lon="10.7187696"><ele>96.0</ele><time>2026-04-25T13:37:21.677Z</time></trkpt><trkpt lat="43.2347492" lon="10.7186178"><ele>96.0</ele><time>2026-04-25T13:37:22.681Z</time></trkpt><trkpt lat="43.2349138" lon="10.7184618"><ele>96.0</ele><time>2026-04-25T13:37:23.682Z</time></trkpt><trkpt lat="43.2350792" lon="10.7183051"><ele>96.0</ele><time>2026-04-25T13:37:24.681Z</time></trkpt><trkpt lat="43.2352475" lon="10.7181499"><ele>96.0</ele><time>2026-04-25T13:37:25.682Z</time></trkpt><trkpt lat="43.2354157" lon="10.7179899"><ele>96.0</ele><time>2026-04-25T13:37:26.686Z</time></trkpt><trkpt lat="43.2355814" lon="10.7178373"><ele>96.0</ele><time>2026-04-25T13:37:27.677Z</time></trkpt><trkpt lat="43.2357477" lon="10.7176802"><ele>96.0</ele><time>2026-04-25T13:37:28.681Z</time></trkpt><trkpt lat="43.2359098" lon="10.7175266"><ele>96.66666666666666</ele><time>2026-04-25T13:37:29.663Z</time></trkpt><trkpt lat="43.2360697" lon="10.7173751"><ele>97.33333333333333</ele><time>2026-04-25T13:37:30.669Z</time></trkpt><trkpt lat="43.2362296" lon="10.7172449"><ele>98.0</ele><time>2026-04-25T13:37:31.671Z</time></trkpt><trkpt lat="43.2363944" lon="10.7171407"><ele>96.66666666666666</ele><time>2026-04-25T13:37:32.674Z</time></trkpt><trkpt lat="43.2365684" lon="10.7170606"><ele>95.33333333333333</ele><time>2026-04-25T13:37:33.681Z</time></trkpt><trkpt lat="43.236747" lon="10.7170047"><ele>94.0</ele><time>2026-04-25T13:37:34.661Z</time></trkpt><trkpt lat="43.2369315" lon="10.7169724"><ele>93.0</ele><time>2026-04-25T13:37:35.672Z</time></trkpt><trkpt lat="43.2373066" lon="10.7169721"><ele>92.0</ele><time>2026-04-25T13:37:37.675Z</time></trkpt><trkpt lat="43.2374905" lon="10.7169784"><ele>92.0</ele><time>2026-04-25T13:37:38.657Z</time></trkpt><trkpt lat="43.2376768" lon="10.7169825"><ele>92.0</ele><time>2026-04-25T13:37:39.662Z</time></trkpt><trkpt lat="43.2378667" lon="10.7169913"><ele>92.0</ele><time>2026-04-25T13:37:40.675Z</time></trkpt><trkpt lat="43.2380564" lon="10.7170021"><ele>92.33333333333334</ele><time>2026-04-25T13:37:41.651Z</time></trkpt><trkpt lat="43.2382471" lon="10.7170121"><ele>92.66666666666667</ele><time>2026-04-25T13:37:42.672Z</time></trkpt><trkpt lat="43.2384324" lon="10.7170252"><ele>93.0</ele><time>2026-04-25T13:37:43.68Z</time></trkpt><trkpt lat="43.2386179" lon="10.7170337"><ele>93.0</ele><time>2026-04-25T13:37:44.667Z</time></trkpt><trkpt lat="43.2388068" lon="10.7170389"><ele>93.0</ele><time>2026-04-25T13:37:45.673Z</time></trkpt><trkpt lat="43.2390026" lon="10.7170177"><ele>93.0</ele><time>2026-04-25T13:37:46.673Z</time></trkpt><trkpt lat="43.2392034" lon="10.7169696"><ele>94.33333333333334</ele><time>2026-04-25T13:37:47.662Z</time></trkpt><trkpt lat="43.239406" lon="10.7168928"><ele>95.66666666666667</ele><time>2026-04-25T13:37:48.663Z</time></trkpt><trkpt lat="43.2395956" lon="10.7167863"><ele>97.0</ele><time>2026-04-25T13:37:49.673Z</time></trkpt><trkpt lat="43.2397762" lon="10.7166511"><ele>95.0</ele><time>2026-04-25T13:37:50.674Z</time></trkpt><trkpt lat="43.2399418" lon="10.7164863"><ele>93.0</ele><time>2026-04-25T13:37:51.664Z</time></trkpt><trkpt lat="43.2401091" lon="10.7163189"><ele>91.0</ele><time>2026-04-25T13:37:52.668Z</time></trkpt><trkpt lat="43.2402718" lon="10.7161562"><ele>91.0</ele><time>2026-04-25T13:37:53.681Z</time></trkpt><trkpt lat="43.2404381" lon="10.7160019"><ele>91.0</ele><time>2026-04-25T13:37:54.642Z</time></trkpt><trkpt lat="43.2405991" lon="10.715848"><ele>91.0</ele><time>2026-04-25T13:37:55.681Z</time></trkpt><trkpt lat="43.2407611" lon="10.7156859"><ele>91.0</ele><time>2026-04-25T13:37:56.685Z</time></trkpt><trkpt lat="43.2410779" lon="10.7153763"><ele>91.0</ele><time>2026-04-25T13:37:58.68Z</time></trkpt><trkpt lat="43.2412346" lon="10.715227"><ele>90.33333333333333</ele><time>2026-04-25T13:37:59.681Z</time></trkpt><trkpt lat="43.2413937" lon="10.7150833"><ele>89.66666666666667</ele><time>2026-04-25T13:38:00.673Z</time></trkpt><trkpt lat="43.2415594" lon="10.7149503"><ele>89.0</ele><time>2026-04-25T13:38:01.679Z</time></trkpt><trkpt lat="43.2417283" lon="10.7148242"><ele>89.0</ele><time>2026-04-25T13:38:02.673Z</time></trkpt><trkpt lat="43.2419021" lon="10.714697"><ele>89.0</ele><time>2026-04-25T13:38:03.688Z</time></trkpt><trkpt lat="43.2420748" lon="10.7145696"><ele>89.0</ele><time>2026-04-25T13:38:04.645Z</time></trkpt><trkpt lat="43.2422525" lon="10.7144426"><ele>88.0</ele><time>2026-04-25T13:38:05.67Z</time></trkpt><trkpt lat="43.2424294" lon="10.7143174"><ele>87.0</ele><time>2026-04-25T13:38:06.682Z</time></trkpt><trkpt lat="43.2426086" lon="10.7141927"><ele>86.0</ele><time>2026-04-25T13:38:07.678Z</time></trkpt><trkpt lat="43.2427864" lon="10.714071"><ele>86.0</ele><time>2026-04-25T13:38:08.688Z</time></trkpt><trkpt lat="43.2429645" lon="10.7139488"><ele>86.0</ele><time>2026-04-25T13:38:09.646Z</time></trkpt><trkpt lat="43.2431457" lon="10.7138253"><ele>86.0</ele><time>2026-04-25T13:38:10.671Z</time></trkpt><trkpt lat="43.2433234" lon="10.7136998"><ele>85.33333333333334</ele><time>2026-04-25T13:38:11.679Z</time></trkpt><trkpt lat="43.2434946" lon="10.7135769"><ele>84.66666666666667</ele><time>2026-04-25T13:38:12.679Z</time></trkpt><trkpt lat="43.2436701" lon="10.7134577"><ele>84.0</ele><time>2026-04-25T13:38:13.68Z</time></trkpt><trkpt lat="43.243847" lon="10.7133387"><ele>84.0</ele><time>2026-04-25T13:38:14.678Z</time></trkpt><trkpt lat="43.2440246" lon="10.7132166"><ele>84.0</ele><time>2026-04-25T13:38:15.673Z</time></trkpt><trkpt lat="43.2441993" lon="10.7130974"><ele>84.0</ele><time>2026-04-25T13:38:16.673Z</time></trkpt><trkpt lat="43.2443714" lon="10.712982"><ele>84.0</ele><time>2026-04-25T13:38:17.682Z</time></trkpt><trkpt lat="43.2447045" lon="10.7127576"><ele>84.0</ele><time>2026-04-25T13:38:19.691Z</time></trkpt><trkpt lat="43.2448685" lon="10.7126452"><ele>84.66666666666667</ele><time>2026-04-25T13:38:20.672Z</time></trkpt><trkpt lat="43.2450318" lon="10.7125356"><ele>85.33333333333334</ele><time>2026-04-25T13:38:21.682Z</time></trkpt><trkpt lat="43.2451901" lon="10.7124296"><ele>86.0</ele><time>2026-04-25T13:38:22.683Z</time></trkpt><trkpt lat="43.245344" lon="10.712323"><ele>86.0</ele><time>2026-04-25T13:38:23.7Z</time></trkpt><trkpt lat="43.2454917" lon="10.7122204"><ele>86.0</ele><time>2026-04-25T13:38:24.638Z</time></trkpt><trkpt lat="43.2456389" lon="10.7121158"><ele>86.0</ele><time>2026-04-25T13:38:25.686Z</time></trkpt><trkpt lat="43.245779" lon="10.7120044"><ele>86.0</ele><time>2026-04-25T13:38:26.686Z</time></trkpt><trkpt lat="43.2459128" lon="10.7118832"><ele>86.0</ele><time>2026-04-25T13:38:27.668Z</time></trkpt><trkpt lat="43.2460402" lon="10.7117522"><ele>86.0</ele><time>2026-04-25T13:38:28.687Z</time></trkpt><trkpt lat="43.2461653" lon="10.7116024"><ele>86.0</ele><time>2026-04-25T13:38:29.673Z</time></trkpt><trkpt lat="43.2462814" lon="10.7114398"><ele>86.0</ele><time>2026-04-25T13:38:30.722Z</time></trkpt><trkpt lat="43.2463898" lon="10.7112783"><ele>86.0</ele><time>2026-04-25T13:38:31.694Z</time></trkpt><trkpt lat="43.2465016" lon="10.7111202"><ele>85.66666666666667</ele><time>2026-04-25T13:38:32.688Z</time></trkpt><trkpt lat="43.2466204" lon="10.7109613"><ele>85.33333333333333</ele><time>2026-04-25T13:38:33.675Z</time></trkpt><trkpt lat="43.2467403" lon="10.7108068"><ele>85.0</ele><time>2026-04-25T13:38:34.679Z</time></trkpt><trkpt lat="43.2468593" lon="10.7106452"><ele>85.0</ele><time>2026-04-25T13:38:35.639Z</time></trkpt><trkpt lat="43.246977" lon="10.7104764"><ele>85.0</ele><time>2026-04-25T13:38:36.671Z</time></trkpt><trkpt lat="43.2470954" lon="10.7103109"><ele>85.0</ele><time>2026-04-25T13:38:37.645Z</time></trkpt><trkpt lat="43.2472131" lon="10.7101431"><ele>84.5</ele><time>2026-04-25T13:38:38.678Z</time></trkpt><trkpt lat="43.247452" lon="10.7098332"><ele>84.0</ele><time>2026-04-25T13:38:40.669Z</time></trkpt><trkpt lat="43.2475772" lon="10.7096924"><ele>84.0</ele><time>2026-04-25T13:38:41.688Z</time></trkpt><trkpt lat="43.2477066" lon="10.7095594"><ele>84.0</ele><time>2026-04-25T13:38:42.677Z</time></trkpt><trkpt lat="43.2478482" lon="10.7094406"><ele>84.0</ele><time>2026-04-25T13:38:43.675Z</time></trkpt><trkpt lat="43.2480002" lon="10.7093459"><ele>83.0</ele><time>2026-04-25T13:38:44.673Z</time></trkpt><trkpt lat="43.2481647" lon="10.7092745"><ele>82.0</ele><time>2026-04-25T13:38:45.676Z</time></trkpt><trkpt lat="43.2483365" lon="10.7092174"><ele>81.0</ele><time>2026-04-25T13:38:46.684Z</time></trkpt><trkpt lat="43.2485113" lon="10.7091795"><ele>81.0</ele><time>2026-04-25T13:38:47.673Z</time></trkpt><trkpt lat="43.2486937" lon="10.7091452"><ele>81.0</ele><time>2026-04-25T13:38:48.673Z</time></trkpt><trkpt lat="43.2488718" lon="10.7091071"><ele>81.0</ele><time>2026-04-25T13:38:49.671Z</time></trkpt><trkpt lat="43.2490525" lon="10.7090646"><ele>81.0</ele><time>2026-04-25T13:38:50.64Z</time></trkpt><trkpt lat="43.2492299" lon="10.7090224"><ele>81.0</ele><time>2026-04-25T13:38:51.689Z</time></trkpt><trkpt lat="43.2494057" lon="10.7089802"><ele>81.0</ele><time>2026-04-25T13:38:52.669Z</time></trkpt><trkpt lat="43.2495839" lon="10.708937"><ele>81.0</ele><time>2026-04-25T13:38:53.673Z</time></trkpt><trkpt lat="43.2497619" lon="10.7088943"><ele>81.0</ele><time>2026-04-25T13:38:54.672Z</time></trkpt><trkpt lat="43.2499384" lon="10.708854"><ele>81.0</ele><time>2026-04-25T13:38:55.671Z</time></trkpt><trkpt lat="43.250119" lon="10.7088152"><ele>81.0</ele><time>2026-04-25T13:38:56.67Z</time></trkpt><trkpt lat="43.2502951" lon="10.7087738"><ele>81.0</ele><time>2026-04-25T13:38:57.671Z</time></trkpt><trkpt lat="43.2504658" lon="10.7087332"><ele>81.0</ele><time>2026-04-25T13:38:58.675Z</time></trkpt><trkpt lat="43.2506368" lon="10.7086912"><ele>80.0</ele><time>2026-04-25T13:38:59.679Z</time></trkpt><trkpt lat="43.2509747" lon="10.7086146"><ele>79.0</ele><time>2026-04-25T13:39:01.665Z</time></trkpt><trkpt lat="43.2511437" lon="10.7085767"><ele>78.66666666666666</ele><time>2026-04-25T13:39:02.668Z</time></trkpt><trkpt lat="43.2513137" lon="10.7085403"><ele>78.33333333333333</ele><time>2026-04-25T13:39:03.673Z</time></trkpt><trkpt lat="43.2514832" lon="10.7085011"><ele>78.0</ele><time>2026-04-25T13:39:04.657Z</time></trkpt><trkpt lat="43.251657" lon="10.7084635"><ele>78.0</ele><time>2026-04-25T13:39:05.682Z</time></trkpt><trkpt lat="43.2518406" lon="10.7084237"><ele>78.0</ele><time>2026-04-25T13:39:06.653Z</time></trkpt><trkpt lat="43.252032" lon="10.7083814"><ele>78.0</ele><time>2026-04-25T13:39:07.682Z</time></trkpt><trkpt lat="43.2522282" lon="10.7083365"><ele>78.0</ele><time>2026-04-25T13:39:08.685Z</time></trkpt><trkpt lat="43.2524346" lon="10.7082905"><ele>78.0</ele><time>2026-04-25T13:39:09.677Z</time></trkpt><trkpt lat="43.2526442" lon="10.708244"><ele>78.0</ele><time>2026-04-25T13:39:10.698Z</time></trkpt><trkpt lat="43.2528566" lon="10.7081916"><ele>78.0</ele><time>2026-04-25T13:39:11.685Z</time></trkpt><trkpt lat="43.2530665" lon="10.7081471"><ele>78.0</ele><time>2026-04-25T13:39:12.67Z</time></trkpt><trkpt lat="43.2532799" lon="10.7081194"><ele>78.0</ele><time>2026-04-25T13:39:13.666Z</time></trkpt><trkpt lat="43.2534967" lon="10.7081152"><ele>78.33333333333333</ele><time>2026-04-25T13:39:14.673Z</time></trkpt><trkpt lat="43.2537135" lon="10.7081428"><ele>78.66666666666666</ele><time>2026-04-25T13:39:15.643Z</time></trkpt><trkpt lat="43.2539289" lon="10.7081918"><ele>79.0</ele><time>2026-04-25T13:39:16.645Z</time></trkpt><trkpt lat="43.2541468" lon="10.708277"><ele>79.0</ele><time>2026-04-25T13:39:17.668Z</time></trkpt><trkpt lat="43.2543674" lon="10.7083922"><ele>79.0</ele><time>2026-04-25T13:39:18.68Z</time></trkpt><trkpt lat="43.2545882" lon="10.708525"><ele>82.0</ele><time>2026-04-25T13:39:19.68Z</time></trkpt><trkpt lat="43.2548089" lon="10.7086594"><ele>85.0</ele><time>2026-04-25T13:39:20.683Z</time></trkpt><trkpt lat="43.2552291" lon="10.7089127"><ele>85.0</ele><time>2026-04-25T13:39:22.678Z</time></trkpt><trkpt lat="43.2554372" lon="10.7090452"><ele>85.0</ele><time>2026-04-25T13:39:23.677Z</time></trkpt><trkpt lat="43.2556527" lon="10.7091723"><ele>82.5</ele><time>2026-04-25T13:39:24.678Z</time></trkpt><trkpt lat="43.2558753" lon="10.7093126"><ele>80.0</ele><time>2026-04-25T13:39:25.68Z</time></trkpt><trkpt lat="43.2561138" lon="10.7094461"><ele>80.0</ele><time>2026-04-25T13:39:26.681Z</time></trkpt><trkpt lat="43.2563542" lon="10.7095768"><ele>80.0</ele><time>2026-04-25T13:39:27.673Z</time></trkpt><trkpt lat="43.2565912" lon="10.7097297"><ele>78.0</ele><time>2026-04-25T13:39:28.669Z</time></trkpt><trkpt lat="43.2568212" lon="10.7099011"><ele>76.0</ele><time>2026-04-25T13:39:29.69Z</time></trkpt><trkpt lat="43.257055" lon="10.7100544"><ele>75.0</ele><time>2026-04-25T13:39:30.681Z</time></trkpt><trkpt lat="43.2572955" lon="10.7101919"><ele>74.0</ele><time>2026-04-25T13:39:31.652Z</time></trkpt><trkpt lat="43.2575312" lon="10.7103262"><ele>77.0</ele><time>2026-04-25T13:39:32.663Z</time></trkpt><trkpt lat="43.2577719" lon="10.7104398"><ele>80.0</ele><time>2026-04-25T13:39:33.68Z</time></trkpt><trkpt lat="43.2580201" lon="10.7105104"><ele>78.0</ele><time>2026-04-25T13:39:34.681Z</time></trkpt><trkpt lat="43.2582748" lon="10.7105467"><ele>76.0</ele><time>2026-04-25T13:39:35.67Z</time></trkpt><trkpt lat="43.2585396" lon="10.7105257"><ele>76.0</ele><time>2026-04-25T13:39:36.67Z</time></trkpt><trkpt lat="43.2588008" lon="10.7104621"><ele>76.0</ele><time>2026-04-25T13:39:37.651Z</time></trkpt><trkpt lat="43.2590582" lon="10.7103602"><ele>75.0</ele><time>2026-04-25T13:39:38.652Z</time></trkpt><trkpt lat="43.2593127" lon="10.7102226"><ele>74.0</ele><time>2026-04-25T13:39:39.677Z</time></trkpt><trkpt lat="43.2595585" lon="10.71008"><ele>75.0</ele><time>2026-04-25T13:39:40.672Z</time></trkpt><trkpt lat="43.2598014" lon="10.709946"><ele>76.0</ele><time>2026-04-25T13:39:41.655Z</time></trkpt><trkpt lat="43.2602705" lon="10.7096932"><ele>76.0</ele><time>2026-04-25T13:39:43.628Z</time></trkpt><trkpt lat="43.260497" lon="10.7095708"><ele>76.0</ele><time>2026-04-25T13:39:44.671Z</time></trkpt><trkpt lat="43.260719" lon="10.7094446"><ele>74.66666666666666</ele><time>2026-04-25T13:39:45.672Z</time></trkpt><trkpt lat="43.2609259" lon="10.7093229"><ele>73.33333333333333</ele><time>2026-04-25T13:39:46.671Z</time></trkpt><trkpt lat="43.2611215" lon="10.7092061"><ele>72.0</ele><time>2026-04-25T13:39:47.678Z</time></trkpt><trkpt lat="43.2613079" lon="10.7090738"><ele>73.66666666666667</ele><time>2026-04-25T13:39:48.671Z</time></trkpt><trkpt lat="43.261486" lon="10.7089241"><ele>75.33333333333334</ele><time>2026-04-25T13:39:49.645Z</time></trkpt><trkpt lat="43.2616593" lon="10.7087658"><ele>77.0</ele><time>2026-04-25T13:39:50.662Z</time></trkpt><trkpt lat="43.2618289" lon="10.7086038"><ele>74.33333333333334</ele><time>2026-04-25T13:39:51.669Z</time></trkpt><trkpt lat="43.2619981" lon="10.7084389"><ele>71.66666666666667</ele><time>2026-04-25T13:39:52.638Z</time></trkpt><trkpt lat="43.2621707" lon="10.708274"><ele>69.0</ele><time>2026-04-25T13:39:53.668Z</time></trkpt><trkpt lat="43.2623433" lon="10.7081091"><ele>69.0</ele><time>2026-04-25T13:39:54.669Z</time></trkpt><trkpt lat="43.2625166" lon="10.707941"><ele>69.0</ele><time>2026-04-25T13:39:55.657Z</time></trkpt><trkpt lat="43.2626849" lon="10.7077807"><ele>69.0</ele><time>2026-04-25T13:39:56.671Z</time></trkpt><trkpt lat="43.26285" lon="10.7076265"><ele>68.66666666666667</ele><time>2026-04-25T13:39:57.636Z</time></trkpt><trkpt lat="43.2630102" lon="10.707471"><ele>68.33333333333334</ele><time>2026-04-25T13:39:58.648Z</time></trkpt><trkpt lat="43.2631714" lon="10.7073166"><ele>68.0</ele><time>2026-04-25T13:39:59.637Z</time></trkpt><trkpt lat="43.2633325" lon="10.7071639"><ele>68.33333333333334</ele><time>2026-04-25T13:40:00.661Z</time></trkpt><trkpt lat="43.2635005" lon="10.7070084"><ele>68.66666666666667</ele><time>2026-04-25T13:40:01.666Z</time></trkpt><trkpt lat="43.2636704" lon="10.7068589"><ele>69.0</ele><time>2026-04-25T13:40:02.676Z</time></trkpt><trkpt lat="43.2640421" lon="10.7066503"><ele>69.0</ele><time>2026-04-25T13:40:04.679Z</time></trkpt><trkpt lat="43.2642357" lon="10.7065805"><ele>69.0</ele><time>2026-04-25T13:40:05.679Z</time></trkpt><trkpt lat="43.2644331" lon="10.7065474"><ele>69.0</ele><time>2026-04-25T13:40:06.671Z</time></trkpt><trkpt lat="43.2646318" lon="10.7065397"><ele>68.66666666666667</ele><time>2026-04-25T13:40:07.662Z</time></trkpt><trkpt lat="43.2648356" lon="10.7065587"><ele>68.33333333333334</ele><time>2026-04-25T13:40:08.642Z</time></trkpt><trkpt lat="43.2650378" lon="10.7065943"><ele>68.0</ele><time>2026-04-25T13:40:09.657Z</time></trkpt><trkpt lat="43.2652418" lon="10.7066262"><ele>68.0</ele><time>2026-04-25T13:40:10.675Z</time></trkpt><trkpt lat="43.2654416" lon="10.7066547"><ele>68.0</ele><time>2026-04-25T13:40:11.679Z</time></trkpt><trkpt lat="43.2656427" lon="10.7066851"><ele>68.0</ele><time>2026-04-25T13:40:12.655Z</time></trkpt><trkpt lat="43.265844" lon="10.706713"><ele>68.66666666666667</ele><time>2026-04-25T13:40:13.681Z</time></trkpt><trkpt lat="43.2660406" lon="10.7067375"><ele>69.33333333333333</ele><time>2026-04-25T13:40:14.671Z</time></trkpt><trkpt lat="43.2662362" lon="10.7067651"><ele>70.0</ele><time>2026-04-25T13:40:15.667Z</time></trkpt><trkpt lat="43.26643" lon="10.7067926"><ele>69.33333333333333</ele><time>2026-04-25T13:40:16.655Z</time></trkpt><trkpt lat="43.2666195" lon="10.7068163"><ele>68.66666666666667</ele><time>2026-04-25T13:40:17.673Z</time></trkpt><trkpt lat="43.2668067" lon="10.7068416"><ele>68.0</ele><time>2026-04-25T13:40:18.659Z</time></trkpt><trkpt lat="43.2669919" lon="10.7068638"><ele>68.0</ele><time>2026-04-25T13:40:19.67Z</time></trkpt><trkpt lat="43.2671804" lon="10.70688"><ele>68.0</ele><time>2026-04-25T13:40:20.657Z</time></trkpt><trkpt lat="43.2673654" lon="10.7068921"><ele>68.0</ele><time>2026-04-25T13:40:21.661Z</time></trkpt><trkpt lat="43.2675461" lon="10.706886"><ele>67.0</ele><time>2026-04-25T13:40:22.678Z</time></trkpt><trkpt lat="43.2677224" lon="10.7068569"><ele>66.0</ele><time>2026-04-25T13:40:23.669Z</time></trkpt><trkpt lat="43.2680768" lon="10.7067451"><ele>66.0</ele><time>2026-04-25T13:40:25.641Z</time></trkpt><trkpt lat="43.2682551" lon="10.7066793"><ele>66.0</ele><time>2026-04-25T13:40:26.659Z</time></trkpt><trkpt lat="43.2684341" lon="10.7066154"><ele>66.0</ele><time>2026-04-25T13:40:27.652Z</time></trkpt><trkpt lat="43.2686151" lon="10.7065503"><ele>66.0</ele><time>2026-04-25T13:40:28.667Z</time></trkpt><trkpt lat="43.2687975" lon="10.7064886"><ele>66.0</ele><time>2026-04-25T13:40:29.654Z</time></trkpt><trkpt lat="43.2689802" lon="10.7064265"><ele>66.0</ele><time>2026-04-25T13:40:30.659Z</time></trkpt><trkpt lat="43.2691606" lon="10.7063629"><ele>65.0</ele><time>2026-04-25T13:40:31.683Z</time></trkpt><trkpt lat="43.2693409" lon="10.706297"><ele>64.0</ele><time>2026-04-25T13:40:32.668Z</time></trkpt><trkpt lat="43.2695235" lon="10.7062314"><ele>63.0</ele><time>2026-04-25T13:40:33.661Z</time></trkpt><trkpt lat="43.2697046" lon="10.7061701"><ele>63.0</ele><time>2026-04-25T13:40:34.66Z</time></trkpt><trkpt lat="43.269887" lon="10.706105"><ele>63.0</ele><time>2026-04-25T13:40:35.676Z</time></trkpt><trkpt lat="43.2700698" lon="10.7060431"><ele>63.0</ele><time>2026-04-25T13:40:36.645Z</time></trkpt><trkpt lat="43.2702525" lon="10.7059781"><ele>63.0</ele><time>2026-04-25T13:40:37.67Z</time></trkpt><trkpt lat="43.2704338" lon="10.7059106"><ele>63.0</ele><time>2026-04-25T13:40:38.674Z</time></trkpt><trkpt lat="43.2706107" lon="10.7058478"><ele>63.0</ele><time>2026-04-25T13:40:39.626Z</time></trkpt><trkpt lat="43.2707848" lon="10.7057851"><ele>63.0</ele><time>2026-04-25T13:40:40.667Z</time></trkpt><trkpt lat="43.2709551" lon="10.705724"><ele>63.0</ele><time>2026-04-25T13:40:41.623Z</time></trkpt><trkpt lat="43.2711241" lon="10.7056651"><ele>63.0</ele><time>2026-04-25T13:40:42.658Z</time></trkpt><trkpt lat="43.2712913" lon="10.705606"><ele>63.0</ele><time>2026-04-25T13:40:43.657Z</time></trkpt><trkpt lat="43.2714535" lon="10.7055485"><ele>63.0</ele><time>2026-04-25T13:40:44.654Z</time></trkpt><trkpt lat="43.2717774" lon="10.7054317"><ele>63.0</ele><time>2026-04-25T13:40:46.68Z</time></trkpt><trkpt lat="43.2719399" lon="10.7053713"><ele>63.0</ele><time>2026-04-25T13:40:47.674Z</time></trkpt><trkpt lat="43.2721032" lon="10.7053157"><ele>63.0</ele><time>2026-04-25T13:40:48.66Z</time></trkpt><trkpt lat="43.2722658" lon="10.7052578"><ele>63.33333333333333</ele><time>2026-04-25T13:40:49.661Z</time></trkpt><trkpt lat="43.2724306" lon="10.7051957"><ele>63.666666666666664</ele><time>2026-04-25T13:40:50.671Z</time></trkpt><trkpt lat="43.2725998" lon="10.7051326"><ele>64.0</ele><time>2026-04-25T13:40:51.637Z</time></trkpt><trkpt lat="43.2727716" lon="10.7050719"><ele>64.0</ele><time>2026-04-25T13:40:52.658Z</time></trkpt><trkpt lat="43.2729448" lon="10.7050108"><ele>64.0</ele><time>2026-04-25T13:40:53.648Z</time></trkpt><trkpt lat="43.2731188" lon="10.7049505"><ele>64.0</ele><time>2026-04-25T13:40:54.659Z</time></trkpt><trkpt lat="43.273293" lon="10.7048981"><ele>65.33333333333333</ele><time>2026-04-25T13:40:55.674Z</time></trkpt><trkpt lat="43.2734709" lon="10.7048562"><ele>66.66666666666667</ele><time>2026-04-25T13:40:56.644Z</time></trkpt><trkpt lat="43.2736506" lon="10.7048311"><ele>68.0</ele><time>2026-04-25T13:40:57.691Z</time></trkpt><trkpt lat="43.2738315" lon="10.7048314"><ele>67.66666666666667</ele><time>2026-04-25T13:40:58.671Z</time></trkpt><trkpt lat="43.2740135" lon="10.7048538"><ele>67.33333333333333</ele><time>2026-04-25T13:40:59.663Z</time></trkpt><trkpt lat="43.2741995" lon="10.7048909"><ele>67.0</ele><time>2026-04-25T13:41:00.661Z</time></trkpt><trkpt lat="43.2743887" lon="10.7049402"><ele>67.0</ele><time>2026-04-25T13:41:01.66Z</time></trkpt><trkpt lat="43.2745776" lon="10.7049868"><ele>67.0</ele><time>2026-04-25T13:41:02.661Z</time></trkpt><trkpt lat="43.2747623" lon="10.705036"><ele>67.0</ele><time>2026-04-25T13:41:03.67Z</time></trkpt><trkpt lat="43.2749481" lon="10.7050835"><ele>64.5</ele><time>2026-04-25T13:41:04.655Z</time></trkpt><trkpt lat="43.2751308" lon="10.7051321"><ele>62.0</ele><time>2026-04-25T13:41:05.663Z</time></trkpt><trkpt lat="43.2754968" lon="10.7052259"><ele>67.33333333333334</ele><time>2026-04-25T13:41:07.661Z</time></trkpt><trkpt lat="43.2756771" lon="10.7052758"><ele>72.66666666666667</ele><time>2026-04-25T13:41:08.671Z</time></trkpt><trkpt lat="43.2758581" lon="10.7053209"><ele>78.0</ele><time>2026-04-25T13:41:09.658Z</time></trkpt><trkpt lat="43.2760388" lon="10.7053736"><ele>78.0</ele><time>2026-04-25T13:41:10.641Z</time></trkpt><trkpt lat="43.2762188" lon="10.7054244"><ele>78.0</ele><time>2026-04-25T13:41:11.653Z</time></trkpt><trkpt lat="43.2763967" lon="10.7054686"><ele>78.0</ele><time>2026-04-25T13:41:12.651Z</time></trkpt><trkpt lat="43.2765768" lon="10.705519"><ele>73.66666666666667</ele><time>2026-04-25T13:41:13.646Z</time></trkpt><trkpt lat="43.2767538" lon="10.7055675"><ele>69.33333333333334</ele><time>2026-04-25T13:41:14.666Z</time></trkpt><trkpt lat="43.276925" lon="10.7056194"><ele>65.0</ele><time>2026-04-25T13:41:15.673Z</time></trkpt><trkpt lat="43.2770966" lon="10.7056676"><ele>64.66666666666667</ele><time>2026-04-25T13:41:16.625Z</time></trkpt><trkpt lat="43.2772693" lon="10.7057171"><ele>64.33333333333333</ele><time>2026-04-25T13:41:17.662Z</time></trkpt><trkpt lat="43.2774404" lon="10.7057635"><ele>64.0</ele><time>2026-04-25T13:41:18.654Z</time></trkpt><trkpt lat="43.2776113" lon="10.7058055"><ele>64.0</ele><time>2026-04-25T13:41:19.66Z</time></trkpt><trkpt lat="43.27778" lon="10.7058429"><ele>64.0</ele><time>2026-04-25T13:41:20.646Z</time></trkpt><trkpt lat="43.277954" lon="10.7058734"><ele>64.0</ele><time>2026-04-25T13:41:21.654Z</time></trkpt><trkpt lat="43.278134" lon="10.7058837"><ele>64.0</ele><time>2026-04-25T13:41:22.651Z</time></trkpt><trkpt lat="43.2783161" lon="10.7058788"><ele>64.0</ele><time>2026-04-25T13:41:23.669Z</time></trkpt><trkpt lat="43.2784976" lon="10.7058422"><ele>64.0</ele><time>2026-04-25T13:41:24.628Z</time></trkpt><trkpt lat="43.2786771" lon="10.7057755"><ele>64.0</ele><time>2026-04-25T13:41:25.65Z</time></trkpt><trkpt lat="43.2788582" lon="10.7056763"><ele>64.0</ele><time>2026-04-25T13:41:26.67Z</time></trkpt><trkpt lat="43.2792217" lon="10.7054631"><ele>66.0</ele><time>2026-04-25T13:41:28.642Z</time></trkpt><trkpt lat="43.2794" lon="10.7053633"><ele>68.0</ele><time>2026-04-25T13:41:29.666Z</time></trkpt><trkpt lat="43.2795771" lon="10.7052662"><ele>70.0</ele><time>2026-04-25T13:41:30.659Z</time></trkpt><trkpt lat="43.2797551" lon="10.7051636"><ele>69.0</ele><time>2026-04-25T13:41:31.657Z</time></trkpt><trkpt lat="43.2799342" lon="10.7050646"><ele>68.0</ele><time>2026-04-25T13:41:32.658Z</time></trkpt><trkpt lat="43.2801082" lon="10.7049704"><ele>67.0</ele><time>2026-04-25T13:41:33.663Z</time></trkpt><trkpt lat="43.28028" lon="10.7048771"><ele>67.0</ele><time>2026-04-25T13:41:34.676Z</time></trkpt><trkpt lat="43.2804448" lon="10.7047794"><ele>67.0</ele><time>2026-04-25T13:41:35.649Z</time></trkpt><trkpt lat="43.2806118" lon="10.704669"><ele>67.0</ele><time>2026-04-25T13:41:36.626Z</time></trkpt><trkpt lat="43.2807689" lon="10.7045425"><ele>65.0</ele><time>2026-04-25T13:41:37.659Z</time></trkpt><trkpt lat="43.2809165" lon="10.704395"><ele>63.0</ele><time>2026-04-25T13:41:38.627Z</time></trkpt><trkpt lat="43.2810627" lon="10.7042317"><ele>61.0</ele><time>2026-04-25T13:41:39.65Z</time></trkpt><trkpt lat="43.2812038" lon="10.7040653"><ele>61.0</ele><time>2026-04-25T13:41:40.644Z</time></trkpt><trkpt lat="43.2813467" lon="10.7039004"><ele>61.0</ele><time>2026-04-25T13:41:41.63Z</time></trkpt><trkpt lat="43.281489" lon="10.7037298"><ele>61.0</ele><time>2026-04-25T13:41:42.648Z</time></trkpt><trkpt lat="43.2816276" lon="10.7035531"><ele>60.33333333333333</ele><time>2026-04-25T13:41:43.658Z</time></trkpt><trkpt lat="43.2817669" lon="10.7033753"><ele>59.66666666666667</ele><time>2026-04-25T13:41:44.654Z</time></trkpt><trkpt lat="43.281909" lon="10.7032068"><ele>59.0</ele><time>2026-04-25T13:41:45.645Z</time></trkpt><trkpt lat="43.2820491" lon="10.7030335"><ele>59.0</ele><time>2026-04-25T13:41:46.652Z</time></trkpt><trkpt lat="43.2821875" lon="10.7028578"><ele>59.0</ele><time>2026-04-25T13:41:47.663Z</time></trkpt><trkpt lat="43.2824656" lon="10.7025096"><ele>60.66666666666667</ele><time>2026-04-25T13:41:49.654Z</time></trkpt><trkpt lat="43.282606" lon="10.7023342"><ele>62.33333333333333</ele><time>2026-04-25T13:41:50.66Z</time></trkpt><trkpt lat="43.2827472" lon="10.7021709"><ele>64.0</ele><time>2026-04-25T13:41:51.654Z</time></trkpt><trkpt lat="43.2828926" lon="10.7020218"><ele>62.33333333333333</ele><time>2026-04-25T13:41:52.631Z</time></trkpt><trkpt lat="43.2830422" lon="10.7018937"><ele>60.66666666666667</ele><time>2026-04-25T13:41:53.623Z</time></trkpt><trkpt lat="43.2832007" lon="10.7017768"><ele>59.0</ele><time>2026-04-25T13:41:54.661Z</time></trkpt><trkpt lat="43.2833622" lon="10.7016716"><ele>59.0</ele><time>2026-04-25T13:41:55.663Z</time></trkpt><trkpt lat="43.283524" lon="10.7015655"><ele>59.0</ele><time>2026-04-25T13:41:56.654Z</time></trkpt><trkpt lat="43.2836817" lon="10.7014603"><ele>59.0</ele><time>2026-04-25T13:41:57.654Z</time></trkpt><trkpt lat="43.2838424" lon="10.7013525"><ele>59.66666666666667</ele><time>2026-04-25T13:41:58.658Z</time></trkpt><trkpt lat="43.2840042" lon="10.7012404"><ele>60.33333333333333</ele><time>2026-04-25T13:41:59.659Z</time></trkpt><trkpt lat="43.2841627" lon="10.7011278"><ele>61.0</ele><time>2026-04-25T13:42:00.656Z</time></trkpt><trkpt lat="43.2843194" lon="10.7010169"><ele>60.0</ele><time>2026-04-25T13:42:01.644Z</time></trkpt><trkpt lat="43.2844765" lon="10.7009166"><ele>59.0</ele><time>2026-04-25T13:42:02.664Z</time></trkpt><trkpt lat="43.2846352" lon="10.7008216"><ele>58.0</ele><time>2026-04-25T13:42:03.669Z</time></trkpt><trkpt lat="43.2847959" lon="10.7007178"><ele>58.0</ele><time>2026-04-25T13:42:04.659Z</time></trkpt><trkpt lat="43.2849529" lon="10.7006132"><ele>58.0</ele><time>2026-04-25T13:42:05.673Z</time></trkpt><trkpt lat="43.2851108" lon="10.7005062"><ele>58.0</ele><time>2026-04-25T13:42:06.663Z</time></trkpt><trkpt lat="43.2852733" lon="10.700398"><ele>58.0</ele><time>2026-04-25T13:42:07.638Z</time></trkpt><trkpt lat="43.2854387" lon="10.700285"><ele>58.0</ele><time>2026-04-25T13:42:08.662Z</time></trkpt><trkpt lat="43.2857786" lon="10.7000435"><ele>58.0</ele><time>2026-04-25T13:42:10.644Z</time></trkpt><trkpt lat="43.2859537" lon="10.6999224"><ele>58.0</ele><time>2026-04-25T13:42:11.679Z</time></trkpt><trkpt lat="43.2861326" lon="10.6998031"><ele>58.0</ele><time>2026-04-25T13:42:12.632Z</time></trkpt><trkpt lat="43.2863136" lon="10.6996787"><ele>57.33333333333333</ele><time>2026-04-25T13:42:13.675Z</time></trkpt><trkpt lat="43.2864944" lon="10.6995579"><ele>56.66666666666667</ele><time>2026-04-25T13:42:14.632Z</time></trkpt><trkpt lat="43.2866768" lon="10.6994434"><ele>56.0</ele><time>2026-04-25T13:42:15.666Z</time></trkpt><trkpt lat="43.2868628" lon="10.6993354"><ele>56.0</ele><time>2026-04-25T13:42:16.66Z</time></trkpt><trkpt lat="43.2870534" lon="10.6992428"><ele>56.0</ele><time>2026-04-25T13:42:17.654Z</time></trkpt><trkpt lat="43.2872435" lon="10.6991744"><ele>56.0</ele><time>2026-04-25T13:42:18.651Z</time></trkpt><trkpt lat="43.2874431" lon="10.6991291"><ele>56.333333333333336</ele><time>2026-04-25T13:42:19.646Z</time></trkpt><trkpt lat="43.2876471" lon="10.6990936"><ele>56.66666666666667</ele><time>2026-04-25T13:42:20.651Z</time></trkpt><trkpt lat="43.2878498" lon="10.6990613"><ele>57.0</ele><time>2026-04-25T13:42:21.648Z</time></trkpt><trkpt lat="43.2880583" lon="10.6990431"><ele>57.0</ele><time>2026-04-25T13:42:22.663Z</time></trkpt><trkpt lat="43.2882631" lon="10.6990583"><ele>57.0</ele><time>2026-04-25T13:42:23.667Z</time></trkpt><trkpt lat="43.2884672" lon="10.6990777"><ele>57.0</ele><time>2026-04-25T13:42:24.648Z</time></trkpt><trkpt lat="43.2886763" lon="10.6991003"><ele>57.0</ele><time>2026-04-25T13:42:25.658Z</time></trkpt><trkpt lat="43.2888828" lon="10.6991168"><ele>57.0</ele><time>2026-04-25T13:42:26.66Z</time></trkpt><trkpt lat="43.289087" lon="10.699131"><ele>57.0</ele><time>2026-04-25T13:42:27.661Z</time></trkpt><trkpt lat="43.2892878" lon="10.6991393"><ele>56.0</ele><time>2026-04-25T13:42:28.644Z</time></trkpt><trkpt lat="43.2894979" lon="10.6991548"><ele>55.0</ele><time>2026-04-25T13:42:29.653Z</time></trkpt><trkpt lat="43.289889" lon="10.6991894"><ele>54.33333333333333</ele><time>2026-04-25T13:42:31.651Z</time></trkpt><trkpt lat="43.2900714" lon="10.6992032"><ele>53.66666666666667</ele><time>2026-04-25T13:42:32.651Z</time></trkpt><trkpt lat="43.2902562" lon="10.6992166"><ele>53.0</ele><time>2026-04-25T13:42:33.661Z</time></trkpt><trkpt lat="43.2904452" lon="10.6992301"><ele>52.0</ele><time>2026-04-25T13:42:34.632Z</time></trkpt><trkpt lat="43.2906416" lon="10.6992403"><ele>51.0</ele><time>2026-04-25T13:42:35.643Z</time></trkpt><trkpt lat="43.2908378" lon="10.6992495"><ele>50.0</ele><time>2026-04-25T13:42:36.63Z</time></trkpt><trkpt lat="43.2910349" lon="10.6992597"><ele>50.0</ele><time>2026-04-25T13:42:37.667Z</time></trkpt><trkpt lat="43.2912341" lon="10.6992695"><ele>50.0</ele><time>2026-04-25T13:42:38.665Z</time></trkpt><trkpt lat="43.2914351" lon="10.6992705"><ele>50.0</ele><time>2026-04-25T13:42:39.638Z</time></trkpt><trkpt lat="43.2916408" lon="10.6992526"><ele>50.66666666666667</ele><time>2026-04-25T13:42:40.65Z</time></trkpt><trkpt lat="43.2918527" lon="10.6991987"><ele>51.33333333333333</ele><time>2026-04-25T13:42:41.653Z</time></trkpt><trkpt lat="43.2920628" lon="10.6991155"><ele>52.0</ele><time>2026-04-25T13:42:42.654Z</time></trkpt><trkpt lat="43.2922692" lon="10.6990293"><ele>54.0</ele><time>2026-04-25T13:42:43.637Z</time></trkpt><trkpt lat="43.2924766" lon="10.6989375"><ele>56.0</ele><time>2026-04-25T13:42:44.638Z</time></trkpt><trkpt lat="43.2926766" lon="10.6988567"><ele>58.0</ele><time>2026-04-25T13:42:45.648Z</time></trkpt><trkpt lat="43.2928718" lon="10.6987755"><ele>58.0</ele><time>2026-04-25T13:42:46.646Z</time></trkpt><trkpt lat="43.2930627" lon="10.6986931"><ele>58.0</ele><time>2026-04-25T13:42:47.74Z</time></trkpt><trkpt lat="43.2932555" lon="10.6986101"><ele>58.0</ele><time>2026-04-25T13:42:48.646Z</time></trkpt><trkpt lat="43.2934505" lon="10.6985213"><ele>54.5</ele><time>2026-04-25T13:42:49.635Z</time></trkpt><trkpt lat="43.2936437" lon="10.6984284"><ele>51.0</ele><time>2026-04-25T13:42:50.643Z</time></trkpt><trkpt lat="43.2940189" lon="10.6981951"><ele>51.0</ele><time>2026-04-25T13:42:52.647Z</time></trkpt><trkpt lat="43.2941862" lon="10.6980471"><ele>51.0</ele><time>2026-04-25T13:42:53.646Z</time></trkpt><trkpt lat="43.294349" lon="10.6978884"><ele>51.0</ele><time>2026-04-25T13:42:54.745Z</time></trkpt><trkpt lat="43.2945218" lon="10.6977293"><ele>51.0</ele><time>2026-04-25T13:42:55.658Z</time></trkpt><trkpt lat="43.2946996" lon="10.6975696"><ele>51.0</ele><time>2026-04-25T13:42:56.662Z</time></trkpt><trkpt lat="43.2948885" lon="10.697401"><ele>51.0</ele><time>2026-04-25T13:42:57.669Z</time></trkpt><trkpt lat="43.2950772" lon="10.6972337"><ele>51.0</ele><time>2026-04-25T13:42:58.654Z</time></trkpt><trkpt lat="43.2952701" lon="10.6970587"><ele>51.0</ele><time>2026-04-25T13:42:59.664Z</time></trkpt><trkpt lat="43.2954622" lon="10.6968819"><ele>51.5</ele><time>2026-04-25T13:43:00.756Z</time></trkpt><trkpt lat="43.2956562" lon="10.6967067"><ele>52.0</ele><time>2026-04-25T13:43:01.742Z</time></trkpt><trkpt lat="43.2958471" lon="10.6965291"><ele>52.0</ele><time>2026-04-25T13:43:02.653Z</time></trkpt><trkpt lat="43.2960393" lon="10.6963525"><ele>52.0</ele><time>2026-04-25T13:43:03.654Z</time></trkpt><trkpt lat="43.2962331" lon="10.6961756"><ele>51.0</ele><time>2026-04-25T13:43:04.616Z</time></trkpt><trkpt lat="43.296424" lon="10.6960018"><ele>50.0</ele><time>2026-04-25T13:43:05.652Z</time></trkpt><trkpt lat="43.2966157" lon="10.6958301"><ele>50.0</ele><time>2026-04-25T13:43:06.74Z</time></trkpt><trkpt lat="43.296809" lon="10.6956562"><ele>50.0</ele><time>2026-04-25T13:43:07.739Z</time></trkpt><trkpt lat="43.2970011" lon="10.6954855"><ele>50.0</ele><time>2026-04-25T13:43:08.743Z</time></trkpt><trkpt lat="43.2973959" lon="10.6951296"><ele>50.0</ele><time>2026-04-25T13:43:10.653Z</time></trkpt><trkpt lat="43.2975931" lon="10.6949569"><ele>50.0</ele><time>2026-04-25T13:43:11.654Z</time></trkpt><trkpt lat="43.2979904" lon="10.6945907"><ele>48.0</ele><time>2026-04-25T13:43:13.745Z</time></trkpt><trkpt lat="43.2981895" lon="10.6944139"><ele>46.0</ele><time>2026-04-25T13:43:14.729Z</time></trkpt><trkpt lat="43.2983897" lon="10.6942358"><ele>46.0</ele><time>2026-04-25T13:43:15.751Z</time></trkpt><trkpt lat="43.2987895" lon="10.6938745"><ele>46.0</ele><time>2026-04-25T13:43:17.656Z</time></trkpt><trkpt lat="43.2989896" lon="10.6936967"><ele>46.0</ele><time>2026-04-25T13:43:18.743Z</time></trkpt><trkpt lat="43.2991874" lon="10.6935164"><ele>46.0</ele><time>2026-04-25T13:43:19.727Z</time></trkpt><trkpt lat="43.2993845" lon="10.6933396"><ele>46.0</ele><time>2026-04-25T13:43:20.744Z</time></trkpt><trkpt lat="43.2995806" lon="10.6931665"><ele>47.5</ele><time>2026-04-25T13:43:21.75Z</time></trkpt><trkpt lat="43.2997781" lon="10.6929924"><ele>49.0</ele><time>2026-04-25T13:43:22.744Z</time></trkpt><trkpt lat="43.2999726" lon="10.6928186"><ele>48.0</ele><time>2026-04-25T13:43:23.648Z</time></trkpt><trkpt lat="43.3001629" lon="10.69264"><ele>47.0</ele><time>2026-04-25T13:43:24.661Z</time></trkpt><trkpt lat="43.3003474" lon="10.692463"><ele>47.0</ele><time>2026-04-25T13:43:25.735Z</time></trkpt><trkpt lat="43.3005283" lon="10.6922751"><ele>47.0</ele><time>2026-04-25T13:43:26.74Z</time></trkpt><trkpt lat="43.3007035" lon="10.692075"><ele>48.0</ele><time>2026-04-25T13:43:27.737Z</time></trkpt><trkpt lat="43.3008727" lon="10.6918554"><ele>49.0</ele><time>2026-04-25T13:43:28.739Z</time></trkpt><trkpt lat="43.3010329" lon="10.6916159"><ele>49.0</ele><time>2026-04-25T13:43:29.713Z</time></trkpt><trkpt lat="43.301184" lon="10.6913622"><ele>49.0</ele><time>2026-04-25T13:43:30.659Z</time></trkpt><trkpt lat="43.3013304" lon="10.6911105"><ele>48.0</ele><time>2026-04-25T13:43:31.76Z</time></trkpt><trkpt lat="43.3016311" lon="10.6906122"><ele>48.0</ele><time>2026-04-25T13:43:33.739Z</time></trkpt><trkpt lat="43.3017786" lon="10.690368"><ele>48.0</ele><time>2026-04-25T13:43:34.733Z</time></trkpt><trkpt lat="43.3019287" lon="10.690129"><ele>46.0</ele><time>2026-04-25T13:43:35.734Z</time></trkpt><trkpt lat="43.3020796" lon="10.6898864"><ele>44.0</ele><time>2026-04-25T13:43:36.756Z</time></trkpt><trkpt lat="43.302396" lon="10.6894299"><ele>45.0</ele><time>2026-04-25T13:43:38.751Z</time></trkpt><trkpt lat="43.3025644" lon="10.6892086"><ele>46.0</ele><time>2026-04-25T13:43:39.744Z</time></trkpt><trkpt lat="43.3027408" lon="10.6889964"><ele>46.0</ele><time>2026-04-25T13:43:40.75Z</time></trkpt><trkpt lat="43.3029255" lon="10.6887922"><ele>46.0</ele><time>2026-04-25T13:43:41.752Z</time></trkpt><trkpt lat="43.3031112" lon="10.6885984"><ele>46.0</ele><time>2026-04-25T13:43:42.74Z</time></trkpt><trkpt lat="43.3033008" lon="10.6884034"><ele>46.0</ele><time>2026-04-25T13:43:43.736Z</time></trkpt><trkpt lat="43.303496" lon="10.6881987"><ele>46.0</ele><time>2026-04-25T13:43:44.751Z</time></trkpt><trkpt lat="43.3036878" lon="10.6879955"><ele>46.0</ele><time>2026-04-25T13:43:45.718Z</time></trkpt><trkpt lat="43.3038731" lon="10.6877954"><ele>47.0</ele><time>2026-04-25T13:43:46.731Z</time></trkpt><trkpt lat="43.3040557" lon="10.6875944"><ele>48.0</ele><time>2026-04-25T13:43:47.732Z</time></trkpt><trkpt lat="43.3042369" lon="10.6873968"><ele>48.0</ele><time>2026-04-25T13:43:48.749Z</time></trkpt><trkpt lat="43.3044204" lon="10.6872026"><ele>48.0</ele><time>2026-04-25T13:43:49.735Z</time></trkpt><trkpt lat="43.3046067" lon="10.6870086"><ele>47.0</ele><time>2026-04-25T13:43:50.744Z</time></trkpt><trkpt lat="43.3047935" lon="10.6868175"><ele>46.0</ele><time>2026-04-25T13:43:51.738Z</time></trkpt><trkpt lat="43.3049784" lon="10.6866224"><ele>46.0</ele><time>2026-04-25T13:43:52.754Z</time></trkpt><trkpt lat="43.3053421" lon="10.6862346"><ele>45.5</ele><time>2026-04-25T13:43:54.737Z</time></trkpt><trkpt lat="43.3055208" lon="10.6860333"><ele>45.0</ele><time>2026-04-25T13:43:55.761Z</time></trkpt><trkpt lat="43.305687" lon="10.6858126"><ele>45.0</ele><time>2026-04-25T13:43:56.741Z</time></trkpt><trkpt lat="43.3058413" lon="10.685574"><ele>45.0</ele><time>2026-04-25T13:43:57.754Z</time></trkpt><trkpt lat="43.3059906" lon="10.6853108"><ele>44.0</ele><time>2026-04-25T13:43:58.741Z</time></trkpt><trkpt lat="43.3061331" lon="10.685048"><ele>43.0</ele><time>2026-04-25T13:43:59.758Z</time></trkpt><trkpt lat="43.3062687" lon="10.6847874"><ele>43.0</ele><time>2026-04-25T13:44:00.745Z</time></trkpt><trkpt lat="43.3064038" lon="10.6845276"><ele>43.0</ele><time>2026-04-25T13:44:01.744Z</time></trkpt><trkpt lat="43.3065445" lon="10.684266"><ele>43.5</ele><time>2026-04-25T13:44:02.744Z</time></trkpt><trkpt lat="43.3066841" lon="10.6840097"><ele>44.0</ele><time>2026-04-25T13:44:03.727Z</time></trkpt><trkpt lat="43.3068227" lon="10.6837506"><ele>43.5</ele><time>2026-04-25T13:44:04.75Z</time></trkpt><trkpt lat="43.3069622" lon="10.6834923"><ele>43.0</ele><time>2026-04-25T13:44:05.749Z</time></trkpt><trkpt lat="43.307101" lon="10.683239"><ele>43.0</ele><time>2026-04-25T13:44:06.737Z</time></trkpt><trkpt lat="43.3072366" lon="10.6829922"><ele>43.0</ele><time>2026-04-25T13:44:07.737Z</time></trkpt><trkpt lat="43.30737" lon="10.6827456"><ele>43.0</ele><time>2026-04-25T13:44:08.745Z</time></trkpt><trkpt lat="43.3074995" lon="10.6825031"><ele>42.66666666666667</ele><time>2026-04-25T13:44:09.735Z</time></trkpt><trkpt lat="43.3076285" lon="10.6822649"><ele>42.333333333333336</ele><time>2026-04-25T13:44:10.75Z</time></trkpt><trkpt lat="43.3077546" lon="10.6820337"><ele>42.0</ele><time>2026-04-25T13:44:11.72Z</time></trkpt><trkpt lat="43.3078796" lon="10.6818139"><ele>42.0</ele><time>2026-04-25T13:44:12.745Z</time></trkpt><trkpt lat="43.3080129" lon="10.681602"><ele>42.0</ele><time>2026-04-25T13:44:13.735Z</time></trkpt><trkpt lat="43.308287" lon="10.681221"><ele>42.333333333333336</ele><time>2026-04-25T13:44:15.728Z</time></trkpt><trkpt lat="43.3084301" lon="10.6810403"><ele>42.66666666666667</ele><time>2026-04-25T13:44:16.726Z</time></trkpt><trkpt lat="43.3085788" lon="10.6808605"><ele>43.0</ele><time>2026-04-25T13:44:17.722Z</time></trkpt><trkpt lat="43.3087288" lon="10.6806815"><ele>43.0</ele><time>2026-04-25T13:44:18.738Z</time></trkpt><trkpt lat="43.3088777" lon="10.6805008"><ele>43.0</ele><time>2026-04-25T13:44:19.732Z</time></trkpt><trkpt lat="43.3090333" lon="10.6803166"><ele>43.0</ele><time>2026-04-25T13:44:20.748Z</time></trkpt><trkpt lat="43.3091939" lon="10.6801273"><ele>42.0</ele><time>2026-04-25T13:44:21.731Z</time></trkpt><trkpt lat="43.3093574" lon="10.6799342"><ele>41.0</ele><time>2026-04-25T13:44:22.723Z</time></trkpt><trkpt lat="43.3095242" lon="10.6797397"><ele>40.0</ele><time>2026-04-25T13:44:23.728Z</time></trkpt><trkpt lat="43.3096925" lon="10.679541"><ele>39.66666666666667</ele><time>2026-04-25T13:44:24.714Z</time></trkpt><trkpt lat="43.3098619" lon="10.6793414"><ele>39.333333333333336</ele><time>2026-04-25T13:44:25.742Z</time></trkpt><trkpt lat="43.3100274" lon="10.679144"><ele>39.0</ele><time>2026-04-25T13:44:26.73Z</time></trkpt><trkpt lat="43.3101903" lon="10.6789474"><ele>39.0</ele><time>2026-04-25T13:44:27.734Z</time></trkpt><trkpt lat="43.3103547" lon="10.6787515"><ele>39.0</ele><time>2026-04-25T13:44:28.745Z</time></trkpt><trkpt lat="43.3105143" lon="10.6785615"><ele>39.0</ele><time>2026-04-25T13:44:29.75Z</time></trkpt><trkpt lat="43.3106696" lon="10.6783748"><ele>39.0</ele><time>2026-04-25T13:44:30.75Z</time></trkpt><trkpt lat="43.3108241" lon="10.6781913"><ele>39.0</ele><time>2026-04-25T13:44:31.726Z</time></trkpt><trkpt lat="43.3109755" lon="10.6780062"><ele>39.0</ele><time>2026-04-25T13:44:32.708Z</time></trkpt><trkpt lat="43.311126" lon="10.6778235"><ele>38.5</ele><time>2026-04-25T13:44:33.723Z</time></trkpt><trkpt lat="43.3112799" lon="10.677643"><ele>38.0</ele><time>2026-04-25T13:44:34.741Z</time></trkpt><trkpt lat="43.3115638" lon="10.6773008"><ele>37.666666666666664</ele><time>2026-04-25T13:44:36.738Z</time></trkpt><trkpt lat="43.3116903" lon="10.677149"><ele>37.333333333333336</ele><time>2026-04-25T13:44:37.728Z</time></trkpt><trkpt lat="43.3118087" lon="10.677014"><ele>37.0</ele><time>2026-04-25T13:44:38.742Z</time></trkpt><trkpt lat="43.3119167" lon="10.6768913"><ele>37.25</ele><time>2026-04-25T13:44:39.74Z</time></trkpt><trkpt lat="43.3120215" lon="10.6767684"><ele>37.5</ele><time>2026-04-25T13:44:40.739Z</time></trkpt><trkpt lat="43.3121193" lon="10.6766516"><ele>37.75</ele><time>2026-04-25T13:44:41.744Z</time></trkpt><trkpt lat="43.3122187" lon="10.6765351"><ele>38.0</ele><time>2026-04-25T13:44:42.741Z</time></trkpt><trkpt lat="43.3123209" lon="10.6764153"><ele>38.0</ele><time>2026-04-25T13:44:43.728Z</time></trkpt><trkpt lat="43.3124312" lon="10.676289"><ele>38.0</ele><time>2026-04-25T13:44:44.733Z</time></trkpt><trkpt lat="43.3125444" lon="10.6761567"><ele>38.0</ele><time>2026-04-25T13:44:45.731Z</time></trkpt><trkpt lat="43.312657" lon="10.6760262"><ele>38.0</ele><time>2026-04-25T13:44:46.716Z</time></trkpt><trkpt lat="43.3127674" lon="10.6758992"><ele>38.33333333333333</ele><time>2026-04-25T13:44:47.696Z</time></trkpt><trkpt lat="43.3128735" lon="10.6757739"><ele>38.666666666666664</ele><time>2026-04-25T13:44:48.73Z</time></trkpt><trkpt lat="43.3129836" lon="10.6756334"><ele>39.0</ele><time>2026-04-25T13:44:49.725Z</time></trkpt><trkpt lat="43.313099" lon="10.6754798"><ele>39.333333333333336</ele><time>2026-04-25T13:44:50.748Z</time></trkpt><trkpt lat="43.3132336" lon="10.6752964"><ele>39.66666666666667</ele><time>2026-04-25T13:44:51.722Z</time></trkpt><trkpt lat="43.3134004" lon="10.6751071"><ele>40.0</ele><time>2026-04-25T13:44:52.747Z</time></trkpt><trkpt lat="43.3135784" lon="10.6749124"><ele>40.333333333333336</ele><time>2026-04-25T13:44:53.748Z</time></trkpt><trkpt lat="43.3137555" lon="10.6747259"><ele>40.666666666666664</ele><time>2026-04-25T13:44:54.742Z</time></trkpt><trkpt lat="43.3139257" lon="10.674525"><ele>41.0</ele><time>2026-04-25T13:44:55.739Z</time></trkpt><trkpt lat="43.3142604" lon="10.6741353"><ele>41.0</ele><time>2026-04-25T13:44:57.734Z</time></trkpt><trkpt lat="43.3144323" lon="10.6739467"><ele>41.0</ele><time>2026-04-25T13:44:58.743Z</time></trkpt><trkpt lat="43.3146042" lon="10.6737713"><ele>41.0</ele><time>2026-04-25T13:44:59.744Z</time></trkpt><trkpt lat="43.3147796" lon="10.6736019"><ele>41.0</ele><time>2026-04-25T13:45:00.721Z</time></trkpt><trkpt lat="43.3149572" lon="10.6734407"><ele>41.0</ele><time>2026-04-25T13:45:01.739Z</time></trkpt><trkpt lat="43.3151369" lon="10.6732819"><ele>41.0</ele><time>2026-04-25T13:45:02.743Z</time></trkpt><trkpt lat="43.315315" lon="10.67312"><ele>41.0</ele><time>2026-04-25T13:45:03.729Z</time></trkpt><trkpt lat="43.3154857" lon="10.6729635"><ele>41.0</ele><time>2026-04-25T13:45:04.731Z</time></trkpt><trkpt lat="43.315662" lon="10.6728102"><ele>41.0</ele><time>2026-04-25T13:45:05.73Z</time></trkpt><trkpt lat="43.31584" lon="10.6726575"><ele>40.33333333333333</ele><time>2026-04-25T13:45:06.739Z</time></trkpt><trkpt lat="43.3160178" lon="10.672502"><ele>39.666666666666664</ele><time>2026-04-25T13:45:07.74Z</time></trkpt><trkpt lat="43.3161947" lon="10.672343"><ele>39.0</ele><time>2026-04-25T13:45:08.74Z</time></trkpt><trkpt lat="43.3163723" lon="10.6721837"><ele>39.0</ele><time>2026-04-25T13:45:09.744Z</time></trkpt><trkpt lat="43.3165539" lon="10.6720282"><ele>39.0</ele><time>2026-04-25T13:45:10.729Z</time></trkpt><trkpt lat="43.3167369" lon="10.6718706"><ele>39.0</ele><time>2026-04-25T13:45:11.73Z</time></trkpt><trkpt lat="43.316919" lon="10.6717149"><ele>39.0</ele><time>2026-04-25T13:45:12.734Z</time></trkpt><trkpt lat="43.3170982" lon="10.671562"><ele>39.0</ele><time>2026-04-25T13:45:13.725Z</time></trkpt><trkpt lat="43.3172777" lon="10.67141"><ele>39.0</ele><time>2026-04-25T13:45:14.735Z</time></trkpt><trkpt lat="43.3174577" lon="10.6712635"><ele>38.5</ele><time>2026-04-25T13:45:15.73Z</time></trkpt><trkpt lat="43.3176369" lon="10.6711242"><ele>38.0</ele><time>2026-04-25T13:45:16.728Z</time></trkpt><trkpt lat="43.3180139" lon="10.6708693"><ele>37.33333333333333</ele><time>2026-04-25T13:45:18.714Z</time></trkpt><trkpt lat="43.3182046" lon="10.6707567"><ele>36.666666666666664</ele><time>2026-04-25T13:45:19.722Z</time></trkpt><trkpt lat="43.318385" lon="10.6706465"><ele>36.0</ele><time>2026-04-25T13:45:20.733Z</time></trkpt><trkpt lat="43.3185712" lon="10.6705471"><ele>36.0</ele><time>2026-04-25T13:45:21.741Z</time></trkpt><trkpt lat="43.318755" lon="10.670463"><ele>36.0</ele><time>2026-04-25T13:45:22.732Z</time></trkpt><trkpt lat="43.3189365" lon="10.6703828"><ele>36.0</ele><time>2026-04-25T13:45:23.715Z</time></trkpt><trkpt lat="43.3191216" lon="10.6703084"><ele>35.666666666666664</ele><time>2026-04-25T13:45:24.731Z</time></trkpt><trkpt lat="43.3193097" lon="10.6702452"><ele>35.33333333333333</ele><time>2026-04-25T13:45:25.714Z</time></trkpt><trkpt lat="43.3195039" lon="10.6701839"><ele>35.0</ele><time>2026-04-25T13:45:26.727Z</time></trkpt><trkpt lat="43.3197032" lon="10.670125"><ele>35.666666666666664</ele><time>2026-04-25T13:45:27.729Z</time></trkpt><trkpt lat="43.3199051" lon="10.6700658"><ele>36.333333333333336</ele><time>2026-04-25T13:45:28.735Z</time></trkpt><trkpt lat="43.3201068" lon="10.6700144"><ele>37.0</ele><time>2026-04-25T13:45:29.736Z</time></trkpt><trkpt lat="43.3203073" lon="10.6699643"><ele>37.0</ele><time>2026-04-25T13:45:30.701Z</time></trkpt><trkpt lat="43.3205074" lon="10.6699206"><ele>37.0</ele><time>2026-04-25T13:45:31.732Z</time></trkpt><trkpt lat="43.320712" lon="10.6698843"><ele>37.0</ele><time>2026-04-25T13:45:32.712Z</time></trkpt><trkpt lat="43.320916" lon="10.6698682"><ele>37.0</ele><time>2026-04-25T13:45:33.73Z</time></trkpt><trkpt lat="43.3211219" lon="10.669859"><ele>37.0</ele><time>2026-04-25T13:45:34.729Z</time></trkpt><trkpt lat="43.3213291" lon="10.6698541"><ele>37.0</ele><time>2026-04-25T13:45:35.723Z</time></trkpt><trkpt lat="43.3215337" lon="10.6698514"><ele>37.0</ele><time>2026-04-25T13:45:36.73Z</time></trkpt><trkpt lat="43.3217409" lon="10.6698457"><ele>37.0</ele><time>2026-04-25T13:45:37.725Z</time></trkpt><trkpt lat="43.3221505" lon="10.66984"><ele>37.333333333333336</ele><time>2026-04-25T13:45:39.711Z</time></trkpt><trkpt lat="43.3223533" lon="10.6698392"><ele>37.666666666666664</ele><time>2026-04-25T13:45:40.71Z</time></trkpt><trkpt lat="43.3225528" lon="10.6698389"><ele>38.0</ele><time>2026-04-25T13:45:41.732Z</time></trkpt><trkpt lat="43.3227513" lon="10.6698389"><ele>38.0</ele><time>2026-04-25T13:45:42.73Z</time></trkpt><trkpt lat="43.3229464" lon="10.6698369"><ele>38.0</ele><time>2026-04-25T13:45:43.722Z</time></trkpt><trkpt lat="43.3231364" lon="10.6698348"><ele>38.0</ele><time>2026-04-25T13:45:44.7Z</time></trkpt><trkpt lat="43.3233157" lon="10.6698375"><ele>36.666666666666664</ele><time>2026-04-25T13:45:45.719Z</time></trkpt><trkpt lat="43.3234941" lon="10.6698365"><ele>35.333333333333336</ele><time>2026-04-25T13:45:46.727Z</time></trkpt><trkpt lat="43.3236707" lon="10.6698309"><ele>34.0</ele><time>2026-04-25T13:45:47.725Z</time></trkpt><trkpt lat="43.3238451" lon="10.6698288"><ele>34.66666666666667</ele><time>2026-04-25T13:45:48.72Z</time></trkpt><trkpt lat="43.3240201" lon="10.6698315"><ele>35.333333333333336</ele><time>2026-04-25T13:45:49.709Z</time></trkpt><trkpt lat="43.3242007" lon="10.6698343"><ele>36.0</ele><time>2026-04-25T13:45:50.741Z</time></trkpt><trkpt lat="43.3243812" lon="10.6698462"><ele>36.0</ele><time>2026-04-25T13:45:51.725Z</time></trkpt><trkpt lat="43.3245653" lon="10.6698692"><ele>36.0</ele><time>2026-04-25T13:45:52.7Z</time></trkpt><trkpt lat="43.3247573" lon="10.6699018"><ele>36.0</ele><time>2026-04-25T13:45:53.735Z</time></trkpt><trkpt lat="43.324959" lon="10.6699368"><ele>36.0</ele><time>2026-04-25T13:45:54.741Z</time></trkpt><trkpt lat="43.3251676" lon="10.6699838"><ele>36.0</ele><time>2026-04-25T13:45:55.723Z</time></trkpt><trkpt lat="43.3253819" lon="10.6700327"><ele>36.0</ele><time>2026-04-25T13:45:56.731Z</time></trkpt><trkpt lat="43.3256007" lon="10.6700725"><ele>36.0</ele><time>2026-04-25T13:45:57.733Z</time></trkpt><trkpt lat="43.325825" lon="10.6701128"><ele>36.0</ele><time>2026-04-25T13:45:58.697Z</time></trkpt><trkpt lat="43.326284" lon="10.6702057"><ele>35.5</ele><time>2026-04-25T13:46:00.738Z</time></trkpt><trkpt lat="43.3265102" lon="10.6702497"><ele>35.0</ele><time>2026-04-25T13:46:01.725Z</time></trkpt><trkpt lat="43.3267389" lon="10.6702903"><ele>36.5</ele><time>2026-04-25T13:46:02.734Z</time></trkpt><trkpt lat="43.3269678" lon="10.6703321"><ele>38.0</ele><time>2026-04-25T13:46:03.732Z</time></trkpt><trkpt lat="43.3271931" lon="10.6703744"><ele>37.666666666666664</ele><time>2026-04-25T13:46:04.732Z</time></trkpt><trkpt lat="43.3274162" lon="10.670414"><ele>37.333333333333336</ele><time>2026-04-25T13:46:05.709Z</time></trkpt><trkpt lat="43.3276295" lon="10.670453"><ele>37.0</ele><time>2026-04-25T13:46:06.741Z</time></trkpt><trkpt lat="43.3278291" lon="10.6704914"><ele>37.0</ele><time>2026-04-25T13:46:07.729Z</time></trkpt><trkpt lat="43.3280181" lon="10.6705314"><ele>37.0</ele><time>2026-04-25T13:46:08.704Z</time></trkpt><trkpt lat="43.3282007" lon="10.6705679"><ele>37.0</ele><time>2026-04-25T13:46:09.712Z</time></trkpt><trkpt lat="43.3283645" lon="10.6705944"><ele>36.75</ele><time>2026-04-25T13:46:10.707Z</time></trkpt><trkpt lat="43.32851" lon="10.6705967"><ele>36.5</ele><time>2026-04-25T13:46:11.739Z</time></trkpt><trkpt lat="43.3286381" lon="10.6705719"><ele>36.25</ele><time>2026-04-25T13:46:12.749Z</time></trkpt><trkpt lat="43.3287516" lon="10.670528"><ele>36.0</ele><time>2026-04-25T13:46:13.714Z</time></trkpt><trkpt lat="43.328853" lon="10.6704903"><ele>36.2</ele><time>2026-04-25T13:46:14.731Z</time></trkpt><trkpt lat="43.3289606" lon="10.6704911"><ele>36.400000000000006</ele><time>2026-04-25T13:46:15.714Z</time></trkpt><trkpt lat="43.329067" lon="10.6705429"><ele>36.6</ele><time>2026-04-25T13:46:16.731Z</time></trkpt><trkpt lat="43.3291705" lon="10.6705736"><ele>36.800000000000004</ele><time>2026-04-25T13:46:17.742Z</time></trkpt><trkpt lat="43.3292616" lon="10.6705271"><ele>37.0</ele><time>2026-04-25T13:46:18.71Z</time></trkpt><trkpt lat="43.3293183" lon="10.6704341"><ele>36.5</ele><time>2026-04-25T13:46:19.707Z</time></trkpt><trkpt lat="43.3292817" lon="10.6701894"><ele>36.0</ele><time>2026-04-25T13:46:21.712Z</time></trkpt><trkpt lat="43.3292337" lon="10.6700338"><ele>35.5</ele><time>2026-04-25T13:46:22.785Z</time></trkpt><trkpt lat="43.3291956" lon="10.6698581"><ele>35.0</ele><time>2026-04-25T13:46:23.721Z</time></trkpt><trkpt lat="43.3291628" lon="10.6696597"><ele>35.0</ele><time>2026-04-25T13:46:24.733Z</time></trkpt><trkpt lat="43.3291304" lon="10.6694593"><ele>35.0</ele><time>2026-04-25T13:46:25.709Z</time></trkpt><trkpt lat="43.3290995" lon="10.6692636"><ele>35.0</ele><time>2026-04-25T13:46:26.726Z</time></trkpt><trkpt lat="43.3290675" lon="10.669064"><ele>35.0</ele><time>2026-04-25T13:46:27.73Z</time></trkpt><trkpt lat="43.3290353" lon="10.6688731"><ele>34.75</ele><time>2026-04-25T13:46:28.743Z</time></trkpt><trkpt lat="43.3290057" lon="10.6686821"><ele>34.5</ele><time>2026-04-25T13:46:29.71Z</time></trkpt><trkpt lat="43.3289773" lon="10.668496"><ele>34.25</ele><time>2026-04-25T13:46:30.736Z</time></trkpt><trkpt lat="43.3289478" lon="10.6683148"><ele>34.0</ele><time>2026-04-25T13:46:31.721Z</time></trkpt><trkpt lat="43.3289233" lon="10.6681468"><ele>34.5</ele><time>2026-04-25T13:46:32.733Z</time></trkpt><trkpt lat="43.3288995" lon="10.668"><ele>35.0</ele><time>2026-04-25T13:46:33.739Z</time></trkpt><trkpt lat="43.328874" lon="10.6678548"><ele>35.5</ele><time>2026-04-25T13:46:34.734Z</time></trkpt><trkpt lat="43.3288449" lon="10.6676971"><ele>36.0</ele><time>2026-04-25T13:46:35.734Z</time></trkpt><trkpt lat="43.3288167" lon="10.6675379"><ele>36.25</ele><time>2026-04-25T13:46:36.723Z</time></trkpt><trkpt lat="43.3287915" lon="10.6673827"><ele>36.5</ele><time>2026-04-25T13:46:37.717Z</time></trkpt><trkpt lat="43.3287653" lon="10.6672255"><ele>36.75</ele><time>2026-04-25T13:46:38.722Z</time></trkpt><trkpt lat="43.3287405" lon="10.6670597"><ele>37.0</ele><time>2026-04-25T13:46:39.736Z</time></trkpt><trkpt lat="43.3287156" lon="10.666891"><ele>37.0</ele><time>2026-04-25T13:46:40.719Z</time></trkpt><trkpt lat="43.3286902" lon="10.6667238"><ele>37.0</ele><time>2026-04-25T13:46:41.711Z</time></trkpt><trkpt lat="43.3286487" lon="10.6663973"><ele>37.0</ele><time>2026-04-25T13:46:43.721Z</time></trkpt><trkpt lat="43.3286296" lon="10.666232"><ele>37.25</ele><time>2026-04-25T13:46:44.74Z</time></trkpt><trkpt lat="43.3286093" lon="10.6660627"><ele>37.5</ele><time>2026-04-25T13:46:45.724Z</time></trkpt><trkpt lat="43.3285866" lon="10.6658919"><ele>37.75</ele><time>2026-04-25T13:46:46.714Z</time></trkpt><trkpt lat="43.3285653" lon="10.6657145"><ele>38.0</ele><time>2026-04-25T13:46:47.73Z</time></trkpt><trkpt lat="43.3285473" lon="10.6655358"><ele>38.0</ele><time>2026-04-25T13:46:48.725Z</time></trkpt><trkpt lat="43.3285336" lon="10.6653555"><ele>38.0</ele><time>2026-04-25T13:46:49.713Z</time></trkpt><trkpt lat="43.3285253" lon="10.6651606"><ele>38.0</ele><time>2026-04-25T13:46:50.725Z</time></trkpt><trkpt lat="43.3285118" lon="10.6649413"><ele>38.0</ele><time>2026-04-25T13:46:51.717Z</time></trkpt><trkpt lat="43.3284938" lon="10.6647024"><ele>38.0</ele><time>2026-04-25T13:46:52.708Z</time></trkpt><trkpt lat="43.3284859" lon="10.6644723"><ele>38.0</ele><time>2026-04-25T13:46:53.723Z</time></trkpt><trkpt lat="43.3284791" lon="10.6642484"><ele>38.0</ele><time>2026-04-25T13:46:54.692Z</time></trkpt><trkpt lat="43.3284808" lon="10.664027"><ele>37.0</ele><time>2026-04-25T13:46:55.718Z</time></trkpt><trkpt lat="43.3284975" lon="10.6638082"><ele>36.0</ele><time>2026-04-25T13:46:56.74Z</time></trkpt><trkpt lat="43.3285349" lon="10.6635955"><ele>35.0</ele><time>2026-04-25T13:46:57.726Z</time></trkpt><trkpt lat="43.3286043" lon="10.6633727"><ele>35.0</ele><time>2026-04-25T13:46:58.736Z</time></trkpt><trkpt lat="43.3287034" lon="10.663137"><ele>35.0</ele><time>2026-04-25T13:46:59.731Z</time></trkpt><trkpt lat="43.3288327" lon="10.6629156"><ele>35.0</ele><time>2026-04-25T13:47:00.714Z</time></trkpt><trkpt lat="43.3289904" lon="10.6627158"><ele>35.0</ele><time>2026-04-25T13:47:01.731Z</time></trkpt><trkpt lat="43.3291771" lon="10.6625474"><ele>35.0</ele><time>2026-04-25T13:47:02.711Z</time></trkpt><trkpt lat="43.3296177" lon="10.6622862"><ele>36.5</ele><time>2026-04-25T13:47:04.708Z</time></trkpt><trkpt lat="43.329864" lon="10.6621662"><ele>38.0</ele><time>2026-04-25T13:47:05.708Z</time></trkpt><trkpt lat="43.3301326" lon="10.6620422"><ele>37.0</ele><time>2026-04-25T13:47:06.696Z</time></trkpt><trkpt lat="43.3304045" lon="10.661911"><ele>36.0</ele><time>2026-04-25T13:47:07.697Z</time></trkpt><trkpt lat="43.330668" lon="10.6617685"><ele>38.0</ele><time>2026-04-25T13:47:08.682Z</time></trkpt><trkpt lat="43.3309243" lon="10.6616039"><ele>40.0</ele><time>2026-04-25T13:47:09.714Z</time></trkpt><trkpt lat="43.3311618" lon="10.6614133"><ele>40.0</ele><time>2026-04-25T13:47:10.71Z</time></trkpt><trkpt lat="43.3313885" lon="10.6612096"><ele>40.0</ele><time>2026-04-25T13:47:11.723Z</time></trkpt><trkpt lat="43.3316109" lon="10.6609884"><ele>38.0</ele><time>2026-04-25T13:47:12.729Z</time></trkpt><trkpt lat="43.3318326" lon="10.6607407"><ele>36.0</ele><time>2026-04-25T13:47:13.703Z</time></trkpt><trkpt lat="43.3320511" lon="10.6604524"><ele>37.5</ele><time>2026-04-25T13:47:14.738Z</time></trkpt><trkpt lat="43.3322694" lon="10.6601221"><ele>39.0</ele><time>2026-04-25T13:47:15.707Z</time></trkpt><trkpt lat="43.3324782" lon="10.659765"><ele>37.0</ele><time>2026-04-25T13:47:16.726Z</time></trkpt><trkpt lat="43.3326938" lon="10.6593803"><ele>35.0</ele><time>2026-04-25T13:47:17.734Z</time></trkpt><trkpt lat="43.3329237" lon="10.6589837"><ele>33.5</ele><time>2026-04-25T13:47:18.712Z</time></trkpt><trkpt lat="43.3331537" lon="10.6585681"><ele>32.0</ele><time>2026-04-25T13:47:19.722Z</time></trkpt><trkpt lat="43.3333853" lon="10.6581356"><ele>32.0</ele><time>2026-04-25T13:47:20.74Z</time></trkpt><trkpt lat="43.3336242" lon="10.6576926"><ele>32.0</ele><time>2026-04-25T13:47:21.73Z</time></trkpt><trkpt lat="43.3338631" lon="10.6572505"><ele>32.5</ele><time>2026-04-25T13:47:22.715Z</time></trkpt><trkpt lat="43.3341062" lon="10.6568023"><ele>33.0</ele><time>2026-04-25T13:47:23.71Z</time></trkpt><trkpt lat="43.3346037" lon="10.6558919"><ele>33.0</ele><time>2026-04-25T13:47:25.718Z</time></trkpt><trkpt lat="43.3348473" lon="10.6554492"><ele>33.0</ele><time>2026-04-25T13:47:26.722Z</time></trkpt><trkpt lat="43.3350656" lon="10.6550541"><ele>33.0</ele><time>2026-04-25T13:47:27.694Z</time></trkpt><trkpt lat="43.3352558" lon="10.6547005"><ele>33.0</ele><time>2026-04-25T13:47:28.702Z</time></trkpt><trkpt lat="43.3354379" lon="10.6543718"><ele>35.5</ele><time>2026-04-25T13:47:29.717Z</time></trkpt><trkpt lat="43.3356111" lon="10.6540659"><ele>38.0</ele><time>2026-04-25T13:47:30.714Z</time></trkpt><trkpt lat="43.3357661" lon="10.6537873"><ele>36.33333333333333</ele><time>2026-04-25T13:47:31.715Z</time></trkpt><trkpt lat="43.3359079" lon="10.6535428"><ele>34.666666666666664</ele><time>2026-04-25T13:47:32.723Z</time></trkpt><trkpt lat="43.3360283" lon="10.6533371"><ele>33.0</ele><time>2026-04-25T13:47:33.719Z</time></trkpt><trkpt lat="43.3361322" lon="10.6531744"><ele>33.0</ele><time>2026-04-25T13:47:34.712Z</time></trkpt><trkpt lat="43.3362366" lon="10.6530587"><ele>33.0</ele><time>2026-04-25T13:47:35.713Z</time></trkpt><trkpt lat="43.3363479" lon="10.6530014"><ele>33.0</ele><time>2026-04-25T13:47:36.713Z</time></trkpt><trkpt lat="43.3364622" lon="10.652962"><ele>33.0</ele><time>2026-04-25T13:47:37.693Z</time></trkpt><trkpt lat="43.3365521" lon="10.6528719"><ele>33.0</ele><time>2026-04-25T13:47:38.719Z</time></trkpt><trkpt lat="43.336614" lon="10.6527033"><ele>33.0</ele><time>2026-04-25T13:47:39.718Z</time></trkpt><trkpt lat="43.3366473" lon="10.6525069"><ele>33.0</ele><time>2026-04-25T13:47:40.719Z</time></trkpt><trkpt lat="43.3367078" lon="10.652336"><ele>33.0</ele><time>2026-04-25T13:47:41.733Z</time></trkpt><trkpt lat="43.3368214" lon="10.6521359"><ele>32.666666666666664</ele><time>2026-04-25T13:47:42.711Z</time></trkpt><trkpt lat="43.3369667" lon="10.6519281"><ele>32.33333333333333</ele><time>2026-04-25T13:47:43.71Z</time></trkpt><trkpt lat="43.3371196" lon="10.6517179"><ele>32.0</ele><time>2026-04-25T13:47:44.718Z</time></trkpt><trkpt lat="43.3374023" lon="10.6513004"><ele>31.666666666666664</ele><time>2026-04-25T13:47:46.715Z</time></trkpt><trkpt lat="43.3375347" lon="10.6511183"><ele>31.333333333333336</ele><time>2026-04-25T13:47:47.719Z</time></trkpt><trkpt lat="43.3376643" lon="10.650938"><ele>31.0</ele><time>2026-04-25T13:47:48.723Z</time></trkpt><trkpt lat="43.3377931" lon="10.6507535"><ele>31.0</ele><time>2026-04-25T13:47:49.699Z</time></trkpt><trkpt lat="43.3379233" lon="10.6505584"><ele>31.0</ele><time>2026-04-25T13:47:50.725Z</time></trkpt><trkpt lat="43.3380514" lon="10.6503617"><ele>31.0</ele><time>2026-04-25T13:47:51.718Z</time></trkpt><trkpt lat="43.3381742" lon="10.6501514"><ele>31.333333333333336</ele><time>2026-04-25T13:47:52.714Z</time></trkpt><trkpt lat="43.3382892" lon="10.6499326"><ele>31.666666666666664</ele><time>2026-04-25T13:47:53.717Z</time></trkpt><trkpt lat="43.3384001" lon="10.6497111"><ele>32.0</ele><time>2026-04-25T13:47:54.688Z</time></trkpt><trkpt lat="43.3385031" lon="10.6494783"><ele>32.0</ele><time>2026-04-25T13:47:55.717Z</time></trkpt><trkpt lat="43.3386023" lon="10.6492382"><ele>32.0</ele><time>2026-04-25T13:47:56.709Z</time></trkpt><trkpt lat="43.3387005" lon="10.648996"><ele>32.0</ele><time>2026-04-25T13:47:57.708Z</time></trkpt><trkpt lat="43.3387938" lon="10.6487422"><ele>32.0</ele><time>2026-04-25T13:47:58.698Z</time></trkpt><trkpt lat="43.3388726" lon="10.6484812"><ele>32.0</ele><time>2026-04-25T13:47:59.712Z</time></trkpt><trkpt lat="43.3389456" lon="10.6482141"><ele>32.0</ele><time>2026-04-25T13:48:00.721Z</time></trkpt><trkpt lat="43.3390195" lon="10.6479452"><ele>32.0</ele><time>2026-04-25T13:48:01.716Z</time></trkpt><trkpt lat="43.3390842" lon="10.6476811"><ele>32.0</ele><time>2026-04-25T13:48:02.714Z</time></trkpt><trkpt lat="43.3391448" lon="10.647416"><ele>32.0</ele><time>2026-04-25T13:48:03.725Z</time></trkpt><trkpt lat="43.339203" lon="10.6471584"><ele>32.0</ele><time>2026-04-25T13:48:04.705Z</time></trkpt><trkpt lat="43.339267" lon="10.6469054"><ele>32.0</ele><time>2026-04-25T13:48:05.718Z</time></trkpt><trkpt lat="43.3393908" lon="10.6463981"><ele>32.0</ele><time>2026-04-25T13:48:07.724Z</time></trkpt><trkpt lat="43.339448" lon="10.6461447"><ele>32.0</ele><time>2026-04-25T13:48:08.719Z</time></trkpt><trkpt lat="43.3395057" lon="10.645892"><ele>32.0</ele><time>2026-04-25T13:48:09.719Z</time></trkpt><trkpt lat="43.3395658" lon="10.6456396"><ele>31.666666666666664</ele><time>2026-04-25T13:48:10.725Z</time></trkpt><trkpt lat="43.3396251" lon="10.6453851"><ele>31.333333333333336</ele><time>2026-04-25T13:48:11.714Z</time></trkpt><trkpt lat="43.3396832" lon="10.6451367"><ele>31.0</ele><time>2026-04-25T13:48:12.705Z</time></trkpt><trkpt lat="43.3397442" lon="10.6448818"><ele>31.0</ele><time>2026-04-25T13:48:13.726Z</time></trkpt><trkpt lat="43.3398081" lon="10.6446227"><ele>31.0</ele><time>2026-04-25T13:48:14.725Z</time></trkpt><trkpt lat="43.3398796" lon="10.6443558"><ele>31.0</ele><time>2026-04-25T13:48:15.718Z</time></trkpt><trkpt lat="43.3399572" lon="10.6440958"><ele>31.0</ele><time>2026-04-25T13:48:16.708Z</time></trkpt><trkpt lat="43.3400434" lon="10.6438364"><ele>31.0</ele><time>2026-04-25T13:48:17.717Z</time></trkpt><trkpt lat="43.340145" lon="10.6435836"><ele>31.0</ele><time>2026-04-25T13:48:18.706Z</time></trkpt><trkpt lat="43.3402603" lon="10.6433375"><ele>31.0</ele><time>2026-04-25T13:48:19.707Z</time></trkpt><trkpt lat="43.3403926" lon="10.6430973"><ele>31.0</ele><time>2026-04-25T13:48:20.712Z</time></trkpt><trkpt lat="43.3405426" lon="10.6428853"><ele>31.0</ele><time>2026-04-25T13:48:21.718Z</time></trkpt><trkpt lat="43.3407102" lon="10.6426837"><ele>30.666666666666668</ele><time>2026-04-25T13:48:22.713Z</time></trkpt><trkpt lat="43.3408787" lon="10.6424833"><ele>30.333333333333336</ele><time>2026-04-25T13:48:23.718Z</time></trkpt><trkpt lat="43.3410456" lon="10.6422774"><ele>30.0</ele><time>2026-04-25T13:48:24.721Z</time></trkpt><trkpt lat="43.3412159" lon="10.6420705"><ele>32.0</ele><time>2026-04-25T13:48:25.704Z</time></trkpt><trkpt lat="43.3413838" lon="10.6418695"><ele>34.0</ele><time>2026-04-25T13:48:26.695Z</time></trkpt><trkpt lat="43.3417255" lon="10.6414551"><ele>34.0</ele><time>2026-04-25T13:48:28.722Z</time></trkpt><trkpt lat="43.341898" lon="10.6412442"><ele>34.0</ele><time>2026-04-25T13:48:29.709Z</time></trkpt><trkpt lat="43.3420726" lon="10.6410345"><ele>36.5</ele><time>2026-04-25T13:48:30.678Z</time></trkpt><trkpt lat="43.3422515" lon="10.6408195"><ele>39.0</ele><time>2026-04-25T13:48:31.713Z</time></trkpt><trkpt lat="43.342431" lon="10.6406044"><ele>39.0</ele><time>2026-04-25T13:48:32.691Z</time></trkpt><trkpt lat="43.3426092" lon="10.6403835"><ele>39.0</ele><time>2026-04-25T13:48:33.712Z</time></trkpt><trkpt lat="43.3427847" lon="10.6401596"><ele>36.0</ele><time>2026-04-25T13:48:34.704Z</time></trkpt><trkpt lat="43.3429598" lon="10.6399298"><ele>33.0</ele><time>2026-04-25T13:48:35.717Z</time></trkpt><trkpt lat="43.343128" lon="10.639694"><ele>33.0</ele><time>2026-04-25T13:48:36.708Z</time></trkpt><trkpt lat="43.3432906" lon="10.6394546"><ele>33.0</ele><time>2026-04-25T13:48:37.714Z</time></trkpt><trkpt lat="43.3434463" lon="10.6392081"><ele>33.0</ele><time>2026-04-25T13:48:38.711Z</time></trkpt><trkpt lat="43.3435959" lon="10.6389488"><ele>33.0</ele><time>2026-04-25T13:48:39.689Z</time></trkpt><trkpt lat="43.3437349" lon="10.6386798"><ele>31.0</ele><time>2026-04-25T13:48:40.711Z</time></trkpt><trkpt lat="43.3438622" lon="10.6384047"><ele>29.0</ele><time>2026-04-25T13:48:41.7Z</time></trkpt><trkpt lat="43.3439837" lon="10.6381266"><ele>31.0</ele><time>2026-04-25T13:48:42.702Z</time></trkpt><trkpt lat="43.3441085" lon="10.6378347"><ele>33.0</ele><time>2026-04-25T13:48:43.713Z</time></trkpt><trkpt lat="43.344238" lon="10.6375343"><ele>33.0</ele><time>2026-04-25T13:48:44.708Z</time></trkpt><trkpt lat="43.3443739" lon="10.6372287"><ele>33.0</ele><time>2026-04-25T13:48:45.711Z</time></trkpt><trkpt lat="43.3445177" lon="10.6369208"><ele>34.5</ele><time>2026-04-25T13:48:46.677Z</time></trkpt><trkpt lat="43.3446673" lon="10.6366289"><ele>36.0</ele><time>2026-04-25T13:48:47.709Z</time></trkpt><trkpt lat="43.3449698" lon="10.6360727"><ele>36.0</ele><time>2026-04-25T13:48:49.717Z</time></trkpt><trkpt lat="43.3451255" lon="10.6358006"><ele>36.0</ele><time>2026-04-25T13:48:50.674Z</time></trkpt><trkpt lat="43.345277" lon="10.6355292"><ele>34.0</ele><time>2026-04-25T13:48:51.704Z</time></trkpt><trkpt lat="43.3454238" lon="10.6352595"><ele>32.0</ele><time>2026-04-25T13:48:52.708Z</time></trkpt><trkpt lat="43.3455756" lon="10.634996"><ele>36.0</ele><time>2026-04-25T13:48:53.721Z</time></trkpt><trkpt lat="43.3457303" lon="10.6347381"><ele>40.0</ele><time>2026-04-25T13:48:54.71Z</time></trkpt><trkpt lat="43.3458835" lon="10.6344811"><ele>35.0</ele><time>2026-04-25T13:48:55.714Z</time></trkpt><trkpt lat="43.3460384" lon="10.6342261"><ele>30.0</ele><time>2026-04-25T13:48:56.709Z</time></trkpt><trkpt lat="43.3461956" lon="10.6339755"><ele>30.0</ele><time>2026-04-25T13:48:57.693Z</time></trkpt><trkpt lat="43.3463538" lon="10.6337292"><ele>30.0</ele><time>2026-04-25T13:48:58.707Z</time></trkpt><trkpt lat="43.3465118" lon="10.6334896"><ele>31.5</ele><time>2026-04-25T13:48:59.711Z</time></trkpt><trkpt lat="43.3466673" lon="10.6332487"><ele>33.0</ele><time>2026-04-25T13:49:00.692Z</time></trkpt><trkpt lat="43.3468193" lon="10.6330081"><ele>31.0</ele><time>2026-04-25T13:49:01.715Z</time></trkpt><trkpt lat="43.3469727" lon="10.6327653"><ele>29.0</ele><time>2026-04-25T13:49:02.697Z</time></trkpt><trkpt lat="43.3471269" lon="10.6325229"><ele>32.0</ele><time>2026-04-25T13:49:03.702Z</time></trkpt><trkpt lat="43.3472801" lon="10.6322785"><ele>35.0</ele><time>2026-04-25T13:49:04.704Z</time></trkpt><trkpt lat="43.3474355" lon="10.6320314"><ele>33.5</ele><time>2026-04-25T13:49:05.711Z</time></trkpt><trkpt lat="43.3475896" lon="10.631783"><ele>32.0</ele><time>2026-04-25T13:49:06.715Z</time></trkpt><trkpt lat="43.3477448" lon="10.6315338"><ele>32.0</ele><time>2026-04-25T13:49:07.719Z</time></trkpt><trkpt lat="43.3479023" lon="10.6312789"><ele>32.0</ele><time>2026-04-25T13:49:08.709Z</time></trkpt><trkpt lat="43.3482045" lon="10.6307548"><ele>31.0</ele><time>2026-04-25T13:49:10.691Z</time></trkpt><trkpt lat="43.3483519" lon="10.6304914"><ele>30.0</ele><time>2026-04-25T13:49:11.7Z</time></trkpt><trkpt lat="43.348499" lon="10.630228"><ele>30.0</ele><time>2026-04-25T13:49:12.711Z</time></trkpt><trkpt lat="43.3486459" lon="10.6299624"><ele>30.0</ele><time>2026-04-25T13:49:13.681Z</time></trkpt><trkpt lat="43.3487882" lon="10.6297001"><ele>31.5</ele><time>2026-04-25T13:49:14.707Z</time></trkpt><trkpt lat="43.3489283" lon="10.6294389"><ele>33.0</ele><time>2026-04-25T13:49:15.71Z</time></trkpt><trkpt lat="43.3490653" lon="10.629178"><ele>33.0</ele><time>2026-04-25T13:49:16.704Z</time></trkpt><trkpt lat="43.3491969" lon="10.6289197"><ele>33.0</ele><time>2026-04-25T13:49:17.722Z</time></trkpt><trkpt lat="43.3493236" lon="10.6286662"><ele>33.333333333333336</ele><time>2026-04-25T13:49:18.706Z</time></trkpt><trkpt lat="43.3494444" lon="10.6284103"><ele>33.66666666666667</ele><time>2026-04-25T13:49:19.717Z</time></trkpt><trkpt lat="43.3495645" lon="10.6281563"><ele>34.0</ele><time>2026-04-25T13:49:20.711Z</time></trkpt><trkpt lat="43.3496789" lon="10.6279107"><ele>34.333333333333336</ele><time>2026-04-25T13:49:21.734Z</time></trkpt><trkpt lat="43.3497917" lon="10.6276685"><ele>34.666666666666664</ele><time>2026-04-25T13:49:22.702Z</time></trkpt><trkpt lat="43.3499012" lon="10.6274366"><ele>35.0</ele><time>2026-04-25T13:49:23.711Z</time></trkpt><trkpt lat="43.3500024" lon="10.6272191"><ele>35.0</ele><time>2026-04-25T13:49:24.699Z</time></trkpt><trkpt lat="43.3500973" lon="10.627014"><ele>35.0</ele><time>2026-04-25T13:49:25.709Z</time></trkpt><trkpt lat="43.3501836" lon="10.6268266"><ele>35.0</ele><time>2026-04-25T13:49:26.677Z</time></trkpt><trkpt lat="43.3502542" lon="10.6266647"><ele>35.0</ele><time>2026-04-25T13:49:27.704Z</time></trkpt><trkpt lat="43.3503332" lon="10.6265324"><ele>35.0</ele><time>2026-04-25T13:49:28.727Z</time></trkpt><trkpt lat="43.3504298" lon="10.6264575"><ele>35.0</ele><time>2026-04-25T13:49:29.693Z</time></trkpt><trkpt lat="43.3506013" lon="10.626312"><ele>35.0</ele><time>2026-04-25T13:49:31.679Z</time></trkpt><trkpt lat="43.3506277" lon="10.6261807"><ele>36.0</ele><time>2026-04-25T13:49:32.688Z</time></trkpt><trkpt lat="43.3506147" lon="10.6260563"><ele>37.0</ele><time>2026-04-25T13:49:33.693Z</time></trkpt><trkpt lat="43.3505489" lon="10.6259772"><ele>38.0</ele><time>2026-04-25T13:49:34.672Z</time></trkpt><trkpt lat="43.3504511" lon="10.6259526"><ele>39.0</ele><time>2026-04-25T13:49:35.722Z</time></trkpt><trkpt lat="43.3503538" lon="10.6259761"><ele>40.0</ele><time>2026-04-25T13:49:36.691Z</time></trkpt><trkpt lat="43.3502475" lon="10.6259816"><ele>40.0</ele><time>2026-04-25T13:49:37.709Z</time></trkpt><trkpt lat="43.3501381" lon="10.6259407"><ele>40.0</ele><time>2026-04-25T13:49:38.692Z</time></trkpt><trkpt lat="43.3500361" lon="10.6258723"><ele>40.0</ele><time>2026-04-25T13:49:39.682Z</time></trkpt><trkpt lat="43.3499307" lon="10.6258077"><ele>40.0</ele><time>2026-04-25T13:49:40.698Z</time></trkpt><trkpt lat="43.3498215" lon="10.6257444"><ele>38.0</ele><time>2026-04-25T13:49:41.701Z</time></trkpt><trkpt lat="43.3497074" lon="10.6256786"><ele>36.0</ele><time>2026-04-25T13:49:42.69Z</time></trkpt><trkpt lat="43.349594" lon="10.6255914"><ele>34.0</ele><time>2026-04-25T13:49:43.721Z</time></trkpt><trkpt lat="43.3494798" lon="10.6254827"><ele>32.0</ele><time>2026-04-25T13:49:44.673Z</time></trkpt><trkpt lat="43.3493604" lon="10.6253797"><ele>33.666666666666664</ele><time>2026-04-25T13:49:45.705Z</time></trkpt><trkpt lat="43.3492398" lon="10.6252659"><ele>35.333333333333336</ele><time>2026-04-25T13:49:46.695Z</time></trkpt><trkpt lat="43.3491174" lon="10.6251434"><ele>37.0</ele><time>2026-04-25T13:49:47.68Z</time></trkpt><trkpt lat="43.3489913" lon="10.6250095"><ele>35.66666666666667</ele><time>2026-04-25T13:49:48.701Z</time></trkpt><trkpt lat="43.3488679" lon="10.6248696"><ele>34.333333333333336</ele><time>2026-04-25T13:49:49.696Z</time></trkpt><trkpt lat="43.3487472" lon="10.624724"><ele>33.0</ele><time>2026-04-25T13:49:50.705Z</time></trkpt><trkpt lat="43.3485052" lon="10.6244243"><ele>33.0</ele><time>2026-04-25T13:49:52.705Z</time></trkpt><trkpt lat="43.3483834" lon="10.6242707"><ele>33.0</ele><time>2026-04-25T13:49:53.705Z</time></trkpt><trkpt lat="43.348262" lon="10.6241214"><ele>33.0</ele><time>2026-04-25T13:49:54.692Z</time></trkpt><trkpt lat="43.3481412" lon="10.6239725"><ele>33.0</ele><time>2026-04-25T13:49:55.709Z</time></trkpt><trkpt lat="43.3480207" lon="10.6238205"><ele>33.0</ele><time>2026-04-25T13:49:56.679Z</time></trkpt><trkpt lat="43.3479053" lon="10.6236745"><ele>33.0</ele><time>2026-04-25T13:49:57.705Z</time></trkpt><trkpt lat="43.3477977" lon="10.6235338"><ele>33.0</ele><time>2026-04-25T13:49:58.702Z</time></trkpt><trkpt lat="43.3476926" lon="10.623402"><ele>33.0</ele><time>2026-04-25T13:49:59.696Z</time></trkpt><trkpt lat="43.3475875" lon="10.6232706"><ele>33.0</ele><time>2026-04-25T13:50:00.685Z</time></trkpt><trkpt lat="43.347482" lon="10.6231373"><ele>33.0</ele><time>2026-04-25T13:50:01.683Z</time></trkpt><trkpt lat="43.3473793" lon="10.6230082"><ele>33.0</ele><time>2026-04-25T13:50:02.676Z</time></trkpt><trkpt lat="43.3472941" lon="10.622903"><ele>33.0</ele><time>2026-04-25T13:50:03.722Z</time></trkpt><trkpt lat="43.3472336" lon="10.6228296"><ele>33.0</ele><time>2026-04-25T13:50:04.706Z</time></trkpt><trkpt lat="43.3471838" lon="10.6227274"><ele>33.0</ele><time>2026-04-25T13:50:06.69Z</time></trkpt><trkpt lat="43.3472125" lon="10.6226264"><ele>33.0</ele><time>2026-04-25T13:50:09.705Z</time></trkpt><trkpt lat="43.3471935" lon="10.6225353"><ele>33.0</ele><time>2026-04-25T13:50:12.691Z</time></trkpt><trkpt lat="43.3470565" lon="10.6224418"><ele>32.5</ele><time>2026-04-25T13:50:18.707Z</time></trkpt><trkpt lat="43.3469877" lon="10.6223856"><ele>32.0</ele><time>2026-04-25T13:50:20.706Z</time></trkpt><trkpt lat="43.3469205" lon="10.6224245"><ele>31.5</ele><time>2026-04-25T13:50:23.691Z</time></trkpt><trkpt lat="43.3469469" lon="10.6225361"><ele>31.0</ele><time>2026-04-25T13:50:29.689Z</time></trkpt><trkpt lat="43.3469979" lon="10.6226011"><ele>30.5</ele><time>2026-04-25T13:50:30.684Z</time></trkpt><trkpt lat="43.3470651" lon="10.6226867"><ele>30.0</ele><time>2026-04-25T13:50:31.671Z</time></trkpt><trkpt lat="43.3471532" lon="10.6227959"><ele>31.0</ele><time>2026-04-25T13:50:32.665Z</time></trkpt><trkpt lat="43.3473538" lon="10.6230709"><ele>32.0</ele><time>2026-04-25T13:50:34.692Z</time></trkpt><trkpt lat="43.3474682" lon="10.6232057"><ele>33.0</ele><time>2026-04-25T13:50:35.71Z</time></trkpt><trkpt lat="43.3475696" lon="10.6233251"><ele>33.0</ele><time>2026-04-25T13:50:36.678Z</time></trkpt><trkpt lat="43.3476517" lon="10.6234283"><ele>33.0</ele><time>2026-04-25T13:50:37.701Z</time></trkpt><trkpt lat="43.3477107" lon="10.6234933"><ele>33.0</ele><time>2026-04-25T13:50:38.697Z</time></trkpt><trkpt lat="43.3477885" lon="10.6234644"><ele>33.0</ele><time>2026-04-25T13:50:40.698Z</time></trkpt><trkpt lat="43.3478018" lon="10.6233557"><ele>33.0</ele><time>2026-04-25T13:50:42.691Z</time></trkpt><trkpt lat="43.3478101" lon="10.6232198"><ele>33.0</ele><time>2026-04-25T13:50:44.687Z</time></trkpt><trkpt lat="43.3478109" lon="10.6231316"><ele>33.0</ele><time>2026-04-25T13:50:46.68Z</time></trkpt><trkpt lat="43.3478145" lon="10.6229869"><ele>33.0</ele><time>2026-04-25T13:50:49.698Z</time></trkpt><trkpt lat="43.3478148" lon="10.6228852"><ele>33.0</ele><time>2026-04-25T13:50:50.69Z</time></trkpt><trkpt lat="43.3478181" lon="10.6227604"><ele>33.0</ele><time>2026-04-25T13:50:51.699Z</time></trkpt><trkpt lat="43.3478286" lon="10.6226252"><ele>33.0</ele><time>2026-04-25T13:50:52.691Z</time></trkpt><trkpt lat="43.347844" lon="10.6225037"><ele>33.333333333333336</ele><time>2026-04-25T13:50:53.698Z</time></trkpt><trkpt lat="43.3478703" lon="10.6222316"><ele>33.66666666666667</ele><time>2026-04-25T13:50:55.671Z</time></trkpt><trkpt lat="43.3478436" lon="10.6220675"><ele>34.0</ele><time>2026-04-25T13:50:56.694Z</time></trkpt><trkpt lat="43.347802" lon="10.6218952"><ele>34.75</ele><time>2026-04-25T13:50:57.712Z</time></trkpt><trkpt lat="43.3477616" lon="10.6217097"><ele>35.5</ele><time>2026-04-25T13:50:58.701Z</time></trkpt><trkpt lat="43.3477353" lon="10.6215305"><ele>36.25</ele><time>2026-04-25T13:50:59.701Z</time></trkpt><trkpt lat="43.3477419" lon="10.6213656"><ele>37.0</ele><time>2026-04-25T13:51:00.691Z</time></trkpt><trkpt lat="43.3477661" lon="10.6212128"><ele>40.0</ele><time>2026-04-25T13:51:01.72Z</time></trkpt><trkpt lat="43.3477866" lon="10.6210522"><ele>43.0</ele><time>2026-04-25T13:51:02.7Z</time></trkpt><trkpt lat="43.3478021" lon="10.6208818"><ele>46.0</ele><time>2026-04-25T13:51:03.683Z</time></trkpt><trkpt lat="43.3478318" lon="10.6207144"><ele>49.0</ele><time>2026-04-25T13:51:04.695Z</time></trkpt><trkpt lat="43.3478678" lon="10.620542"><ele>49.0</ele><time>2026-04-25T13:51:05.702Z</time></trkpt><trkpt lat="43.3478945" lon="10.6203649"><ele>49.0</ele><time>2026-04-25T13:51:06.687Z</time></trkpt><trkpt lat="43.3479049" lon="10.6201954"><ele>49.0</ele><time>2026-04-25T13:51:07.684Z</time></trkpt><trkpt lat="43.3479049" lon="10.6200311"><ele>49.0</ele><time>2026-04-25T13:51:08.666Z</time></trkpt><trkpt lat="43.3478849" lon="10.61987"><ele>50.5</ele><time>2026-04-25T13:51:09.703Z</time></trkpt><trkpt lat="43.3478474" lon="10.6196998"><ele>52.0</ele><time>2026-04-25T13:51:10.688Z</time></trkpt><trkpt lat="43.3478126" lon="10.6195255"><ele>53.5</ele><time>2026-04-25T13:51:11.698Z</time></trkpt><trkpt lat="43.347779" lon="10.6193595"><ele>55.0</ele><time>2026-04-25T13:51:12.693Z</time></trkpt><trkpt lat="43.3477419" lon="10.6192005"><ele>58.0</ele><time>2026-04-25T13:51:13.706Z</time></trkpt><trkpt lat="43.3476771" lon="10.6190606"><ele>61.0</ele><time>2026-04-25T13:51:14.692Z</time></trkpt><trkpt lat="43.3475419" lon="10.6188194"><ele>64.0</ele><time>2026-04-25T13:51:16.682Z</time></trkpt><trkpt lat="43.3475344" lon="10.6187177"><ele>67.0</ele><time>2026-04-25T13:51:17.683Z</time></trkpt><trkpt lat="43.3475724" lon="10.6186367"><ele>69.5</ele><time>2026-04-25T13:51:18.692Z</time></trkpt><trkpt lat="43.3476268" lon="10.618563"><ele>72.0</ele><time>2026-04-25T13:51:19.707Z</time></trkpt><trkpt lat="43.347667" lon="10.6184419"><ele>74.5</ele><time>2026-04-25T13:51:20.664Z</time></trkpt><trkpt lat="43.3476844" lon="10.6182224"><ele>77.0</ele><time>2026-04-25T13:51:21.695Z</time></trkpt><trkpt lat="43.3476618" lon="10.6179509"><ele>80.0</ele><time>2026-04-25T13:51:22.655Z</time></trkpt><trkpt lat="43.3476393" lon="10.6176711"><ele>83.0</ele><time>2026-04-25T13:51:23.668Z</time></trkpt><trkpt lat="43.3476201" lon="10.617393"><ele>86.0</ele><time>2026-04-25T13:51:24.691Z</time></trkpt><trkpt lat="43.3475997" lon="10.6171646"><ele>86.0</ele><time>2026-04-25T13:51:25.697Z</time></trkpt><trkpt lat="43.3475763" lon="10.6169964"><ele>86.0</ele><time>2026-04-25T13:51:26.704Z</time></trkpt><trkpt lat="43.3475219" lon="10.6168868"><ele>86.0</ele><time>2026-04-25T13:51:27.686Z</time></trkpt><trkpt lat="43.3474423" lon="10.6168003"><ele>86.0</ele><time>2026-04-25T13:51:28.691Z</time></trkpt><trkpt lat="43.3474073" lon="10.6166953"><ele>86.0</ele><time>2026-04-25T13:51:29.7Z</time></trkpt><trkpt lat="43.3474288" lon="10.6165623"><ele>88.25</ele><time>2026-04-25T13:51:30.666Z</time></trkpt><trkpt lat="43.3474792" lon="10.6164087"><ele>90.5</ele><time>2026-04-25T13:51:31.679Z</time></trkpt><trkpt lat="43.347512" lon="10.6162543"><ele>92.75</ele><time>2026-04-25T13:51:32.691Z</time></trkpt><trkpt lat="43.3475566" lon="10.6161167"><ele>95.0</ele><time>2026-04-25T13:51:33.685Z</time></trkpt><trkpt lat="43.3476228" lon="10.615987"><ele>95.0</ele><time>2026-04-25T13:51:34.66Z</time></trkpt><trkpt lat="43.3477372" lon="10.6157292"><ele>95.0</ele><time>2026-04-25T13:51:36.687Z</time></trkpt><trkpt lat="43.3477936" lon="10.6155892"><ele>95.0</ele><time>2026-04-25T13:51:37.694Z</time></trkpt><trkpt lat="43.3478657" lon="10.6154445"><ele>93.25</ele><time>2026-04-25T13:51:38.68Z</time></trkpt><trkpt lat="43.3479518" lon="10.6153041"><ele>91.5</ele><time>2026-04-25T13:51:39.7Z</time></trkpt><trkpt lat="43.3480335" lon="10.6151673"><ele>89.75</ele><time>2026-04-25T13:51:40.683Z</time></trkpt><trkpt lat="43.3481081" lon="10.6150373"><ele>88.0</ele><time>2026-04-25T13:51:41.703Z</time></trkpt><trkpt lat="43.3481786" lon="10.6148938"><ele>92.75</ele><time>2026-04-25T13:51:42.696Z</time></trkpt><trkpt lat="43.3482507" lon="10.6147292"><ele>97.5</ele><time>2026-04-25T13:51:43.677Z</time></trkpt><trkpt lat="43.348327" lon="10.614545"><ele>102.25</ele><time>2026-04-25T13:51:44.695Z</time></trkpt><trkpt lat="43.3484051" lon="10.6143611"><ele>107.0</ele><time>2026-04-25T13:51:45.686Z</time></trkpt><trkpt lat="43.3484771" lon="10.6141901"><ele>107.0</ele><time>2026-04-25T13:51:46.68Z</time></trkpt><trkpt lat="43.3485544" lon="10.6140347"><ele>107.0</ele><time>2026-04-25T13:51:47.67Z</time></trkpt><trkpt lat="43.3486269" lon="10.6138809"><ele>107.0</ele><time>2026-04-25T13:51:48.659Z</time></trkpt><trkpt lat="43.3486905" lon="10.6137104"><ele>107.0</ele><time>2026-04-25T13:51:49.703Z</time></trkpt><trkpt lat="43.348744" lon="10.6134929"><ele>103.0</ele><time>2026-04-25T13:51:50.68Z</time></trkpt><trkpt lat="43.3487915" lon="10.6132451"><ele>99.0</ele><time>2026-04-25T13:51:51.683Z</time></trkpt><trkpt lat="43.3488494" lon="10.6130091"><ele>95.0</ele><time>2026-04-25T13:51:52.684Z</time></trkpt><trkpt lat="43.3489225" lon="10.6127925"><ele>104.33333333333334</ele><time>2026-04-25T13:51:53.679Z</time></trkpt><trkpt lat="43.3490015" lon="10.612603"><ele>113.66666666666667</ele><time>2026-04-25T13:51:54.694Z</time></trkpt><trkpt lat="43.3490831" lon="10.6124245"><ele>123.0</ele><time>2026-04-25T13:51:55.699Z</time></trkpt><trkpt lat="43.3492383" lon="10.6121098"><ele>125.0</ele><time>2026-04-25T13:51:57.68Z</time></trkpt><trkpt lat="43.3493117" lon="10.6119605"><ele>127.0</ele><time>2026-04-25T13:51:58.666Z</time></trkpt><trkpt lat="43.3493801" lon="10.6118148"><ele>129.0</ele><time>2026-04-25T13:51:59.688Z</time></trkpt><trkpt lat="43.3494521" lon="10.6116743"><ele>131.0</ele><time>2026-04-25T13:52:00.673Z</time></trkpt><trkpt lat="43.3495231" lon="10.6115323"><ele>131.0</ele><time>2026-04-25T13:52:01.664Z</time></trkpt><trkpt lat="43.3495954" lon="10.611387"><ele>131.0</ele><time>2026-04-25T13:52:02.671Z</time></trkpt><trkpt lat="43.349666" lon="10.611253"><ele>131.0</ele><time>2026-04-25T13:52:03.67Z</time></trkpt><trkpt lat="43.3497209" lon="10.611151"><ele>131.0</ele><time>2026-04-25T13:52:04.679Z</time></trkpt><trkpt lat="43.3497778" lon="10.611054"><ele>131.0</ele><time>2026-04-25T13:52:05.683Z</time></trkpt><trkpt lat="43.34984" lon="10.6109238"><ele>134.6</ele><time>2026-04-25T13:52:06.653Z</time></trkpt><trkpt lat="43.3499052" lon="10.6107832"><ele>138.2</ele><time>2026-04-25T13:52:07.677Z</time></trkpt><trkpt lat="43.3499775" lon="10.6106595"><ele>141.8</ele><time>2026-04-25T13:52:08.693Z</time></trkpt><trkpt lat="43.3500482" lon="10.6105749"><ele>145.4</ele><time>2026-04-25T13:52:09.701Z</time></trkpt><trkpt lat="43.3501283" lon="10.6105459"><ele>149.0</ele><time>2026-04-25T13:52:10.674Z</time></trkpt><trkpt lat="43.3502115" lon="10.6105544"><ele>149.0</ele><time>2026-04-25T13:52:11.681Z</time></trkpt><trkpt lat="43.3503014" lon="10.610572"><ele>149.0</ele><time>2026-04-25T13:52:12.656Z</time></trkpt><trkpt lat="43.3503841" lon="10.6105858"><ele>149.0</ele><time>2026-04-25T13:52:13.691Z</time></trkpt><trkpt lat="43.3504652" lon="10.6105703"><ele>149.0</ele><time>2026-04-25T13:52:14.678Z</time></trkpt><trkpt lat="43.3505702" lon="10.6104949"><ele>149.0</ele><time>2026-04-25T13:52:15.682Z</time></trkpt><trkpt lat="43.3507015" lon="10.6104019"><ele>154.5</ele><time>2026-04-25T13:52:16.677Z</time></trkpt><trkpt lat="43.3509895" lon="10.6102389"><ele>160.0</ele><time>2026-04-25T13:52:18.676Z</time></trkpt><trkpt lat="43.3511234" lon="10.6101725"><ele>160.0</ele><time>2026-04-25T13:52:19.671Z</time></trkpt><trkpt lat="43.3512501" lon="10.6101174"><ele>160.0</ele><time>2026-04-25T13:52:20.672Z</time></trkpt><trkpt lat="43.3513667" lon="10.6100713"><ele>160.0</ele><time>2026-04-25T13:52:21.687Z</time></trkpt><trkpt lat="43.3514746" lon="10.6100484"><ele>160.0</ele><time>2026-04-25T13:52:22.675Z</time></trkpt><trkpt lat="43.3515791" lon="10.6100414"><ele>160.6</ele><time>2026-04-25T13:52:23.675Z</time></trkpt><trkpt lat="43.3516759" lon="10.6100533"><ele>161.2</ele><time>2026-04-25T13:52:24.689Z</time></trkpt><trkpt lat="43.3517678" lon="10.6100942"><ele>161.8</ele><time>2026-04-25T13:52:25.66Z</time></trkpt><trkpt lat="43.3518569" lon="10.6101653"><ele>162.4</ele><time>2026-04-25T13:52:26.677Z</time></trkpt><trkpt lat="43.3519444" lon="10.610253"><ele>163.0</ele><time>2026-04-25T13:52:27.681Z</time></trkpt><trkpt lat="43.352043" lon="10.6103183"><ele>162.75</ele><time>2026-04-25T13:52:28.675Z</time></trkpt><trkpt lat="43.3521542" lon="10.6103781"><ele>162.5</ele><time>2026-04-25T13:52:29.681Z</time></trkpt><trkpt lat="43.3522668" lon="10.6104236"><ele>162.25</ele><time>2026-04-25T13:52:30.676Z</time></trkpt><trkpt lat="43.3523767" lon="10.6104592"><ele>162.0</ele><time>2026-04-25T13:52:31.681Z</time></trkpt><trkpt lat="43.3524878" lon="10.6104984"><ele>163.25</ele><time>2026-04-25T13:52:32.681Z</time></trkpt><trkpt lat="43.3525952" lon="10.6105521"><ele>164.5</ele><time>2026-04-25T13:52:33.676Z</time></trkpt><trkpt lat="43.3526969" lon="10.6106315"><ele>165.75</ele><time>2026-04-25T13:52:34.677Z</time></trkpt><trkpt lat="43.3527978" lon="10.6107185"><ele>167.0</ele><time>2026-04-25T13:52:35.687Z</time></trkpt><trkpt lat="43.3529019" lon="10.6107819"><ele>167.0</ele><time>2026-04-25T13:52:36.683Z</time></trkpt><trkpt lat="43.353007" lon="10.6108283"><ele>167.0</ele><time>2026-04-25T13:52:37.699Z</time></trkpt><trkpt lat="43.3532404" lon="10.6108805"><ele>167.0</ele><time>2026-04-25T13:52:39.671Z</time></trkpt><trkpt lat="43.3533588" lon="10.6109058"><ele>167.75</ele><time>2026-04-25T13:52:40.678Z</time></trkpt><trkpt lat="43.3534779" lon="10.6109424"><ele>168.5</ele><time>2026-04-25T13:52:41.669Z</time></trkpt><trkpt lat="43.3535991" lon="10.6109878"><ele>169.25</ele><time>2026-04-25T13:52:42.679Z</time></trkpt><trkpt lat="43.3537178" lon="10.6110502"><ele>170.0</ele><time>2026-04-25T13:52:43.687Z</time></trkpt><trkpt lat="43.353837" lon="10.6111187"><ele>173.0</ele><time>2026-04-25T13:52:44.666Z</time></trkpt><trkpt lat="43.3539652" lon="10.6111887"><ele>176.0</ele><time>2026-04-25T13:52:45.67Z</time></trkpt><trkpt lat="43.354109" lon="10.6112537"><ele>179.0</ele><time>2026-04-25T13:52:46.665Z</time></trkpt><trkpt lat="43.354259" lon="10.6113131"><ele>182.0</ele><time>2026-04-25T13:52:47.676Z</time></trkpt><trkpt lat="43.3544053" lon="10.6113758"><ele>182.0</ele><time>2026-04-25T13:52:48.674Z</time></trkpt><trkpt lat="43.3545417" lon="10.611438"><ele>182.0</ele><time>2026-04-25T13:52:49.682Z</time></trkpt><trkpt lat="43.3546688" lon="10.6114855"><ele>182.0</ele><time>2026-04-25T13:52:50.672Z</time></trkpt><trkpt lat="43.3547912" lon="10.6115138"><ele>182.0</ele><time>2026-04-25T13:52:51.68Z</time></trkpt><trkpt lat="43.3549145" lon="10.6115111"><ele>183.5</ele><time>2026-04-25T13:52:52.678Z</time></trkpt><trkpt lat="43.3550319" lon="10.611495"><ele>185.0</ele><time>2026-04-25T13:52:53.677Z</time></trkpt><trkpt lat="43.3551529" lon="10.6114959"><ele>186.5</ele><time>2026-04-25T13:52:54.673Z</time></trkpt><trkpt lat="43.3552838" lon="10.6115163"><ele>188.0</ele><time>2026-04-25T13:52:55.676Z</time></trkpt><trkpt lat="43.355427" lon="10.6115463"><ele>188.33333333333331</ele><time>2026-04-25T13:52:56.674Z</time></trkpt><trkpt lat="43.3555796" lon="10.6115669"><ele>188.66666666666666</ele><time>2026-04-25T13:52:57.66Z</time></trkpt><trkpt lat="43.3557412" lon="10.6115797"><ele>189.0</ele><time>2026-04-25T13:52:58.671Z</time></trkpt><trkpt lat="43.3559173" lon="10.611583"><ele>189.0</ele><time>2026-04-25T13:52:59.656Z</time></trkpt><trkpt lat="43.3562828" lon="10.6115929"><ele>189.0</ele><time>2026-04-25T13:53:01.687Z</time></trkpt><trkpt lat="43.3564554" lon="10.6116102"><ele>189.66666666666666</ele><time>2026-04-25T13:53:02.678Z</time></trkpt><trkpt lat="43.3566177" lon="10.6116234"><ele>190.33333333333331</ele><time>2026-04-25T13:53:03.686Z</time></trkpt><trkpt lat="43.3567733" lon="10.6116275"><ele>191.0</ele><time>2026-04-25T13:53:04.657Z</time></trkpt><trkpt lat="43.356925" lon="10.611626"><ele>191.0</ele><time>2026-04-25T13:53:05.674Z</time></trkpt><trkpt lat="43.3570751" lon="10.6116084"><ele>191.0</ele><time>2026-04-25T13:53:06.675Z</time></trkpt><trkpt lat="43.3572214" lon="10.6115836"><ele>191.0</ele><time>2026-04-25T13:53:07.669Z</time></trkpt><trkpt lat="43.357365" lon="10.6115523"><ele>191.0</ele><time>2026-04-25T13:53:08.666Z</time></trkpt><trkpt lat="43.3575105" lon="10.6115337"><ele>192.5</ele><time>2026-04-25T13:53:09.693Z</time></trkpt><trkpt lat="43.3576492" lon="10.6115139"><ele>194.0</ele><time>2026-04-25T13:53:10.645Z</time></trkpt><trkpt lat="43.3577777" lon="10.611488"><ele>195.5</ele><time>2026-04-25T13:53:11.673Z</time></trkpt><trkpt lat="43.3578962" lon="10.6114496"><ele>197.0</ele><time>2026-04-25T13:53:12.644Z</time></trkpt><trkpt lat="43.3580083" lon="10.6114007"><ele>196.6</ele><time>2026-04-25T13:53:13.676Z</time></trkpt><trkpt lat="43.3581076" lon="10.6113415"><ele>196.2</ele><time>2026-04-25T13:53:14.651Z</time></trkpt><trkpt lat="43.3582041" lon="10.6112888"><ele>195.8</ele><time>2026-04-25T13:53:15.659Z</time></trkpt><trkpt lat="43.3582949" lon="10.6112458"><ele>195.4</ele><time>2026-04-25T13:53:16.669Z</time></trkpt><trkpt lat="43.3583846" lon="10.6112272"><ele>195.0</ele><time>2026-04-25T13:53:17.678Z</time></trkpt><trkpt lat="43.358489" lon="10.6112178"><ele>195.0</ele><time>2026-04-25T13:53:18.67Z</time></trkpt><trkpt lat="43.3586075" lon="10.611231"><ele>195.0</ele><time>2026-04-25T13:53:19.665Z</time></trkpt><trkpt lat="43.3587349" lon="10.6112546"><ele>195.0</ele><time>2026-04-25T13:53:20.674Z</time></trkpt><trkpt lat="43.3589868" lon="10.6113029"><ele>194.75</ele><time>2026-04-25T13:53:22.668Z</time></trkpt><trkpt lat="43.3591053" lon="10.6113282"><ele>194.5</ele><time>2026-04-25T13:53:23.668Z</time></trkpt><trkpt lat="43.359222" lon="10.6113495"><ele>194.25</ele><time>2026-04-25T13:53:24.674Z</time></trkpt><trkpt lat="43.3593373" lon="10.6113587"><ele>194.0</ele><time>2026-04-25T13:53:25.675Z</time></trkpt><trkpt lat="43.3594546" lon="10.6113512"><ele>194.0</ele><time>2026-04-25T13:53:26.674Z</time></trkpt><trkpt lat="43.3595736" lon="10.6113349"><ele>194.0</ele><time>2026-04-25T13:53:27.641Z</time></trkpt><trkpt lat="43.3596937" lon="10.6112948"><ele>194.0</ele><time>2026-04-25T13:53:28.674Z</time></trkpt><trkpt lat="43.3598183" lon="10.6112434"><ele>194.0</ele><time>2026-04-25T13:53:29.669Z</time></trkpt><trkpt lat="43.3599504" lon="10.6111843"><ele>194.0</ele><time>2026-04-25T13:53:30.666Z</time></trkpt><trkpt lat="43.3600882" lon="10.6111317"><ele>194.0</ele><time>2026-04-25T13:53:31.665Z</time></trkpt><trkpt lat="43.3602315" lon="10.6110887"><ele>194.0</ele><time>2026-04-25T13:53:32.668Z</time></trkpt><trkpt lat="43.3603784" lon="10.6110484"><ele>194.0</ele><time>2026-04-25T13:53:33.675Z</time></trkpt><trkpt lat="43.3605214" lon="10.6110122"><ele>199.0</ele><time>2026-04-25T13:53:34.686Z</time></trkpt><trkpt lat="43.3606737" lon="10.6109888"><ele>204.0</ele><time>2026-04-25T13:53:35.668Z</time></trkpt><trkpt lat="43.3608283" lon="10.6109837"><ele>209.0</ele><time>2026-04-25T13:53:36.671Z</time></trkpt><trkpt lat="43.3609854" lon="10.6109941"><ele>209.0</ele><time>2026-04-25T13:53:37.672Z</time></trkpt><trkpt lat="43.3611511" lon="10.611005"><ele>209.0</ele><time>2026-04-25T13:53:38.659Z</time></trkpt><trkpt lat="43.3613132" lon="10.6109933"><ele>209.0</ele><time>2026-04-25T13:53:39.662Z</time></trkpt><trkpt lat="43.3614629" lon="10.610964"><ele>211.0</ele><time>2026-04-25T13:53:40.664Z</time></trkpt><trkpt lat="43.3616091" lon="10.610906"><ele>213.0</ele><time>2026-04-25T13:53:41.668Z</time></trkpt><trkpt lat="43.3617626" lon="10.6108207"><ele>215.0</ele><time>2026-04-25T13:53:42.643Z</time></trkpt><trkpt lat="43.3620729" lon="10.6106515"><ele>217.25</ele><time>2026-04-25T13:53:44.655Z</time></trkpt><trkpt lat="43.3622164" lon="10.6105912"><ele>219.5</ele><time>2026-04-25T13:53:45.678Z</time></trkpt><trkpt lat="43.3623572" lon="10.610535"><ele>221.75</ele><time>2026-04-25T13:53:46.673Z</time></trkpt><trkpt lat="43.3624924" lon="10.6104854"><ele>224.0</ele><time>2026-04-25T13:53:47.662Z</time></trkpt><trkpt lat="43.362623" lon="10.6104252"><ele>224.0</ele><time>2026-04-25T13:53:48.671Z</time></trkpt><trkpt lat="43.3627548" lon="10.6103841"><ele>224.0</ele><time>2026-04-25T13:53:49.659Z</time></trkpt><trkpt lat="43.3628837" lon="10.6103767"><ele>224.0</ele><time>2026-04-25T13:53:50.652Z</time></trkpt><trkpt lat="43.3629934" lon="10.6103953"><ele>224.0</ele><time>2026-04-25T13:53:51.666Z</time></trkpt><trkpt lat="43.3630954" lon="10.6104347"><ele>224.6</ele><time>2026-04-25T13:53:52.657Z</time></trkpt><trkpt lat="43.3631942" lon="10.6104716"><ele>225.2</ele><time>2026-04-25T13:53:53.649Z</time></trkpt><trkpt lat="43.3632775" lon="10.6104839"><ele>225.79999999999998</ele><time>2026-04-25T13:53:54.652Z</time></trkpt><trkpt lat="43.3633481" lon="10.6104105"><ele>226.39999999999998</ele><time>2026-04-25T13:53:55.641Z</time></trkpt><trkpt lat="43.3633973" lon="10.610246"><ele>227.0</ele><time>2026-04-25T13:53:56.653Z</time></trkpt><trkpt lat="43.363431" lon="10.6100909"><ele>225.66666666666669</ele><time>2026-04-25T13:53:57.676Z</time></trkpt><trkpt lat="43.363465" lon="10.6099378"><ele>224.33333333333334</ele><time>2026-04-25T13:53:58.671Z</time></trkpt><trkpt lat="43.3634999" lon="10.6098119"><ele>223.0</ele><time>2026-04-25T13:53:59.659Z</time></trkpt><trkpt lat="43.3635344" lon="10.6097252"><ele>221.66666666666669</ele><time>2026-04-25T13:54:00.657Z</time></trkpt><trkpt lat="43.3635911" lon="10.6096676"><ele>220.33333333333334</ele><time>2026-04-25T13:54:01.666Z</time></trkpt><trkpt lat="43.3636535" lon="10.6096197"><ele>219.0</ele><time>2026-04-25T13:54:02.671Z</time></trkpt><trkpt lat="43.3637124" lon="10.6095887"><ele>219.0</ele><time>2026-04-25T13:54:03.664Z</time></trkpt><trkpt lat="43.3638458" lon="10.609601"><ele>218.99999999999997</ele><time>2026-04-25T13:54:05.644Z</time></trkpt><trkpt lat="43.3639267" lon="10.6096219"><ele>218.99999999999997</ele><time>2026-04-25T13:54:06.66Z</time></trkpt><trkpt lat="43.3640133" lon="10.6096353"><ele>219.0</ele><time>2026-04-25T13:54:07.668Z</time></trkpt><trkpt lat="43.3641002" lon="10.6096436"><ele>219.0</ele><time>2026-04-25T13:54:08.659Z</time></trkpt><trkpt lat="43.3641877" lon="10.6096439"><ele>220.16666666666666</ele><time>2026-04-25T13:54:09.673Z</time></trkpt><trkpt lat="43.3642727" lon="10.6096487"><ele>221.33333333333331</ele><time>2026-04-25T13:54:10.66Z</time></trkpt><trkpt lat="43.3643552" lon="10.6096452"><ele>222.5</ele><time>2026-04-25T13:54:11.63Z</time></trkpt><trkpt lat="43.3644363" lon="10.6096391"><ele>223.66666666666666</ele><time>2026-04-25T13:54:12.663Z</time></trkpt><trkpt lat="43.3645169" lon="10.6096353"><ele>224.83333333333331</ele><time>2026-04-25T13:54:13.659Z</time></trkpt><trkpt lat="43.3645951" lon="10.6096454"><ele>226.0</ele><time>2026-04-25T13:54:14.665Z</time></trkpt><trkpt lat="43.3646765" lon="10.6096459"><ele>225.33333333333331</ele><time>2026-04-25T13:54:15.657Z</time></trkpt><trkpt lat="43.3647589" lon="10.6096394"><ele>224.66666666666666</ele><time>2026-04-25T13:54:16.653Z</time></trkpt><trkpt lat="43.3648388" lon="10.6096355"><ele>224.0</ele><time>2026-04-25T13:54:17.645Z</time></trkpt><trkpt lat="43.364916" lon="10.6096311"><ele>223.33333333333331</ele><time>2026-04-25T13:54:18.648Z</time></trkpt><trkpt lat="43.3649918" lon="10.6096355"><ele>222.66666666666666</ele><time>2026-04-25T13:54:19.651Z</time></trkpt><trkpt lat="43.3650651" lon="10.6096513"><ele>222.0</ele><time>2026-04-25T13:54:20.655Z</time></trkpt><trkpt lat="43.3651386" lon="10.6096761"><ele>222.0</ele><time>2026-04-25T13:54:21.662Z</time></trkpt><trkpt lat="43.3652081" lon="10.6097054"><ele>222.0</ele><time>2026-04-25T13:54:22.667Z</time></trkpt><trkpt lat="43.3652732" lon="10.6097263"><ele>222.0</ele><time>2026-04-25T13:54:23.657Z</time></trkpt><trkpt lat="43.3653439" lon="10.6097447"><ele>222.0</ele><time>2026-04-25T13:54:24.661Z</time></trkpt><trkpt lat="43.3654874" lon="10.6097927"><ele>222.0</ele><time>2026-04-25T13:54:26.663Z</time></trkpt><trkpt lat="43.365557" lon="10.6098281"><ele>222.0</ele><time>2026-04-25T13:54:27.663Z</time></trkpt><trkpt lat="43.3656302" lon="10.6098712"><ele>219.2</ele><time>2026-04-25T13:54:28.66Z</time></trkpt><trkpt lat="43.3657052" lon="10.609912"><ele>216.39999999999998</ele><time>2026-04-25T13:54:29.662Z</time></trkpt><trkpt lat="43.3657895" lon="10.609949"><ele>213.60000000000002</ele><time>2026-04-25T13:54:30.651Z</time></trkpt><trkpt lat="43.3658863" lon="10.6099657"><ele>210.8</ele><time>2026-04-25T13:54:31.66Z</time></trkpt><trkpt lat="43.3659924" lon="10.6099557"><ele>208.0</ele><time>2026-04-25T13:54:32.664Z</time></trkpt><trkpt lat="43.3660961" lon="10.6099198"><ele>208.0</ele><time>2026-04-25T13:54:33.658Z</time></trkpt><trkpt lat="43.3662046" lon="10.6098738"><ele>208.0</ele><time>2026-04-25T13:54:34.662Z</time></trkpt><trkpt lat="43.3663072" lon="10.6098464"><ele>208.0</ele><time>2026-04-25T13:54:35.66Z</time></trkpt><trkpt lat="43.3664076" lon="10.6098449"><ele>208.0</ele><time>2026-04-25T13:54:36.637Z</time></trkpt><trkpt lat="43.3665086" lon="10.6098631"><ele>208.0</ele><time>2026-04-25T13:54:37.632Z</time></trkpt><trkpt lat="43.3666093" lon="10.6098896"><ele>207.8</ele><time>2026-04-25T13:54:38.632Z</time></trkpt><trkpt lat="43.3667062" lon="10.6099258"><ele>207.60000000000002</ele><time>2026-04-25T13:54:39.668Z</time></trkpt><trkpt lat="43.3668012" lon="10.6099641"><ele>207.39999999999998</ele><time>2026-04-25T13:54:40.666Z</time></trkpt><trkpt lat="43.3668941" lon="10.6100045"><ele>207.2</ele><time>2026-04-25T13:54:41.649Z</time></trkpt><trkpt lat="43.3669794" lon="10.6100642"><ele>207.0</ele><time>2026-04-25T13:54:42.642Z</time></trkpt><trkpt lat="43.3670521" lon="10.6101497"><ele>207.0</ele><time>2026-04-25T13:54:43.658Z</time></trkpt><trkpt lat="43.3671212" lon="10.610247"><ele>207.0</ele><time>2026-04-25T13:54:44.656Z</time></trkpt><trkpt lat="43.3672055" lon="10.6103348"><ele>207.0</ele><time>2026-04-25T13:54:45.631Z</time></trkpt><trkpt lat="43.3673844" lon="10.6104421"><ele>207.0</ele><time>2026-04-25T13:54:47.651Z</time></trkpt><trkpt lat="43.3674677" lon="10.6104858"><ele>208.6</ele><time>2026-04-25T13:54:48.641Z</time></trkpt><trkpt lat="43.3675549" lon="10.6105149"><ele>210.2</ele><time>2026-04-25T13:54:49.665Z</time></trkpt><trkpt lat="43.3676502" lon="10.6105362"><ele>211.8</ele><time>2026-04-25T13:54:50.619Z</time></trkpt><trkpt lat="43.367743" lon="10.6105625"><ele>213.4</ele><time>2026-04-25T13:54:51.649Z</time></trkpt><trkpt lat="43.3678303" lon="10.6106023"><ele>215.0</ele><time>2026-04-25T13:54:52.646Z</time></trkpt><trkpt lat="43.367917" lon="10.6106351"><ele>215.0</ele><time>2026-04-25T13:54:53.645Z</time></trkpt><trkpt lat="43.3680039" lon="10.6106712"><ele>215.0</ele><time>2026-04-25T13:54:54.658Z</time></trkpt><trkpt lat="43.3680892" lon="10.6107127"><ele>215.0</ele><time>2026-04-25T13:54:55.663Z</time></trkpt><trkpt lat="43.3681817" lon="10.6107582"><ele>215.0</ele><time>2026-04-25T13:54:56.624Z</time></trkpt><trkpt lat="43.3682802" lon="10.6107993"><ele>215.0</ele><time>2026-04-25T13:54:57.668Z</time></trkpt><trkpt lat="43.3683864" lon="10.6108185"><ele>214.4</ele><time>2026-04-25T13:54:58.644Z</time></trkpt><trkpt lat="43.3684918" lon="10.610791"><ele>213.8</ele><time>2026-04-25T13:54:59.63Z</time></trkpt><trkpt lat="43.368588" lon="10.6107402"><ele>213.2</ele><time>2026-04-25T13:55:00.631Z</time></trkpt><trkpt lat="43.3686725" lon="10.610703"><ele>212.6</ele><time>2026-04-25T13:55:01.63Z</time></trkpt><trkpt lat="43.3687565" lon="10.6106931"><ele>212.0</ele><time>2026-04-25T13:55:02.633Z</time></trkpt><trkpt lat="43.3688389" lon="10.6107094"><ele>212.5</ele><time>2026-04-25T13:55:03.644Z</time></trkpt><trkpt lat="43.3689226" lon="10.6107263"><ele>213.0</ele><time>2026-04-25T13:55:04.616Z</time></trkpt><trkpt lat="43.3690031" lon="10.6107329"><ele>213.5</ele><time>2026-04-25T13:55:05.649Z</time></trkpt><trkpt lat="43.3690947" lon="10.6107354"><ele>214.0</ele><time>2026-04-25T13:55:06.658Z</time></trkpt><trkpt lat="43.3692754" lon="10.6105749"><ele>214.0</ele><time>2026-04-25T13:55:08.629Z</time></trkpt><trkpt lat="43.3693637" lon="10.6104643"><ele>214.0</ele><time>2026-04-25T13:55:09.669Z</time></trkpt><trkpt lat="43.3694497" lon="10.6103692"><ele>214.0</ele><time>2026-04-25T13:55:10.645Z</time></trkpt><trkpt lat="43.369532" lon="10.6102565"><ele>214.0</ele><time>2026-04-25T13:55:11.65Z</time></trkpt><trkpt lat="43.3696165" lon="10.6101221"><ele>215.25</ele><time>2026-04-25T13:55:12.646Z</time></trkpt><trkpt lat="43.3696988" lon="10.6099792"><ele>216.5</ele><time>2026-04-25T13:55:13.648Z</time></trkpt><trkpt lat="43.3697749" lon="10.6098542"><ele>217.75</ele><time>2026-04-25T13:55:14.671Z</time></trkpt><trkpt lat="43.3698464" lon="10.6097429"><ele>219.0</ele><time>2026-04-25T13:55:15.644Z</time></trkpt><trkpt lat="43.3699321" lon="10.6096398"><ele>219.0</ele><time>2026-04-25T13:55:16.659Z</time></trkpt><trkpt lat="43.3700366" lon="10.6095375"><ele>219.0</ele><time>2026-04-25T13:55:17.617Z</time></trkpt><trkpt lat="43.370155" lon="10.6094407"><ele>219.0</ele><time>2026-04-25T13:55:18.66Z</time></trkpt><trkpt lat="43.370273" lon="10.6093345"><ele>219.0</ele><time>2026-04-25T13:55:19.647Z</time></trkpt><trkpt lat="43.3703915" lon="10.6092025"><ele>218.0</ele><time>2026-04-25T13:55:20.618Z</time></trkpt><trkpt lat="43.3704814" lon="10.6090655"><ele>217.0</ele><time>2026-04-25T13:55:21.648Z</time></trkpt><trkpt lat="43.3705646" lon="10.6089383"><ele>216.0</ele><time>2026-04-25T13:55:22.642Z</time></trkpt><trkpt lat="43.3706488" lon="10.6088281"><ele>215.0</ele><time>2026-04-25T13:55:23.651Z</time></trkpt><trkpt lat="43.3707402" lon="10.6087549"><ele>215.75</ele><time>2026-04-25T13:55:24.638Z</time></trkpt><trkpt lat="43.3708553" lon="10.6087055"><ele>216.5</ele><time>2026-04-25T13:55:25.648Z</time></trkpt><trkpt lat="43.3709842" lon="10.6086532"><ele>217.25</ele><time>2026-04-25T13:55:26.649Z</time></trkpt><trkpt lat="43.371121" lon="10.6086002"><ele>218.0</ele><time>2026-04-25T13:55:27.645Z</time></trkpt><trkpt lat="43.3713484" lon="10.6085778"><ele>219.50000000000003</ele><time>2026-04-25T13:55:29.635Z</time></trkpt><trkpt lat="43.371438" lon="10.6086187"><ele>221.0</ele><time>2026-04-25T13:55:30.63Z</time></trkpt><trkpt lat="43.3715248" lon="10.6086953"><ele>222.5</ele><time>2026-04-25T13:55:31.62Z</time></trkpt><trkpt lat="43.3715985" lon="10.6087759"><ele>224.0</ele><time>2026-04-25T13:55:32.648Z</time></trkpt><trkpt lat="43.37166" lon="10.6088091"><ele>225.50000000000003</ele><time>2026-04-25T13:55:33.654Z</time></trkpt><trkpt lat="43.3717289" lon="10.6087804"><ele>227.0</ele><time>2026-04-25T13:55:34.626Z</time></trkpt><trkpt lat="43.3718003" lon="10.608735"><ele>227.0</ele><time>2026-04-25T13:55:35.639Z</time></trkpt><trkpt lat="43.3718592" lon="10.6086642"><ele>227.0</ele><time>2026-04-25T13:55:36.643Z</time></trkpt><trkpt lat="43.3718969" lon="10.6085687"><ele>227.0</ele><time>2026-04-25T13:55:37.648Z</time></trkpt><trkpt lat="43.3719238" lon="10.6084124"><ele>227.0</ele><time>2026-04-25T13:55:38.643Z</time></trkpt><trkpt lat="43.3719176" lon="10.6081597"><ele>227.0</ele><time>2026-04-25T13:55:39.654Z</time></trkpt><trkpt lat="43.3718678" lon="10.607909"><ele>227.0</ele><time>2026-04-25T13:55:40.627Z</time></trkpt><trkpt lat="43.3718113" lon="10.6076793"><ele>227.0</ele><time>2026-04-25T13:55:41.63Z</time></trkpt><trkpt lat="43.3717438" lon="10.6074784"><ele>227.5</ele><time>2026-04-25T13:55:42.616Z</time></trkpt><trkpt lat="43.3717048" lon="10.6072931"><ele>228.0</ele><time>2026-04-25T13:55:43.66Z</time></trkpt><trkpt lat="43.3717032" lon="10.6071171"><ele>228.5</ele><time>2026-04-25T13:55:44.648Z</time></trkpt><trkpt lat="43.3717016" lon="10.6069216"><ele>229.0</ele><time>2026-04-25T13:55:45.646Z</time></trkpt><trkpt lat="43.3716908" lon="10.6066937"><ele>231.33333333333331</ele><time>2026-04-25T13:55:46.643Z</time></trkpt><trkpt lat="43.3716735" lon="10.6064648"><ele>233.66666666666669</ele><time>2026-04-25T13:55:47.616Z</time></trkpt><trkpt lat="43.3716515" lon="10.6062384"><ele>236.0</ele><time>2026-04-25T13:55:48.63Z</time></trkpt><trkpt lat="43.3716341" lon="10.6060333"><ele>237.0</ele><time>2026-04-25T13:55:49.618Z</time></trkpt><trkpt lat="43.3715535" lon="10.60565"><ele>238.0</ele><time>2026-04-25T13:55:51.637Z</time></trkpt><trkpt lat="43.3714696" lon="10.6054911"><ele>239.0</ele><time>2026-04-25T13:55:52.644Z</time></trkpt><trkpt lat="43.3713564" lon="10.605369"><ele>238.33333333333334</ele><time>2026-04-25T13:55:53.645Z</time></trkpt><trkpt lat="43.3712163" lon="10.6052607"><ele>237.66666666666669</ele><time>2026-04-25T13:55:54.651Z</time></trkpt><trkpt lat="43.3710645" lon="10.6051652"><ele>237.0</ele><time>2026-04-25T13:55:55.641Z</time></trkpt><trkpt lat="43.3709161" lon="10.6050825"><ele>237.0</ele><time>2026-04-25T13:55:56.649Z</time></trkpt><trkpt lat="43.3707804" lon="10.6050057"><ele>237.0</ele><time>2026-04-25T13:55:57.661Z</time></trkpt><trkpt lat="43.3706537" lon="10.6049374"><ele>237.0</ele><time>2026-04-25T13:55:58.616Z</time></trkpt><trkpt lat="43.3705377" lon="10.6048704"><ele>237.0</ele><time>2026-04-25T13:55:59.635Z</time></trkpt><trkpt lat="43.3704299" lon="10.6048109"><ele>233.5</ele><time>2026-04-25T13:56:00.619Z</time></trkpt><trkpt lat="43.3703229" lon="10.6047458"><ele>230.0</ele><time>2026-04-25T13:56:01.643Z</time></trkpt><trkpt lat="43.3702132" lon="10.6046711"><ele>226.5</ele><time>2026-04-25T13:56:02.642Z</time></trkpt><trkpt lat="43.3701025" lon="10.604588"><ele>223.0</ele><time>2026-04-25T13:56:03.634Z</time></trkpt><trkpt lat="43.3699971" lon="10.6045002"><ele>221.5</ele><time>2026-04-25T13:56:04.633Z</time></trkpt><trkpt lat="43.3699079" lon="10.6043969"><ele>220.0</ele><time>2026-04-25T13:56:05.638Z</time></trkpt><trkpt lat="43.369824" lon="10.6042858"><ele>218.5</ele><time>2026-04-25T13:56:06.637Z</time></trkpt><trkpt lat="43.3697498" lon="10.6041611"><ele>217.0</ele><time>2026-04-25T13:56:07.658Z</time></trkpt><trkpt lat="43.3696889" lon="10.6040293"><ele>217.0</ele><time>2026-04-25T13:56:08.643Z</time></trkpt><trkpt lat="43.3696315" lon="10.6038952"><ele>217.0</ele><time>2026-04-25T13:56:09.623Z</time></trkpt><trkpt lat="43.36957" lon="10.6037749"><ele>217.0</ele><time>2026-04-25T13:56:10.614Z</time></trkpt><trkpt lat="43.3694593" lon="10.6036042"><ele>217.0</ele><time>2026-04-25T13:56:12.619Z</time></trkpt><trkpt lat="43.3694101" lon="10.6035076"><ele>219.8</ele><time>2026-04-25T13:56:14.633Z</time></trkpt><trkpt lat="43.3693947" lon="10.6034133"><ele>222.6</ele><time>2026-04-25T13:56:18.647Z</time></trkpt><trkpt lat="43.369325" lon="10.6033293"><ele>225.40000000000003</ele><time>2026-04-25T13:56:31.644Z</time></trkpt><trkpt lat="43.3691662" lon="10.6031993"><ele>228.20000000000002</ele><time>2026-04-25T13:56:35.643Z</time></trkpt><trkpt lat="43.3690971" lon="10.6031393"><ele>231.0</ele><time>2026-04-25T13:56:37.643Z</time></trkpt><trkpt lat="43.3690372" lon="10.603086"><ele>231.0</ele><time>2026-04-25T13:56:39.634Z</time></trkpt><trkpt lat="43.3689909" lon="10.6030069"><ele>231.0</ele><time>2026-04-25T13:56:42.658Z</time></trkpt><trkpt lat="43.3689145" lon="10.6029341"><ele>231.0</ele><time>2026-04-25T13:56:45.651Z</time></trkpt><trkpt lat="43.368867" lon="10.6028736"><ele>231.0</ele><time>2026-04-25T13:56:47.639Z</time></trkpt><trkpt lat="43.368805" lon="10.6028305"><ele>231.0</ele><time>2026-04-25T13:56:51.632Z</time></trkpt><trkpt lat="43.3687127" lon="10.6028097"><ele>231.0</ele><time>2026-04-25T14:00:39.711Z</time></trkpt><trkpt lat="43.3685522" lon="10.6027386"><ele>231.0</ele><time>2026-04-25T14:00:42.696Z</time></trkpt><trkpt lat="43.3684944" lon="10.6026972"><ele>231.0</ele><time>2026-04-25T14:00:43.708Z</time></trkpt><trkpt lat="43.3684338" lon="10.6026529"><ele>231.0</ele><time>2026-04-25T14:00:44.687Z</time></trkpt><trkpt lat="43.3683606" lon="10.6026156"><ele>231.0</ele><time>2026-04-25T14:00:45.694Z</time></trkpt><trkpt lat="43.3682887" lon="10.6025638"><ele>231.0</ele><time>2026-04-25T14:00:46.689Z</time></trkpt><trkpt lat="43.3682183" lon="10.6025078"><ele>231.0</ele><time>2026-04-25T14:00:47.695Z</time></trkpt><trkpt lat="43.3681446" lon="10.6024429"><ele>231.0</ele><time>2026-04-25T14:00:48.697Z</time></trkpt><trkpt lat="43.3680547" lon="10.6023677"><ele>231.00000000000003</ele><time>2026-04-25T14:00:49.683Z</time></trkpt><trkpt lat="43.3679655" lon="10.6022951"><ele>231.00000000000003</ele><time>2026-04-25T14:00:50.682Z</time></trkpt><trkpt lat="43.3678806" lon="10.6022264"><ele>231.0</ele><time>2026-04-25T14:00:51.693Z</time></trkpt><trkpt lat="43.3678018" lon="10.6021682"><ele>231.0</ele><time>2026-04-25T14:00:52.701Z</time></trkpt><trkpt lat="43.3677312" lon="10.6021194"><ele>231.5</ele><time>2026-04-25T14:00:53.694Z</time></trkpt><trkpt lat="43.3676565" lon="10.6020682"><ele>232.0</ele><time>2026-04-25T14:00:54.695Z</time></trkpt><trkpt lat="43.3675724" lon="10.6020117"><ele>232.5</ele><time>2026-04-25T14:00:55.672Z</time></trkpt><trkpt lat="43.3674974" lon="10.6019589"><ele>233.0</ele><time>2026-04-25T14:00:56.697Z</time></trkpt><trkpt lat="43.3674315" lon="10.6019068"><ele>233.5</ele><time>2026-04-25T14:00:57.699Z</time></trkpt><trkpt lat="43.3673689" lon="10.6018633"><ele>234.0</ele><time>2026-04-25T14:00:58.696Z</time></trkpt><trkpt lat="43.3673062" lon="10.6018175"><ele>234.0</ele><time>2026-04-25T14:00:59.702Z</time></trkpt><trkpt lat="43.3672011" lon="10.6017432"><ele>233.99999999999997</ele><time>2026-04-25T14:01:01.703Z</time></trkpt><trkpt lat="43.3671931" lon="10.601776"><ele>233.99999999999997</ele><time>2026-04-25T14:01:23.692Z</time></trkpt><trkpt lat="43.3673581" lon="10.6018759"><ele>234.0</ele><time>2026-04-25T14:01:27.685Z</time></trkpt><trkpt lat="43.3674544" lon="10.6019403"><ele>234.0</ele><time>2026-04-25T14:01:29.705Z</time></trkpt><trkpt lat="43.3675469" lon="10.6020059"><ele>234.0</ele><time>2026-04-25T14:01:31.711Z</time></trkpt><trkpt lat="43.3676151" lon="10.6020554"><ele>234.0</ele><time>2026-04-25T14:01:33.697Z</time></trkpt><trkpt lat="43.367688" lon="10.6021045"><ele>234.0</ele><time>2026-04-25T14:01:35.694Z</time></trkpt><trkpt lat="43.3677441" lon="10.6021489"><ele>234.0</ele><time>2026-04-25T14:01:37.69Z</time></trkpt><trkpt lat="43.3678225" lon="10.6022077"><ele>234.0</ele><time>2026-04-25T14:01:40.684Z</time></trkpt><trkpt lat="43.3678844" lon="10.6022449"><ele>234.0</ele><time>2026-04-25T14:01:42.655Z</time></trkpt><trkpt lat="43.3679618" lon="10.6022913"><ele>233.25</ele><time>2026-04-25T14:01:44.69Z</time></trkpt><trkpt lat="43.3681302" lon="10.602428"><ele>232.5</ele><time>2026-04-25T14:01:48.672Z</time></trkpt><trkpt lat="43.3682143" lon="10.6024876"><ele>231.75</ele><time>2026-04-25T14:01:50.651Z</time></trkpt><trkpt lat="43.3682893" lon="10.6025414"><ele>231.0</ele><time>2026-04-25T14:01:52.681Z</time></trkpt><trkpt lat="43.3683778" lon="10.6026017"><ele>231.0</ele><time>2026-04-25T14:01:54.678Z</time></trkpt><trkpt lat="43.3684719" lon="10.6026572"><ele>231.0</ele><time>2026-04-25T14:01:56.683Z</time></trkpt><trkpt lat="43.3685309" lon="10.6026972"><ele>231.0</ele><time>2026-04-25T14:01:57.691Z</time></trkpt><trkpt lat="43.3686352" lon="10.6027765"><ele>231.0</ele><time>2026-04-25T14:01:59.678Z</time></trkpt><trkpt lat="43.3686994" lon="10.6028207"><ele>231.0</ele><time>2026-04-25T14:02:00.688Z</time></trkpt><trkpt lat="43.3687705" lon="10.602866"><ele>231.0</ele><time>2026-04-25T14:02:01.684Z</time></trkpt><trkpt lat="43.3688477" lon="10.6029037"><ele>231.0</ele><time>2026-04-25T14:02:02.655Z</time></trkpt><trkpt lat="43.3689347" lon="10.6029164"><ele>231.0</ele><time>2026-04-25T14:02:03.672Z</time></trkpt><trkpt lat="43.3690208" lon="10.6029143"><ele>231.0</ele><time>2026-04-25T14:02:04.683Z</time></trkpt><trkpt lat="43.3691183" lon="10.6028822"><ele>231.0</ele><time>2026-04-25T14:02:05.687Z</time></trkpt><trkpt lat="43.3693003" lon="10.6027551"><ele>231.4</ele><time>2026-04-25T14:02:07.698Z</time></trkpt><trkpt lat="43.3693878" lon="10.6026679"><ele>231.8</ele><time>2026-04-25T14:02:08.661Z</time></trkpt><trkpt lat="43.3694758" lon="10.6025753"><ele>232.20000000000002</ele><time>2026-04-25T14:02:09.693Z</time></trkpt><trkpt lat="43.3695602" lon="10.6024734"><ele>232.60000000000002</ele><time>2026-04-25T14:02:10.693Z</time></trkpt><trkpt lat="43.3696433" lon="10.6023676"><ele>233.0</ele><time>2026-04-25T14:02:11.686Z</time></trkpt><trkpt lat="43.3697283" lon="10.6022837"><ele>235.75</ele><time>2026-04-25T14:02:12.652Z</time></trkpt><trkpt lat="43.3698148" lon="10.6022137"><ele>238.5</ele><time>2026-04-25T14:02:13.676Z</time></trkpt><trkpt lat="43.3699146" lon="10.602149"><ele>241.25</ele><time>2026-04-25T14:02:14.669Z</time></trkpt><trkpt lat="43.3700359" lon="10.6020872"><ele>244.0</ele><time>2026-04-25T14:02:15.676Z</time></trkpt><trkpt lat="43.3701564" lon="10.6020206"><ele>243.25</ele><time>2026-04-25T14:02:16.67Z</time></trkpt><trkpt lat="43.3702704" lon="10.6019555"><ele>242.5</ele><time>2026-04-25T14:02:17.674Z</time></trkpt><trkpt lat="43.370386" lon="10.6019038"><ele>241.75</ele><time>2026-04-25T14:02:18.673Z</time></trkpt><trkpt lat="43.3705027" lon="10.6018506"><ele>241.0</ele><time>2026-04-25T14:02:19.684Z</time></trkpt><trkpt lat="43.3706235" lon="10.6017738"><ele>241.0</ele><time>2026-04-25T14:02:20.68Z</time></trkpt><trkpt lat="43.3707427" lon="10.6016865"><ele>241.0</ele><time>2026-04-25T14:02:21.659Z</time></trkpt><trkpt lat="43.3708588" lon="10.601595"><ele>241.0</ele><time>2026-04-25T14:02:22.666Z</time></trkpt><trkpt lat="43.3709612" lon="10.6015044"><ele>241.0</ele><time>2026-04-25T14:02:23.688Z</time></trkpt><trkpt lat="43.3710402" lon="10.6014156"><ele>241.0</ele><time>2026-04-25T14:02:24.678Z</time></trkpt><trkpt lat="43.3711022" lon="10.6013103"><ele>241.0</ele><time>2026-04-25T14:02:25.667Z</time></trkpt><trkpt lat="43.3711494" lon="10.601161"><ele>241.0</ele><time>2026-04-25T14:02:26.665Z</time></trkpt><trkpt lat="43.3711819" lon="10.6008341"><ele>240.0</ele><time>2026-04-25T14:02:28.674Z</time></trkpt><trkpt lat="43.3711902" lon="10.6006502"><ele>239.0</ele><time>2026-04-25T14:02:29.681Z</time></trkpt><trkpt lat="43.3712016" lon="10.6004538"><ele>238.0</ele><time>2026-04-25T14:02:30.669Z</time></trkpt><trkpt lat="43.3712119" lon="10.6002509"><ele>237.0</ele><time>2026-04-25T14:02:31.689Z</time></trkpt><trkpt lat="43.371222" lon="10.600065"><ele>236.8</ele><time>2026-04-25T14:02:32.683Z</time></trkpt><trkpt lat="43.371236" lon="10.5999073"><ele>236.6</ele><time>2026-04-25T14:02:33.687Z</time></trkpt><trkpt lat="43.3712528" lon="10.5997601"><ele>236.40000000000003</ele><time>2026-04-25T14:02:34.687Z</time></trkpt><trkpt lat="43.3712815" lon="10.5996236"><ele>236.20000000000002</ele><time>2026-04-25T14:02:35.68Z</time></trkpt><trkpt lat="43.3713204" lon="10.599503"><ele>236.0</ele><time>2026-04-25T14:02:36.679Z</time></trkpt><trkpt lat="43.3713851" lon="10.5993894"><ele>240.5</ele><time>2026-04-25T14:02:37.663Z</time></trkpt><trkpt lat="43.3714695" lon="10.5992701"><ele>245.0</ele><time>2026-04-25T14:02:38.674Z</time></trkpt><trkpt lat="43.3715532" lon="10.5991412"><ele>249.5</ele><time>2026-04-25T14:02:39.671Z</time></trkpt><trkpt lat="43.3716175" lon="10.5990074"><ele>254.0</ele><time>2026-04-25T14:02:40.678Z</time></trkpt><trkpt lat="43.3716577" lon="10.5988573"><ele>254.0</ele><time>2026-04-25T14:02:41.652Z</time></trkpt><trkpt lat="43.371668" lon="10.5986839"><ele>254.0</ele><time>2026-04-25T14:02:42.645Z</time></trkpt><trkpt lat="43.3716684" lon="10.5985104"><ele>254.0</ele><time>2026-04-25T14:02:43.681Z</time></trkpt><trkpt lat="43.3716569" lon="10.5983385"><ele>254.0</ele><time>2026-04-25T14:02:44.669Z</time></trkpt><trkpt lat="43.3716184" lon="10.5981864"><ele>254.25</ele><time>2026-04-25T14:02:45.677Z</time></trkpt><trkpt lat="43.3715805" lon="10.5980605"><ele>254.5</ele><time>2026-04-25T14:02:46.664Z</time></trkpt><trkpt lat="43.3715594" lon="10.5979447"><ele>254.75</ele><time>2026-04-25T14:02:47.67Z</time></trkpt><trkpt lat="43.371597" lon="10.5977146"><ele>255.0</ele><time>2026-04-25T14:02:49.647Z</time></trkpt><trkpt lat="43.371674" lon="10.5975817"><ele>255.0</ele><time>2026-04-25T14:02:50.664Z</time></trkpt><trkpt lat="43.3717532" lon="10.5974755"><ele>255.0</ele><time>2026-04-25T14:02:51.69Z</time></trkpt><trkpt lat="43.3718224" lon="10.5973906"><ele>255.0</ele><time>2026-04-25T14:02:52.67Z</time></trkpt><trkpt lat="43.371892" lon="10.5973453"><ele>255.0</ele><time>2026-04-25T14:02:53.663Z</time></trkpt><trkpt lat="43.3719786" lon="10.5973615"><ele>255.0</ele><time>2026-04-25T14:02:54.65Z</time></trkpt><trkpt lat="43.3720438" lon="10.5974184"><ele>255.0</ele><time>2026-04-25T14:02:55.672Z</time></trkpt><trkpt lat="43.3721041" lon="10.5975255"><ele>255.0</ele><time>2026-04-25T14:02:56.659Z</time></trkpt><trkpt lat="43.3721475" lon="10.5976697"><ele>255.0</ele><time>2026-04-25T14:02:57.66Z</time></trkpt><trkpt lat="43.3721749" lon="10.5978373"><ele>255.0</ele><time>2026-04-25T14:02:58.662Z</time></trkpt><trkpt lat="43.372189" lon="10.5980136"><ele>255.0</ele><time>2026-04-25T14:02:59.678Z</time></trkpt><trkpt lat="43.3721948" lon="10.5981861"><ele>255.4</ele><time>2026-04-25T14:03:00.667Z</time></trkpt><trkpt lat="43.3722038" lon="10.5983447"><ele>255.8</ele><time>2026-04-25T14:03:01.65Z</time></trkpt><trkpt lat="43.3722325" lon="10.5984908"><ele>256.2</ele><time>2026-04-25T14:03:02.66Z</time></trkpt><trkpt lat="43.3722824" lon="10.5986185"><ele>256.6</ele><time>2026-04-25T14:03:03.651Z</time></trkpt><trkpt lat="43.3723549" lon="10.598742"><ele>257.0</ele><time>2026-04-25T14:03:04.66Z</time></trkpt><trkpt lat="43.3724563" lon="10.5988483"><ele>258.5</ele><time>2026-04-25T14:03:05.672Z</time></trkpt><trkpt lat="43.3725809" lon="10.5989436"><ele>260.0</ele><time>2026-04-25T14:03:06.691Z</time></trkpt><trkpt lat="43.3727168" lon="10.5990384"><ele>261.5</ele><time>2026-04-25T14:03:07.661Z</time></trkpt><trkpt lat="43.372847" lon="10.599128"><ele>263.0</ele><time>2026-04-25T14:03:08.671Z</time></trkpt><trkpt lat="43.3730641" lon="10.5992544"><ele>263.5</ele><time>2026-04-25T14:03:10.665Z</time></trkpt><trkpt lat="43.3731827" lon="10.5992745"><ele>264.0</ele><time>2026-04-25T14:03:11.662Z</time></trkpt><trkpt lat="43.3733021" lon="10.599258"><ele>264.5</ele><time>2026-04-25T14:03:12.635Z</time></trkpt><trkpt lat="43.3734179" lon="10.5992119"><ele>265.0</ele><time>2026-04-25T14:03:13.674Z</time></trkpt><trkpt lat="43.3735248" lon="10.5991425"><ele>265.0</ele><time>2026-04-25T14:03:14.665Z</time></trkpt><trkpt lat="43.373621" lon="10.5990452"><ele>265.0</ele><time>2026-04-25T14:03:15.695Z</time></trkpt><trkpt lat="43.3737077" lon="10.5989174"><ele>265.0</ele><time>2026-04-25T14:03:16.669Z</time></trkpt><trkpt lat="43.3737729" lon="10.5987809"><ele>265.0</ele><time>2026-04-25T14:03:17.665Z</time></trkpt><trkpt lat="43.3738315" lon="10.5986604"><ele>263.8</ele><time>2026-04-25T14:03:18.666Z</time></trkpt><trkpt lat="43.3739146" lon="10.5985745"><ele>262.6</ele><time>2026-04-25T14:03:19.676Z</time></trkpt><trkpt lat="43.3740117" lon="10.5985227"><ele>261.4</ele><time>2026-04-25T14:03:20.667Z</time></trkpt><trkpt lat="43.3741082" lon="10.5985272"><ele>260.2</ele><time>2026-04-25T14:03:21.647Z</time></trkpt><trkpt lat="43.3742122" lon="10.5985733"><ele>259.0</ele><time>2026-04-25T14:03:22.65Z</time></trkpt><trkpt lat="43.3743197" lon="10.5986509"><ele>262.5</ele><time>2026-04-25T14:03:23.642Z</time></trkpt><trkpt lat="43.3744259" lon="10.5987552"><ele>266.0</ele><time>2026-04-25T14:03:24.671Z</time></trkpt><trkpt lat="43.374536" lon="10.5988493"><ele>269.5</ele><time>2026-04-25T14:03:25.638Z</time></trkpt><trkpt lat="43.3746635" lon="10.598911"><ele>273.0</ele><time>2026-04-25T14:03:26.67Z</time></trkpt><trkpt lat="43.3748034" lon="10.5989382"><ele>273.0</ele><time>2026-04-25T14:03:27.685Z</time></trkpt><trkpt lat="43.374952" lon="10.5989608"><ele>273.0</ele><time>2026-04-25T14:03:28.676Z</time></trkpt><trkpt lat="43.375099" lon="10.5989977"><ele>273.0</ele><time>2026-04-25T14:03:29.664Z</time></trkpt><trkpt lat="43.3753785" lon="10.5991212"><ele>270.6666666666667</ele><time>2026-04-25T14:03:31.674Z</time></trkpt><trkpt lat="43.3755272" lon="10.5992099"><ele>268.33333333333337</ele><time>2026-04-25T14:03:32.662Z</time></trkpt><trkpt lat="43.3756789" lon="10.5993064"><ele>266.0</ele><time>2026-04-25T14:03:33.66Z</time></trkpt><trkpt lat="43.3758284" lon="10.5994033"><ele>266.0</ele><time>2026-04-25T14:03:34.663Z</time></trkpt><trkpt lat="43.3759614" lon="10.5994881"><ele>266.0</ele><time>2026-04-25T14:03:35.663Z</time></trkpt><trkpt lat="43.376091" lon="10.5995694"><ele>266.0</ele><time>2026-04-25T14:03:36.667Z</time></trkpt><trkpt lat="43.3762265" lon="10.5996398"><ele>266.0</ele><time>2026-04-25T14:03:37.661Z</time></trkpt><trkpt lat="43.3763706" lon="10.5997011"><ele>268.0</ele><time>2026-04-25T14:03:38.66Z</time></trkpt><trkpt lat="43.3765171" lon="10.5997467"><ele>270.0</ele><time>2026-04-25T14:03:39.638Z</time></trkpt><trkpt lat="43.3766711" lon="10.5997711"><ele>272.0</ele><time>2026-04-25T14:03:40.665Z</time></trkpt><trkpt lat="43.3768287" lon="10.5997773"><ele>272.0</ele><time>2026-04-25T14:03:41.67Z</time></trkpt><trkpt lat="43.3769929" lon="10.5997817"><ele>272.0</ele><time>2026-04-25T14:03:42.652Z</time></trkpt><trkpt lat="43.3771635" lon="10.5997915"><ele>272.0</ele><time>2026-04-25T14:03:43.648Z</time></trkpt><trkpt lat="43.3773337" lon="10.5997991"><ele>272.33333333333337</ele><time>2026-04-25T14:03:44.666Z</time></trkpt><trkpt lat="43.3774987" lon="10.5998072"><ele>272.6666666666667</ele><time>2026-04-25T14:03:45.666Z</time></trkpt><trkpt lat="43.3776528" lon="10.5998179"><ele>273.0</ele><time>2026-04-25T14:03:46.661Z</time></trkpt><trkpt lat="43.377796" lon="10.5998293"><ele>273.0</ele><time>2026-04-25T14:03:47.669Z</time></trkpt><trkpt lat="43.3779239" lon="10.5998537"><ele>273.0</ele><time>2026-04-25T14:03:48.661Z</time></trkpt><trkpt lat="43.3780413" lon="10.5998962"><ele>273.0</ele><time>2026-04-25T14:03:49.669Z</time></trkpt><trkpt lat="43.3781473" lon="10.5999736"><ele>273.0</ele><time>2026-04-25T14:03:50.657Z</time></trkpt><trkpt lat="43.378365" lon="10.6001873"><ele>271.6666666666667</ele><time>2026-04-25T14:03:52.649Z</time></trkpt><trkpt lat="43.3784858" lon="10.6003015"><ele>270.33333333333337</ele><time>2026-04-25T14:03:53.661Z</time></trkpt><trkpt lat="43.378623" lon="10.6004042"><ele>269.0</ele><time>2026-04-25T14:03:54.661Z</time></trkpt><trkpt lat="43.3787681" lon="10.6004826"><ele>272.33333333333337</ele><time>2026-04-25T14:03:55.632Z</time></trkpt><trkpt lat="43.3789174" lon="10.6005375"><ele>275.6666666666667</ele><time>2026-04-25T14:03:56.663Z</time></trkpt><trkpt lat="43.3790708" lon="10.6005711"><ele>279.0</ele><time>2026-04-25T14:03:57.635Z</time></trkpt><trkpt lat="43.3792267" lon="10.6005882"><ele>279.0</ele><time>2026-04-25T14:03:58.642Z</time></trkpt><trkpt lat="43.37937" lon="10.6005902"><ele>279.0</ele><time>2026-04-25T14:03:59.647Z</time></trkpt><trkpt lat="43.3794931" lon="10.6006027"><ele>279.0</ele><time>2026-04-25T14:04:00.652Z</time></trkpt><trkpt lat="43.3795998" lon="10.6006314"><ele>279.0</ele><time>2026-04-25T14:04:01.686Z</time></trkpt><trkpt lat="43.3797021" lon="10.6006849"><ele>278.5</ele><time>2026-04-25T14:04:02.648Z</time></trkpt><trkpt lat="43.3797944" lon="10.6007883"><ele>278.0</ele><time>2026-04-25T14:04:03.65Z</time></trkpt><trkpt lat="43.3798722" lon="10.6009422"><ele>277.5</ele><time>2026-04-25T14:04:04.662Z</time></trkpt><trkpt lat="43.379942" lon="10.6011292"><ele>277.0</ele><time>2026-04-25T14:04:05.661Z</time></trkpt><trkpt lat="43.3800142" lon="10.6013354"><ele>280.3333333333333</ele><time>2026-04-25T14:04:06.634Z</time></trkpt><trkpt lat="43.3800986" lon="10.6015585"><ele>283.6666666666667</ele><time>2026-04-25T14:04:07.676Z</time></trkpt><trkpt lat="43.3801934" lon="10.6017785"><ele>287.0</ele><time>2026-04-25T14:04:08.668Z</time></trkpt><trkpt lat="43.3802926" lon="10.6019869"><ele>288.6666666666667</ele><time>2026-04-25T14:04:09.669Z</time></trkpt><trkpt lat="43.3803925" lon="10.6021749"><ele>290.3333333333333</ele><time>2026-04-25T14:04:10.662Z</time></trkpt><trkpt lat="43.3804798" lon="10.6023412"><ele>292.0</ele><time>2026-04-25T14:04:11.648Z</time></trkpt><trkpt lat="43.3806274" lon="10.6027002"><ele>291.25</ele><time>2026-04-25T14:04:13.65Z</time></trkpt><trkpt lat="43.3806908" lon="10.6028903"><ele>290.5</ele><time>2026-04-25T14:04:14.664Z</time></trkpt><trkpt lat="43.3807525" lon="10.6030488"><ele>289.75</ele><time>2026-04-25T14:04:15.664Z</time></trkpt><trkpt lat="43.3808256" lon="10.6031703"><ele>289.0</ele><time>2026-04-25T14:04:16.647Z</time></trkpt><trkpt lat="43.3809275" lon="10.6032667"><ele>289.0</ele><time>2026-04-25T14:04:17.659Z</time></trkpt><trkpt lat="43.3810593" lon="10.6033289"><ele>289.0</ele><time>2026-04-25T14:04:18.656Z</time></trkpt><trkpt lat="43.3812023" lon="10.6033963"><ele>289.0</ele><time>2026-04-25T14:04:19.664Z</time></trkpt><trkpt lat="43.3813419" lon="10.6034677"><ele>289.0</ele><time>2026-04-25T14:04:20.646Z</time></trkpt><trkpt lat="43.3814706" lon="10.603553"><ele>288.25</ele><time>2026-04-25T14:04:21.669Z</time></trkpt><trkpt lat="43.3815802" lon="10.6036472"><ele>287.5</ele><time>2026-04-25T14:04:22.655Z</time></trkpt><trkpt lat="43.3816587" lon="10.6037467"><ele>286.75</ele><time>2026-04-25T14:04:23.649Z</time></trkpt><trkpt lat="43.3817406" lon="10.6038384"><ele>286.0</ele><time>2026-04-25T14:04:24.658Z</time></trkpt><trkpt lat="43.3818476" lon="10.6039108"><ele>291.3333333333333</ele><time>2026-04-25T14:04:25.653Z</time></trkpt><trkpt lat="43.3819823" lon="10.6039548"><ele>296.6666666666667</ele><time>2026-04-25T14:04:26.64Z</time></trkpt><trkpt lat="43.3821417" lon="10.6039613"><ele>302.0</ele><time>2026-04-25T14:04:27.657Z</time></trkpt><trkpt lat="43.3823321" lon="10.60397"><ele>302.33333333333337</ele><time>2026-04-25T14:04:28.67Z</time></trkpt><trkpt lat="43.3825496" lon="10.6039689"><ele>302.6666666666667</ele><time>2026-04-25T14:04:29.633Z</time></trkpt><trkpt lat="43.3827633" lon="10.6039743"><ele>303.0</ele><time>2026-04-25T14:04:30.665Z</time></trkpt><trkpt lat="43.3829624" lon="10.6039988"><ele>305.6666666666667</ele><time>2026-04-25T14:04:31.66Z</time></trkpt><trkpt lat="43.383112" lon="10.6040091"><ele>308.33333333333337</ele><time>2026-04-25T14:04:32.625Z</time></trkpt><trkpt lat="43.3833604" lon="10.6038697"><ele>311.0</ele><time>2026-04-25T14:04:34.66Z</time></trkpt><trkpt lat="43.3834806" lon="10.6037174"><ele>311.33333333333337</ele><time>2026-04-25T14:04:35.65Z</time></trkpt><trkpt lat="43.3836133" lon="10.6035093"><ele>311.6666666666667</ele><time>2026-04-25T14:04:36.659Z</time></trkpt><trkpt lat="43.3837704" lon="10.6032867"><ele>312.0</ele><time>2026-04-25T14:04:37.653Z</time></trkpt><trkpt lat="43.3839454" lon="10.6030636"><ele>312.0</ele><time>2026-04-25T14:04:38.663Z</time></trkpt><trkpt lat="43.3841292" lon="10.602839"><ele>312.0</ele><time>2026-04-25T14:04:39.645Z</time></trkpt><trkpt lat="43.3842993" lon="10.6026342"><ele>314.3333333333333</ele><time>2026-04-25T14:04:40.652Z</time></trkpt><trkpt lat="43.3844592" lon="10.6024615"><ele>316.66666666666663</ele><time>2026-04-25T14:04:41.66Z</time></trkpt><trkpt lat="43.3846193" lon="10.6022977"><ele>319.0</ele><time>2026-04-25T14:04:42.656Z</time></trkpt><trkpt lat="43.3847641" lon="10.6021278"><ele>315.3333333333333</ele><time>2026-04-25T14:04:43.66Z</time></trkpt><trkpt lat="43.3849045" lon="10.6019564"><ele>311.6666666666667</ele><time>2026-04-25T14:04:44.662Z</time></trkpt><trkpt lat="43.3850307" lon="10.6017776"><ele>308.0</ele><time>2026-04-25T14:04:45.656Z</time></trkpt><trkpt lat="43.3851362" lon="10.601588"><ele>308.0</ele><time>2026-04-25T14:04:46.654Z</time></trkpt><trkpt lat="43.3852458" lon="10.6014033"><ele>308.0</ele><time>2026-04-25T14:04:47.623Z</time></trkpt><trkpt lat="43.3853743" lon="10.6012159"><ele>308.0</ele><time>2026-04-25T14:04:48.66Z</time></trkpt><trkpt lat="43.385532" lon="10.6010349"><ele>310.5</ele><time>2026-04-25T14:04:49.629Z</time></trkpt><trkpt lat="43.3857184" lon="10.600847"><ele>313.0</ele><time>2026-04-25T14:04:50.657Z</time></trkpt><trkpt lat="43.38592" lon="10.6006676"><ele>313.0</ele><time>2026-04-25T14:04:51.667Z</time></trkpt><trkpt lat="43.3861006" lon="10.6005043"><ele>313.0</ele><time>2026-04-25T14:04:52.647Z</time></trkpt><trkpt lat="43.3862604" lon="10.6003604"><ele>313.0</ele><time>2026-04-25T14:04:53.655Z</time></trkpt><trkpt lat="43.3865186" lon="10.6001271"><ele>312.5</ele><time>2026-04-25T14:04:55.65Z</time></trkpt><trkpt lat="43.3866408" lon="10.6000169"><ele>312.0</ele><time>2026-04-25T14:04:56.658Z</time></trkpt><trkpt lat="43.386744" lon="10.5999175"><ele>311.5</ele><time>2026-04-25T14:04:57.66Z</time></trkpt><trkpt lat="43.3868273" lon="10.599841"><ele>311.0</ele><time>2026-04-25T14:04:58.649Z</time></trkpt><trkpt lat="43.3868755" lon="10.5997329"><ele>311.0</ele><time>2026-04-25T14:04:59.65Z</time></trkpt><trkpt lat="43.3868891" lon="10.5995893"><ele>311.0</ele><time>2026-04-25T14:05:00.631Z</time></trkpt><trkpt lat="43.3868762" lon="10.5994064"><ele>311.0</ele><time>2026-04-25T14:05:01.621Z</time></trkpt><trkpt lat="43.3868421" lon="10.5991928"><ele>311.0</ele><time>2026-04-25T14:05:02.632Z</time></trkpt><trkpt lat="43.3867852" lon="10.5989606"><ele>311.0</ele><time>2026-04-25T14:05:03.658Z</time></trkpt><trkpt lat="43.38673" lon="10.5987239"><ele>311.0</ele><time>2026-04-25T14:05:04.647Z</time></trkpt><trkpt lat="43.3866872" lon="10.5984694"><ele>311.0</ele><time>2026-04-25T14:05:05.66Z</time></trkpt><trkpt lat="43.3866613" lon="10.5982339"><ele>312.0</ele><time>2026-04-25T14:05:06.642Z</time></trkpt><trkpt lat="43.3866463" lon="10.5980262"><ele>313.0</ele><time>2026-04-25T14:05:07.641Z</time></trkpt><trkpt lat="43.3866541" lon="10.59782"><ele>314.0</ele><time>2026-04-25T14:05:08.662Z</time></trkpt><trkpt lat="43.3866846" lon="10.5975755"><ele>314.0</ele><time>2026-04-25T14:05:09.652Z</time></trkpt><trkpt lat="43.3867356" lon="10.5972704"><ele>314.0</ele><time>2026-04-25T14:05:10.662Z</time></trkpt><trkpt lat="43.3867902" lon="10.5969794"><ele>314.0</ele><time>2026-04-25T14:05:11.644Z</time></trkpt><trkpt lat="43.3868385" lon="10.5967167"><ele>312.6666666666667</ele><time>2026-04-25T14:05:12.647Z</time></trkpt><trkpt lat="43.3868763" lon="10.5964825"><ele>311.3333333333333</ele><time>2026-04-25T14:05:13.662Z</time></trkpt><trkpt lat="43.386912" lon="10.5962758"><ele>310.0</ele><time>2026-04-25T14:05:14.622Z</time></trkpt><trkpt lat="43.3869966" lon="10.5959078"><ele>308.75</ele><time>2026-04-25T14:05:16.666Z</time></trkpt><trkpt lat="43.3870447" lon="10.5957452"><ele>307.5</ele><time>2026-04-25T14:05:17.643Z</time></trkpt><trkpt lat="43.3871131" lon="10.5956005"><ele>306.25</ele><time>2026-04-25T14:05:18.656Z</time></trkpt><trkpt lat="43.387204" lon="10.5954941"><ele>305.0</ele><time>2026-04-25T14:05:19.64Z</time></trkpt><trkpt lat="43.3873214" lon="10.5954196"><ele>308.0</ele><time>2026-04-25T14:05:20.649Z</time></trkpt><trkpt lat="43.3874318" lon="10.5953579"><ele>311.0</ele><time>2026-04-25T14:05:21.651Z</time></trkpt><trkpt lat="43.3875271" lon="10.595306"><ele>314.0</ele><time>2026-04-25T14:05:22.636Z</time></trkpt><trkpt lat="43.3876136" lon="10.5952508"><ele>317.0</ele><time>2026-04-25T14:05:23.662Z</time></trkpt><trkpt lat="43.3876836" lon="10.5951951"><ele>320.0</ele><time>2026-04-25T14:05:24.628Z</time></trkpt><trkpt lat="43.3877283" lon="10.5951236"><ele>320.0</ele><time>2026-04-25T14:05:25.62Z</time></trkpt><trkpt lat="43.387748" lon="10.5950222"><ele>320.0</ele><time>2026-04-25T14:05:26.645Z</time></trkpt><trkpt lat="43.3877611" lon="10.5949114"><ele>320.0</ele><time>2026-04-25T14:05:27.641Z</time></trkpt><trkpt lat="43.3877351" lon="10.5948166"><ele>320.0</ele><time>2026-04-25T14:05:28.647Z</time></trkpt><trkpt lat="43.3876784" lon="10.594725"><ele>320.0</ele><time>2026-04-25T14:05:29.646Z</time></trkpt><trkpt lat="43.3875941" lon="10.5946308"><ele>320.0</ele><time>2026-04-25T14:05:30.653Z</time></trkpt><trkpt lat="43.3874984" lon="10.5945343"><ele>319.33333333333337</ele><time>2026-04-25T14:05:31.656Z</time></trkpt><trkpt lat="43.3873879" lon="10.5944296"><ele>318.6666666666667</ele><time>2026-04-25T14:05:32.643Z</time></trkpt><trkpt lat="43.3872432" lon="10.5943172"><ele>318.0</ele><time>2026-04-25T14:05:33.627Z</time></trkpt><trkpt lat="43.3870858" lon="10.5942138"><ele>318.0</ele><time>2026-04-25T14:05:34.65Z</time></trkpt><trkpt lat="43.3869478" lon="10.5941048"><ele>318.0</ele><time>2026-04-25T14:05:35.629Z</time></trkpt><trkpt lat="43.3867248" lon="10.5938846"><ele>318.0</ele><time>2026-04-25T14:05:37.649Z</time></trkpt><trkpt lat="43.3866331" lon="10.5938149"><ele>318.0</ele><time>2026-04-25T14:05:38.647Z</time></trkpt><trkpt lat="43.3865523" lon="10.5937501"><ele>318.0</ele><time>2026-04-25T14:05:39.629Z</time></trkpt><trkpt lat="43.386467" lon="10.5936982"><ele>318.0</ele><time>2026-04-25T14:05:40.66Z</time></trkpt><trkpt lat="43.3863794" lon="10.5936352"><ele>318.0</ele><time>2026-04-25T14:05:41.646Z</time></trkpt><trkpt lat="43.3863025" lon="10.593551"><ele>318.0</ele><time>2026-04-25T14:05:42.646Z</time></trkpt><trkpt lat="43.386252" lon="10.593448"><ele>317.25</ele><time>2026-04-25T14:05:43.64Z</time></trkpt><trkpt lat="43.3862264" lon="10.5933274"><ele>316.5</ele><time>2026-04-25T14:05:44.631Z</time></trkpt><trkpt lat="43.3862152" lon="10.5931786"><ele>315.75</ele><time>2026-04-25T14:05:45.652Z</time></trkpt><trkpt lat="43.3862072" lon="10.5930156"><ele>315.0</ele><time>2026-04-25T14:05:46.66Z</time></trkpt><trkpt lat="43.3862014" lon="10.5928347"><ele>316.5</ele><time>2026-04-25T14:05:47.644Z</time></trkpt><trkpt lat="43.3861932" lon="10.5926611"><ele>318.0</ele><time>2026-04-25T14:05:48.644Z</time></trkpt><trkpt lat="43.3861857" lon="10.5924988"><ele>319.5</ele><time>2026-04-25T14:05:49.618Z</time></trkpt><trkpt lat="43.3861724" lon="10.5923525"><ele>321.0</ele><time>2026-04-25T14:05:50.645Z</time></trkpt><trkpt lat="43.3861539" lon="10.5921993"><ele>321.0</ele><time>2026-04-25T14:05:51.648Z</time></trkpt><trkpt lat="43.3861246" lon="10.59206"><ele>321.0</ele><time>2026-04-25T14:05:52.626Z</time></trkpt><trkpt lat="43.3860761" lon="10.5919339"><ele>321.0</ele><time>2026-04-25T14:05:53.662Z</time></trkpt><trkpt lat="43.3860064" lon="10.5918314"><ele>321.0</ele><time>2026-04-25T14:05:54.619Z</time></trkpt><trkpt lat="43.3859145" lon="10.5917559"><ele>321.0</ele><time>2026-04-25T14:05:55.663Z</time></trkpt><trkpt lat="43.3857955" lon="10.5917142"><ele>323.0</ele><time>2026-04-25T14:05:56.648Z</time></trkpt><trkpt lat="43.3854784" lon="10.5916968"><ele>325.0</ele><time>2026-04-25T14:05:58.626Z</time></trkpt><trkpt lat="43.3853183" lon="10.5916785"><ele>325.0</ele><time>2026-04-25T14:05:59.644Z</time></trkpt><trkpt lat="43.3851765" lon="10.5916459"><ele>325.0</ele><time>2026-04-25T14:06:00.636Z</time></trkpt><trkpt lat="43.3850402" lon="10.5915844"><ele>325.0</ele><time>2026-04-25T14:06:01.629Z</time></trkpt><trkpt lat="43.3849123" lon="10.5915087"><ele>325.0</ele><time>2026-04-25T14:06:02.643Z</time></trkpt><trkpt lat="43.3848004" lon="10.59142"><ele>325.0</ele><time>2026-04-25T14:06:03.642Z</time></trkpt><trkpt lat="43.3847059" lon="10.5913068"><ele>325.0</ele><time>2026-04-25T14:06:04.657Z</time></trkpt><trkpt lat="43.3846287" lon="10.5911666"><ele>325.0</ele><time>2026-04-25T14:06:05.626Z</time></trkpt><trkpt lat="43.3845584" lon="10.5910003"><ele>325.0</ele><time>2026-04-25T14:06:06.625Z</time></trkpt><trkpt lat="43.3844879" lon="10.5907931"><ele>324.3333333333333</ele><time>2026-04-25T14:06:07.64Z</time></trkpt><trkpt lat="43.3844129" lon="10.5905604"><ele>323.6666666666667</ele><time>2026-04-25T14:06:08.642Z</time></trkpt><trkpt lat="43.3843357" lon="10.5903169"><ele>323.0</ele><time>2026-04-25T14:06:09.642Z</time></trkpt><trkpt lat="43.3842491" lon="10.5901006"><ele>325.33333333333337</ele><time>2026-04-25T14:06:10.646Z</time></trkpt><trkpt lat="43.3841294" lon="10.5898962"><ele>327.6666666666667</ele><time>2026-04-25T14:06:11.645Z</time></trkpt><trkpt lat="43.3839975" lon="10.589698"><ele>330.0</ele><time>2026-04-25T14:06:12.65Z</time></trkpt><trkpt lat="43.3838861" lon="10.5895322"><ele>329.0</ele><time>2026-04-25T14:06:13.65Z</time></trkpt><trkpt lat="43.3837988" lon="10.5893777"><ele>328.0</ele><time>2026-04-25T14:06:14.629Z</time></trkpt><trkpt lat="43.3837294" lon="10.5892053"><ele>327.0</ele><time>2026-04-25T14:06:15.614Z</time></trkpt><trkpt lat="43.3836776" lon="10.5890066"><ele>326.0</ele><time>2026-04-25T14:06:16.65Z</time></trkpt><trkpt lat="43.3836417" lon="10.5887963"><ele>330.0</ele><time>2026-04-25T14:06:17.621Z</time></trkpt><trkpt lat="43.3835329" lon="10.5883655"><ele>334.0</ele><time>2026-04-25T14:06:19.645Z</time></trkpt><trkpt lat="43.3834491" lon="10.5881436"><ele>334.0</ele><time>2026-04-25T14:06:20.652Z</time></trkpt><trkpt lat="43.3833702" lon="10.5879354"><ele>334.0</ele><time>2026-04-25T14:06:21.638Z</time></trkpt><trkpt lat="43.3832994" lon="10.5877414"><ele>334.0</ele><time>2026-04-25T14:06:22.638Z</time></trkpt><trkpt lat="43.3832527" lon="10.5875364"><ele>335.75</ele><time>2026-04-25T14:06:23.635Z</time></trkpt><trkpt lat="43.3832148" lon="10.5873263"><ele>337.5</ele><time>2026-04-25T14:06:24.637Z</time></trkpt><trkpt lat="43.3831838" lon="10.5871286"><ele>339.25</ele><time>2026-04-25T14:06:25.643Z</time></trkpt><trkpt lat="43.3831551" lon="10.586949"><ele>341.0</ele><time>2026-04-25T14:06:26.643Z</time></trkpt><trkpt lat="43.3831351" lon="10.5867848"><ele>341.75</ele><time>2026-04-25T14:06:27.641Z</time></trkpt><trkpt lat="43.3831287" lon="10.5866096"><ele>342.5</ele><time>2026-04-25T14:06:28.643Z</time></trkpt><trkpt lat="43.3831497" lon="10.5864342"><ele>343.25</ele><time>2026-04-25T14:06:29.614Z</time></trkpt><trkpt lat="43.3831914" lon="10.5862439"><ele>344.0</ele><time>2026-04-25T14:06:30.628Z</time></trkpt><trkpt lat="43.3832395" lon="10.5860632"><ele>344.75</ele><time>2026-04-25T14:06:31.651Z</time></trkpt><trkpt lat="43.3832809" lon="10.5858898"><ele>345.5</ele><time>2026-04-25T14:06:32.632Z</time></trkpt><trkpt lat="43.3833003" lon="10.5857128"><ele>346.25</ele><time>2026-04-25T14:06:33.626Z</time></trkpt><trkpt lat="43.3832819" lon="10.585513"><ele>347.0</ele><time>2026-04-25T14:06:34.629Z</time></trkpt><trkpt lat="43.3832428" lon="10.5852982"><ele>348.6666666666667</ele><time>2026-04-25T14:06:35.641Z</time></trkpt><trkpt lat="43.3832084" lon="10.5850738"><ele>350.3333333333333</ele><time>2026-04-25T14:06:36.635Z</time></trkpt><trkpt lat="43.3831662" lon="10.584833"><ele>352.0</ele><time>2026-04-25T14:06:37.62Z</time></trkpt><trkpt lat="43.383049" lon="10.5843882"><ele>347.5</ele><time>2026-04-25T14:06:39.625Z</time></trkpt><trkpt lat="43.3829947" lon="10.5842077"><ele>343.0</ele><time>2026-04-25T14:06:40.655Z</time></trkpt><trkpt lat="43.3829655" lon="10.584039"><ele>338.5</ele><time>2026-04-25T14:06:41.643Z</time></trkpt><trkpt lat="43.3829588" lon="10.5838793"><ele>334.0</ele><time>2026-04-25T14:06:42.613Z</time></trkpt><trkpt lat="43.3829332" lon="10.5837088"><ele>336.0</ele><time>2026-04-25T14:06:43.632Z</time></trkpt><trkpt lat="43.3828692" lon="10.5835088"><ele>338.0</ele><time>2026-04-25T14:06:44.637Z</time></trkpt><trkpt lat="43.3827857" lon="10.5833284"><ele>340.0</ele><time>2026-04-25T14:06:45.629Z</time></trkpt><trkpt lat="43.3826984" lon="10.5831654"><ele>340.0</ele><time>2026-04-25T14:06:46.624Z</time></trkpt><trkpt lat="43.3826005" lon="10.5830237"><ele>340.0</ele><time>2026-04-25T14:06:47.636Z</time></trkpt><trkpt lat="43.3824851" lon="10.582904"><ele>340.0</ele><time>2026-04-25T14:06:48.633Z</time></trkpt><trkpt lat="43.3823715" lon="10.5828154"><ele>340.0</ele><time>2026-04-25T14:06:49.628Z</time></trkpt><trkpt lat="43.3822657" lon="10.582748"><ele>340.0</ele><time>2026-04-25T14:06:50.637Z</time></trkpt><trkpt lat="43.3821707" lon="10.582697"><ele>340.0</ele><time>2026-04-25T14:06:51.645Z</time></trkpt><trkpt lat="43.3820792" lon="10.5826428"><ele>340.0</ele><time>2026-04-25T14:06:52.628Z</time></trkpt><trkpt lat="43.3819892" lon="10.5825786"><ele>340.0</ele><time>2026-04-25T14:06:53.624Z</time></trkpt><trkpt lat="43.3819085" lon="10.5825008"><ele>340.0</ele><time>2026-04-25T14:06:54.635Z</time></trkpt><trkpt lat="43.3818337" lon="10.582404"><ele>340.0</ele><time>2026-04-25T14:06:55.621Z</time></trkpt><trkpt lat="43.3817715" lon="10.5822881"><ele>340.0</ele><time>2026-04-25T14:06:56.615Z</time></trkpt><trkpt lat="43.3817224" lon="10.5821505"><ele>340.0</ele><time>2026-04-25T14:06:57.652Z</time></trkpt><trkpt lat="43.3816832" lon="10.5820039"><ele>340.0</ele><time>2026-04-25T14:06:58.647Z</time></trkpt><trkpt lat="43.3816116" lon="10.5817291"><ele>341.0</ele><time>2026-04-25T14:07:00.636Z</time></trkpt><trkpt lat="43.3815759" lon="10.5815993"><ele>342.0</ele><time>2026-04-25T14:07:01.645Z</time></trkpt><trkpt lat="43.3815441" lon="10.5814762"><ele>343.0</ele><time>2026-04-25T14:07:02.645Z</time></trkpt><trkpt lat="43.38152" lon="10.5813658"><ele>344.0</ele><time>2026-04-25T14:07:03.635Z</time></trkpt><trkpt lat="43.3815072" lon="10.5812599"><ele>345.0</ele><time>2026-04-25T14:07:04.641Z</time></trkpt><trkpt lat="43.3815153" lon="10.5811454"><ele>346.0</ele><time>2026-04-25T14:07:05.648Z</time></trkpt><trkpt lat="43.3815472" lon="10.5810142"><ele>346.25</ele><time>2026-04-25T14:07:06.625Z</time></trkpt><trkpt lat="43.3816004" lon="10.58089"><ele>346.5</ele><time>2026-04-25T14:07:07.622Z</time></trkpt><trkpt lat="43.3816705" lon="10.5807635"><ele>346.75</ele><time>2026-04-25T14:07:08.611Z</time></trkpt><trkpt lat="43.3817503" lon="10.5806424"><ele>347.0</ele><time>2026-04-25T14:07:09.618Z</time></trkpt><trkpt lat="43.3818358" lon="10.5805181"><ele>347.0</ele><time>2026-04-25T14:07:10.731Z</time></trkpt><trkpt lat="43.3819192" lon="10.5803971"><ele>347.0</ele><time>2026-04-25T14:07:11.641Z</time></trkpt><trkpt lat="43.3820083" lon="10.5802859"><ele>347.0</ele><time>2026-04-25T14:07:12.652Z</time></trkpt><trkpt lat="43.3821103" lon="10.5801571"><ele>347.0</ele><time>2026-04-25T14:07:13.621Z</time></trkpt><trkpt lat="43.3822446" lon="10.5800108"><ele>348.6666666666667</ele><time>2026-04-25T14:07:14.632Z</time></trkpt><trkpt lat="43.3823996" lon="10.579856"><ele>350.3333333333333</ele><time>2026-04-25T14:07:15.642Z</time></trkpt><trkpt lat="43.3825727" lon="10.5796907"><ele>352.0</ele><time>2026-04-25T14:07:16.615Z</time></trkpt><trkpt lat="43.3827349" lon="10.579539"><ele>353.0</ele><time>2026-04-25T14:07:17.635Z</time></trkpt><trkpt lat="43.3828766" lon="10.5793954"><ele>354.0</ele><time>2026-04-25T14:07:18.633Z</time></trkpt><trkpt lat="43.3829963" lon="10.579271"><ele>355.0</ele><time>2026-04-25T14:07:19.623Z</time></trkpt><trkpt lat="43.3832067" lon="10.5789567"><ele>355.0</ele><time>2026-04-25T14:07:21.636Z</time></trkpt><trkpt lat="43.3832982" lon="10.5787461"><ele>355.0</ele><time>2026-04-25T14:07:22.628Z</time></trkpt><trkpt lat="43.3833856" lon="10.5785345"><ele>355.0</ele><time>2026-04-25T14:07:23.609Z</time></trkpt><trkpt lat="43.3834778" lon="10.5783446"><ele>352.0</ele><time>2026-04-25T14:07:24.608Z</time></trkpt><trkpt lat="43.38359" lon="10.5781881"><ele>349.0</ele><time>2026-04-25T14:07:25.611Z</time></trkpt><trkpt lat="43.383699" lon="10.5780315"><ele>346.0</ele><time>2026-04-25T14:07:26.613Z</time></trkpt><trkpt lat="43.3837939" lon="10.5778651"><ele>351.0</ele><time>2026-04-25T14:07:27.611Z</time></trkpt><trkpt lat="43.3838791" lon="10.5776774"><ele>356.0</ele><time>2026-04-25T14:07:28.631Z</time></trkpt><trkpt lat="43.3839454" lon="10.5774659"><ele>361.0</ele><time>2026-04-25T14:07:29.603Z</time></trkpt><trkpt lat="43.3839892" lon="10.577253"><ele>361.0</ele><time>2026-04-25T14:07:30.605Z</time></trkpt><trkpt lat="43.3840068" lon="10.5770552"><ele>361.0</ele><time>2026-04-25T14:07:31.624Z</time></trkpt><trkpt lat="43.3840003" lon="10.576864"><ele>361.0</ele><time>2026-04-25T14:07:32.617Z</time></trkpt><trkpt lat="43.3839524" lon="10.5766841"><ele>361.0</ele><time>2026-04-25T14:07:33.609Z</time></trkpt><trkpt lat="43.3838849" lon="10.5764931"><ele>357.5</ele><time>2026-04-25T14:07:34.616Z</time></trkpt><trkpt lat="43.3838158" lon="10.57633"><ele>354.0</ele><time>2026-04-25T14:07:35.62Z</time></trkpt><trkpt lat="43.383776" lon="10.5761835"><ele>350.5</ele><time>2026-04-25T14:07:36.627Z</time></trkpt><trkpt lat="43.3837617" lon="10.5760308"><ele>347.0</ele><time>2026-04-25T14:07:37.601Z</time></trkpt><trkpt lat="43.3837762" lon="10.5758613"><ele>347.0</ele><time>2026-04-25T14:07:38.623Z</time></trkpt><trkpt lat="43.3838081" lon="10.5757134"><ele>347.0</ele><time>2026-04-25T14:07:39.616Z</time></trkpt><trkpt lat="43.3838474" lon="10.5756193"><ele>347.0</ele><time>2026-04-25T14:07:40.614Z</time></trkpt><trkpt lat="43.3839162" lon="10.5755754"><ele>347.0</ele><time>2026-04-25T14:07:41.604Z</time></trkpt><trkpt lat="43.3841404" lon="10.5755943"><ele>351.0</ele><time>2026-04-25T14:07:43.616Z</time></trkpt><trkpt lat="43.3842616" lon="10.5756517"><ele>355.0</ele><time>2026-04-25T14:07:44.615Z</time></trkpt><trkpt lat="43.3843755" lon="10.5757479"><ele>359.0</ele><time>2026-04-25T14:07:45.623Z</time></trkpt><trkpt lat="43.3844741" lon="10.575845"><ele>363.0</ele><time>2026-04-25T14:07:46.614Z</time></trkpt><trkpt lat="43.3845677" lon="10.5759035"><ele>363.0</ele><time>2026-04-25T14:07:47.611Z</time></trkpt><trkpt lat="43.3846621" lon="10.5759042"><ele>363.0</ele><time>2026-04-25T14:07:48.616Z</time></trkpt><trkpt lat="43.3847767" lon="10.5758583"><ele>363.0</ele><time>2026-04-25T14:07:49.637Z</time></trkpt><trkpt lat="43.3849192" lon="10.5757618"><ele>363.0</ele><time>2026-04-25T14:07:50.614Z</time></trkpt><trkpt lat="43.3850627" lon="10.5756078"><ele>362.6666666666667</ele><time>2026-04-25T14:07:51.622Z</time></trkpt><trkpt lat="43.385215" lon="10.5754282"><ele>362.33333333333337</ele><time>2026-04-25T14:07:52.611Z</time></trkpt><trkpt lat="43.3853577" lon="10.575228"><ele>362.0</ele><time>2026-04-25T14:07:53.607Z</time></trkpt><trkpt lat="43.3855076" lon="10.5750368"><ele>367.6666666666667</ele><time>2026-04-25T14:07:54.623Z</time></trkpt><trkpt lat="43.3856564" lon="10.5748763"><ele>373.3333333333333</ele><time>2026-04-25T14:07:55.617Z</time></trkpt><trkpt lat="43.3858035" lon="10.5747282"><ele>379.0</ele><time>2026-04-25T14:07:56.602Z</time></trkpt><trkpt lat="43.3859378" lon="10.5746105"><ele>379.0</ele><time>2026-04-25T14:07:57.604Z</time></trkpt><trkpt lat="43.386047" lon="10.5745395"><ele>379.0</ele><time>2026-04-25T14:07:58.605Z</time></trkpt><trkpt lat="43.3861558" lon="10.5744733"><ele>379.0</ele><time>2026-04-25T14:07:59.611Z</time></trkpt><trkpt lat="43.3862625" lon="10.5744497"><ele>379.0</ele><time>2026-04-25T14:08:00.6Z</time></trkpt><trkpt lat="43.3863795" lon="10.5744547"><ele>375.0</ele><time>2026-04-25T14:08:01.608Z</time></trkpt><trkpt lat="43.386537" lon="10.5745006"><ele>371.0</ele><time>2026-04-25T14:08:02.616Z</time></trkpt><trkpt lat="43.3869935" lon="10.5746812"><ele>379.5</ele><time>2026-04-25T14:08:04.612Z</time></trkpt><trkpt lat="43.3872418" lon="10.5747877"><ele>388.0</ele><time>2026-04-25T14:08:05.622Z</time></trkpt><trkpt lat="43.3874603" lon="10.5749023"><ele>388.0</ele><time>2026-04-25T14:08:06.609Z</time></trkpt><trkpt lat="43.387626" lon="10.5749949"><ele>388.0</ele><time>2026-04-25T14:08:07.608Z</time></trkpt><trkpt lat="43.3877699" lon="10.5750502"><ele>388.0</ele><time>2026-04-25T14:08:08.611Z</time></trkpt><trkpt lat="43.387917" lon="10.5750802"><ele>387.0</ele><time>2026-04-25T14:08:09.613Z</time></trkpt><trkpt lat="43.3881151" lon="10.5750848"><ele>386.0</ele><time>2026-04-25T14:08:10.612Z</time></trkpt><trkpt lat="43.3883238" lon="10.5750721"><ele>385.0</ele><time>2026-04-25T14:08:11.619Z</time></trkpt><trkpt lat="43.3884886" lon="10.5750577"><ele>385.0</ele><time>2026-04-25T14:08:12.601Z</time></trkpt><trkpt lat="43.3886297" lon="10.5750193"><ele>385.0</ele><time>2026-04-25T14:08:13.599Z</time></trkpt><trkpt lat="43.3887682" lon="10.5749773"><ele>385.0</ele><time>2026-04-25T14:08:14.61Z</time></trkpt><trkpt lat="43.3889094" lon="10.5749018"><ele>385.0</ele><time>2026-04-25T14:08:15.73Z</time></trkpt><trkpt lat="43.3890529" lon="10.5747699"><ele>385.6666666666667</ele><time>2026-04-25T14:08:16.702Z</time></trkpt><trkpt lat="43.3892113" lon="10.5745973"><ele>386.33333333333337</ele><time>2026-04-25T14:08:17.606Z</time></trkpt><trkpt lat="43.3893489" lon="10.5744471"><ele>387.0</ele><time>2026-04-25T14:08:18.612Z</time></trkpt><trkpt lat="43.3894484" lon="10.5742955"><ele>387.0</ele><time>2026-04-25T14:08:19.601Z</time></trkpt><trkpt lat="43.3895345" lon="10.5741147"><ele>387.0</ele><time>2026-04-25T14:08:20.617Z</time></trkpt><trkpt lat="43.3896038" lon="10.5739018"><ele>387.0</ele><time>2026-04-25T14:08:21.712Z</time></trkpt><trkpt lat="43.3896701" lon="10.5737155"><ele>390.33333333333337</ele><time>2026-04-25T14:08:22.714Z</time></trkpt><trkpt lat="43.3898006" lon="10.5734865"><ele>393.6666666666667</ele><time>2026-04-25T14:08:24.621Z</time></trkpt><trkpt lat="43.3898964" lon="10.5734129"><ele>397.0</ele><time>2026-04-25T14:08:25.616Z</time></trkpt><trkpt lat="43.3900207" lon="10.5733627"><ele>397.0</ele><time>2026-04-25T14:08:26.598Z</time></trkpt><trkpt lat="43.3901855" lon="10.5733144"><ele>397.0</ele><time>2026-04-25T14:08:27.723Z</time></trkpt><trkpt lat="43.3903819" lon="10.5732494"><ele>397.0</ele><time>2026-04-25T14:08:28.718Z</time></trkpt><trkpt lat="43.3905596" lon="10.5731788"><ele>397.40000000000003</ele><time>2026-04-25T14:08:29.706Z</time></trkpt><trkpt lat="43.3906876" lon="10.5731204"><ele>397.8</ele><time>2026-04-25T14:08:30.71Z</time></trkpt><trkpt lat="43.3907932" lon="10.5730744"><ele>398.2</ele><time>2026-04-25T14:08:31.701Z</time></trkpt><trkpt lat="43.3908835" lon="10.5730493"><ele>398.6</ele><time>2026-04-25T14:08:32.608Z</time></trkpt><trkpt lat="43.3909564" lon="10.5730857"><ele>399.0</ele><time>2026-04-25T14:08:33.612Z</time></trkpt><trkpt lat="43.3910198" lon="10.5731721"><ele>399.0</ele><time>2026-04-25T14:08:34.714Z</time></trkpt><trkpt lat="43.3910728" lon="10.5732979"><ele>399.0</ele><time>2026-04-25T14:08:35.703Z</time></trkpt><trkpt lat="43.3911049" lon="10.5734503"><ele>399.0</ele><time>2026-04-25T14:08:36.726Z</time></trkpt><trkpt lat="43.3911243" lon="10.5736463"><ele>399.0</ele><time>2026-04-25T14:08:37.699Z</time></trkpt><trkpt lat="43.3911473" lon="10.5738789"><ele>400.0</ele><time>2026-04-25T14:08:38.72Z</time></trkpt><trkpt lat="43.3912085" lon="10.5742669"><ele>401.0</ele><time>2026-04-25T14:08:40.707Z</time></trkpt><trkpt lat="43.3912482" lon="10.5744269"><ele>402.0</ele><time>2026-04-25T14:08:41.71Z</time></trkpt><trkpt lat="43.3913149" lon="10.5745911"><ele>400.0</ele><time>2026-04-25T14:08:42.697Z</time></trkpt><trkpt lat="43.3913928" lon="10.5747438"><ele>398.0</ele><time>2026-04-25T14:08:43.714Z</time></trkpt><trkpt lat="43.391523" lon="10.5750123"><ele>396.0</ele><time>2026-04-25T14:08:45.717Z</time></trkpt><trkpt lat="43.3915659" lon="10.5751547"><ele>396.0</ele><time>2026-04-25T14:08:46.711Z</time></trkpt><trkpt lat="43.3916083" lon="10.5752774"><ele>396.0</ele><time>2026-04-25T14:08:47.719Z</time></trkpt><trkpt lat="43.3916556" lon="10.5753777"><ele>396.0</ele><time>2026-04-25T14:08:48.696Z</time></trkpt><trkpt lat="43.3917148" lon="10.5754567"><ele>396.0</ele><time>2026-04-25T14:08:49.697Z</time></trkpt><trkpt lat="43.3917851" lon="10.5755065"><ele>396.0</ele><time>2026-04-25T14:08:50.712Z</time></trkpt><trkpt lat="43.3918611" lon="10.5755223"><ele>396.0</ele><time>2026-04-25T14:08:51.689Z</time></trkpt><trkpt lat="43.3919487" lon="10.5755176"><ele>396.4</ele><time>2026-04-25T14:08:52.703Z</time></trkpt><trkpt lat="43.3920385" lon="10.5755062"><ele>396.8</ele><time>2026-04-25T14:08:53.713Z</time></trkpt><trkpt lat="43.3921424" lon="10.5754927"><ele>397.2</ele><time>2026-04-25T14:08:54.715Z</time></trkpt><trkpt lat="43.3922438" lon="10.575471"><ele>397.59999999999997</ele><time>2026-04-25T14:08:55.708Z</time></trkpt><trkpt lat="43.3923354" lon="10.5754397"><ele>398.0</ele><time>2026-04-25T14:08:56.7Z</time></trkpt><trkpt lat="43.392427" lon="10.5753871"><ele>396.25</ele><time>2026-04-25T14:08:57.744Z</time></trkpt><trkpt lat="43.392525" lon="10.5752923"><ele>394.5</ele><time>2026-04-25T14:08:58.713Z</time></trkpt><trkpt lat="43.3926272" lon="10.575165"><ele>392.75</ele><time>2026-04-25T14:08:59.717Z</time></trkpt><trkpt lat="43.392714" lon="10.5749877"><ele>391.0</ele><time>2026-04-25T14:09:00.691Z</time></trkpt><trkpt lat="43.3927856" lon="10.5747799"><ele>391.0</ele><time>2026-04-25T14:09:01.707Z</time></trkpt><trkpt lat="43.392851" lon="10.5745843"><ele>391.0</ele><time>2026-04-25T14:09:02.722Z</time></trkpt><trkpt lat="43.3929124" lon="10.5744251"><ele>391.0</ele><time>2026-04-25T14:09:03.705Z</time></trkpt><trkpt lat="43.3929945" lon="10.5742941"><ele>391.0</ele><time>2026-04-25T14:09:04.707Z</time></trkpt><trkpt lat="43.3932253" lon="10.5740437"><ele>391.6</ele><time>2026-04-25T14:09:06.721Z</time></trkpt><trkpt lat="43.3933484" lon="10.5739574"><ele>392.20000000000005</ele><time>2026-04-25T14:09:07.725Z</time></trkpt><trkpt lat="43.393447" lon="10.5738837"><ele>392.79999999999995</ele><time>2026-04-25T14:09:08.731Z</time></trkpt><trkpt lat="43.3935211" lon="10.5738046"><ele>393.4</ele><time>2026-04-25T14:09:09.72Z</time></trkpt><trkpt lat="43.3935686" lon="10.5737352"><ele>394.0</ele><time>2026-04-25T14:09:10.72Z</time></trkpt><trkpt lat="43.3936387" lon="10.5736486"><ele>393.4</ele><time>2026-04-25T14:09:12.719Z</time></trkpt><trkpt lat="43.3937005" lon="10.5736241"><ele>392.79999999999995</ele><time>2026-04-25T14:16:22.652Z</time></trkpt><trkpt lat="43.3938524" lon="10.5735605"><ele>392.20000000000005</ele><time>2026-04-25T14:16:26.668Z</time></trkpt><trkpt lat="43.3939393" lon="10.5735119"><ele>391.6</ele><time>2026-04-25T14:16:27.668Z</time></trkpt><trkpt lat="43.3940616" lon="10.5734472"><ele>391.0</ele><time>2026-04-25T14:16:28.687Z</time></trkpt><trkpt lat="43.3941994" lon="10.5733687"><ele>391.0</ele><time>2026-04-25T14:16:29.663Z</time></trkpt><trkpt lat="43.3943102" lon="10.573295"><ele>391.0</ele><time>2026-04-25T14:16:30.654Z</time></trkpt><trkpt lat="43.3944062" lon="10.5732453"><ele>391.0</ele><time>2026-04-25T14:16:31.658Z</time></trkpt><trkpt lat="43.3944951" lon="10.5732052"><ele>391.0</ele><time>2026-04-25T14:16:32.667Z</time></trkpt><trkpt lat="43.3945831" lon="10.5731771"><ele>391.0</ele><time>2026-04-25T14:16:33.649Z</time></trkpt><trkpt lat="43.3946887" lon="10.5731365"><ele>394.0</ele><time>2026-04-25T14:16:34.681Z</time></trkpt><trkpt lat="43.3948163" lon="10.5730891"><ele>397.0</ele><time>2026-04-25T14:16:35.672Z</time></trkpt><trkpt lat="43.3949421" lon="10.5730315"><ele>400.0</ele><time>2026-04-25T14:16:36.663Z</time></trkpt><trkpt lat="43.3950699" lon="10.5729847"><ele>403.0</ele><time>2026-04-25T14:16:37.64Z</time></trkpt><trkpt lat="43.3951988" lon="10.5729388"><ele>403.0</ele><time>2026-04-25T14:16:38.665Z</time></trkpt><trkpt lat="43.3953462" lon="10.5728778"><ele>403.0</ele><time>2026-04-25T14:16:39.66Z</time></trkpt><trkpt lat="43.3955149" lon="10.5728301"><ele>403.0</ele><time>2026-04-25T14:16:40.664Z</time></trkpt><trkpt lat="43.3956855" lon="10.5727923"><ele>398.5</ele><time>2026-04-25T14:16:41.658Z</time></trkpt><trkpt lat="43.3958409" lon="10.5727742"><ele>394.0</ele><time>2026-04-25T14:16:42.672Z</time></trkpt><trkpt lat="43.3959869" lon="10.5727723"><ele>389.5</ele><time>2026-04-25T14:16:43.673Z</time></trkpt><trkpt lat="43.3961292" lon="10.5727901"><ele>385.0</ele><time>2026-04-25T14:16:44.651Z</time></trkpt><trkpt lat="43.3964031" lon="10.5728488"><ele>388.25</ele><time>2026-04-25T14:16:46.665Z</time></trkpt><trkpt lat="43.3965413" lon="10.572886"><ele>391.5</ele><time>2026-04-25T14:16:47.672Z</time></trkpt><trkpt lat="43.3966824" lon="10.5729177"><ele>394.75</ele><time>2026-04-25T14:16:48.668Z</time></trkpt><trkpt lat="43.3968244" lon="10.5729473"><ele>398.0</ele><time>2026-04-25T14:16:49.67Z</time></trkpt><trkpt lat="43.3969686" lon="10.5729796"><ele>398.0</ele><time>2026-04-25T14:16:50.658Z</time></trkpt><trkpt lat="43.3971084" lon="10.5730079"><ele>398.0</ele><time>2026-04-25T14:16:51.638Z</time></trkpt><trkpt lat="43.3972448" lon="10.5730393"><ele>398.0</ele><time>2026-04-25T14:16:52.657Z</time></trkpt><trkpt lat="43.3973718" lon="10.5730817"><ele>398.0</ele><time>2026-04-25T14:16:53.663Z</time></trkpt><trkpt lat="43.3974882" lon="10.5731524"><ele>396.0</ele><time>2026-04-25T14:16:54.671Z</time></trkpt><trkpt lat="43.3975938" lon="10.5732554"><ele>394.0</ele><time>2026-04-25T14:16:55.633Z</time></trkpt><trkpt lat="43.3976922" lon="10.5733739"><ele>392.0</ele><time>2026-04-25T14:16:56.637Z</time></trkpt><trkpt lat="43.3977906" lon="10.573496"><ele>390.0</ele><time>2026-04-25T14:16:57.656Z</time></trkpt><trkpt lat="43.3978884" lon="10.5736084"><ele>388.75</ele><time>2026-04-25T14:16:58.678Z</time></trkpt><trkpt lat="43.3980041" lon="10.5736733"><ele>387.5</ele><time>2026-04-25T14:16:59.678Z</time></trkpt><trkpt lat="43.3981334" lon="10.5736828"><ele>386.25</ele><time>2026-04-25T14:17:00.645Z</time></trkpt><trkpt lat="43.3982598" lon="10.573672"><ele>385.0</ele><time>2026-04-25T14:17:01.652Z</time></trkpt><trkpt lat="43.3983867" lon="10.5736677"><ele>385.0</ele><time>2026-04-25T14:17:02.652Z</time></trkpt><trkpt lat="43.3985172" lon="10.5736535"><ele>385.0</ele><time>2026-04-25T14:17:03.675Z</time></trkpt><trkpt lat="43.3986554" lon="10.5736294"><ele>385.0</ele><time>2026-04-25T14:17:04.665Z</time></trkpt><trkpt lat="43.3987939" lon="10.5735957"><ele>385.0</ele><time>2026-04-25T14:17:05.663Z</time></trkpt><trkpt lat="43.3990789" lon="10.5735183"><ele>385.5</ele><time>2026-04-25T14:17:07.665Z</time></trkpt><trkpt lat="43.3992139" lon="10.5734813"><ele>386.0</ele><time>2026-04-25T14:17:08.661Z</time></trkpt><trkpt lat="43.3993497" lon="10.5734337"><ele>386.5</ele><time>2026-04-25T14:17:09.667Z</time></trkpt><trkpt lat="43.3994897" lon="10.5733647"><ele>387.0</ele><time>2026-04-25T14:17:10.668Z</time></trkpt><trkpt lat="43.3996251" lon="10.573245"><ele>387.0</ele><time>2026-04-25T14:17:11.672Z</time></trkpt><trkpt lat="43.3997481" lon="10.5730911"><ele>387.0</ele><time>2026-04-25T14:17:12.664Z</time></trkpt><trkpt lat="43.399852" lon="10.5729099"><ele>387.0</ele><time>2026-04-25T14:17:13.673Z</time></trkpt><trkpt lat="43.3999376" lon="10.572711"><ele>387.0</ele><time>2026-04-25T14:17:14.662Z</time></trkpt><trkpt lat="43.4000122" lon="10.5725141"><ele>387.0</ele><time>2026-04-25T14:17:15.633Z</time></trkpt><trkpt lat="43.4000934" lon="10.572337"><ele>387.0</ele><time>2026-04-25T14:17:16.66Z</time></trkpt><trkpt lat="43.4001958" lon="10.5721743"><ele>387.0</ele><time>2026-04-25T14:17:17.694Z</time></trkpt><trkpt lat="43.4003251" lon="10.5720441"><ele>387.0</ele><time>2026-04-25T14:17:18.654Z</time></trkpt><trkpt lat="43.4004705" lon="10.5719229"><ele>387.0</ele><time>2026-04-25T14:17:19.667Z</time></trkpt><trkpt lat="43.4006133" lon="10.5718064"><ele>387.33333333333337</ele><time>2026-04-25T14:17:20.671Z</time></trkpt><trkpt lat="43.4007451" lon="10.5716837"><ele>387.6666666666667</ele><time>2026-04-25T14:17:21.658Z</time></trkpt><trkpt lat="43.4008604" lon="10.5715317"><ele>388.0</ele><time>2026-04-25T14:17:22.659Z</time></trkpt><trkpt lat="43.4009557" lon="10.5713513"><ele>386.75</ele><time>2026-04-25T14:17:23.655Z</time></trkpt><trkpt lat="43.401035" lon="10.5711752"><ele>385.5</ele><time>2026-04-25T14:17:24.67Z</time></trkpt><trkpt lat="43.4011137" lon="10.5710308"><ele>384.25</ele><time>2026-04-25T14:17:25.675Z</time></trkpt><trkpt lat="43.4012376" lon="10.5709582"><ele>383.0</ele><time>2026-04-25T14:17:26.665Z</time></trkpt><trkpt lat="43.4013846" lon="10.5709555"><ele>383.0</ele><time>2026-04-25T14:17:27.65Z</time></trkpt><trkpt lat="43.4016709" lon="10.5711052"><ele>383.0</ele><time>2026-04-25T14:17:29.687Z</time></trkpt><trkpt lat="43.4018081" lon="10.5711901"><ele>383.0</ele><time>2026-04-25T14:17:30.66Z</time></trkpt><trkpt lat="43.401938" lon="10.5712163"><ele>383.0</ele><time>2026-04-25T14:17:31.669Z</time></trkpt><trkpt lat="43.402076" lon="10.5711763"><ele>383.0</ele><time>2026-04-25T14:17:32.643Z</time></trkpt><trkpt lat="43.4022052" lon="10.5710736"><ele>383.0</ele><time>2026-04-25T14:17:33.69Z</time></trkpt><trkpt lat="43.4023074" lon="10.5709426"><ele>384.0</ele><time>2026-04-25T14:17:34.639Z</time></trkpt><trkpt lat="43.402397" lon="10.570798"><ele>385.0</ele><time>2026-04-25T14:17:35.644Z</time></trkpt><trkpt lat="43.4024982" lon="10.570699"><ele>386.0</ele><time>2026-04-25T14:17:36.649Z</time></trkpt><trkpt lat="43.402638" lon="10.5706854"><ele>387.0</ele><time>2026-04-25T14:17:37.66Z</time></trkpt><trkpt lat="43.402777" lon="10.5707257"><ele>387.0</ele><time>2026-04-25T14:17:38.638Z</time></trkpt><trkpt lat="43.4028747" lon="10.5708423"><ele>387.0</ele><time>2026-04-25T14:17:39.634Z</time></trkpt><trkpt lat="43.4029328" lon="10.5710412"><ele>387.0</ele><time>2026-04-25T14:17:40.643Z</time></trkpt><trkpt lat="43.4029859" lon="10.5712472"><ele>387.0</ele><time>2026-04-25T14:17:41.638Z</time></trkpt><trkpt lat="43.4030666" lon="10.5714035"><ele>387.33333333333337</ele><time>2026-04-25T14:17:42.653Z</time></trkpt><trkpt lat="43.4032061" lon="10.5714942"><ele>387.6666666666667</ele><time>2026-04-25T14:17:43.64Z</time></trkpt><trkpt lat="43.4033584" lon="10.5715491"><ele>388.0</ele><time>2026-04-25T14:17:44.674Z</time></trkpt><trkpt lat="43.403507" lon="10.5715856"><ele>388.0</ele><time>2026-04-25T14:17:45.648Z</time></trkpt><trkpt lat="43.4036426" lon="10.5716347"><ele>388.0</ele><time>2026-04-25T14:17:46.643Z</time></trkpt><trkpt lat="43.4037507" lon="10.5717246"><ele>388.0</ele><time>2026-04-25T14:17:47.638Z</time></trkpt><trkpt lat="43.4038456" lon="10.5718321"><ele>388.0</ele><time>2026-04-25T14:17:48.637Z</time></trkpt><trkpt lat="43.4039577" lon="10.5721381"><ele>389.25</ele><time>2026-04-25T14:17:50.656Z</time></trkpt><trkpt lat="43.4039677" lon="10.5723283"><ele>390.5</ele><time>2026-04-25T14:17:51.666Z</time></trkpt><trkpt lat="43.4039276" lon="10.5725205"><ele>391.75</ele><time>2026-04-25T14:17:52.672Z</time></trkpt><trkpt lat="43.4038659" lon="10.5727058"><ele>393.0</ele><time>2026-04-25T14:17:53.644Z</time></trkpt><trkpt lat="43.4037993" lon="10.5728787"><ele>393.0</ele><time>2026-04-25T14:17:54.679Z</time></trkpt><trkpt lat="43.4037388" lon="10.5730373"><ele>393.0</ele><time>2026-04-25T14:17:55.674Z</time></trkpt><trkpt lat="43.4036941" lon="10.5732072"><ele>393.0</ele><time>2026-04-25T14:17:56.662Z</time></trkpt><trkpt lat="43.4036658" lon="10.5733751"><ele>393.0</ele><time>2026-04-25T14:17:57.642Z</time></trkpt><trkpt lat="43.4036622" lon="10.5735413"><ele>394.0</ele><time>2026-04-25T14:17:58.667Z</time></trkpt><trkpt lat="43.4036794" lon="10.5736988"><ele>395.0</ele><time>2026-04-25T14:17:59.647Z</time></trkpt><trkpt lat="43.4037173" lon="10.5738487"><ele>396.0</ele><time>2026-04-25T14:18:00.648Z</time></trkpt><trkpt lat="43.4037711" lon="10.5739905"><ele>397.0</ele><time>2026-04-25T14:18:01.681Z</time></trkpt><trkpt lat="43.4038295" lon="10.5741324"><ele>395.25</ele><time>2026-04-25T14:18:02.668Z</time></trkpt><trkpt lat="43.4038917" lon="10.5742829"><ele>393.5</ele><time>2026-04-25T14:18:03.664Z</time></trkpt><trkpt lat="43.403944" lon="10.5744336"><ele>391.75</ele><time>2026-04-25T14:18:04.67Z</time></trkpt><trkpt lat="43.4039895" lon="10.5745814"><ele>390.0</ele><time>2026-04-25T14:18:05.638Z</time></trkpt><trkpt lat="43.404032" lon="10.5747259"><ele>390.0</ele><time>2026-04-25T14:18:06.667Z</time></trkpt><trkpt lat="43.4040747" lon="10.5748671"><ele>390.0</ele><time>2026-04-25T14:18:07.681Z</time></trkpt><trkpt lat="43.4041148" lon="10.575006"><ele>390.0</ele><time>2026-04-25T14:18:08.669Z</time></trkpt><trkpt lat="43.4041598" lon="10.5751422"><ele>390.0</ele><time>2026-04-25T14:18:09.678Z</time></trkpt><trkpt lat="43.4042474" lon="10.5754121"><ele>390.6</ele><time>2026-04-25T14:18:11.675Z</time></trkpt><trkpt lat="43.4042998" lon="10.5755307"><ele>391.2</ele><time>2026-04-25T14:18:12.655Z</time></trkpt><trkpt lat="43.4043764" lon="10.5756288"><ele>391.79999999999995</ele><time>2026-04-25T14:18:13.677Z</time></trkpt><trkpt lat="43.4044772" lon="10.5756681"><ele>392.4</ele><time>2026-04-25T14:18:14.655Z</time></trkpt><trkpt lat="43.4045879" lon="10.5756278"><ele>393.0</ele><time>2026-04-25T14:18:15.658Z</time></trkpt><trkpt lat="43.4046882" lon="10.5755402"><ele>393.0</ele><time>2026-04-25T14:18:16.666Z</time></trkpt><trkpt lat="43.4047719" lon="10.5754352"><ele>393.0</ele><time>2026-04-25T14:18:17.658Z</time></trkpt><trkpt lat="43.4048648" lon="10.5753335"><ele>393.0</ele><time>2026-04-25T14:18:18.663Z</time></trkpt><trkpt lat="43.404955" lon="10.5752285"><ele>393.0</ele><time>2026-04-25T14:18:19.674Z</time></trkpt><trkpt lat="43.4050416" lon="10.5751361"><ele>391.2</ele><time>2026-04-25T14:18:20.673Z</time></trkpt><trkpt lat="43.4051366" lon="10.5750689"><ele>389.4</ele><time>2026-04-25T14:18:21.679Z</time></trkpt><trkpt lat="43.4052441" lon="10.5750377"><ele>387.59999999999997</ele><time>2026-04-25T14:18:22.652Z</time></trkpt><trkpt lat="43.4053386" lon="10.5750505"><ele>385.79999999999995</ele><time>2026-04-25T14:18:23.645Z</time></trkpt><trkpt lat="43.4054262" lon="10.5751343"><ele>384.0</ele><time>2026-04-25T14:18:24.64Z</time></trkpt><trkpt lat="43.4054995" lon="10.5752821"><ele>383.75</ele><time>2026-04-25T14:18:25.68Z</time></trkpt><trkpt lat="43.4055527" lon="10.5754461"><ele>383.5</ele><time>2026-04-25T14:18:26.663Z</time></trkpt><trkpt lat="43.4056071" lon="10.5755865"><ele>383.25</ele><time>2026-04-25T14:18:27.667Z</time></trkpt><trkpt lat="43.4056789" lon="10.5756981"><ele>383.0</ele><time>2026-04-25T14:18:28.669Z</time></trkpt><trkpt lat="43.4057585" lon="10.5758044"><ele>383.0</ele><time>2026-04-25T14:18:29.679Z</time></trkpt><trkpt lat="43.4058346" lon="10.5758969"><ele>383.0</ele><time>2026-04-25T14:18:30.668Z</time></trkpt><trkpt lat="43.4059019" lon="10.5759861"><ele>383.0</ele><time>2026-04-25T14:18:31.644Z</time></trkpt><trkpt lat="43.4060306" lon="10.5761563"><ele>383.0</ele><time>2026-04-25T14:18:33.676Z</time></trkpt><trkpt lat="43.4060891" lon="10.5762484"><ele>382.59999999999997</ele><time>2026-04-25T14:18:34.644Z</time></trkpt><trkpt lat="43.4061437" lon="10.5763575"><ele>382.2</ele><time>2026-04-25T14:18:35.661Z</time></trkpt><trkpt lat="43.4061998" lon="10.5764726"><ele>381.8</ele><time>2026-04-25T14:18:36.661Z</time></trkpt><trkpt lat="43.4062687" lon="10.57658"><ele>381.4</ele><time>2026-04-25T14:18:37.662Z</time></trkpt><trkpt lat="43.4063484" lon="10.5766712"><ele>381.0</ele><time>2026-04-25T14:18:38.659Z</time></trkpt><trkpt lat="43.4064355" lon="10.5767466"><ele>381.0</ele><time>2026-04-25T14:18:39.67Z</time></trkpt><trkpt lat="43.4065248" lon="10.5768199"><ele>381.0</ele><time>2026-04-25T14:18:40.658Z</time></trkpt><trkpt lat="43.4066107" lon="10.576903"><ele>381.0</ele><time>2026-04-25T14:18:41.662Z</time></trkpt><trkpt lat="43.4066962" lon="10.5770027"><ele>381.0</ele><time>2026-04-25T14:18:42.676Z</time></trkpt><trkpt lat="43.4067766" lon="10.5771073"><ele>381.0</ele><time>2026-04-25T14:18:43.675Z</time></trkpt><trkpt lat="43.4068446" lon="10.5772258"><ele>382.5</ele><time>2026-04-25T14:18:44.683Z</time></trkpt><trkpt lat="43.4069016" lon="10.5773558"><ele>384.0</ele><time>2026-04-25T14:18:45.677Z</time></trkpt><trkpt lat="43.4069497" lon="10.5775057"><ele>385.5</ele><time>2026-04-25T14:18:46.635Z</time></trkpt><trkpt lat="43.4069922" lon="10.5776822"><ele>387.0</ele><time>2026-04-25T14:18:47.66Z</time></trkpt><trkpt lat="43.4070289" lon="10.5778626"><ele>388.25</ele><time>2026-04-25T14:18:48.67Z</time></trkpt><trkpt lat="43.4070978" lon="10.5780273"><ele>389.5</ele><time>2026-04-25T14:18:49.675Z</time></trkpt><trkpt lat="43.4071965" lon="10.5781776"><ele>390.75</ele><time>2026-04-25T14:18:50.641Z</time></trkpt><trkpt lat="43.40729" lon="10.5782973"><ele>392.0</ele><time>2026-04-25T14:18:51.663Z</time></trkpt><trkpt lat="43.407382" lon="10.5783975"><ele>389.5</ele><time>2026-04-25T14:18:52.664Z</time></trkpt><trkpt lat="43.4075725" lon="10.5784993"><ele>387.0</ele><time>2026-04-25T14:18:54.647Z</time></trkpt><trkpt lat="43.4076662" lon="10.5785153"><ele>384.5</ele><time>2026-04-25T14:18:55.653Z</time></trkpt><trkpt lat="43.4077637" lon="10.5785236"><ele>382.0</ele><time>2026-04-25T14:18:56.678Z</time></trkpt><trkpt lat="43.407859" lon="10.5785228"><ele>382.0</ele><time>2026-04-25T14:18:57.661Z</time></trkpt><trkpt lat="43.4079535" lon="10.5785226"><ele>382.0</ele><time>2026-04-25T14:18:58.655Z</time></trkpt><trkpt lat="43.4080497" lon="10.5785226"><ele>382.0</ele><time>2026-04-25T14:18:59.656Z</time></trkpt><trkpt lat="43.4081467" lon="10.5785249"><ele>382.0</ele><time>2026-04-25T14:19:00.659Z</time></trkpt><trkpt lat="43.4082466" lon="10.5785243"><ele>382.0</ele><time>2026-04-25T14:19:01.67Z</time></trkpt><trkpt lat="43.4083488" lon="10.5785187"><ele>381.8</ele><time>2026-04-25T14:19:02.661Z</time></trkpt><trkpt lat="43.4084488" lon="10.5785075"><ele>381.6</ele><time>2026-04-25T14:19:03.642Z</time></trkpt><trkpt lat="43.4085484" lon="10.5784994"><ele>381.40000000000003</ele><time>2026-04-25T14:19:04.663Z</time></trkpt><trkpt lat="43.4086404" lon="10.5784916"><ele>381.20000000000005</ele><time>2026-04-25T14:19:05.645Z</time></trkpt><trkpt lat="43.4087266" lon="10.5784832"><ele>381.0</ele><time>2026-04-25T14:19:06.638Z</time></trkpt><trkpt lat="43.4087973" lon="10.578469"><ele>381.20000000000005</ele><time>2026-04-25T14:19:07.644Z</time></trkpt><trkpt lat="43.4088739" lon="10.5783708"><ele>381.40000000000003</ele><time>2026-04-25T14:19:09.67Z</time></trkpt><trkpt lat="43.4088762" lon="10.5782793"><ele>381.6</ele><time>2026-04-25T14:19:10.649Z</time></trkpt><trkpt lat="43.4088782" lon="10.5781634"><ele>381.8</ele><time>2026-04-25T14:19:11.668Z</time></trkpt><trkpt lat="43.4088912" lon="10.5780186"><ele>382.0</ele><time>2026-04-25T14:19:12.654Z</time></trkpt><trkpt lat="43.4088955" lon="10.5778694"><ele>380.0</ele><time>2026-04-25T14:19:13.674Z</time></trkpt><trkpt lat="43.4088953" lon="10.5775968"><ele>378.0</ele><time>2026-04-25T14:19:15.672Z</time></trkpt><trkpt lat="43.4088909" lon="10.5774694"><ele>376.0</ele><time>2026-04-25T14:19:16.665Z</time></trkpt><trkpt lat="43.4088944" lon="10.5773482"><ele>374.0</ele><time>2026-04-25T14:19:17.662Z</time></trkpt><trkpt lat="43.4089364" lon="10.5772398"><ele>374.0</ele><time>2026-04-25T14:19:18.651Z</time></trkpt><trkpt lat="43.4090292" lon="10.5772094"><ele>374.0</ele><time>2026-04-25T14:19:19.643Z</time></trkpt><trkpt lat="43.4091369" lon="10.5772198"><ele>374.0</ele><time>2026-04-25T14:19:20.638Z</time></trkpt><trkpt lat="43.409234" lon="10.5772224"><ele>374.0</ele><time>2026-04-25T14:19:21.675Z</time></trkpt><trkpt lat="43.4093446" lon="10.5772342"><ele>374.0</ele><time>2026-04-25T14:19:22.671Z</time></trkpt><trkpt lat="43.4094597" lon="10.5772404"><ele>374.0</ele><time>2026-04-25T14:19:23.663Z</time></trkpt><trkpt lat="43.4095725" lon="10.5772494"><ele>374.0</ele><time>2026-04-25T14:19:24.668Z</time></trkpt><trkpt lat="43.4096811" lon="10.5772621"><ele>374.0</ele><time>2026-04-25T14:19:25.664Z</time></trkpt><trkpt lat="43.4097824" lon="10.5772613"><ele>374.0</ele><time>2026-04-25T14:19:26.68Z</time></trkpt><trkpt lat="43.4098778" lon="10.5772642"><ele>374.0</ele><time>2026-04-25T14:19:27.662Z</time></trkpt><trkpt lat="43.4099736" lon="10.5772697"><ele>373.33333333333337</ele><time>2026-04-25T14:19:28.665Z</time></trkpt><trkpt lat="43.4100683" lon="10.5772747"><ele>372.6666666666667</ele><time>2026-04-25T14:19:29.672Z</time></trkpt><trkpt lat="43.4101595" lon="10.5772799"><ele>372.0</ele><time>2026-04-25T14:19:30.666Z</time></trkpt><trkpt lat="43.4102467" lon="10.577288"><ele>371.3333333333333</ele><time>2026-04-25T14:19:31.641Z</time></trkpt><trkpt lat="43.4103319" lon="10.5772909"><ele>370.66666666666663</ele><time>2026-04-25T14:19:32.675Z</time></trkpt><trkpt lat="43.410415" lon="10.577286"><ele>370.0</ele><time>2026-04-25T14:19:33.663Z</time></trkpt><trkpt lat="43.4104957" lon="10.5772633"><ele>368.6</ele><time>2026-04-25T14:19:34.666Z</time></trkpt><trkpt lat="43.410573" lon="10.5772389"><ele>367.2</ele><time>2026-04-25T14:19:35.65Z</time></trkpt><trkpt lat="43.410742" lon="10.5771826"><ele>365.79999999999995</ele><time>2026-04-25T14:19:37.685Z</time></trkpt><trkpt lat="43.4108244" lon="10.5771172"><ele>364.4</ele><time>2026-04-25T14:19:38.697Z</time></trkpt><trkpt lat="43.410893" lon="10.577026"><ele>363.0</ele><time>2026-04-25T14:19:39.665Z</time></trkpt><trkpt lat="43.4109325" lon="10.576908"><ele>362.0</ele><time>2026-04-25T14:19:40.634Z</time></trkpt><trkpt lat="43.4109451" lon="10.576773"><ele>361.0</ele><time>2026-04-25T14:19:41.665Z</time></trkpt><trkpt lat="43.4109638" lon="10.5766342"><ele>360.0</ele><time>2026-04-25T14:19:42.664Z</time></trkpt><trkpt lat="43.4109871" lon="10.5764919"><ele>359.0</ele><time>2026-04-25T14:19:43.676Z</time></trkpt><trkpt lat="43.4110139" lon="10.5763397"><ele>358.0</ele><time>2026-04-25T14:19:44.672Z</time></trkpt><trkpt lat="43.4110443" lon="10.5761764"><ele>356.25</ele><time>2026-04-25T14:19:45.654Z</time></trkpt><trkpt lat="43.4110756" lon="10.5760124"><ele>354.5</ele><time>2026-04-25T14:19:46.664Z</time></trkpt><trkpt lat="43.4111077" lon="10.5758418"><ele>352.75</ele><time>2026-04-25T14:19:47.685Z</time></trkpt><trkpt lat="43.4111347" lon="10.5756771"><ele>351.0</ele><time>2026-04-25T14:19:48.656Z</time></trkpt><trkpt lat="43.4111634" lon="10.5755239"><ele>351.0</ele><time>2026-04-25T14:19:49.666Z</time></trkpt><trkpt lat="43.4111907" lon="10.5753659"><ele>351.0</ele><time>2026-04-25T14:19:50.652Z</time></trkpt><trkpt lat="43.4112208" lon="10.5752158"><ele>351.0</ele><time>2026-04-25T14:19:51.632Z</time></trkpt><trkpt lat="43.4112477" lon="10.575066"><ele>351.0</ele><time>2026-04-25T14:19:52.655Z</time></trkpt><trkpt lat="43.4112731" lon="10.574913"><ele>352.0</ele><time>2026-04-25T14:19:53.656Z</time></trkpt><trkpt lat="43.4112992" lon="10.5747571"><ele>353.0</ele><time>2026-04-25T14:19:54.642Z</time></trkpt><trkpt lat="43.4113297" lon="10.5746004"><ele>354.0</ele><time>2026-04-25T14:19:55.658Z</time></trkpt><trkpt lat="43.4113746" lon="10.5744535"><ele>355.0</ele><time>2026-04-25T14:19:56.654Z</time></trkpt><trkpt lat="43.4115456" lon="10.5742368"><ele>349.0</ele><time>2026-04-25T14:19:58.653Z</time></trkpt><trkpt lat="43.4116676" lon="10.5741419"><ele>343.0</ele><time>2026-04-25T14:19:59.667Z</time></trkpt><trkpt lat="43.411791" lon="10.5740016"><ele>337.0</ele><time>2026-04-25T14:20:00.669Z</time></trkpt><trkpt lat="43.4119195" lon="10.5738139"><ele>334.3333333333333</ele><time>2026-04-25T14:20:01.644Z</time></trkpt><trkpt lat="43.4120271" lon="10.5736169"><ele>331.6666666666667</ele><time>2026-04-25T14:20:02.665Z</time></trkpt><trkpt lat="43.4121423" lon="10.5734377"><ele>329.0</ele><time>2026-04-25T14:20:03.665Z</time></trkpt><trkpt lat="43.4122673" lon="10.5732767"><ele>329.0</ele><time>2026-04-25T14:20:04.669Z</time></trkpt><trkpt lat="43.4124001" lon="10.5731476"><ele>329.0</ele><time>2026-04-25T14:20:05.671Z</time></trkpt><trkpt lat="43.4125448" lon="10.5730767"><ele>329.0</ele><time>2026-04-25T14:20:06.647Z</time></trkpt><trkpt lat="43.4126833" lon="10.5730352"><ele>329.0</ele><time>2026-04-25T14:20:07.655Z</time></trkpt><trkpt lat="43.4128017" lon="10.5729903"><ele>329.0</ele><time>2026-04-25T14:20:08.67Z</time></trkpt><trkpt lat="43.4128982" lon="10.5729091"><ele>329.0</ele><time>2026-04-25T14:20:09.659Z</time></trkpt><trkpt lat="43.4129484" lon="10.5727594"><ele>329.0</ele><time>2026-04-25T14:20:10.646Z</time></trkpt><trkpt lat="43.4129653" lon="10.5725501"><ele>324.0</ele><time>2026-04-25T14:20:11.644Z</time></trkpt><trkpt lat="43.41297" lon="10.5723062"><ele>319.0</ele><time>2026-04-25T14:20:12.677Z</time></trkpt><trkpt lat="43.4129697" lon="10.5720734"><ele>314.0</ele><time>2026-04-25T14:20:13.655Z</time></trkpt><trkpt lat="43.4129852" lon="10.5718589"><ele>313.25</ele><time>2026-04-25T14:20:14.655Z</time></trkpt><trkpt lat="43.4130082" lon="10.5716583"><ele>312.5</ele><time>2026-04-25T14:20:15.66Z</time></trkpt><trkpt lat="43.4130384" lon="10.5714687"><ele>311.75</ele><time>2026-04-25T14:20:16.667Z</time></trkpt><trkpt lat="43.4130813" lon="10.5712858"><ele>311.0</ele><time>2026-04-25T14:20:17.66Z</time></trkpt><trkpt lat="43.4132801" lon="10.5709171"><ele>308.33333333333337</ele><time>2026-04-25T14:20:19.68Z</time></trkpt><trkpt lat="43.4134064" lon="10.5707271"><ele>305.6666666666667</ele><time>2026-04-25T14:20:20.681Z</time></trkpt><trkpt lat="43.4135487" lon="10.5705462"><ele>303.0</ele><time>2026-04-25T14:20:21.654Z</time></trkpt><trkpt lat="43.4137097" lon="10.5704021"><ele>301.3333333333333</ele><time>2026-04-25T14:20:22.637Z</time></trkpt><trkpt lat="43.4138925" lon="10.5702877"><ele>299.66666666666663</ele><time>2026-04-25T14:20:23.691Z</time></trkpt><trkpt lat="43.414071" lon="10.5701791"><ele>298.0</ele><time>2026-04-25T14:20:24.677Z</time></trkpt><trkpt lat="43.4142364" lon="10.5701071"><ele>298.0</ele><time>2026-04-25T14:20:25.663Z</time></trkpt><trkpt lat="43.414378" lon="10.5700448"><ele>298.0</ele><time>2026-04-25T14:20:26.659Z</time></trkpt><trkpt lat="43.4145046" lon="10.5699475"><ele>298.0</ele><time>2026-04-25T14:20:27.664Z</time></trkpt><trkpt lat="43.4145899" lon="10.5698091"><ele>298.0</ele><time>2026-04-25T14:20:28.674Z</time></trkpt><trkpt lat="43.414612" lon="10.5696271"><ele>295.0</ele><time>2026-04-25T14:20:29.678Z</time></trkpt><trkpt lat="43.4145834" lon="10.569423"><ele>292.0</ele><time>2026-04-25T14:20:30.663Z</time></trkpt><trkpt lat="43.4145172" lon="10.5692119"><ele>289.0</ele><time>2026-04-25T14:20:31.644Z</time></trkpt><trkpt lat="43.414434" lon="10.5689888"><ele>289.0</ele><time>2026-04-25T14:20:32.651Z</time></trkpt><trkpt lat="43.4143417" lon="10.5687769"><ele>289.0</ele><time>2026-04-25T14:20:33.663Z</time></trkpt><trkpt lat="43.4142459" lon="10.5685703"><ele>289.0</ele><time>2026-04-25T14:20:34.651Z</time></trkpt><trkpt lat="43.4141684" lon="10.5683627"><ele>288.0</ele><time>2026-04-25T14:20:35.679Z</time></trkpt><trkpt lat="43.4141116" lon="10.5681408"><ele>287.0</ele><time>2026-04-25T14:20:36.664Z</time></trkpt><trkpt lat="43.41409" lon="10.5678976"><ele>286.0</ele><time>2026-04-25T14:20:37.659Z</time></trkpt><trkpt lat="43.4140934" lon="10.5676695"><ele>285.66666666666663</ele><time>2026-04-25T14:20:38.648Z</time></trkpt><trkpt lat="43.4140982" lon="10.5674737"><ele>285.3333333333333</ele><time>2026-04-25T14:20:39.637Z</time></trkpt><trkpt lat="43.4140924" lon="10.5671443"><ele>285.0</ele><time>2026-04-25T14:20:41.668Z</time></trkpt><trkpt lat="43.4140919" lon="10.56699"><ele>284.4</ele><time>2026-04-25T14:20:42.633Z</time></trkpt><trkpt lat="43.4140971" lon="10.5668456"><ele>283.8</ele><time>2026-04-25T14:20:43.633Z</time></trkpt><trkpt lat="43.4141106" lon="10.5667071"><ele>283.2</ele><time>2026-04-25T14:20:44.679Z</time></trkpt><trkpt lat="43.414138" lon="10.5665744"><ele>282.6</ele><time>2026-04-25T14:20:45.679Z</time></trkpt><trkpt lat="43.4141795" lon="10.5664475"><ele>282.0</ele><time>2026-04-25T14:20:46.668Z</time></trkpt><trkpt lat="43.4142298" lon="10.5663235"><ele>282.0</ele><time>2026-04-25T14:20:47.634Z</time></trkpt><trkpt lat="43.4142804" lon="10.5662021"><ele>282.0</ele><time>2026-04-25T14:20:48.658Z</time></trkpt><trkpt lat="43.4143284" lon="10.5660744"><ele>282.0</ele><time>2026-04-25T14:20:49.654Z</time></trkpt><trkpt lat="43.4143792" lon="10.5659433"><ele>282.0</ele><time>2026-04-25T14:20:50.65Z</time></trkpt><trkpt lat="43.4144278" lon="10.5658178"><ele>282.0</ele><time>2026-04-25T14:20:51.655Z</time></trkpt><trkpt lat="43.4144788" lon="10.5656904"><ele>280.8</ele><time>2026-04-25T14:20:52.67Z</time></trkpt><trkpt lat="43.4145349" lon="10.5655631"><ele>279.6</ele><time>2026-04-25T14:20:53.672Z</time></trkpt><trkpt lat="43.4145986" lon="10.5654402"><ele>278.40000000000003</ele><time>2026-04-25T14:20:54.669Z</time></trkpt><trkpt lat="43.4146704" lon="10.5653261"><ele>277.2</ele><time>2026-04-25T14:20:55.631Z</time></trkpt><trkpt lat="43.4147477" lon="10.5652172"><ele>276.0</ele><time>2026-04-25T14:20:56.671Z</time></trkpt><trkpt lat="43.4148229" lon="10.5651113"><ele>276.0</ele><time>2026-04-25T14:20:57.671Z</time></trkpt><trkpt lat="43.4148934" lon="10.5650094"><ele>276.0</ele><time>2026-04-25T14:20:58.66Z</time></trkpt><trkpt lat="43.4149622" lon="10.5649048"><ele>276.0</ele><time>2026-04-25T14:20:59.661Z</time></trkpt><trkpt lat="43.4150271" lon="10.5647949"><ele>276.0</ele><time>2026-04-25T14:21:00.652Z</time></trkpt><trkpt lat="43.415126" lon="10.5644893"><ele>273.6666666666667</ele><time>2026-04-25T14:21:02.674Z</time></trkpt><trkpt lat="43.4151444" lon="10.5642903"><ele>271.33333333333337</ele><time>2026-04-25T14:21:03.679Z</time></trkpt><trkpt lat="43.4151353" lon="10.5640624"><ele>269.0</ele><time>2026-04-25T14:21:04.643Z</time></trkpt><trkpt lat="43.4150976" lon="10.5638325"><ele>268.33333333333337</ele><time>2026-04-25T14:21:05.628Z</time></trkpt><trkpt lat="43.4150324" lon="10.5636018"><ele>267.6666666666667</ele><time>2026-04-25T14:21:06.642Z</time></trkpt><trkpt lat="43.4149461" lon="10.5633699"><ele>267.0</ele><time>2026-04-25T14:21:07.658Z</time></trkpt><trkpt lat="43.4148641" lon="10.5631615"><ele>267.0</ele><time>2026-04-25T14:21:08.665Z</time></trkpt><trkpt lat="43.4147869" lon="10.5629807"><ele>267.0</ele><time>2026-04-25T14:21:09.658Z</time></trkpt><trkpt lat="43.4146923" lon="10.5628357"><ele>267.0</ele><time>2026-04-25T14:21:10.651Z</time></trkpt><trkpt lat="43.4145612" lon="10.5627191"><ele>264.5</ele><time>2026-04-25T14:21:11.654Z</time></trkpt><trkpt lat="43.4144271" lon="10.5626259"><ele>262.0</ele><time>2026-04-25T14:21:12.663Z</time></trkpt><trkpt lat="43.4143129" lon="10.5625463"><ele>259.5</ele><time>2026-04-25T14:21:13.669Z</time></trkpt><trkpt lat="43.4142143" lon="10.5624417"><ele>257.0</ele><time>2026-04-25T14:21:14.643Z</time></trkpt><trkpt lat="43.4141344" lon="10.5622878"><ele>257.0</ele><time>2026-04-25T14:21:15.645Z</time></trkpt><trkpt lat="43.4140895" lon="10.5621017"><ele>257.0</ele><time>2026-04-25T14:21:16.639Z</time></trkpt><trkpt lat="43.4140766" lon="10.5618976"><ele>257.0</ele><time>2026-04-25T14:21:17.652Z</time></trkpt><trkpt lat="43.4140685" lon="10.5616576"><ele>256.0</ele><time>2026-04-25T14:21:18.672Z</time></trkpt><trkpt lat="43.4140554" lon="10.5613968"><ele>255.0</ele><time>2026-04-25T14:21:19.662Z</time></trkpt><trkpt lat="43.4140397" lon="10.5611011"><ele>254.0</ele><time>2026-04-25T14:21:20.668Z</time></trkpt><trkpt lat="43.4140324" lon="10.5608031"><ele>250.0</ele><time>2026-04-25T14:21:21.668Z</time></trkpt><trkpt lat="43.4140129" lon="10.5602904"><ele>246.0</ele><time>2026-04-25T14:21:23.66Z</time></trkpt><trkpt lat="43.4140156" lon="10.5600612"><ele>246.0</ele><time>2026-04-25T14:21:24.651Z</time></trkpt><trkpt lat="43.4140483" lon="10.559839"><ele>246.0</ele><time>2026-04-25T14:21:25.648Z</time></trkpt><trkpt lat="43.4141256" lon="10.5596302"><ele>246.0</ele><time>2026-04-25T14:21:26.636Z</time></trkpt><trkpt lat="43.4142285" lon="10.559423"><ele>241.66666666666669</ele><time>2026-04-25T14:21:27.682Z</time></trkpt><trkpt lat="43.414336" lon="10.559213"><ele>237.33333333333334</ele><time>2026-04-25T14:21:28.642Z</time></trkpt><trkpt lat="43.4144288" lon="10.5589908"><ele>233.0</ele><time>2026-04-25T14:21:29.671Z</time></trkpt><trkpt lat="43.4145015" lon="10.5587748"><ele>231.0</ele><time>2026-04-25T14:21:30.655Z</time></trkpt><trkpt lat="43.4145464" lon="10.5585659"><ele>229.0</ele><time>2026-04-25T14:21:31.681Z</time></trkpt><trkpt lat="43.4145761" lon="10.5583685"><ele>227.0</ele><time>2026-04-25T14:21:32.668Z</time></trkpt><trkpt lat="43.4145898" lon="10.5581791"><ele>225.0</ele><time>2026-04-25T14:21:33.671Z</time></trkpt><trkpt lat="43.4146027" lon="10.558025"><ele>225.0</ele><time>2026-04-25T14:21:34.683Z</time></trkpt><trkpt lat="43.414634" lon="10.5579154"><ele>225.0</ele><time>2026-04-25T14:21:35.664Z</time></trkpt><trkpt lat="43.4146937" lon="10.5578415"><ele>225.0</ele><time>2026-04-25T14:21:36.644Z</time></trkpt><trkpt lat="43.4147726" lon="10.5578327"><ele>225.0</ele><time>2026-04-25T14:21:37.663Z</time></trkpt><trkpt lat="43.4148317" lon="10.5579097"><ele>225.0</ele><time>2026-04-25T14:21:38.652Z</time></trkpt><trkpt lat="43.4149067" lon="10.5580066"><ele>225.0</ele><time>2026-04-25T14:21:39.65Z</time></trkpt><trkpt lat="43.4149971" lon="10.5580876"><ele>224.75</ele><time>2026-04-25T14:21:40.661Z</time></trkpt><trkpt lat="43.4150896" lon="10.5581191"><ele>224.5</ele><time>2026-04-25T14:21:41.652Z</time></trkpt><trkpt lat="43.4151954" lon="10.5581133"><ele>224.25</ele><time>2026-04-25T14:21:42.649Z</time></trkpt><trkpt lat="43.4153132" lon="10.5580544"><ele>224.0</ele><time>2026-04-25T14:21:43.633Z</time></trkpt><trkpt lat="43.4156626" lon="10.5576131"><ele>224.0</ele><time>2026-04-25T14:21:46.647Z</time></trkpt><trkpt lat="43.4157628" lon="10.5574125"><ele>224.0</ele><time>2026-04-25T14:21:47.653Z</time></trkpt><trkpt lat="43.4158399" lon="10.5572163"><ele>224.0</ele><time>2026-04-25T14:21:48.66Z</time></trkpt><trkpt lat="43.4158989" lon="10.5570237"><ele>223.25</ele><time>2026-04-25T14:21:49.655Z</time></trkpt><trkpt lat="43.4159226" lon="10.5568332"><ele>222.5</ele><time>2026-04-25T14:21:50.654Z</time></trkpt><trkpt lat="43.4159086" lon="10.5566467"><ele>221.75</ele><time>2026-04-25T14:21:51.652Z</time></trkpt><trkpt lat="43.4158656" lon="10.5564708"><ele>221.0</ele><time>2026-04-25T14:21:52.675Z</time></trkpt><trkpt lat="43.4158058" lon="10.5562672"><ele>221.66666666666669</ele><time>2026-04-25T14:21:53.626Z</time></trkpt><trkpt lat="43.4157578" lon="10.5560331"><ele>222.33333333333331</ele><time>2026-04-25T14:21:54.647Z</time></trkpt><trkpt lat="43.4157147" lon="10.555754"><ele>223.0</ele><time>2026-04-25T14:21:55.65Z</time></trkpt><trkpt lat="43.4156545" lon="10.5554802"><ele>224.5</ele><time>2026-04-25T14:21:56.649Z</time></trkpt><trkpt lat="43.4155744" lon="10.5552"><ele>226.0</ele><time>2026-04-25T14:21:57.645Z</time></trkpt><trkpt lat="43.4154597" lon="10.5549008"><ele>216.0</ele><time>2026-04-25T14:21:58.641Z</time></trkpt><trkpt lat="43.4153421" lon="10.5546103"><ele>206.0</ele><time>2026-04-25T14:21:59.659Z</time></trkpt><trkpt lat="43.4152342" lon="10.5543284"><ele>206.0</ele><time>2026-04-25T14:22:00.629Z</time></trkpt><trkpt lat="43.4151386" lon="10.5540614"><ele>206.0</ele><time>2026-04-25T14:22:01.659Z</time></trkpt><trkpt lat="43.4150574" lon="10.553815"><ele>206.0</ele><time>2026-04-25T14:22:02.646Z</time></trkpt><trkpt lat="43.4149896" lon="10.5535949"><ele>208.5</ele><time>2026-04-25T14:22:03.66Z</time></trkpt><trkpt lat="43.4149325" lon="10.5533768"><ele>211.0</ele><time>2026-04-25T14:22:04.653Z</time></trkpt><trkpt lat="43.4148877" lon="10.5528903"><ele>210.66666666666666</ele><time>2026-04-25T14:22:06.642Z</time></trkpt><trkpt lat="43.41488" lon="10.5526267"><ele>210.33333333333331</ele><time>2026-04-25T14:22:07.636Z</time></trkpt><trkpt lat="43.4148764" lon="10.5523398"><ele>210.0</ele><time>2026-04-25T14:22:08.651Z</time></trkpt><trkpt lat="43.4148358" lon="10.5520193"><ele>208.5</ele><time>2026-04-25T14:22:09.644Z</time></trkpt><trkpt lat="43.4147693" lon="10.5516664"><ele>207.0</ele><time>2026-04-25T14:22:10.641Z</time></trkpt><trkpt lat="43.4146949" lon="10.5512932"><ele>196.0</ele><time>2026-04-25T14:22:11.648Z</time></trkpt><trkpt lat="43.4146252" lon="10.5509226"><ele>185.0</ele><time>2026-04-25T14:22:12.659Z</time></trkpt><trkpt lat="43.4145558" lon="10.5505653"><ele>186.0</ele><time>2026-04-25T14:22:13.653Z</time></trkpt><trkpt lat="43.4144847" lon="10.5502125"><ele>187.0</ele><time>2026-04-25T14:22:14.664Z</time></trkpt><trkpt lat="43.4144134" lon="10.5498543"><ele>185.5</ele><time>2026-04-25T14:22:15.62Z</time></trkpt><trkpt lat="43.4143366" lon="10.5494887"><ele>184.0</ele><time>2026-04-25T14:22:16.649Z</time></trkpt><trkpt lat="43.4142611" lon="10.5491126"><ele>184.0</ele><time>2026-04-25T14:22:17.655Z</time></trkpt><trkpt lat="43.4141893" lon="10.548738"><ele>184.0</ele><time>2026-04-25T14:22:18.642Z</time></trkpt><trkpt lat="43.4141276" lon="10.5483754"><ele>184.5</ele><time>2026-04-25T14:22:19.649Z</time></trkpt><trkpt lat="43.4140668" lon="10.5480193"><ele>185.0</ele><time>2026-04-25T14:22:20.634Z</time></trkpt><trkpt lat="43.4140081" lon="10.5476657"><ele>187.0</ele><time>2026-04-25T14:22:21.64Z</time></trkpt><trkpt lat="43.4139464" lon="10.5473185"><ele>189.0</ele><time>2026-04-25T14:22:22.641Z</time></trkpt><trkpt lat="43.413882" lon="10.5469758"><ele>177.0</ele><time>2026-04-25T14:22:23.632Z</time></trkpt><trkpt lat="43.4138196" lon="10.5466393"><ele>165.0</ele><time>2026-04-25T14:22:24.644Z</time></trkpt><trkpt lat="43.4137586" lon="10.5463146"><ele>170.0</ele><time>2026-04-25T14:22:25.653Z</time></trkpt><trkpt lat="43.4136465" lon="10.5457136"><ele>170.0</ele><time>2026-04-25T14:22:27.639Z</time></trkpt><trkpt lat="43.4136075" lon="10.5454256"><ele>170.0</ele><time>2026-04-25T14:22:28.647Z</time></trkpt><trkpt lat="43.4135823" lon="10.5451483"><ele>170.0</ele><time>2026-04-25T14:22:29.649Z</time></trkpt><trkpt lat="43.4135728" lon="10.5448841"><ele>170.66666666666666</ele><time>2026-04-25T14:22:30.639Z</time></trkpt><trkpt lat="43.4135727" lon="10.544633"><ele>171.33333333333334</ele><time>2026-04-25T14:22:31.64Z</time></trkpt><trkpt lat="43.4135699" lon="10.5443945"><ele>172.0</ele><time>2026-04-25T14:22:32.634Z</time></trkpt><trkpt lat="43.4135569" lon="10.544188"><ele>172.5</ele><time>2026-04-25T14:22:33.661Z</time></trkpt><trkpt lat="43.4135174" lon="10.5439936"><ele>173.0</ele><time>2026-04-25T14:22:34.659Z</time></trkpt><trkpt lat="43.4134359" lon="10.5438242"><ele>173.5</ele><time>2026-04-25T14:22:35.649Z</time></trkpt><trkpt lat="43.4133196" lon="10.5436924"><ele>174.0</ele><time>2026-04-25T14:22:36.618Z</time></trkpt><trkpt lat="43.4131944" lon="10.543573"><ele>174.79999999999998</ele><time>2026-04-25T14:22:37.658Z</time></trkpt><trkpt lat="43.4130865" lon="10.5434773"><ele>175.6</ele><time>2026-04-25T14:22:38.644Z</time></trkpt><trkpt lat="43.4130044" lon="10.5433946"><ele>176.4</ele><time>2026-04-25T14:22:39.654Z</time></trkpt><trkpt lat="43.4129491" lon="10.5432849"><ele>177.2</ele><time>2026-04-25T14:22:40.625Z</time></trkpt><trkpt lat="43.4129263" lon="10.5431638"><ele>178.0</ele><time>2026-04-25T14:22:41.634Z</time></trkpt><trkpt lat="43.4129335" lon="10.543012"><ele>176.0</ele><time>2026-04-25T14:22:42.647Z</time></trkpt><trkpt lat="43.4129646" lon="10.5428348"><ele>174.0</ele><time>2026-04-25T14:22:43.64Z</time></trkpt><trkpt lat="43.4129984" lon="10.5426319"><ele>172.0</ele><time>2026-04-25T14:22:44.628Z</time></trkpt><trkpt lat="43.4130195" lon="10.5424111"><ele>170.0</ele><time>2026-04-25T14:22:45.667Z</time></trkpt><trkpt lat="43.4130117" lon="10.5421881"><ele>166.0</ele><time>2026-04-25T14:22:46.664Z</time></trkpt><trkpt lat="43.4129822" lon="10.5419814"><ele>162.0</ele><time>2026-04-25T14:22:47.615Z</time></trkpt><trkpt lat="43.4128738" lon="10.5415669"><ele>162.0</ele><time>2026-04-25T14:22:49.645Z</time></trkpt><trkpt lat="43.4127901" lon="10.5413305"><ele>162.0</ele><time>2026-04-25T14:22:50.651Z</time></trkpt><trkpt lat="43.4127085" lon="10.541073"><ele>162.0</ele><time>2026-04-25T14:22:51.644Z</time></trkpt><trkpt lat="43.4126398" lon="10.5408084"><ele>163.0</ele><time>2026-04-25T14:22:52.641Z</time></trkpt><trkpt lat="43.4125739" lon="10.5405695"><ele>164.0</ele><time>2026-04-25T14:22:53.614Z</time></trkpt><trkpt lat="43.412501" lon="10.5403428"><ele>165.0</ele><time>2026-04-25T14:22:54.65Z</time></trkpt><trkpt lat="43.4124255" lon="10.5400991"><ele>165.0</ele><time>2026-04-25T14:22:55.641Z</time></trkpt><trkpt lat="43.412347" lon="10.5398459"><ele>165.0</ele><time>2026-04-25T14:22:56.647Z</time></trkpt><trkpt lat="43.4122642" lon="10.539582"><ele>165.0</ele><time>2026-04-25T14:22:57.665Z</time></trkpt><trkpt lat="43.412182" lon="10.5393114"><ele>164.0</ele><time>2026-04-25T14:22:58.647Z</time></trkpt><trkpt lat="43.4121038" lon="10.5390393"><ele>163.0</ele><time>2026-04-25T14:22:59.654Z</time></trkpt><trkpt lat="43.4120227" lon="10.538762"><ele>162.0</ele><time>2026-04-25T14:23:00.65Z</time></trkpt><trkpt lat="43.4119315" lon="10.5384808"><ele>160.5</ele><time>2026-04-25T14:23:01.617Z</time></trkpt><trkpt lat="43.4118412" lon="10.5381887"><ele>159.0</ele><time>2026-04-25T14:23:02.648Z</time></trkpt><trkpt lat="43.4117497" lon="10.5378896"><ele>157.5</ele><time>2026-04-25T14:23:03.644Z</time></trkpt><trkpt lat="43.4116599" lon="10.5375927"><ele>156.0</ele><time>2026-04-25T14:23:04.649Z</time></trkpt><trkpt lat="43.4115673" lon="10.5372971"><ele>153.0</ele><time>2026-04-25T14:23:05.645Z</time></trkpt><trkpt lat="43.4114737" lon="10.5370139"><ele>150.0</ele><time>2026-04-25T14:23:06.664Z</time></trkpt><trkpt lat="43.4113743" lon="10.5367327"><ele>147.5</ele><time>2026-04-25T14:23:07.648Z</time></trkpt><trkpt lat="43.4112718" lon="10.5364576"><ele>145.0</ele><time>2026-04-25T14:23:08.639Z</time></trkpt><trkpt lat="43.4110484" lon="10.5359098"><ele>145.0</ele><time>2026-04-25T14:23:10.643Z</time></trkpt><trkpt lat="43.4109329" lon="10.5356416"><ele>145.0</ele><time>2026-04-25T14:23:11.646Z</time></trkpt><trkpt lat="43.4108127" lon="10.5353616"><ele>146.5</ele><time>2026-04-25T14:23:12.633Z</time></trkpt><trkpt lat="43.4106929" lon="10.5350939"><ele>148.0</ele><time>2026-04-25T14:23:13.638Z</time></trkpt><trkpt lat="43.4105671" lon="10.5348298"><ele>143.0</ele><time>2026-04-25T14:23:14.638Z</time></trkpt><trkpt lat="43.4104362" lon="10.5345717"><ele>138.0</ele><time>2026-04-25T14:23:15.643Z</time></trkpt><trkpt lat="43.4103058" lon="10.5343222"><ele>138.0</ele><time>2026-04-25T14:23:16.639Z</time></trkpt><trkpt lat="43.4101763" lon="10.5340823"><ele>138.0</ele><time>2026-04-25T14:23:17.623Z</time></trkpt><trkpt lat="43.4100488" lon="10.5338524"><ele>138.0</ele><time>2026-04-25T14:23:18.643Z</time></trkpt><trkpt lat="43.4099307" lon="10.533637"><ele>138.5</ele><time>2026-04-25T14:23:19.615Z</time></trkpt><trkpt lat="43.4097272" lon="10.5332431"><ele>139.0</ele><time>2026-04-25T14:23:21.638Z</time></trkpt><trkpt lat="43.4096461" lon="10.5330533"><ele>134.33333333333334</ele><time>2026-04-25T14:23:22.615Z</time></trkpt><trkpt lat="43.4095905" lon="10.5328594"><ele>129.66666666666666</ele><time>2026-04-25T14:23:23.64Z</time></trkpt><trkpt lat="43.4095621" lon="10.5326492"><ele>125.0</ele><time>2026-04-25T14:23:24.635Z</time></trkpt><trkpt lat="43.4095466" lon="10.532403"><ele>125.0</ele><time>2026-04-25T14:23:25.633Z</time></trkpt><trkpt lat="43.409537" lon="10.532139"><ele>125.0</ele><time>2026-04-25T14:23:26.646Z</time></trkpt><trkpt lat="43.4095042" lon="10.5318559"><ele>125.0</ele><time>2026-04-25T14:23:27.624Z</time></trkpt><trkpt lat="43.4094517" lon="10.5315561"><ele>122.5</ele><time>2026-04-25T14:23:28.609Z</time></trkpt><trkpt lat="43.409386" lon="10.5312276"><ele>120.0</ele><time>2026-04-25T14:23:29.642Z</time></trkpt><trkpt lat="43.4092147" lon="10.5305455"><ele>117.0</ele><time>2026-04-25T14:23:31.644Z</time></trkpt><trkpt lat="43.4091228" lon="10.5302065"><ele>114.0</ele><time>2026-04-25T14:23:32.625Z</time></trkpt><trkpt lat="43.4090391" lon="10.5298742"><ele>110.0</ele><time>2026-04-25T14:23:33.639Z</time></trkpt><trkpt lat="43.4089569" lon="10.5295571"><ele>106.0</ele><time>2026-04-25T14:23:34.647Z</time></trkpt><trkpt lat="43.4088796" lon="10.5292567"><ele>107.0</ele><time>2026-04-25T14:23:35.654Z</time></trkpt><trkpt lat="43.4088073" lon="10.5289753"><ele>108.0</ele><time>2026-04-25T14:23:36.617Z</time></trkpt><trkpt lat="43.4087417" lon="10.5287247"><ele>109.0</ele><time>2026-04-25T14:23:37.636Z</time></trkpt><trkpt lat="43.4086849" lon="10.5285046"><ele>109.0</ele><time>2026-04-25T14:23:38.634Z</time></trkpt><trkpt lat="43.4086377" lon="10.5282954"><ele>109.0</ele><time>2026-04-25T14:23:39.621Z</time></trkpt><trkpt lat="43.4086176" lon="10.5281027"><ele>109.0</ele><time>2026-04-25T14:23:40.627Z</time></trkpt><trkpt lat="43.408628" lon="10.5279142"><ele>109.0</ele><time>2026-04-25T14:23:41.621Z</time></trkpt><trkpt lat="43.4086696" lon="10.5277547"><ele>108.5</ele><time>2026-04-25T14:23:42.63Z</time></trkpt><trkpt lat="43.4087373" lon="10.5276384"><ele>108.0</ele><time>2026-04-25T14:23:43.641Z</time></trkpt><trkpt lat="43.4088174" lon="10.5275099"><ele>107.5</ele><time>2026-04-25T14:23:44.647Z</time></trkpt><trkpt lat="43.4088979" lon="10.5273613"><ele>107.0</ele><time>2026-04-25T14:23:45.648Z</time></trkpt><trkpt lat="43.4089637" lon="10.5271705"><ele>101.66666666666666</ele><time>2026-04-25T14:23:46.644Z</time></trkpt><trkpt lat="43.4090292" lon="10.526949"><ele>96.33333333333333</ele><time>2026-04-25T14:23:47.64Z</time></trkpt><trkpt lat="43.4090752" lon="10.5267157"><ele>91.0</ele><time>2026-04-25T14:23:48.624Z</time></trkpt><trkpt lat="43.4091168" lon="10.5264532"><ele>90.0</ele><time>2026-04-25T14:23:49.621Z</time></trkpt><trkpt lat="43.4091613" lon="10.5261854"><ele>89.0</ele><time>2026-04-25T14:23:50.629Z</time></trkpt><trkpt lat="43.4092065" lon="10.5259238"><ele>88.0</ele><time>2026-04-25T14:23:51.607Z</time></trkpt><trkpt lat="43.4092738" lon="10.5254535"><ele>87.0</ele><time>2026-04-25T14:23:53.638Z</time></trkpt><trkpt lat="43.4092781" lon="10.5252346"><ele>86.0</ele><time>2026-04-25T14:23:54.647Z</time></trkpt><trkpt lat="43.4092458" lon="10.5250033"><ele>85.0</ele><time>2026-04-25T14:23:55.607Z</time></trkpt><trkpt lat="43.409181" lon="10.5247476"><ele>82.5</ele><time>2026-04-25T14:23:56.636Z</time></trkpt><trkpt lat="43.4091043" lon="10.5244674"><ele>80.0</ele><time>2026-04-25T14:23:57.644Z</time></trkpt><trkpt lat="43.4090259" lon="10.5241579"><ele>80.0</ele><time>2026-04-25T14:23:58.626Z</time></trkpt><trkpt lat="43.4089502" lon="10.5238532"><ele>80.0</ele><time>2026-04-25T14:23:59.63Z</time></trkpt><trkpt lat="43.4088647" lon="10.5235691"><ele>78.33333333333334</ele><time>2026-04-25T14:24:00.625Z</time></trkpt><trkpt lat="43.4087554" lon="10.5233018"><ele>76.66666666666667</ele><time>2026-04-25T14:24:01.658Z</time></trkpt><trkpt lat="43.4086293" lon="10.523045"><ele>75.0</ele><time>2026-04-25T14:24:02.644Z</time></trkpt><trkpt lat="43.4084865" lon="10.5227913"><ele>75.0</ele><time>2026-04-25T14:24:03.635Z</time></trkpt><trkpt lat="43.408349" lon="10.522551"><ele>75.0</ele><time>2026-04-25T14:24:04.631Z</time></trkpt><trkpt lat="43.408228" lon="10.5223219"><ele>75.0</ele><time>2026-04-25T14:24:05.63Z</time></trkpt><trkpt lat="43.4081082" lon="10.5220856"><ele>74.0</ele><time>2026-04-25T14:24:06.634Z</time></trkpt><trkpt lat="43.4079938" lon="10.5218507"><ele>73.0</ele><time>2026-04-25T14:24:07.623Z</time></trkpt><trkpt lat="43.4078718" lon="10.5215928"><ele>72.0</ele><time>2026-04-25T14:24:08.644Z</time></trkpt><trkpt lat="43.4077443" lon="10.521315"><ele>69.0</ele><time>2026-04-25T14:24:09.634Z</time></trkpt><trkpt lat="43.4076107" lon="10.5210239"><ele>66.0</ele><time>2026-04-25T14:24:10.621Z</time></trkpt><trkpt lat="43.4074745" lon="10.5207234"><ele>66.0</ele><time>2026-04-25T14:24:11.64Z</time></trkpt><trkpt lat="43.4073396" lon="10.5204098"><ele>66.0</ele><time>2026-04-25T14:24:12.607Z</time></trkpt><trkpt lat="43.4070959" lon="10.519761"><ele>60.5</ele><time>2026-04-25T14:24:14.626Z</time></trkpt><trkpt lat="43.4069782" lon="10.5194188"><ele>55.0</ele><time>2026-04-25T14:24:15.634Z</time></trkpt><trkpt lat="43.4068681" lon="10.5190856"><ele>55.0</ele><time>2026-04-25T14:24:16.627Z</time></trkpt><trkpt lat="43.4067594" lon="10.5187593"><ele>55.0</ele><time>2026-04-25T14:24:17.627Z</time></trkpt><trkpt lat="43.4066607" lon="10.5184608"><ele>55.0</ele><time>2026-04-25T14:24:18.627Z</time></trkpt><trkpt lat="43.4065752" lon="10.5182065"><ele>55.0</ele><time>2026-04-25T14:24:19.624Z</time></trkpt><trkpt lat="43.4064956" lon="10.517968"><ele>55.0</ele><time>2026-04-25T14:24:20.64Z</time></trkpt><trkpt lat="43.4064093" lon="10.5177296"><ele>53.33333333333333</ele><time>2026-04-25T14:24:21.644Z</time></trkpt><trkpt lat="43.4063287" lon="10.5174948"><ele>51.66666666666667</ele><time>2026-04-25T14:24:22.633Z</time></trkpt><trkpt lat="43.4062467" lon="10.5172678"><ele>50.0</ele><time>2026-04-25T14:24:23.607Z</time></trkpt><trkpt lat="43.4061594" lon="10.5170576"><ele>49.66666666666667</ele><time>2026-04-25T14:24:24.616Z</time></trkpt><trkpt lat="43.4060592" lon="10.5168537"><ele>49.33333333333333</ele><time>2026-04-25T14:24:25.609Z</time></trkpt><trkpt lat="43.4059382" lon="10.5166618"><ele>49.0</ele><time>2026-04-25T14:24:26.623Z</time></trkpt><trkpt lat="43.4058005" lon="10.5164887"><ele>49.0</ele><time>2026-04-25T14:24:27.634Z</time></trkpt><trkpt lat="43.4056503" lon="10.5163204"><ele>49.0</ele><time>2026-04-25T14:24:28.627Z</time></trkpt><trkpt lat="43.4054941" lon="10.5161503"><ele>49.0</ele><time>2026-04-25T14:24:29.627Z</time></trkpt><trkpt lat="43.4053351" lon="10.515974"><ele>48.0</ele><time>2026-04-25T14:24:30.625Z</time></trkpt><trkpt lat="43.4051832" lon="10.5158082"><ele>47.0</ele><time>2026-04-25T14:24:31.63Z</time></trkpt><trkpt lat="43.4050396" lon="10.5156537"><ele>46.0</ele><time>2026-04-25T14:24:32.625Z</time></trkpt><trkpt lat="43.4049078" lon="10.5155019"><ele>44.333333333333336</ele><time>2026-04-25T14:24:33.647Z</time></trkpt><trkpt lat="43.4047034" lon="10.5151922"><ele>42.666666666666664</ele><time>2026-04-25T14:24:35.629Z</time></trkpt><trkpt lat="43.4046402" lon="10.5150121"><ele>41.0</ele><time>2026-04-25T14:24:36.605Z</time></trkpt><trkpt lat="43.4045901" lon="10.514789"><ele>39.666666666666664</ele><time>2026-04-25T14:24:37.63Z</time></trkpt><trkpt lat="43.4045522" lon="10.5145487"><ele>38.333333333333336</ele><time>2026-04-25T14:24:38.629Z</time></trkpt><trkpt lat="43.4045127" lon="10.5143021"><ele>37.0</ele><time>2026-04-25T14:24:39.623Z</time></trkpt><trkpt lat="43.4044669" lon="10.5140661"><ele>37.0</ele><time>2026-04-25T14:24:40.593Z</time></trkpt><trkpt lat="43.4044178" lon="10.5138361"><ele>37.0</ele><time>2026-04-25T14:24:41.613Z</time></trkpt><trkpt lat="43.4043496" lon="10.5135875"><ele>37.0</ele><time>2026-04-25T14:24:42.635Z</time></trkpt><trkpt lat="43.4042597" lon="10.5133367"><ele>36.333333333333336</ele><time>2026-04-25T14:24:43.657Z</time></trkpt><trkpt lat="43.4041604" lon="10.5130881"><ele>35.666666666666664</ele><time>2026-04-25T14:24:44.638Z</time></trkpt><trkpt lat="43.404046" lon="10.5128423"><ele>35.0</ele><time>2026-04-25T14:24:45.648Z</time></trkpt><trkpt lat="43.403915" lon="10.5125968"><ele>33.0</ele><time>2026-04-25T14:24:46.634Z</time></trkpt><trkpt lat="43.4037675" lon="10.5123652"><ele>31.0</ele><time>2026-04-25T14:24:47.636Z</time></trkpt><trkpt lat="43.4036169" lon="10.5121284"><ele>30.0</ele><time>2026-04-25T14:24:48.64Z</time></trkpt><trkpt lat="43.4034701" lon="10.5118872"><ele>29.0</ele><time>2026-04-25T14:24:49.614Z</time></trkpt><trkpt lat="43.4033197" lon="10.5116506"><ele>29.0</ele><time>2026-04-25T14:24:50.636Z</time></trkpt><trkpt lat="43.4031699" lon="10.5114158"><ele>29.0</ele><time>2026-04-25T14:24:51.625Z</time></trkpt><trkpt lat="43.4030204" lon="10.5111834"><ele>29.666666666666664</ele><time>2026-04-25T14:24:52.616Z</time></trkpt><trkpt lat="43.4028724" lon="10.5109515"><ele>30.333333333333336</ele><time>2026-04-25T14:24:53.617Z</time></trkpt><trkpt lat="43.4027255" lon="10.5107169"><ele>31.0</ele><time>2026-04-25T14:24:54.628Z</time></trkpt><trkpt lat="43.4025835" lon="10.5104878"><ele>31.5</ele><time>2026-04-25T14:24:55.606Z</time></trkpt><trkpt lat="43.402295" lon="10.5100355"><ele>32.0</ele><time>2026-04-25T14:24:57.638Z</time></trkpt><trkpt lat="43.4021708" lon="10.5098309"><ele>31.0</ele><time>2026-04-25T14:24:58.62Z</time></trkpt><trkpt lat="43.4020547" lon="10.5096397"><ele>30.0</ele><time>2026-04-25T14:24:59.64Z</time></trkpt><trkpt lat="43.4019439" lon="10.5094505"><ele>29.0</ele><time>2026-04-25T14:25:00.642Z</time></trkpt><trkpt lat="43.4018374" lon="10.5092472"><ele>29.0</ele><time>2026-04-25T14:25:01.612Z</time></trkpt><trkpt lat="43.4017494" lon="10.5090318"><ele>29.0</ele><time>2026-04-25T14:25:02.62Z</time></trkpt><trkpt lat="43.4016709" lon="10.508804"><ele>29.0</ele><time>2026-04-25T14:25:03.621Z</time></trkpt><trkpt lat="43.4015969" lon="10.5085575"><ele>29.666666666666664</ele><time>2026-04-25T14:25:04.605Z</time></trkpt><trkpt lat="43.4015212" lon="10.5082829"><ele>30.333333333333336</ele><time>2026-04-25T14:25:05.629Z</time></trkpt><trkpt lat="43.4014366" lon="10.5079857"><ele>31.0</ele><time>2026-04-25T14:25:06.625Z</time></trkpt><trkpt lat="43.4013437" lon="10.5076727"><ele>29.5</ele><time>2026-04-25T14:25:07.619Z</time></trkpt><trkpt lat="43.4012497" lon="10.5073519"><ele>28.0</ele><time>2026-04-25T14:25:08.631Z</time></trkpt><trkpt lat="43.4011539" lon="10.5070269"><ele>28.0</ele><time>2026-04-25T14:25:09.634Z</time></trkpt><trkpt lat="43.4010593" lon="10.5067013"><ele>28.0</ele><time>2026-04-25T14:25:10.639Z</time></trkpt><trkpt lat="43.4009711" lon="10.5063867"><ele>28.0</ele><time>2026-04-25T14:25:11.605Z</time></trkpt><trkpt lat="43.4008861" lon="10.506078"><ele>28.0</ele><time>2026-04-25T14:25:12.631Z</time></trkpt><trkpt lat="43.4008016" lon="10.5057709"><ele>28.0</ele><time>2026-04-25T14:25:13.633Z</time></trkpt><trkpt lat="43.4007169" lon="10.5054743"><ele>28.0</ele><time>2026-04-25T14:25:14.634Z</time></trkpt><trkpt lat="43.4006365" lon="10.5051943"><ele>29.0</ele><time>2026-04-25T14:25:15.626Z</time></trkpt><trkpt lat="43.4005592" lon="10.5049305"><ele>30.0</ele><time>2026-04-25T14:25:16.623Z</time></trkpt><trkpt lat="43.4004184" lon="10.5044586"><ele>28.0</ele><time>2026-04-25T14:25:18.631Z</time></trkpt><trkpt lat="43.40035" lon="10.504249"><ele>26.0</ele><time>2026-04-25T14:25:19.615Z</time></trkpt><trkpt lat="43.4002864" lon="10.5040525"><ele>24.0</ele><time>2026-04-25T14:25:20.628Z</time></trkpt><trkpt lat="43.4002304" lon="10.5038553"><ele>24.25</ele><time>2026-04-25T14:25:21.625Z</time></trkpt><trkpt lat="43.4001759" lon="10.5036638"><ele>24.5</ele><time>2026-04-25T14:25:22.625Z</time></trkpt><trkpt lat="43.4001274" lon="10.5034779"><ele>24.75</ele><time>2026-04-25T14:25:23.624Z</time></trkpt><trkpt lat="43.4000803" lon="10.5033132"><ele>25.0</ele><time>2026-04-25T14:25:24.713Z</time></trkpt><trkpt lat="43.4000335" lon="10.5031557"><ele>25.0</ele><time>2026-04-25T14:25:25.632Z</time></trkpt><trkpt lat="43.3999802" lon="10.5030112"><ele>25.0</ele><time>2026-04-25T14:25:26.624Z</time></trkpt><trkpt lat="43.3999162" lon="10.5028501"><ele>25.0</ele><time>2026-04-25T14:25:27.6Z</time></trkpt><trkpt lat="43.399837" lon="10.5026592"><ele>25.0</ele><time>2026-04-25T14:25:28.619Z</time></trkpt><trkpt lat="43.3997426" lon="10.502442"><ele>24.666666666666668</ele><time>2026-04-25T14:25:29.628Z</time></trkpt><trkpt lat="43.3996444" lon="10.5022125"><ele>24.333333333333336</ele><time>2026-04-25T14:25:30.716Z</time></trkpt><trkpt lat="43.3995384" lon="10.5019688"><ele>24.0</ele><time>2026-04-25T14:25:31.701Z</time></trkpt><trkpt lat="43.3993295" lon="10.5014963"><ele>24.0</ele><time>2026-04-25T14:25:33.618Z</time></trkpt><trkpt lat="43.3992261" lon="10.5012781"><ele>24.0</ele><time>2026-04-25T14:25:34.594Z</time></trkpt><trkpt lat="43.3991289" lon="10.5010521"><ele>24.0</ele><time>2026-04-25T14:25:35.727Z</time></trkpt><trkpt lat="43.3990346" lon="10.5008176"><ele>24.0</ele><time>2026-04-25T14:25:36.723Z</time></trkpt><trkpt lat="43.3988962" lon="10.500352"><ele>24.0</ele><time>2026-04-25T14:25:38.72Z</time></trkpt><trkpt lat="43.3988436" lon="10.5001192"><ele>22.333333333333332</ele><time>2026-04-25T14:25:39.622Z</time></trkpt><trkpt lat="43.3987978" lon="10.4998923"><ele>20.666666666666664</ele><time>2026-04-25T14:25:40.62Z</time></trkpt><trkpt lat="43.398757" lon="10.4996748"><ele>19.0</ele><time>2026-04-25T14:25:41.619Z</time></trkpt><trkpt lat="43.3987223" lon="10.499467"><ele>19.0</ele><time>2026-04-25T14:25:42.704Z</time></trkpt><trkpt lat="43.3986902" lon="10.4992619"><ele>19.0</ele><time>2026-04-25T14:25:43.715Z</time></trkpt><trkpt lat="43.3986565" lon="10.4990609"><ele>19.0</ele><time>2026-04-25T14:25:44.714Z</time></trkpt><trkpt lat="43.3986221" lon="10.4988628"><ele>20.0</ele><time>2026-04-25T14:25:45.704Z</time></trkpt><trkpt lat="43.3985861" lon="10.4986644"><ele>21.0</ele><time>2026-04-25T14:25:46.614Z</time></trkpt><trkpt lat="43.3985505" lon="10.4984615"><ele>22.0</ele><time>2026-04-25T14:25:47.698Z</time></trkpt><trkpt lat="43.3985125" lon="10.4982532"><ele>22.0</ele><time>2026-04-25T14:25:48.71Z</time></trkpt><trkpt lat="43.3984771" lon="10.4980463"><ele>22.0</ele><time>2026-04-25T14:25:49.683Z</time></trkpt><trkpt lat="43.398436" lon="10.4978299"><ele>22.0</ele><time>2026-04-25T14:25:50.702Z</time></trkpt><trkpt lat="43.3983862" lon="10.4975985"><ele>21.666666666666664</ele><time>2026-04-25T14:25:51.722Z</time></trkpt><trkpt lat="43.3983523" lon="10.4973784"><ele>21.333333333333332</ele><time>2026-04-25T14:25:52.684Z</time></trkpt><trkpt lat="43.3983315" lon="10.4971767"><ele>21.0</ele><time>2026-04-25T14:25:53.611Z</time></trkpt><trkpt lat="43.3983057" lon="10.4969866"><ele>21.0</ele><time>2026-04-25T14:25:54.707Z</time></trkpt><trkpt lat="43.3982705" lon="10.4968131"><ele>21.0</ele><time>2026-04-25T14:25:55.691Z</time></trkpt><trkpt lat="43.3982407" lon="10.4966524"><ele>21.0</ele><time>2026-04-25T14:25:56.714Z</time></trkpt><trkpt lat="43.3982182" lon="10.4965055"><ele>21.0</ele><time>2026-04-25T14:25:57.693Z</time></trkpt><trkpt lat="43.3981821" lon="10.4962921"><ele>20.400000000000002</ele><time>2026-04-25T14:25:59.701Z</time></trkpt><trkpt lat="43.3981764" lon="10.4962012"><ele>19.8</ele><time>2026-04-25T14:26:00.687Z</time></trkpt><trkpt lat="43.3982216" lon="10.4961191"><ele>19.200000000000003</ele><time>2026-04-25T14:26:07.692Z</time></trkpt><trkpt lat="43.3982905" lon="10.4960901"><ele>18.6</ele><time>2026-04-25T14:26:08.707Z</time></trkpt><trkpt lat="43.3984134" lon="10.4960684"><ele>18.0</ele><time>2026-04-25T14:26:09.709Z</time></trkpt><trkpt lat="43.3985844" lon="10.4960242"><ele>18.0</ele><time>2026-04-25T14:26:10.702Z</time></trkpt><trkpt lat="43.3987807" lon="10.4959503"><ele>18.0</ele><time>2026-04-25T14:26:11.713Z</time></trkpt><trkpt lat="43.3989863" lon="10.4958332"><ele>18.0</ele><time>2026-04-25T14:26:12.723Z</time></trkpt><trkpt lat="43.3991759" lon="10.4956986"><ele>18.666666666666668</ele><time>2026-04-25T14:26:13.678Z</time></trkpt><trkpt lat="43.3993402" lon="10.4955637"><ele>19.333333333333336</ele><time>2026-04-25T14:26:14.709Z</time></trkpt><trkpt lat="43.3994849" lon="10.4954267"><ele>20.0</ele><time>2026-04-25T14:26:15.7Z</time></trkpt><trkpt lat="43.3996334" lon="10.4952754"><ele>19.666666666666668</ele><time>2026-04-25T14:26:16.7Z</time></trkpt><trkpt lat="43.3997825" lon="10.4950794"><ele>19.333333333333332</ele><time>2026-04-25T14:26:17.694Z</time></trkpt><trkpt lat="43.3999431" lon="10.4948465"><ele>19.0</ele><time>2026-04-25T14:26:18.709Z</time></trkpt><trkpt lat="43.4002698" lon="10.4944094"><ele>19.0</ele><time>2026-04-25T14:26:20.714Z</time></trkpt><trkpt lat="43.4004084" lon="10.4941977"><ele>19.0</ele><time>2026-04-25T14:26:21.695Z</time></trkpt><trkpt lat="43.4005366" lon="10.4939901"><ele>19.0</ele><time>2026-04-25T14:26:22.708Z</time></trkpt><trkpt lat="43.4006639" lon="10.4937911"><ele>18.333333333333332</ele><time>2026-04-25T14:26:23.719Z</time></trkpt><trkpt lat="43.4008012" lon="10.4935804"><ele>17.666666666666668</ele><time>2026-04-25T14:26:24.702Z</time></trkpt><trkpt lat="43.4009317" lon="10.4933752"><ele>17.0</ele><time>2026-04-25T14:26:25.682Z</time></trkpt><trkpt lat="43.4010653" lon="10.4931817"><ele>17.0</ele><time>2026-04-25T14:26:26.698Z</time></trkpt><trkpt lat="43.4012016" lon="10.4929802"><ele>17.0</ele><time>2026-04-25T14:26:27.703Z</time></trkpt><trkpt lat="43.4013472" lon="10.4927536"><ele>17.0</ele><time>2026-04-25T14:26:28.689Z</time></trkpt><trkpt lat="43.4015007" lon="10.492529"><ele>17.666666666666668</ele><time>2026-04-25T14:26:29.709Z</time></trkpt><trkpt lat="43.4016481" lon="10.4923054"><ele>18.333333333333332</ele><time>2026-04-25T14:26:30.676Z</time></trkpt><trkpt lat="43.4017916" lon="10.492094"><ele>19.0</ele><time>2026-04-25T14:26:31.676Z</time></trkpt><trkpt lat="43.4019271" lon="10.4918933"><ele>19.0</ele><time>2026-04-25T14:26:32.678Z</time></trkpt><trkpt lat="43.4020604" lon="10.4916926"><ele>19.0</ele><time>2026-04-25T14:26:33.681Z</time></trkpt><trkpt lat="43.4021862" lon="10.4915024"><ele>19.0</ele><time>2026-04-25T14:26:34.7Z</time></trkpt><trkpt lat="43.4023093" lon="10.4913183"><ele>19.666666666666664</ele><time>2026-04-25T14:26:35.691Z</time></trkpt><trkpt lat="43.4024267" lon="10.4911347"><ele>20.333333333333332</ele><time>2026-04-25T14:26:36.697Z</time></trkpt><trkpt lat="43.4025427" lon="10.4909629"><ele>21.0</ele><time>2026-04-25T14:26:37.69Z</time></trkpt><trkpt lat="43.4026594" lon="10.4908021"><ele>21.0</ele><time>2026-04-25T14:26:38.699Z</time></trkpt><trkpt lat="43.4027823" lon="10.4906566"><ele>21.0</ele><time>2026-04-25T14:26:39.711Z</time></trkpt><trkpt lat="43.4030557" lon="10.4904315"><ele>21.666666666666668</ele><time>2026-04-25T14:26:41.705Z</time></trkpt><trkpt lat="43.4032066" lon="10.4903626"><ele>22.333333333333336</ele><time>2026-04-25T14:26:42.705Z</time></trkpt><trkpt lat="43.4033608" lon="10.4903024"><ele>23.0</ele><time>2026-04-25T14:26:43.699Z</time></trkpt><trkpt lat="43.4035159" lon="10.4902602"><ele>23.0</ele><time>2026-04-25T14:26:44.699Z</time></trkpt><trkpt lat="43.4036722" lon="10.4902258"><ele>23.0</ele><time>2026-04-25T14:26:45.698Z</time></trkpt><trkpt lat="43.403826" lon="10.490195"><ele>23.0</ele><time>2026-04-25T14:26:46.698Z</time></trkpt><trkpt lat="43.4039785" lon="10.4901662"><ele>23.0</ele><time>2026-04-25T14:26:47.701Z</time></trkpt><trkpt lat="43.4041303" lon="10.4901402"><ele>23.0</ele><time>2026-04-25T14:26:48.703Z</time></trkpt><trkpt lat="43.4042839" lon="10.4901179"><ele>23.0</ele><time>2026-04-25T14:26:49.695Z</time></trkpt><trkpt lat="43.4044389" lon="10.4901117"><ele>23.0</ele><time>2026-04-25T14:26:50.701Z</time></trkpt><trkpt lat="43.4045942" lon="10.4901266"><ele>23.0</ele><time>2026-04-25T14:26:51.7Z</time></trkpt><trkpt lat="43.4047419" lon="10.4901566"><ele>23.0</ele><time>2026-04-25T14:26:52.708Z</time></trkpt><trkpt lat="43.4048878" lon="10.4901983"><ele>23.5</ele><time>2026-04-25T14:26:53.674Z</time></trkpt><trkpt lat="43.4050339" lon="10.490246"><ele>24.0</ele><time>2026-04-25T14:26:54.689Z</time></trkpt><trkpt lat="43.4051752" lon="10.4902953"><ele>24.5</ele><time>2026-04-25T14:26:55.697Z</time></trkpt><trkpt lat="43.4053141" lon="10.4903449"><ele>25.0</ele><time>2026-04-25T14:26:56.698Z</time></trkpt><trkpt lat="43.405448" lon="10.4903978"><ele>26.0</ele><time>2026-04-25T14:26:57.684Z</time></trkpt><trkpt lat="43.4055802" lon="10.4904627"><ele>27.0</ele><time>2026-04-25T14:26:58.694Z</time></trkpt><trkpt lat="43.4057043" lon="10.4905181"><ele>28.0</ele><time>2026-04-25T14:26:59.692Z</time></trkpt><trkpt lat="43.4058304" lon="10.4905706"><ele>29.0</ele><time>2026-04-25T14:27:00.71Z</time></trkpt><trkpt lat="43.4061017" lon="10.490693"><ele>29.0</ele><time>2026-04-25T14:27:02.708Z</time></trkpt><trkpt lat="43.4062299" lon="10.4907455"><ele>29.0</ele><time>2026-04-25T14:27:03.68Z</time></trkpt><trkpt lat="43.4064549" lon="10.4908437"><ele>29.0</ele><time>2026-04-25T14:27:05.698Z</time></trkpt><trkpt lat="43.406553" lon="10.4908958"><ele>28.166666666666664</ele><time>2026-04-25T14:27:06.69Z</time></trkpt><trkpt lat="43.4066381" lon="10.4909359"><ele>27.333333333333332</ele><time>2026-04-25T14:27:07.698Z</time></trkpt><trkpt lat="43.4067102" lon="10.4909706"><ele>26.5</ele><time>2026-04-25T14:27:08.698Z</time></trkpt><trkpt lat="43.4067746" lon="10.4910007"><ele>25.666666666666664</ele><time>2026-04-25T14:27:09.694Z</time></trkpt><trkpt lat="43.4068389" lon="10.491005"><ele>24.833333333333332</ele><time>2026-04-25T14:27:10.698Z</time></trkpt><trkpt lat="43.4069276" lon="10.4908764"><ele>24.0</ele><time>2026-04-25T14:27:12.683Z</time></trkpt><trkpt lat="43.4069378" lon="10.4907778"><ele>24.0</ele><time>2026-04-25T14:27:13.699Z</time></trkpt><trkpt lat="43.4069189" lon="10.4906762"><ele>24.0</ele><time>2026-04-25T14:27:14.674Z</time></trkpt><trkpt lat="43.4069072" lon="10.4905637"><ele>24.0</ele><time>2026-04-25T14:27:15.678Z</time></trkpt><trkpt lat="43.4069067" lon="10.4904361"><ele>24.0</ele><time>2026-04-25T14:27:16.684Z</time></trkpt><trkpt lat="43.4069108" lon="10.4902874"><ele>24.0</ele><time>2026-04-25T14:27:17.681Z</time></trkpt><trkpt lat="43.4069134" lon="10.4901235"><ele>26.0</ele><time>2026-04-25T14:27:18.676Z</time></trkpt><trkpt lat="43.406902" lon="10.4899731"><ele>28.0</ele><time>2026-04-25T14:27:19.679Z</time></trkpt><trkpt lat="43.4068678" lon="10.4898426"><ele>30.0</ele><time>2026-04-25T14:27:20.681Z</time></trkpt><trkpt lat="43.4068119" lon="10.489724"><ele>32.0</ele><time>2026-04-25T14:27:21.671Z</time></trkpt><trkpt lat="43.4066195" lon="10.4895376"><ele>32.25</ele><time>2026-04-25T14:27:23.685Z</time></trkpt><trkpt lat="43.4064922" lon="10.489459"><ele>32.5</ele><time>2026-04-25T14:27:24.682Z</time></trkpt><trkpt lat="43.4063643" lon="10.489372"><ele>32.75</ele><time>2026-04-25T14:27:25.688Z</time></trkpt><trkpt lat="43.4062183" lon="10.4892742"><ele>33.0</ele><time>2026-04-25T14:27:26.694Z</time></trkpt><trkpt lat="43.4060703" lon="10.4891811"><ele>33.0</ele><time>2026-04-25T14:27:27.688Z</time></trkpt><trkpt lat="43.4059178" lon="10.489097"><ele>33.0</ele><time>2026-04-25T14:27:28.664Z</time></trkpt><trkpt lat="43.4057608" lon="10.4890256"><ele>33.0</ele><time>2026-04-25T14:27:29.697Z</time></trkpt><trkpt lat="43.4056052" lon="10.4889775"><ele>32.0</ele><time>2026-04-25T14:27:30.693Z</time></trkpt><trkpt lat="43.4054482" lon="10.4889459"><ele>31.0</ele><time>2026-04-25T14:27:31.688Z</time></trkpt><trkpt lat="43.4052857" lon="10.4889198"><ele>30.0</ele><time>2026-04-25T14:27:32.694Z</time></trkpt><trkpt lat="43.4051273" lon="10.4888965"><ele>30.0</ele><time>2026-04-25T14:27:33.69Z</time></trkpt><trkpt lat="43.404962" lon="10.488886"><ele>30.0</ele><time>2026-04-25T14:27:34.687Z</time></trkpt><trkpt lat="43.4047861" lon="10.4888966"><ele>30.0</ele><time>2026-04-25T14:27:35.672Z</time></trkpt><trkpt lat="43.4044314" lon="10.4889146"><ele>31.666666666666664</ele><time>2026-04-25T14:27:37.677Z</time></trkpt><trkpt lat="43.404268" lon="10.488918"><ele>33.33333333333333</ele><time>2026-04-25T14:27:38.67Z</time></trkpt><trkpt lat="43.4041194" lon="10.4889255"><ele>35.0</ele><time>2026-04-25T14:27:39.689Z</time></trkpt><trkpt lat="43.4039744" lon="10.4889303"><ele>35.0</ele><time>2026-04-25T14:27:40.69Z</time></trkpt><trkpt lat="43.4038346" lon="10.48893"><ele>35.0</ele><time>2026-04-25T14:27:41.687Z</time></trkpt><trkpt lat="43.4036952" lon="10.4889294"><ele>35.0</ele><time>2026-04-25T14:27:42.692Z</time></trkpt><trkpt lat="43.4034351" lon="10.4888533"><ele>40.5</ele><time>2026-04-25T14:27:44.676Z</time></trkpt><trkpt lat="43.4033239" lon="10.4887549"><ele>46.0</ele><time>2026-04-25T14:27:45.666Z</time></trkpt><trkpt lat="43.4032106" lon="10.4886481"><ele>51.5</ele><time>2026-04-25T14:27:46.663Z</time></trkpt><trkpt lat="43.4030778" lon="10.4885587"><ele>57.0</ele><time>2026-04-25T14:27:47.667Z</time></trkpt><trkpt lat="43.4029393" lon="10.4884991"><ele>57.0</ele><time>2026-04-25T14:27:48.671Z</time></trkpt><trkpt lat="43.4028006" lon="10.4884753"><ele>57.0</ele><time>2026-04-25T14:27:49.673Z</time></trkpt><trkpt lat="43.402661" lon="10.4884737"><ele>57.0</ele><time>2026-04-25T14:27:50.667Z</time></trkpt><trkpt lat="43.4025191" lon="10.4884898"><ele>57.0</ele><time>2026-04-25T14:27:51.67Z</time></trkpt><trkpt lat="43.4023965" lon="10.4885214"><ele>57.0</ele><time>2026-04-25T14:27:52.69Z</time></trkpt><trkpt lat="43.4022984" lon="10.4885859"><ele>57.0</ele><time>2026-04-25T14:27:53.679Z</time></trkpt><trkpt lat="43.4022102" lon="10.4887103"><ele>57.0</ele><time>2026-04-25T14:27:54.682Z</time></trkpt><trkpt lat="43.4021299" lon="10.4888733"><ele>57.0</ele><time>2026-04-25T14:27:55.688Z</time></trkpt><trkpt lat="43.4020489" lon="10.4890391"><ele>58.0</ele><time>2026-04-25T14:27:56.692Z</time></trkpt><trkpt lat="43.4019591" lon="10.4891875"><ele>59.0</ele><time>2026-04-25T14:27:57.68Z</time></trkpt><trkpt lat="43.4018664" lon="10.4893212"><ele>60.0</ele><time>2026-04-25T14:27:58.666Z</time></trkpt><trkpt lat="43.4017594" lon="10.4894466"><ele>61.0</ele><time>2026-04-25T14:27:59.674Z</time></trkpt><trkpt lat="43.4016382" lon="10.489561"><ele>58.0</ele><time>2026-04-25T14:28:00.684Z</time></trkpt><trkpt lat="43.4015163" lon="10.4896744"><ele>55.0</ele><time>2026-04-25T14:28:01.685Z</time></trkpt><trkpt lat="43.4013774" lon="10.4897661"><ele>52.0</ele><time>2026-04-25T14:28:02.69Z</time></trkpt><trkpt lat="43.40123" lon="10.4898308"><ele>52.0</ele><time>2026-04-25T14:28:03.712Z</time></trkpt><trkpt lat="43.4009124" lon="10.4898907"><ele>52.0</ele><time>2026-04-25T14:28:05.668Z</time></trkpt><trkpt lat="43.4007436" lon="10.4899017"><ele>52.0</ele><time>2026-04-25T14:28:06.671Z</time></trkpt><trkpt lat="43.400583" lon="10.4899179"><ele>52.0</ele><time>2026-04-25T14:28:07.661Z</time></trkpt><trkpt lat="43.4003014" lon="10.4899648"><ele>52.0</ele><time>2026-04-25T14:28:09.677Z</time></trkpt><trkpt lat="43.4001796" lon="10.4899502"><ele>51.0</ele><time>2026-04-25T14:28:10.679Z</time></trkpt><trkpt lat="43.4000615" lon="10.4898838"><ele>50.0</ele><time>2026-04-25T14:28:11.672Z</time></trkpt><trkpt lat="43.3999458" lon="10.4897908"><ele>49.0</ele><time>2026-04-25T14:28:12.664Z</time></trkpt><trkpt lat="43.399825" lon="10.4896493"><ele>48.0</ele><time>2026-04-25T14:28:13.685Z</time></trkpt><trkpt lat="43.3996827" lon="10.4894753"><ele>49.66666666666667</ele><time>2026-04-25T14:28:14.66Z</time></trkpt><trkpt lat="43.3995191" lon="10.4892771"><ele>51.333333333333336</ele><time>2026-04-25T14:28:15.685Z</time></trkpt><trkpt lat="43.3993569" lon="10.4890902"><ele>53.0</ele><time>2026-04-25T14:28:16.679Z</time></trkpt><trkpt lat="43.3991972" lon="10.4889102"><ele>53.66666666666667</ele><time>2026-04-25T14:28:17.685Z</time></trkpt><trkpt lat="43.3990509" lon="10.4887475"><ele>54.33333333333333</ele><time>2026-04-25T14:28:18.665Z</time></trkpt><trkpt lat="43.3989153" lon="10.4885844"><ele>55.0</ele><time>2026-04-25T14:28:19.679Z</time></trkpt><trkpt lat="43.3987894" lon="10.4884217"><ele>53.666666666666664</ele><time>2026-04-25T14:28:20.68Z</time></trkpt><trkpt lat="43.3986861" lon="10.4882489"><ele>52.33333333333333</ele><time>2026-04-25T14:28:21.69Z</time></trkpt><trkpt lat="43.3986104" lon="10.4880551"><ele>51.0</ele><time>2026-04-25T14:28:22.679Z</time></trkpt><trkpt lat="43.3985743" lon="10.4878426"><ele>50.0</ele><time>2026-04-25T14:28:23.68Z</time></trkpt><trkpt lat="43.3985742" lon="10.4876325"><ele>49.0</ele><time>2026-04-25T14:28:24.679Z</time></trkpt><trkpt lat="43.3986584" lon="10.4872348"><ele>47.33333333333333</ele><time>2026-04-25T14:28:26.661Z</time></trkpt><trkpt lat="43.3987379" lon="10.4870596"><ele>45.666666666666664</ele><time>2026-04-25T14:28:27.681Z</time></trkpt><trkpt lat="43.3988312" lon="10.4868861"><ele>44.0</ele><time>2026-04-25T14:28:28.685Z</time></trkpt><trkpt lat="43.3989495" lon="10.4866968"><ele>49.33333333333333</ele><time>2026-04-25T14:28:29.677Z</time></trkpt><trkpt lat="43.3990832" lon="10.486509"><ele>54.666666666666664</ele><time>2026-04-25T14:28:30.672Z</time></trkpt><trkpt lat="43.399237" lon="10.4863419"><ele>60.0</ele><time>2026-04-25T14:28:31.694Z</time></trkpt><trkpt lat="43.3993951" lon="10.4861776"><ele>60.0</ele><time>2026-04-25T14:28:32.676Z</time></trkpt><trkpt lat="43.3995365" lon="10.4860138"><ele>60.0</ele><time>2026-04-25T14:28:33.695Z</time></trkpt><trkpt lat="43.3996531" lon="10.4858335"><ele>60.0</ele><time>2026-04-25T14:28:34.702Z</time></trkpt><trkpt lat="43.3997517" lon="10.4856262"><ele>65.0</ele><time>2026-04-25T14:28:35.705Z</time></trkpt><trkpt lat="43.3998229" lon="10.485399"><ele>70.0</ele><time>2026-04-25T14:28:36.654Z</time></trkpt><trkpt lat="43.3998801" lon="10.4851391"><ele>75.0</ele><time>2026-04-25T14:28:37.678Z</time></trkpt><trkpt lat="43.3999296" lon="10.4848823"><ele>75.0</ele><time>2026-04-25T14:28:38.686Z</time></trkpt><trkpt lat="43.3999904" lon="10.4846234"><ele>75.0</ele><time>2026-04-25T14:28:39.672Z</time></trkpt><trkpt lat="43.4000746" lon="10.4843568"><ele>75.0</ele><time>2026-04-25T14:28:40.685Z</time></trkpt><trkpt lat="43.4001809" lon="10.4840984"><ele>74.33333333333333</ele><time>2026-04-25T14:28:41.68Z</time></trkpt><trkpt lat="43.4002932" lon="10.4838443"><ele>73.66666666666666</ele><time>2026-04-25T14:28:42.679Z</time></trkpt><trkpt lat="43.4003996" lon="10.4835977"><ele>73.0</ele><time>2026-04-25T14:28:43.699Z</time></trkpt><trkpt lat="43.4004897" lon="10.4833342"><ele>77.0</ele><time>2026-04-25T14:28:44.69Z</time></trkpt><trkpt lat="43.4005605" lon="10.4830554"><ele>81.0</ele><time>2026-04-25T14:28:45.68Z</time></trkpt><trkpt lat="43.400691" lon="10.4824835"><ele>81.0</ele><time>2026-04-25T14:28:47.694Z</time></trkpt><trkpt lat="43.4007574" lon="10.4821836"><ele>81.0</ele><time>2026-04-25T14:28:48.664Z</time></trkpt><trkpt lat="43.4008255" lon="10.4818752"><ele>81.0</ele><time>2026-04-25T14:28:49.685Z</time></trkpt><trkpt lat="43.4008901" lon="10.4815689"><ele>81.0</ele><time>2026-04-25T14:28:50.675Z</time></trkpt><trkpt lat="43.4009571" lon="10.481258"><ele>81.0</ele><time>2026-04-25T14:28:51.683Z</time></trkpt><trkpt lat="43.4010238" lon="10.4809425"><ele>81.0</ele><time>2026-04-25T14:28:52.686Z</time></trkpt><trkpt lat="43.4010883" lon="10.4806352"><ele>80.66666666666667</ele><time>2026-04-25T14:28:53.687Z</time></trkpt><trkpt lat="43.4011507" lon="10.4803498"><ele>80.33333333333334</ele><time>2026-04-25T14:28:54.668Z</time></trkpt><trkpt lat="43.40121" lon="10.4800885"><ele>80.0</ele><time>2026-04-25T14:28:55.663Z</time></trkpt><trkpt lat="43.4012635" lon="10.4798283"><ele>77.66666666666667</ele><time>2026-04-25T14:28:56.663Z</time></trkpt><trkpt lat="43.4013159" lon="10.4795765"><ele>75.33333333333333</ele><time>2026-04-25T14:28:57.678Z</time></trkpt><trkpt lat="43.401364" lon="10.4793421"><ele>73.0</ele><time>2026-04-25T14:28:58.652Z</time></trkpt><trkpt lat="43.4014117" lon="10.4791247"><ele>75.5</ele><time>2026-04-25T14:28:59.663Z</time></trkpt><trkpt lat="43.4014521" lon="10.4789238"><ele>78.0</ele><time>2026-04-25T14:29:00.664Z</time></trkpt><trkpt lat="43.4014932" lon="10.4787387"><ele>80.5</ele><time>2026-04-25T14:29:01.659Z</time></trkpt><trkpt lat="43.4015489" lon="10.4785722"><ele>83.0</ele><time>2026-04-25T14:29:02.69Z</time></trkpt><trkpt lat="43.4016419" lon="10.4784296"><ele>83.0</ele><time>2026-04-25T14:29:03.669Z</time></trkpt><trkpt lat="43.4017633" lon="10.4783158"><ele>83.0</ele><time>2026-04-25T14:29:04.681Z</time></trkpt><trkpt lat="43.4019101" lon="10.4782383"><ele>83.0</ele><time>2026-04-25T14:29:05.674Z</time></trkpt><trkpt lat="43.4020756" lon="10.4781822"><ele>87.33333333333334</ele><time>2026-04-25T14:29:06.692Z</time></trkpt><trkpt lat="43.4023875" lon="10.478146"><ele>91.66666666666667</ele><time>2026-04-25T14:29:08.661Z</time></trkpt><trkpt lat="43.4024989" lon="10.4781768"><ele>96.0</ele><time>2026-04-25T14:29:09.668Z</time></trkpt><trkpt lat="43.4025884" lon="10.4782218"><ele>96.0</ele><time>2026-04-25T14:29:10.687Z</time></trkpt><trkpt lat="43.402669" lon="10.4782479"><ele>96.0</ele><time>2026-04-25T14:29:11.665Z</time></trkpt><trkpt lat="43.4027876" lon="10.4781364"><ele>96.0</ele><time>2026-04-25T14:29:13.663Z</time></trkpt><trkpt lat="43.402804" lon="10.4780229"><ele>96.0</ele><time>2026-04-25T14:29:14.666Z</time></trkpt><trkpt lat="43.402803" lon="10.4778932"><ele>96.0</ele><time>2026-04-25T14:29:15.668Z</time></trkpt><trkpt lat="43.4027891" lon="10.4777514"><ele>96.0</ele><time>2026-04-25T14:29:16.662Z</time></trkpt><trkpt lat="43.4027392" lon="10.4776244"><ele>96.0</ele><time>2026-04-25T14:29:17.688Z</time></trkpt><trkpt lat="43.4026553" lon="10.4775535"><ele>96.0</ele><time>2026-04-25T14:29:18.654Z</time></trkpt><trkpt lat="43.4025307" lon="10.4775125"><ele>96.0</ele><time>2026-04-25T14:29:19.683Z</time></trkpt><trkpt lat="43.4023733" lon="10.4774612"><ele>96.0</ele><time>2026-04-25T14:29:20.649Z</time></trkpt><trkpt lat="43.4021814" lon="10.4774039"><ele>96.0</ele><time>2026-04-25T14:29:21.657Z</time></trkpt><trkpt lat="43.4019841" lon="10.4773511"><ele>96.0</ele><time>2026-04-25T14:29:22.67Z</time></trkpt><trkpt lat="43.4018009" lon="10.4773187"><ele>94.25</ele><time>2026-04-25T14:29:23.662Z</time></trkpt><trkpt lat="43.4016528" lon="10.4773022"><ele>92.5</ele><time>2026-04-25T14:29:24.678Z</time></trkpt><trkpt lat="43.4015184" lon="10.4772834"><ele>90.75</ele><time>2026-04-25T14:29:25.67Z</time></trkpt><trkpt lat="43.4013878" lon="10.4772443"><ele>89.0</ele><time>2026-04-25T14:29:26.665Z</time></trkpt><trkpt lat="43.4012591" lon="10.4771642"><ele>89.0</ele><time>2026-04-25T14:29:27.663Z</time></trkpt><trkpt lat="43.4010634" lon="10.4768883"><ele>89.0</ele><time>2026-04-25T14:29:29.657Z</time></trkpt><trkpt lat="43.4010092" lon="10.4767071"><ele>89.0</ele><time>2026-04-25T14:29:30.651Z</time></trkpt><trkpt lat="43.4009785" lon="10.4765103"><ele>89.0</ele><time>2026-04-25T14:29:31.684Z</time></trkpt><trkpt lat="43.4009752" lon="10.4762913"><ele>89.0</ele><time>2026-04-25T14:29:32.676Z</time></trkpt><trkpt lat="43.4009907" lon="10.4760746"><ele>89.0</ele><time>2026-04-25T14:29:33.69Z</time></trkpt><trkpt lat="43.4010163" lon="10.4758433"><ele>88.66666666666667</ele><time>2026-04-25T14:29:34.667Z</time></trkpt><trkpt lat="43.4010332" lon="10.4756054"><ele>88.33333333333333</ele><time>2026-04-25T14:29:35.645Z</time></trkpt><trkpt lat="43.4010521" lon="10.475352"><ele>88.0</ele><time>2026-04-25T14:29:36.673Z</time></trkpt><trkpt lat="43.4010736" lon="10.4750804"><ele>88.0</ele><time>2026-04-25T14:29:37.652Z</time></trkpt><trkpt lat="43.4011018" lon="10.4747888"><ele>88.0</ele><time>2026-04-25T14:29:38.66Z</time></trkpt><trkpt lat="43.4011303" lon="10.4744818"><ele>88.0</ele><time>2026-04-25T14:29:39.687Z</time></trkpt><trkpt lat="43.4011535" lon="10.4741736"><ele>86.66666666666666</ele><time>2026-04-25T14:29:40.676Z</time></trkpt><trkpt lat="43.4011659" lon="10.4738768"><ele>85.33333333333333</ele><time>2026-04-25T14:29:41.693Z</time></trkpt><trkpt lat="43.40117" lon="10.4735976"><ele>84.0</ele><time>2026-04-25T14:29:42.674Z</time></trkpt><trkpt lat="43.4011658" lon="10.4733256"><ele>83.0</ele><time>2026-04-25T14:29:43.668Z</time></trkpt><trkpt lat="43.401157" lon="10.4730618"><ele>82.0</ele><time>2026-04-25T14:29:44.673Z</time></trkpt><trkpt lat="43.4011466" lon="10.4728072"><ele>81.0</ele><time>2026-04-25T14:29:45.671Z</time></trkpt><trkpt lat="43.4011361" lon="10.4725634"><ele>80.66666666666667</ele><time>2026-04-25T14:29:46.649Z</time></trkpt><trkpt lat="43.4011268" lon="10.4723312"><ele>80.33333333333334</ele><time>2026-04-25T14:29:47.68Z</time></trkpt><trkpt lat="43.4011164" lon="10.4721178"><ele>80.0</ele><time>2026-04-25T14:29:48.673Z</time></trkpt><trkpt lat="43.4011085" lon="10.4717692"><ele>79.5</ele><time>2026-04-25T14:29:50.673Z</time></trkpt><trkpt lat="43.4011089" lon="10.4716251"><ele>79.0</ele><time>2026-04-25T14:29:51.667Z</time></trkpt><trkpt lat="43.4011181" lon="10.4714841"><ele>78.5</ele><time>2026-04-25T14:29:52.66Z</time></trkpt><trkpt lat="43.4011513" lon="10.4713264"><ele>78.0</ele><time>2026-04-25T14:29:53.694Z</time></trkpt><trkpt lat="43.4012095" lon="10.4711606"><ele>78.0</ele><time>2026-04-25T14:29:54.672Z</time></trkpt><trkpt lat="43.4012679" lon="10.4710138"><ele>78.0</ele><time>2026-04-25T14:29:55.68Z</time></trkpt><trkpt lat="43.4013228" lon="10.4708887"><ele>78.0</ele><time>2026-04-25T14:29:56.676Z</time></trkpt><trkpt lat="43.4013716" lon="10.470783"><ele>78.0</ele><time>2026-04-25T14:29:57.671Z</time></trkpt><trkpt lat="43.4014239" lon="10.4707165"><ele>78.0</ele><time>2026-04-25T14:29:58.685Z</time></trkpt><trkpt lat="43.4014978" lon="10.4706309"><ele>78.4</ele><time>2026-04-25T14:30:00.671Z</time></trkpt><trkpt lat="43.4015308" lon="10.4704988"><ele>78.8</ele><time>2026-04-25T14:30:02.674Z</time></trkpt><trkpt lat="43.4015301" lon="10.4703747"><ele>79.2</ele><time>2026-04-25T14:30:03.681Z</time></trkpt><trkpt lat="43.4015045" lon="10.470229"><ele>79.6</ele><time>2026-04-25T14:30:04.638Z</time></trkpt><trkpt lat="43.4014867" lon="10.4700509"><ele>80.0</ele><time>2026-04-25T14:30:05.679Z</time></trkpt><trkpt lat="43.4014771" lon="10.4698651"><ele>80.0</ele><time>2026-04-25T14:30:06.672Z</time></trkpt><trkpt lat="43.401457" lon="10.4696524"><ele>80.0</ele><time>2026-04-25T14:30:07.678Z</time></trkpt><trkpt lat="43.4014285" lon="10.4694227"><ele>80.0</ele><time>2026-04-25T14:30:08.665Z</time></trkpt><trkpt lat="43.4014148" lon="10.4691883"><ele>77.5</ele><time>2026-04-25T14:30:09.676Z</time></trkpt><trkpt lat="43.4014433" lon="10.4687348"><ele>75.0</ele><time>2026-04-25T14:30:11.66Z</time></trkpt><trkpt lat="43.4014931" lon="10.4685352"><ele>75.0</ele><time>2026-04-25T14:30:12.637Z</time></trkpt><trkpt lat="43.4015541" lon="10.4683479"><ele>75.0</ele><time>2026-04-25T14:30:13.651Z</time></trkpt><trkpt lat="43.4016242" lon="10.4681957"><ele>75.0</ele><time>2026-04-25T14:30:14.672Z</time></trkpt><trkpt lat="43.4017168" lon="10.4680694"><ele>75.0</ele><time>2026-04-25T14:30:15.646Z</time></trkpt><trkpt lat="43.40198" lon="10.467809"><ele>74.33333333333333</ele><time>2026-04-25T14:30:17.665Z</time></trkpt><trkpt lat="43.4021374" lon="10.4676613"><ele>73.66666666666666</ele><time>2026-04-25T14:30:18.671Z</time></trkpt><trkpt lat="43.4022866" lon="10.4675356"><ele>73.0</ele><time>2026-04-25T14:30:19.637Z</time></trkpt><trkpt lat="43.4024208" lon="10.4674171"><ele>73.0</ele><time>2026-04-25T14:30:20.684Z</time></trkpt><trkpt lat="43.402545" lon="10.4672991"><ele>73.0</ele><time>2026-04-25T14:30:21.682Z</time></trkpt><trkpt lat="43.4026468" lon="10.4671747"><ele>73.0</ele><time>2026-04-25T14:30:22.675Z</time></trkpt><trkpt lat="43.4027225" lon="10.4670396"><ele>73.0</ele><time>2026-04-25T14:30:23.675Z</time></trkpt><trkpt lat="43.4027879" lon="10.466895"><ele>72.5</ele><time>2026-04-25T14:30:24.651Z</time></trkpt><trkpt lat="43.4028408" lon="10.4667271"><ele>72.0</ele><time>2026-04-25T14:30:25.655Z</time></trkpt><trkpt lat="43.4028571" lon="10.4665403"><ele>71.5</ele><time>2026-04-25T14:30:26.647Z</time></trkpt><trkpt lat="43.4028352" lon="10.4663211"><ele>71.0</ele><time>2026-04-25T14:30:27.667Z</time></trkpt><trkpt lat="43.4027935" lon="10.4660737"><ele>72.0</ele><time>2026-04-25T14:30:28.657Z</time></trkpt><trkpt lat="43.4027556" lon="10.4658199"><ele>73.0</ele><time>2026-04-25T14:30:29.671Z</time></trkpt><trkpt lat="43.4027236" lon="10.4655741"><ele>74.0</ele><time>2026-04-25T14:30:30.64Z</time></trkpt><trkpt lat="43.4027077" lon="10.465146"><ele>74.0</ele><time>2026-04-25T14:30:32.664Z</time></trkpt><trkpt lat="43.4027281" lon="10.4649036"><ele>74.0</ele><time>2026-04-25T14:30:33.668Z</time></trkpt><trkpt lat="43.4027664" lon="10.4646414"><ele>74.0</ele><time>2026-04-25T14:30:34.636Z</time></trkpt><trkpt lat="43.4028138" lon="10.4643865"><ele>73.33333333333334</ele><time>2026-04-25T14:30:35.66Z</time></trkpt><trkpt lat="43.402861" lon="10.4641528"><ele>72.66666666666667</ele><time>2026-04-25T14:30:36.663Z</time></trkpt><trkpt lat="43.4028847" lon="10.4639393"><ele>72.0</ele><time>2026-04-25T14:30:37.658Z</time></trkpt><trkpt lat="43.4028861" lon="10.4637194"><ele>71.33333333333333</ele><time>2026-04-25T14:30:38.643Z</time></trkpt><trkpt lat="43.4028578" lon="10.4634865"><ele>70.66666666666666</ele><time>2026-04-25T14:30:39.684Z</time></trkpt><trkpt lat="43.402818" lon="10.4632526"><ele>70.0</ele><time>2026-04-25T14:30:40.635Z</time></trkpt><trkpt lat="43.4027728" lon="10.4630127"><ele>69.66666666666666</ele><time>2026-04-25T14:30:41.665Z</time></trkpt><trkpt lat="43.4027184" lon="10.4627624"><ele>69.33333333333333</ele><time>2026-04-25T14:30:42.662Z</time></trkpt><trkpt lat="43.4026491" lon="10.4625298"><ele>69.0</ele><time>2026-04-25T14:30:43.652Z</time></trkpt><trkpt lat="43.4025592" lon="10.462309"><ele>68.33333333333333</ele><time>2026-04-25T14:30:44.645Z</time></trkpt><trkpt lat="43.4024507" lon="10.4620905"><ele>67.66666666666666</ele><time>2026-04-25T14:30:45.635Z</time></trkpt><trkpt lat="43.4023374" lon="10.4618879"><ele>67.0</ele><time>2026-04-25T14:30:46.668Z</time></trkpt><trkpt lat="43.4022267" lon="10.4616962"><ele>66.5</ele><time>2026-04-25T14:30:47.638Z</time></trkpt><trkpt lat="43.4020189" lon="10.4613501"><ele>66.0</ele><time>2026-04-25T14:30:49.647Z</time></trkpt><trkpt lat="43.4019177" lon="10.4611814"><ele>66.0</ele><time>2026-04-25T14:30:50.639Z</time></trkpt><trkpt lat="43.4018213" lon="10.4610161"><ele>66.0</ele><time>2026-04-25T14:30:51.684Z</time></trkpt><trkpt lat="43.4016368" lon="10.4607093"><ele>66.0</ele><time>2026-04-25T14:30:53.663Z</time></trkpt><trkpt lat="43.4015498" lon="10.4605519"><ele>65.5</ele><time>2026-04-25T14:30:54.662Z</time></trkpt><trkpt lat="43.4014688" lon="10.4604007"><ele>65.0</ele><time>2026-04-25T14:30:55.638Z</time></trkpt><trkpt lat="43.4013882" lon="10.4602434"><ele>64.5</ele><time>2026-04-25T14:30:56.665Z</time></trkpt><trkpt lat="43.4013036" lon="10.4600865"><ele>64.0</ele><time>2026-04-25T14:30:57.665Z</time></trkpt><trkpt lat="43.4012185" lon="10.4599274"><ele>62.666666666666664</ele><time>2026-04-25T14:30:58.659Z</time></trkpt><trkpt lat="43.4011253" lon="10.4597576"><ele>61.33333333333333</ele><time>2026-04-25T14:30:59.662Z</time></trkpt><trkpt lat="43.4010306" lon="10.459583"><ele>60.0</ele><time>2026-04-25T14:31:00.654Z</time></trkpt><trkpt lat="43.4009275" lon="10.4594081"><ele>58.66666666666667</ele><time>2026-04-25T14:31:01.664Z</time></trkpt><trkpt lat="43.4008047" lon="10.4592204"><ele>57.333333333333336</ele><time>2026-04-25T14:31:02.642Z</time></trkpt><trkpt lat="43.4006685" lon="10.4590223"><ele>56.0</ele><time>2026-04-25T14:31:03.64Z</time></trkpt><trkpt lat="43.4005255" lon="10.4588229"><ele>54.66666666666667</ele><time>2026-04-25T14:31:04.63Z</time></trkpt><trkpt lat="43.4003875" lon="10.4586195"><ele>53.33333333333333</ele><time>2026-04-25T14:31:05.652Z</time></trkpt><trkpt lat="43.4002563" lon="10.4584263"><ele>52.0</ele><time>2026-04-25T14:31:06.647Z</time></trkpt><trkpt lat="43.4001342" lon="10.4582413"><ele>52.0</ele><time>2026-04-25T14:31:07.667Z</time></trkpt><trkpt lat="43.4000169" lon="10.4580685"><ele>52.0</ele><time>2026-04-25T14:31:08.659Z</time></trkpt><trkpt lat="43.3999" lon="10.4579021"><ele>52.0</ele><time>2026-04-25T14:31:09.667Z</time></trkpt><trkpt lat="43.3997876" lon="10.4577459"><ele>51.666666666666664</ele><time>2026-04-25T14:31:10.655Z</time></trkpt><trkpt lat="43.3996825" lon="10.4575957"><ele>51.33333333333333</ele><time>2026-04-25T14:31:11.653Z</time></trkpt><trkpt lat="43.3995884" lon="10.4574435"><ele>51.0</ele><time>2026-04-25T14:31:12.66Z</time></trkpt><trkpt lat="43.3993836" lon="10.4571547"><ele>50.75</ele><time>2026-04-25T14:31:14.643Z</time></trkpt><trkpt lat="43.399274" lon="10.4570157"><ele>50.5</ele><time>2026-04-25T14:31:15.655Z</time></trkpt><trkpt lat="43.3991739" lon="10.4568765"><ele>50.25</ele><time>2026-04-25T14:31:16.654Z</time></trkpt><trkpt lat="43.3990851" lon="10.4567399"><ele>50.0</ele><time>2026-04-25T14:31:17.653Z</time></trkpt><trkpt lat="43.3990057" lon="10.4566363"><ele>50.0</ele><time>2026-04-25T14:31:18.659Z</time></trkpt><trkpt lat="43.3989375" lon="10.4565389"><ele>50.0</ele><time>2026-04-25T14:31:19.635Z</time></trkpt><trkpt lat="43.3988331" lon="10.4563487"><ele>50.0</ele><time>2026-04-25T14:31:21.633Z</time></trkpt><trkpt lat="43.3988221" lon="10.4562307"><ele>50.0</ele><time>2026-04-25T14:31:22.66Z</time></trkpt><trkpt lat="43.3988536" lon="10.4561207"><ele>50.0</ele><time>2026-04-25T14:31:23.649Z</time></trkpt><trkpt lat="43.3989218" lon="10.4560403"><ele>49.75</ele><time>2026-04-25T14:31:24.661Z</time></trkpt><trkpt lat="43.3990284" lon="10.4559863"><ele>49.5</ele><time>2026-04-25T14:31:25.654Z</time></trkpt><trkpt lat="43.3991373" lon="10.4559129"><ele>49.25</ele><time>2026-04-25T14:31:26.635Z</time></trkpt><trkpt lat="43.3992412" lon="10.4558272"><ele>49.0</ele><time>2026-04-25T14:31:27.64Z</time></trkpt><trkpt lat="43.3993302" lon="10.4557278"><ele>49.0</ele><time>2026-04-25T14:31:28.663Z</time></trkpt><trkpt lat="43.3994087" lon="10.4556029"><ele>49.0</ele><time>2026-04-25T14:31:29.644Z</time></trkpt><trkpt lat="43.3994688" lon="10.455456"><ele>49.0</ele><time>2026-04-25T14:31:30.634Z</time></trkpt><trkpt lat="43.3994898" lon="10.4553051"><ele>49.0</ele><time>2026-04-25T14:31:31.649Z</time></trkpt><trkpt lat="43.3994842" lon="10.4551439"><ele>49.0</ele><time>2026-04-25T14:31:32.641Z</time></trkpt><trkpt lat="43.3994606" lon="10.4549759"><ele>49.0</ele><time>2026-04-25T14:31:33.639Z</time></trkpt><trkpt lat="43.3993546" lon="10.4545871"><ele>49.0</ele><time>2026-04-25T14:31:35.636Z</time></trkpt><trkpt lat="43.3992994" lon="10.4543858"><ele>49.0</ele><time>2026-04-25T14:31:36.637Z</time></trkpt><trkpt lat="43.3992437" lon="10.4541989"><ele>49.0</ele><time>2026-04-25T14:31:37.658Z</time></trkpt><trkpt lat="43.3991846" lon="10.4540217"><ele>49.0</ele><time>2026-04-25T14:31:38.655Z</time></trkpt><trkpt lat="43.399131" lon="10.4538391"><ele>49.0</ele><time>2026-04-25T14:31:39.66Z</time></trkpt><trkpt lat="43.3990749" lon="10.4536496"><ele>49.0</ele><time>2026-04-25T14:31:40.633Z</time></trkpt><trkpt lat="43.3990231" lon="10.4534664"><ele>49.0</ele><time>2026-04-25T14:31:41.631Z</time></trkpt><trkpt lat="43.3989702" lon="10.4532913"><ele>49.0</ele><time>2026-04-25T14:31:42.633Z</time></trkpt><trkpt lat="43.3989186" lon="10.4531084"><ele>49.0</ele><time>2026-04-25T14:31:43.651Z</time></trkpt><trkpt lat="43.3988695" lon="10.4529253"><ele>47.666666666666664</ele><time>2026-04-25T14:31:44.655Z</time></trkpt><trkpt lat="43.3988174" lon="10.45273"><ele>46.33333333333333</ele><time>2026-04-25T14:31:45.657Z</time></trkpt><trkpt lat="43.3987608" lon="10.4525183"><ele>45.0</ele><time>2026-04-25T14:31:46.628Z</time></trkpt><trkpt lat="43.3987034" lon="10.452308"><ele>44.333333333333336</ele><time>2026-04-25T14:31:47.644Z</time></trkpt><trkpt lat="43.3986475" lon="10.4520893"><ele>43.66666666666667</ele><time>2026-04-25T14:31:48.644Z</time></trkpt><trkpt lat="43.3985988" lon="10.4518728"><ele>43.0</ele><time>2026-04-25T14:31:49.662Z</time></trkpt><trkpt lat="43.398558" lon="10.4516661"><ele>43.0</ele><time>2026-04-25T14:31:50.639Z</time></trkpt><trkpt lat="43.3985227" lon="10.4514694"><ele>43.0</ele><time>2026-04-25T14:31:51.625Z</time></trkpt><trkpt lat="43.3984477" lon="10.4510774"><ele>43.0</ele><time>2026-04-25T14:31:53.623Z</time></trkpt><trkpt lat="43.3984015" lon="10.4508634"><ele>41.5</ele><time>2026-04-25T14:31:54.649Z</time></trkpt><trkpt lat="43.398318" lon="10.4504491"><ele>40.0</ele><time>2026-04-25T14:31:56.635Z</time></trkpt><trkpt lat="43.3982784" lon="10.4502494"><ele>40.0</ele><time>2026-04-25T14:31:57.646Z</time></trkpt><trkpt lat="43.3982495" lon="10.4500385"><ele>40.0</ele><time>2026-04-25T14:31:58.644Z</time></trkpt><trkpt lat="43.3982321" lon="10.4498265"><ele>40.0</ele><time>2026-04-25T14:31:59.62Z</time></trkpt><trkpt lat="43.398233" lon="10.4496178"><ele>39.333333333333336</ele><time>2026-04-25T14:32:00.648Z</time></trkpt><trkpt lat="43.3982354" lon="10.4494078"><ele>38.666666666666664</ele><time>2026-04-25T14:32:01.625Z</time></trkpt><trkpt lat="43.3982473" lon="10.449198"><ele>38.0</ele><time>2026-04-25T14:32:02.622Z</time></trkpt><trkpt lat="43.3982446" lon="10.4489857"><ele>37.33333333333333</ele><time>2026-04-25T14:32:03.65Z</time></trkpt><trkpt lat="43.3982305" lon="10.4487752"><ele>36.666666666666664</ele><time>2026-04-25T14:32:04.652Z</time></trkpt><trkpt lat="43.3982174" lon="10.4485632"><ele>36.0</ele><time>2026-04-25T14:32:05.655Z</time></trkpt><trkpt lat="43.3981901" lon="10.4483575"><ele>36.0</ele><time>2026-04-25T14:32:06.631Z</time></trkpt><trkpt lat="43.3981507" lon="10.4481498"><ele>36.0</ele><time>2026-04-25T14:32:07.652Z</time></trkpt><trkpt lat="43.3981087" lon="10.4479456"><ele>36.0</ele><time>2026-04-25T14:32:08.63Z</time></trkpt><trkpt lat="43.3980707" lon="10.4477395"><ele>36.0</ele><time>2026-04-25T14:32:09.646Z</time></trkpt><trkpt lat="43.3980449" lon="10.4475397"><ele>36.0</ele><time>2026-04-25T14:32:10.642Z</time></trkpt><trkpt lat="43.3980153" lon="10.4473553"><ele>36.0</ele><time>2026-04-25T14:32:11.651Z</time></trkpt><trkpt lat="43.3979819" lon="10.4472011"><ele>36.0</ele><time>2026-04-25T14:32:12.639Z</time></trkpt><trkpt lat="43.3979732" lon="10.4470353"><ele>35.333333333333336</ele><time>2026-04-25T14:32:13.635Z</time></trkpt><trkpt lat="43.3979969" lon="10.4468716"><ele>34.66666666666667</ele><time>2026-04-25T14:32:14.649Z</time></trkpt><trkpt lat="43.398034" lon="10.4466993"><ele>34.0</ele><time>2026-04-25T14:32:15.663Z</time></trkpt><trkpt lat="43.3980614" lon="10.4463596"><ele>33.5</ele><time>2026-04-25T14:32:17.651Z</time></trkpt><trkpt lat="43.3980589" lon="10.4461789"><ele>33.0</ele><time>2026-04-25T14:32:18.62Z</time></trkpt><trkpt lat="43.3980758" lon="10.4459988"><ele>32.5</ele><time>2026-04-25T14:32:19.664Z</time></trkpt><trkpt lat="43.3981111" lon="10.4458122"><ele>32.0</ele><time>2026-04-25T14:32:20.622Z</time></trkpt><trkpt lat="43.3981528" lon="10.4456129"><ele>32.0</ele><time>2026-04-25T14:32:21.654Z</time></trkpt><trkpt lat="43.3981891" lon="10.4454259"><ele>32.0</ele><time>2026-04-25T14:32:22.654Z</time></trkpt><trkpt lat="43.3982199" lon="10.445257"><ele>32.0</ele><time>2026-04-25T14:32:23.625Z</time></trkpt><trkpt lat="43.3982641" lon="10.4449987"><ele>32.0</ele><time>2026-04-25T14:32:25.646Z</time></trkpt><trkpt lat="43.3982837" lon="10.4449055"><ele>32.0</ele><time>2026-04-25T14:32:26.638Z</time></trkpt><trkpt lat="43.3983068" lon="10.4447662"><ele>32.0</ele><time>2026-04-25T14:32:28.638Z</time></trkpt><trkpt lat="43.3983135" lon="10.4446597"><ele>32.0</ele><time>2026-04-25T14:33:16.62Z</time></trkpt><trkpt lat="43.3983672" lon="10.4443787"><ele>31.75</ele><time>2026-04-25T14:33:19.625Z</time></trkpt><trkpt lat="43.3984001" lon="10.4442225"><ele>31.5</ele><time>2026-04-25T14:33:20.638Z</time></trkpt><trkpt lat="43.3984274" lon="10.4440678"><ele>31.25</ele><time>2026-04-25T14:33:21.613Z</time></trkpt><trkpt lat="43.3984567" lon="10.4439023"><ele>31.0</ele><time>2026-04-25T14:33:22.637Z</time></trkpt><trkpt lat="43.3984886" lon="10.4437264"><ele>30.5</ele><time>2026-04-25T14:33:23.633Z</time></trkpt><trkpt lat="43.3985215" lon="10.4435478"><ele>30.0</ele><time>2026-04-25T14:33:24.624Z</time></trkpt><trkpt lat="43.3985563" lon="10.4433727"><ele>29.5</ele><time>2026-04-25T14:33:25.64Z</time></trkpt><trkpt lat="43.3985934" lon="10.4431929"><ele>29.0</ele><time>2026-04-25T14:33:26.626Z</time></trkpt><trkpt lat="43.3986282" lon="10.443019"><ele>29.0</ele><time>2026-04-25T14:33:27.639Z</time></trkpt><trkpt lat="43.3986591" lon="10.442847"><ele>29.0</ele><time>2026-04-25T14:33:28.627Z</time></trkpt><trkpt lat="43.3986941" lon="10.4426869"><ele>29.0</ele><time>2026-04-25T14:33:29.604Z</time></trkpt><trkpt lat="43.3987238" lon="10.4425285"><ele>29.0</ele><time>2026-04-25T14:33:30.64Z</time></trkpt><trkpt lat="43.3987588" lon="10.4423741"><ele>29.0</ele><time>2026-04-25T14:33:31.654Z</time></trkpt><trkpt lat="43.3987943" lon="10.4422215"><ele>29.0</ele><time>2026-04-25T14:33:32.615Z</time></trkpt><trkpt lat="43.3988271" lon="10.4420724"><ele>29.0</ele><time>2026-04-25T14:33:33.639Z</time></trkpt><trkpt lat="43.3988648" lon="10.4419209"><ele>29.0</ele><time>2026-04-25T14:33:34.639Z</time></trkpt><trkpt lat="43.3989088" lon="10.4417672"><ele>28.333333333333332</ele><time>2026-04-25T14:33:35.641Z</time></trkpt><trkpt lat="43.3989537" lon="10.4416001"><ele>27.666666666666664</ele><time>2026-04-25T14:33:36.64Z</time></trkpt><trkpt lat="43.3990016" lon="10.4414209"><ele>27.0</ele><time>2026-04-25T14:33:37.61Z</time></trkpt><trkpt lat="43.3991033" lon="10.4410456"><ele>27.0</ele><time>2026-04-25T14:33:39.646Z</time></trkpt><trkpt lat="43.3991598" lon="10.4408567"><ele>27.0</ele><time>2026-04-25T14:33:40.635Z</time></trkpt><trkpt lat="43.3992173" lon="10.4406662"><ele>27.0</ele><time>2026-04-25T14:33:41.637Z</time></trkpt><trkpt lat="43.3992766" lon="10.4404757"><ele>27.0</ele><time>2026-04-25T14:33:42.628Z</time></trkpt><trkpt lat="43.3993366" lon="10.4402819"><ele>27.0</ele><time>2026-04-25T14:33:43.622Z</time></trkpt><trkpt lat="43.3994043" lon="10.4400851"><ele>27.0</ele><time>2026-04-25T14:33:44.615Z</time></trkpt><trkpt lat="43.3994733" lon="10.4398823"><ele>27.0</ele><time>2026-04-25T14:33:45.604Z</time></trkpt><trkpt lat="43.3995409" lon="10.4396733"><ele>26.666666666666664</ele><time>2026-04-25T14:33:46.618Z</time></trkpt><trkpt lat="43.3996087" lon="10.4394546"><ele>26.333333333333332</ele><time>2026-04-25T14:33:47.641Z</time></trkpt><trkpt lat="43.3996766" lon="10.4392377"><ele>26.0</ele><time>2026-04-25T14:33:48.605Z</time></trkpt><trkpt lat="43.3998117" lon="10.4388021"><ele>25.666666666666664</ele><time>2026-04-25T14:33:50.635Z</time></trkpt><trkpt lat="43.3998757" lon="10.4385884"><ele>25.333333333333336</ele><time>2026-04-25T14:33:51.631Z</time></trkpt><trkpt lat="43.399941" lon="10.43839"><ele>25.0</ele><time>2026-04-25T14:33:52.633Z</time></trkpt><trkpt lat="43.4000038" lon="10.4381916"><ele>25.0</ele><time>2026-04-25T14:33:53.627Z</time></trkpt><trkpt lat="43.4000662" lon="10.4380041"><ele>25.0</ele><time>2026-04-25T14:33:54.605Z</time></trkpt><trkpt lat="43.4001271" lon="10.4378084"><ele>25.0</ele><time>2026-04-25T14:33:55.619Z</time></trkpt><trkpt lat="43.4001875" lon="10.4376153"><ele>25.0</ele><time>2026-04-25T14:33:56.627Z</time></trkpt><trkpt lat="43.400245" lon="10.4374239"><ele>25.0</ele><time>2026-04-25T14:33:57.624Z</time></trkpt><trkpt lat="43.4003025" lon="10.4372398"><ele>25.0</ele><time>2026-04-25T14:33:58.61Z</time></trkpt><trkpt lat="43.4004041" lon="10.4368927"><ele>25.0</ele><time>2026-04-25T14:34:00.627Z</time></trkpt><trkpt lat="43.4004596" lon="10.4367274"><ele>25.0</ele><time>2026-04-25T14:34:01.616Z</time></trkpt><trkpt lat="43.4005227" lon="10.4365829"><ele>25.0</ele><time>2026-04-25T14:34:02.617Z</time></trkpt><trkpt lat="43.4005901" lon="10.4364454"><ele>25.0</ele><time>2026-04-25T14:34:03.594Z</time></trkpt><trkpt lat="43.4006671" lon="10.4363262"><ele>24.25</ele><time>2026-04-25T14:34:04.626Z</time></trkpt><trkpt lat="43.4007529" lon="10.4362057"><ele>23.5</ele><time>2026-04-25T14:34:05.626Z</time></trkpt><trkpt lat="43.4008434" lon="10.4360604"><ele>22.75</ele><time>2026-04-25T14:34:06.631Z</time></trkpt><trkpt lat="43.4009419" lon="10.4359066"><ele>22.0</ele><time>2026-04-25T14:34:07.629Z</time></trkpt><trkpt lat="43.4010447" lon="10.4357449"><ele>22.0</ele><time>2026-04-25T14:34:08.627Z</time></trkpt><trkpt lat="43.4011495" lon="10.4355976"><ele>22.0</ele><time>2026-04-25T14:34:09.615Z</time></trkpt><trkpt lat="43.4012615" lon="10.4354654"><ele>22.0</ele><time>2026-04-25T14:34:10.621Z</time></trkpt><trkpt lat="43.4013829" lon="10.4353326"><ele>21.0</ele><time>2026-04-25T14:34:11.594Z</time></trkpt><trkpt lat="43.4015007" lon="10.4351932"><ele>20.0</ele><time>2026-04-25T14:34:12.61Z</time></trkpt><trkpt lat="43.4016147" lon="10.4350497"><ele>19.0</ele><time>2026-04-25T14:34:13.624Z</time></trkpt><trkpt lat="43.401731" lon="10.4348929"><ele>19.0</ele><time>2026-04-25T14:34:14.617Z</time></trkpt><trkpt lat="43.4018462" lon="10.4347306"><ele>19.0</ele><time>2026-04-25T14:34:15.625Z</time></trkpt><trkpt lat="43.4019557" lon="10.434559"><ele>19.0</ele><time>2026-04-25T14:34:16.603Z</time></trkpt><trkpt lat="43.4020549" lon="10.4343826"><ele>18.333333333333332</ele><time>2026-04-25T14:34:17.635Z</time></trkpt><trkpt lat="43.402135" lon="10.4341987"><ele>17.666666666666668</ele><time>2026-04-25T14:34:18.623Z</time></trkpt><trkpt lat="43.4022156" lon="10.4340005"><ele>17.0</ele><time>2026-04-25T14:34:19.601Z</time></trkpt><trkpt lat="43.4022985" lon="10.4338008"><ele>22.0</ele><time>2026-04-25T14:34:20.626Z</time></trkpt><trkpt lat="43.4025297" lon="10.4332215"><ele>22.0</ele><time>2026-04-25T14:34:23.627Z</time></trkpt><trkpt lat="43.4025991" lon="10.4330467"><ele>22.0</ele><time>2026-04-25T14:34:24.608Z</time></trkpt><trkpt lat="43.4026657" lon="10.4328638"><ele>22.0</ele><time>2026-04-25T14:34:25.616Z</time></trkpt><trkpt lat="43.4027214" lon="10.4326752"><ele>22.0</ele><time>2026-04-25T14:34:26.621Z</time></trkpt><trkpt lat="43.4027529" lon="10.432468"><ele>21.666666666666664</ele><time>2026-04-25T14:34:27.621Z</time></trkpt><trkpt lat="43.4027591" lon="10.4322435"><ele>21.333333333333332</ele><time>2026-04-25T14:34:28.624Z</time></trkpt><trkpt lat="43.4027583" lon="10.432025"><ele>21.0</ele><time>2026-04-25T14:34:29.592Z</time></trkpt><trkpt lat="43.4027768" lon="10.4318259"><ele>21.0</ele><time>2026-04-25T14:34:30.617Z</time></trkpt><trkpt lat="43.4028176" lon="10.4316299"><ele>21.0</ele><time>2026-04-25T14:34:31.628Z</time></trkpt><trkpt lat="43.402879" lon="10.4314445"><ele>21.0</ele><time>2026-04-25T14:34:32.616Z</time></trkpt><trkpt lat="43.4029478" lon="10.4312636"><ele>21.0</ele><time>2026-04-25T14:34:33.639Z</time></trkpt><trkpt lat="43.4030274" lon="10.4310957"><ele>21.0</ele><time>2026-04-25T14:34:34.61Z</time></trkpt><trkpt lat="43.4031075" lon="10.4309264"><ele>21.0</ele><time>2026-04-25T14:34:35.605Z</time></trkpt><trkpt lat="43.4031829" lon="10.4307829"><ele>21.0</ele><time>2026-04-25T14:34:36.607Z</time></trkpt><trkpt lat="43.4032627" lon="10.4306554"><ele>21.0</ele><time>2026-04-25T14:34:37.635Z</time></trkpt><trkpt lat="43.4033422" lon="10.4305348"><ele>21.5</ele><time>2026-04-25T14:34:38.628Z</time></trkpt><trkpt lat="43.4034179" lon="10.4304106"><ele>22.0</ele><time>2026-04-25T14:34:39.617Z</time></trkpt><trkpt lat="43.4034888" lon="10.4302904"><ele>22.5</ele><time>2026-04-25T14:34:40.63Z</time></trkpt><trkpt lat="43.403558" lon="10.4301863"><ele>23.0</ele><time>2026-04-25T14:34:41.626Z</time></trkpt><trkpt lat="43.4036962" lon="10.4299802"><ele>23.0</ele><time>2026-04-25T14:34:43.622Z</time></trkpt><trkpt lat="43.4037677" lon="10.4298824"><ele>23.0</ele><time>2026-04-25T14:34:44.606Z</time></trkpt><trkpt lat="43.4038351" lon="10.4297877"><ele>23.0</ele><time>2026-04-25T14:34:45.59Z</time></trkpt><trkpt lat="43.4039024" lon="10.4296944"><ele>23.0</ele><time>2026-04-25T14:34:46.611Z</time></trkpt><trkpt lat="43.4039698" lon="10.4296014"><ele>23.0</ele><time>2026-04-25T14:34:47.602Z</time></trkpt><trkpt lat="43.4040339" lon="10.4295066"><ele>23.4</ele><time>2026-04-25T14:34:48.605Z</time></trkpt><trkpt lat="43.4040919" lon="10.4294232"><ele>23.799999999999997</ele><time>2026-04-25T14:34:49.617Z</time></trkpt><trkpt lat="43.4041451" lon="10.4293379"><ele>24.2</ele><time>2026-04-25T14:34:50.606Z</time></trkpt><trkpt lat="43.4042013" lon="10.4292457"><ele>24.6</ele><time>2026-04-25T14:34:51.599Z</time></trkpt><trkpt lat="43.4042521" lon="10.4291461"><ele>25.0</ele><time>2026-04-25T14:34:52.6Z</time></trkpt><trkpt lat="43.4043239" lon="10.4289075"><ele>24.4</ele><time>2026-04-25T14:34:54.594Z</time></trkpt><trkpt lat="43.4043522" lon="10.4287712"><ele>23.8</ele><time>2026-04-25T14:34:55.645Z</time></trkpt><trkpt lat="43.4043854" lon="10.4286359"><ele>23.200000000000003</ele><time>2026-04-25T14:34:56.619Z</time></trkpt><trkpt lat="43.4044164" lon="10.4285049"><ele>22.6</ele><time>2026-04-25T14:34:57.63Z</time></trkpt><trkpt lat="43.4044498" lon="10.4283805"><ele>22.0</ele><time>2026-04-25T14:34:58.623Z</time></trkpt><trkpt lat="43.4044849" lon="10.4282573"><ele>22.0</ele><time>2026-04-25T14:34:59.622Z</time></trkpt><trkpt lat="43.4045139" lon="10.4281383"><ele>22.0</ele><time>2026-04-25T14:35:00.617Z</time></trkpt><trkpt lat="43.4045494" lon="10.4280235"><ele>22.0</ele><time>2026-04-25T14:35:01.616Z</time></trkpt><trkpt lat="43.4045841" lon="10.4279026"><ele>22.0</ele><time>2026-04-25T14:35:02.617Z</time></trkpt><trkpt lat="43.4046402" lon="10.4276516"><ele>22.0</ele><time>2026-04-25T14:35:04.601Z</time></trkpt><trkpt lat="43.4046471" lon="10.4275123"><ele>22.0</ele><time>2026-04-25T14:35:05.609Z</time></trkpt><trkpt lat="43.4046379" lon="10.4273684"><ele>22.0</ele><time>2026-04-25T14:35:06.62Z</time></trkpt><trkpt lat="43.4046268" lon="10.4272346"><ele>22.0</ele><time>2026-04-25T14:35:07.616Z</time></trkpt><trkpt lat="43.4046166" lon="10.4271051"><ele>22.0</ele><time>2026-04-25T14:35:08.607Z</time></trkpt><trkpt lat="43.4046044" lon="10.4269805"><ele>22.0</ele><time>2026-04-25T14:35:09.614Z</time></trkpt><trkpt lat="43.4045921" lon="10.4268626"><ele>22.0</ele><time>2026-04-25T14:35:10.607Z</time></trkpt><trkpt lat="43.4045825" lon="10.4267474"><ele>22.0</ele><time>2026-04-25T14:35:11.609Z</time></trkpt><trkpt lat="43.4045744" lon="10.4266344"><ele>22.0</ele><time>2026-04-25T14:35:12.598Z</time></trkpt><trkpt lat="43.4045702" lon="10.4265224"><ele>22.0</ele><time>2026-04-25T14:35:13.586Z</time></trkpt><trkpt lat="43.404568" lon="10.4264139"><ele>22.0</ele><time>2026-04-25T14:35:14.606Z</time></trkpt><trkpt lat="43.4045745" lon="10.4262997"><ele>21.8</ele><time>2026-04-25T14:35:15.603Z</time></trkpt><trkpt lat="43.4045875" lon="10.4261867"><ele>21.6</ele><time>2026-04-25T14:35:16.612Z</time></trkpt><trkpt lat="43.4046118" lon="10.4260655"><ele>21.400000000000002</ele><time>2026-04-25T14:35:17.606Z</time></trkpt><trkpt lat="43.4046523" lon="10.4259509"><ele>21.200000000000003</ele><time>2026-04-25T14:35:18.606Z</time></trkpt><trkpt lat="43.4047043" lon="10.4258405"><ele>21.0</ele><time>2026-04-25T14:35:19.585Z</time></trkpt><trkpt lat="43.4047644" lon="10.4257262"><ele>21.0</ele><time>2026-04-25T14:35:20.586Z</time></trkpt><trkpt lat="43.4048299" lon="10.425623"><ele>21.0</ele><time>2026-04-25T14:35:21.617Z</time></trkpt><trkpt lat="43.4048918" lon="10.4255247"><ele>21.0</ele><time>2026-04-25T14:35:22.613Z</time></trkpt><trkpt lat="43.4049346" lon="10.4254345"><ele>21.0</ele><time>2026-04-25T14:35:23.615Z</time></trkpt><trkpt lat="43.4049503" lon="10.4253465"><ele>21.0</ele><time>2026-04-25T14:35:24.597Z</time></trkpt><trkpt lat="43.4049379" lon="10.4250587"><ele>21.0</ele><time>2026-04-25T14:35:28.6Z</time></trkpt><trkpt lat="43.4049511" lon="10.4249115"><ele>21.0</ele><time>2026-04-25T14:35:30.614Z</time></trkpt><trkpt lat="43.4049774" lon="10.4248152"><ele>21.0</ele><time>2026-04-25T14:35:31.597Z</time></trkpt><trkpt lat="43.4050149" lon="10.4246969"><ele>21.0</ele><time>2026-04-25T14:35:32.602Z</time></trkpt><trkpt lat="43.405062" lon="10.4245643"><ele>21.0</ele><time>2026-04-25T14:35:33.598Z</time></trkpt><trkpt lat="43.4051075" lon="10.424424"><ele>21.0</ele><time>2026-04-25T14:35:34.609Z</time></trkpt><trkpt lat="43.405152" lon="10.4242816"><ele>21.0</ele><time>2026-04-25T14:35:35.615Z</time></trkpt><trkpt lat="43.4051969" lon="10.4241278"><ele>21.0</ele><time>2026-04-25T14:35:36.587Z</time></trkpt><trkpt lat="43.4052468" lon="10.4239636"><ele>21.0</ele><time>2026-04-25T14:35:37.615Z</time></trkpt><trkpt lat="43.405299" lon="10.4238049"><ele>21.666666666666668</ele><time>2026-04-25T14:35:38.61Z</time></trkpt><trkpt lat="43.4053526" lon="10.4236293"><ele>22.333333333333336</ele><time>2026-04-25T14:35:39.595Z</time></trkpt><trkpt lat="43.4054013" lon="10.4234306"><ele>23.0</ele><time>2026-04-25T14:35:40.594Z</time></trkpt><trkpt lat="43.4054623" lon="10.4231902"><ele>23.333333333333336</ele><time>2026-04-25T14:35:41.618Z</time></trkpt><trkpt lat="43.4055439" lon="10.4229137"><ele>23.666666666666668</ele><time>2026-04-25T14:35:42.608Z</time></trkpt><trkpt lat="43.4056294" lon="10.4226194"><ele>24.0</ele><time>2026-04-25T14:35:43.608Z</time></trkpt><trkpt lat="43.4057098" lon="10.4223238"><ele>24.0</ele><time>2026-04-25T14:35:44.614Z</time></trkpt><trkpt lat="43.4057901" lon="10.4220416"><ele>24.0</ele><time>2026-04-25T14:35:45.6Z</time></trkpt><trkpt lat="43.4059276" lon="10.4215586"><ele>24.0</ele><time>2026-04-25T14:35:47.591Z</time></trkpt><trkpt lat="43.4059819" lon="10.4213465"><ele>24.0</ele><time>2026-04-25T14:35:48.589Z</time></trkpt><trkpt lat="43.4060307" lon="10.4211521"><ele>24.0</ele><time>2026-04-25T14:35:49.581Z</time></trkpt><trkpt lat="43.4060749" lon="10.420966"><ele>24.5</ele><time>2026-04-25T14:35:50.602Z</time></trkpt><trkpt lat="43.4061134" lon="10.4207953"><ele>25.0</ele><time>2026-04-25T14:35:51.711Z</time></trkpt><trkpt lat="43.4061408" lon="10.4206351"><ele>25.5</ele><time>2026-04-25T14:35:52.675Z</time></trkpt><trkpt lat="43.4061597" lon="10.4204672"><ele>26.0</ele><time>2026-04-25T14:35:53.614Z</time></trkpt><trkpt lat="43.4061805" lon="10.4202837"><ele>26.0</ele><time>2026-04-25T14:35:54.616Z</time></trkpt><trkpt lat="43.4062159" lon="10.4200456"><ele>26.0</ele><time>2026-04-25T14:35:55.605Z</time></trkpt><trkpt lat="43.4062658" lon="10.4197543"><ele>26.0</ele><time>2026-04-25T14:35:56.585Z</time></trkpt><trkpt lat="43.4063741" lon="10.4191689"><ele>27.333333333333332</ele><time>2026-04-25T14:35:58.69Z</time></trkpt><trkpt lat="43.4064263" lon="10.4188878"><ele>28.666666666666664</ele><time>2026-04-25T14:35:59.675Z</time></trkpt><trkpt lat="43.406481" lon="10.4186194"><ele>30.0</ele><time>2026-04-25T14:36:00.59Z</time></trkpt><trkpt lat="43.4065326" lon="10.4183773"><ele>30.0</ele><time>2026-04-25T14:36:01.603Z</time></trkpt><trkpt lat="43.4065889" lon="10.4181558"><ele>30.0</ele><time>2026-04-25T14:36:02.603Z</time></trkpt><trkpt lat="43.4066462" lon="10.4179441"><ele>30.0</ele><time>2026-04-25T14:36:03.692Z</time></trkpt><trkpt lat="43.4067022" lon="10.4177404"><ele>30.333333333333336</ele><time>2026-04-25T14:36:04.708Z</time></trkpt><trkpt lat="43.4067466" lon="10.4175013"><ele>30.666666666666668</ele><time>2026-04-25T14:36:05.682Z</time></trkpt><trkpt lat="43.4067644" lon="10.417246"><ele>31.0</ele><time>2026-04-25T14:36:06.703Z</time></trkpt><trkpt lat="43.4067928" lon="10.416595"><ele>32.5</ele><time>2026-04-25T14:36:09.702Z</time></trkpt><trkpt lat="43.4068043" lon="10.4164112"><ele>34.0</ele><time>2026-04-25T14:36:10.71Z</time></trkpt><trkpt lat="43.4068143" lon="10.4162278"><ele>35.5</ele><time>2026-04-25T14:36:11.728Z</time></trkpt><trkpt lat="43.4068313" lon="10.4160519"><ele>37.0</ele><time>2026-04-25T14:36:12.711Z</time></trkpt><trkpt lat="43.4068491" lon="10.4158614"><ele>38.0</ele><time>2026-04-25T14:36:13.686Z</time></trkpt><trkpt lat="43.4068599" lon="10.4156592"><ele>39.0</ele><time>2026-04-25T14:36:14.605Z</time></trkpt><trkpt lat="43.4068691" lon="10.4154535"><ele>40.0</ele><time>2026-04-25T14:36:15.705Z</time></trkpt><trkpt lat="43.406882" lon="10.4152289"><ele>41.0</ele><time>2026-04-25T14:36:16.696Z</time></trkpt><trkpt lat="43.4069018" lon="10.414975"><ele>42.0</ele><time>2026-04-25T14:36:17.692Z</time></trkpt><trkpt lat="43.4069165" lon="10.4147029"><ele>43.0</ele><time>2026-04-25T14:36:18.672Z</time></trkpt><trkpt lat="43.4069282" lon="10.4144342"><ele>45.0</ele><time>2026-04-25T14:36:19.683Z</time></trkpt><trkpt lat="43.4069389" lon="10.4141941"><ele>47.0</ele><time>2026-04-25T14:36:20.678Z</time></trkpt><trkpt lat="43.4069538" lon="10.4139753"><ele>49.0</ele><time>2026-04-25T14:36:21.668Z</time></trkpt><trkpt lat="43.4069673" lon="10.4137624"><ele>49.0</ele><time>2026-04-25T14:36:22.691Z</time></trkpt><trkpt lat="43.4069782" lon="10.4135517"><ele>49.0</ele><time>2026-04-25T14:36:23.67Z</time></trkpt><trkpt lat="43.406995" lon="10.4133469"><ele>49.0</ele><time>2026-04-25T14:36:24.664Z</time></trkpt><trkpt lat="43.407013" lon="10.413158"><ele>49.0</ele><time>2026-04-25T14:36:25.683Z</time></trkpt><trkpt lat="43.407028" lon="10.413012"><ele>49.5</ele><time>2026-04-25T14:36:26.695Z</time></trkpt><trkpt lat="43.407033" lon="10.412879"><ele>50.0</ele><time>2026-04-25T14:36:27.692Z</time></trkpt><trkpt lat="43.4070361" lon="10.4127562"><ele>50.5</ele><time>2026-04-25T14:36:28.668Z</time></trkpt><trkpt lat="43.4070093" lon="10.4124299"><ele>51.0</ele><time>2026-04-25T14:36:31.696Z</time></trkpt><trkpt lat="43.4069127" lon="10.4123113"><ele>51.0</ele><time>2026-04-25T14:36:33.704Z</time></trkpt><trkpt lat="43.4068586" lon="10.4122378"><ele>51.0</ele><time>2026-04-25T14:36:34.685Z</time></trkpt><trkpt lat="43.4068159" lon="10.4121523"><ele>51.0</ele><time>2026-04-25T14:36:35.694Z</time></trkpt><trkpt lat="43.4067901" lon="10.4120487"><ele>51.0</ele><time>2026-04-25T14:36:36.686Z</time></trkpt><trkpt lat="43.4067749" lon="10.411935"><ele>51.0</ele><time>2026-04-25T14:36:37.696Z</time></trkpt><trkpt lat="43.4067672" lon="10.4118148"><ele>51.0</ele><time>2026-04-25T14:36:38.694Z</time></trkpt><trkpt lat="43.4067647" lon="10.4116838"><ele>50.199999999999996</ele><time>2026-04-25T14:36:39.694Z</time></trkpt><trkpt lat="43.4067733" lon="10.4115886"><ele>49.4</ele><time>2026-04-25T14:36:40.69Z</time></trkpt><trkpt lat="43.4067882" lon="10.4114735"><ele>48.6</ele><time>2026-04-25T14:36:42.692Z</time></trkpt><trkpt lat="43.4067944" lon="10.4113012"><ele>47.8</ele><time>2026-04-25T14:36:44.675Z</time></trkpt><trkpt lat="43.4067768" lon="10.4111773"><ele>47.0</ele><time>2026-04-25T14:36:45.697Z</time></trkpt><trkpt lat="43.40675" lon="10.4110525"><ele>46.0</ele><time>2026-04-25T14:36:46.688Z</time></trkpt><trkpt lat="43.4067366" lon="10.4109274"><ele>45.0</ele><time>2026-04-25T14:36:47.69Z</time></trkpt><trkpt lat="43.4067464" lon="10.4108247"><ele>44.0</ele><time>2026-04-25T14:36:48.687Z</time></trkpt><trkpt lat="43.4067851" lon="10.4107436"><ele>43.0</ele><time>2026-04-25T14:36:49.684Z</time></trkpt><trkpt lat="43.4069029" lon="10.410567"><ele>42.0</ele><time>2026-04-25T14:36:51.69Z</time></trkpt><trkpt lat="43.4069655" lon="10.4104848"><ele>41.5</ele><time>2026-04-25T14:36:52.682Z</time></trkpt><trkpt lat="43.4070162" lon="10.4104132"><ele>41.0</ele><time>2026-04-25T14:36:53.692Z</time></trkpt><trkpt lat="43.4070655" lon="10.4103397"><ele>40.5</ele><time>2026-04-25T14:36:54.686Z</time></trkpt><trkpt lat="43.4071093" lon="10.4102683"><ele>40.0</ele><time>2026-04-25T14:36:55.686Z</time></trkpt><trkpt lat="43.4071487" lon="10.410199"><ele>39.5</ele><time>2026-04-25T14:36:56.684Z</time></trkpt><trkpt lat="43.4072105" lon="10.4101113"><ele>39.0</ele><time>2026-04-25T14:36:58.69Z</time></trkpt><trkpt lat="43.4072747" lon="10.4100291"><ele>39.0</ele><time>2026-04-25T14:37:02.685Z</time></trkpt><trkpt lat="43.4073546" lon="10.4099116"><ele>39.0</ele><time>2026-04-25T14:37:05.683Z</time></trkpt><trkpt lat="43.4074333" lon="10.409797"><ele>39.0</ele><time>2026-04-25T14:37:07.68Z</time></trkpt><trkpt lat="43.407505" lon="10.4097006"><ele>39.0</ele><time>2026-04-25T14:37:09.691Z</time></trkpt><trkpt lat="43.4075875" lon="10.4095838"><ele>37.0</ele><time>2026-04-25T14:37:11.686Z</time></trkpt><trkpt lat="43.407712" lon="10.4094289"><ele>35.0</ele><time>2026-04-25T14:37:14.684Z</time></trkpt><trkpt lat="43.4077678" lon="10.4093483"><ele>33.0</ele><time>2026-04-25T14:37:16.683Z</time></trkpt><trkpt lat="43.4078415" lon="10.4092536"><ele>31.0</ele><time>2026-04-25T14:37:18.679Z</time></trkpt><trkpt lat="43.4079212" lon="10.4091597"><ele>31.000000000000004</ele><time>2026-04-25T14:37:20.68Z</time></trkpt><trkpt lat="43.4079875" lon="10.4090711"><ele>31.0</ele><time>2026-04-25T14:37:22.687Z</time></trkpt><trkpt lat="43.4080493" lon="10.4089996"><ele>31.0</ele><time>2026-04-25T14:37:24.687Z</time></trkpt><trkpt lat="43.4080924" lon="10.4089257"><ele>31.0</ele><time>2026-04-25T14:37:26.693Z</time></trkpt><trkpt lat="43.4080986" lon="10.408823"><ele>31.000000000000004</ele><time>2026-04-25T14:37:29.689Z</time></trkpt><trkpt lat="43.408074" lon="10.4086917"><ele>31.0</ele><time>2026-04-25T14:37:31.68Z</time></trkpt><trkpt lat="43.4080463" lon="10.4084862"><ele>29.8</ele><time>2026-04-25T14:37:34.683Z</time></trkpt><trkpt lat="43.4080177" lon="10.4082687"><ele>28.6</ele><time>2026-04-25T14:37:40.681Z</time></trkpt><trkpt lat="43.4079995" lon="10.4081558"><ele>27.4</ele><time>2026-04-25T14:37:43.677Z</time></trkpt><trkpt lat="43.4079797" lon="10.4080631"><ele>26.2</ele><time>2026-04-25T14:37:48.658Z</time></trkpt><trkpt lat="43.4078942" lon="10.4080263"><ele>25.0</ele><time>2026-04-25T14:37:51.668Z</time></trkpt><trkpt lat="43.4078139" lon="10.4080647"><ele>24.0</ele><time>2026-04-25T14:37:52.674Z</time></trkpt><trkpt lat="43.4077076" lon="10.4081229"><ele>23.0</ele><time>2026-04-25T14:37:53.671Z</time></trkpt><trkpt lat="43.4075733" lon="10.4082004"><ele>22.0</ele><time>2026-04-25T14:37:54.658Z</time></trkpt><trkpt lat="43.4074314" lon="10.40827"><ele>21.0</ele><time>2026-04-25T14:37:55.659Z</time></trkpt><trkpt lat="43.4071962" lon="10.4084142"><ele>20.6</ele><time>2026-04-25T14:37:57.655Z</time></trkpt><trkpt lat="43.4071012" lon="10.4084796"><ele>20.200000000000003</ele><time>2026-04-25T14:37:58.656Z</time></trkpt><trkpt lat="43.4070167" lon="10.4085391"><ele>19.799999999999997</ele><time>2026-04-25T14:37:59.652Z</time></trkpt><trkpt lat="43.4069321" lon="10.4085994"><ele>19.4</ele><time>2026-04-25T14:38:00.653Z</time></trkpt><trkpt lat="43.40685" lon="10.4086664"><ele>19.0</ele><time>2026-04-25T14:38:01.655Z</time></trkpt><trkpt lat="43.406777" lon="10.408735"><ele>19.0</ele><time>2026-04-25T14:38:02.655Z</time></trkpt><trkpt lat="43.4067104" lon="10.4087933"><ele>19.0</ele><time>2026-04-25T14:38:03.655Z</time></trkpt><trkpt lat="43.4066503" lon="10.4088448"><ele>19.0</ele><time>2026-04-25T14:38:04.658Z</time></trkpt><trkpt lat="43.4065486" lon="10.4089507"><ele>19.0</ele><time>2026-04-25T14:38:06.649Z</time></trkpt><trkpt lat="43.4064522" lon="10.4089889"><ele>19.0</ele><time>2026-04-25T14:38:08.667Z</time></trkpt><trkpt lat="43.4063677" lon="10.408981"><ele>20.799999999999997</ele><time>2026-04-25T14:38:10.675Z</time></trkpt><trkpt lat="43.4062736" lon="10.4089625"><ele>22.599999999999998</ele><time>2026-04-25T14:38:12.678Z</time></trkpt><trkpt lat="43.406182" lon="10.4089569"><ele>24.4</ele><time>2026-04-25T14:38:14.672Z</time></trkpt><trkpt lat="43.4060991" lon="10.4089493"><ele>26.2</ele><time>2026-04-25T14:38:16.667Z</time></trkpt><trkpt lat="43.4059518" lon="10.4089755"><ele>28.0</ele><time>2026-04-25T14:38:21.674Z</time></trkpt><trkpt lat="43.4058964" lon="10.4090234"><ele>28.0</ele><time>2026-04-25T14:38:24.67Z</time></trkpt><trkpt lat="43.4058029" lon="10.4089849"><ele>28.0</ele><time>2026-04-25T14:38:33.673Z</time></trkpt><trkpt lat="43.4057574" lon="10.4089008"><ele>28.0</ele><time>2026-04-25T14:38:36.649Z</time></trkpt><trkpt lat="43.4056817" lon="10.4086586"><ele>28.0</ele><time>2026-04-25T14:38:40.667Z</time></trkpt><trkpt lat="43.4056485" lon="10.4085334"><ele>27.333333333333336</ele><time>2026-04-25T14:38:42.667Z</time></trkpt><trkpt lat="43.4056618" lon="10.4084389"><ele>26.666666666666668</ele><time>2026-04-25T14:38:44.666Z</time></trkpt><trkpt lat="43.4057403" lon="10.4083508"><ele>26.0</ele><time>2026-04-25T14:38:46.665Z</time></trkpt><trkpt lat="43.4058167" lon="10.4082848"><ele>25.333333333333336</ele><time>2026-04-25T14:38:48.673Z</time></trkpt><trkpt lat="43.405896" lon="10.408216"><ele>24.666666666666668</ele><time>2026-04-25T14:38:50.663Z</time></trkpt><trkpt lat="43.40596" lon="10.4081387"><ele>24.0</ele><time>2026-04-25T14:38:52.666Z</time></trkpt><trkpt lat="43.4060366" lon="10.4080747"><ele>24.0</ele><time>2026-04-25T14:38:55.652Z</time></trkpt><trkpt lat="43.4060983" lon="10.4080198"><ele>24.0</ele><time>2026-04-25T14:38:58.66Z</time></trkpt><trkpt lat="43.4062059" lon="10.4079107"><ele>18.0</ele><time>2026-04-25T14:39:43.661Z</time></trkpt></trkseg></trk></gpx>